<?xml version="1.0" encoding="UTF-8" standalone="no" ?>
<gpx xmlns="http://www.topografix.com/GPX/1/1" creator="www.cicloide.com" version="1.1" xmlns:xsi="http://www.w3.org/2001/XMLSchema-instance" xsi:schemaLocation="http://www.topografix.com/GPX/1/1 http://www.topografix.com/GPX/1/1/gpx.xsd">
  <trk>
    <name>www.cicloide.com 11308</name>
    <desc>www.cicloide.com 11308</desc>
    <trkseg>
      <trkpt lat="42.459000000" lon="-2.465479000">
        <ele>403.70</ele>
        <time>2012-11-24T08:59:22Z</time>
      </trkpt>
      <trkpt lat="42.458996000" lon="-2.465506000">
        <ele>403.70</ele>
        <time>2012-11-24T08:59:22Z</time>
      </trkpt>
      <trkpt lat="42.459022000" lon="-2.465543000">
        <ele>403.70</ele>
        <time>2012-11-24T08:59:29Z</time>
      </trkpt>
      <trkpt lat="42.458984000" lon="-2.465337000">
        <ele>403.70</ele>
        <time>2012-11-24T08:59:47Z</time>
      </trkpt>
      <trkpt lat="42.459003000" lon="-2.465398000">
        <ele>403.70</ele>
        <time>2012-11-24T08:59:54Z</time>
      </trkpt>
      <trkpt lat="42.459008000" lon="-2.465401000">
        <ele>403.70</ele>
        <time>2012-11-24T09:00:01Z</time>
      </trkpt>
      <trkpt lat="42.459008000" lon="-2.465404000">
        <ele>403.70</ele>
        <time>2012-11-24T09:00:01Z</time>
      </trkpt>
      <trkpt lat="42.459010000" lon="-2.465403000">
        <ele>403.70</ele>
        <time>2012-11-24T09:00:04Z</time>
      </trkpt>
      <trkpt lat="42.459008000" lon="-2.465394000">
        <ele>403.70</ele>
        <time>2012-11-24T09:00:09Z</time>
      </trkpt>
      <trkpt lat="42.459010000" lon="-2.465396000">
        <ele>403.70</ele>
        <time>2012-11-24T09:00:11Z</time>
      </trkpt>
      <trkpt lat="42.459010000" lon="-2.465394000">
        <ele>403.70</ele>
        <time>2012-11-24T09:00:11Z</time>
      </trkpt>
      <trkpt lat="42.459008000" lon="-2.465393000">
        <ele>403.70</ele>
        <time>2012-11-24T09:00:13Z</time>
      </trkpt>
      <trkpt lat="42.459003000" lon="-2.465376000">
        <ele>403.70</ele>
        <time>2012-11-24T09:00:20Z</time>
      </trkpt>
      <trkpt lat="42.458987000" lon="-2.465342000">
        <ele>403.70</ele>
        <time>2012-11-24T09:00:25Z</time>
      </trkpt>
      <trkpt lat="42.458985000" lon="-2.465333000">
        <ele>403.70</ele>
        <time>2012-11-24T09:00:27Z</time>
      </trkpt>
      <trkpt lat="42.458983000" lon="-2.465326000">
        <ele>403.70</ele>
        <time>2012-11-24T09:00:27Z</time>
      </trkpt>
      <trkpt lat="42.458981000" lon="-2.465323000">
        <ele>403.70</ele>
        <time>2012-11-24T09:00:29Z</time>
      </trkpt>
      <trkpt lat="42.458981000" lon="-2.465319000">
        <ele>403.70</ele>
        <time>2012-11-24T09:00:30Z</time>
      </trkpt>
      <trkpt lat="42.458983000" lon="-2.465319000">
        <ele>403.70</ele>
        <time>2012-11-24T09:00:30Z</time>
      </trkpt>
      <trkpt lat="42.458981000" lon="-2.465318000">
        <ele>403.70</ele>
        <time>2012-11-24T09:00:32Z</time>
      </trkpt>
      <trkpt lat="42.458980000" lon="-2.465314000">
        <ele>403.70</ele>
        <time>2012-11-24T09:00:32Z</time>
      </trkpt>
      <trkpt lat="42.458976000" lon="-2.465311000">
        <ele>403.70</ele>
        <time>2012-11-24T09:00:34Z</time>
      </trkpt>
      <trkpt lat="42.458971000" lon="-2.465289000">
        <ele>403.70</ele>
        <time>2012-11-24T09:00:37Z</time>
      </trkpt>
      <trkpt lat="42.458970000" lon="-2.465283000">
        <ele>403.70</ele>
        <time>2012-11-24T09:00:37Z</time>
      </trkpt>
      <trkpt lat="42.458968000" lon="-2.465278000">
        <ele>403.70</ele>
        <time>2012-11-24T09:00:39Z</time>
      </trkpt>
      <trkpt lat="42.458968000" lon="-2.465273000">
        <ele>403.70</ele>
        <time>2012-11-24T09:00:39Z</time>
      </trkpt>
      <trkpt lat="42.458965000" lon="-2.465266000">
        <ele>403.70</ele>
        <time>2012-11-24T09:00:41Z</time>
      </trkpt>
      <trkpt lat="42.458965000" lon="-2.465258000">
        <ele>403.70</ele>
        <time>2012-11-24T09:00:44Z</time>
      </trkpt>
      <trkpt lat="42.458963000" lon="-2.465253000">
        <ele>403.70</ele>
        <time>2012-11-24T09:00:44Z</time>
      </trkpt>
      <trkpt lat="42.458963000" lon="-2.465246000">
        <ele>403.70</ele>
        <time>2012-11-24T09:00:46Z</time>
      </trkpt>
      <trkpt lat="42.458961000" lon="-2.465244000">
        <ele>403.70</ele>
        <time>2012-11-24T09:00:48Z</time>
      </trkpt>
      <trkpt lat="42.458961000" lon="-2.465239000">
        <ele>403.70</ele>
        <time>2012-11-24T09:00:49Z</time>
      </trkpt>
      <trkpt lat="42.458956000" lon="-2.465249000">
        <ele>403.70</ele>
        <time>2012-11-24T09:00:55Z</time>
      </trkpt>
      <trkpt lat="42.458955000" lon="-2.465258000">
        <ele>403.70</ele>
        <time>2012-11-24T09:00:56Z</time>
      </trkpt>
      <trkpt lat="42.458950000" lon="-2.465268000">
        <ele>403.70</ele>
        <time>2012-11-24T09:01:02Z</time>
      </trkpt>
      <trkpt lat="42.458950000" lon="-2.465266000">
        <ele>403.70</ele>
        <time>2012-11-24T09:01:02Z</time>
      </trkpt>
      <trkpt lat="42.458950000" lon="-2.465268000">
        <ele>403.70</ele>
        <time>2012-11-24T09:01:03Z</time>
      </trkpt>
      <trkpt lat="42.458948000" lon="-2.465269000">
        <ele>403.70</ele>
        <time>2012-11-24T09:01:05Z</time>
      </trkpt>
      <trkpt lat="42.458948000" lon="-2.465274000">
        <ele>403.70</ele>
        <time>2012-11-24T09:01:07Z</time>
      </trkpt>
      <trkpt lat="42.458946000" lon="-2.465276000">
        <ele>403.70</ele>
        <time>2012-11-24T09:01:09Z</time>
      </trkpt>
      <trkpt lat="42.458946000" lon="-2.465274000">
        <ele>403.70</ele>
        <time>2012-11-24T09:01:14Z</time>
      </trkpt>
      <trkpt lat="42.458948000" lon="-2.465273000">
        <ele>403.70</ele>
        <time>2012-11-24T09:01:16Z</time>
      </trkpt>
      <trkpt lat="42.458948000" lon="-2.465268000">
        <ele>403.70</ele>
        <time>2012-11-24T09:01:19Z</time>
      </trkpt>
      <trkpt lat="42.458950000" lon="-2.465268000">
        <ele>403.70</ele>
        <time>2012-11-24T09:01:19Z</time>
      </trkpt>
      <trkpt lat="42.458948000" lon="-2.465269000">
        <ele>403.70</ele>
        <time>2012-11-24T09:01:21Z</time>
      </trkpt>
      <trkpt lat="42.458948000" lon="-2.465274000">
        <ele>403.70</ele>
        <time>2012-11-24T09:01:26Z</time>
      </trkpt>
      <trkpt lat="42.458946000" lon="-2.465278000">
        <ele>403.70</ele>
        <time>2012-11-24T09:01:28Z</time>
      </trkpt>
      <trkpt lat="42.458945000" lon="-2.465293000">
        <ele>403.70</ele>
        <time>2012-11-24T09:01:29Z</time>
      </trkpt>
      <trkpt lat="42.458943000" lon="-2.465301000">
        <ele>403.70</ele>
        <time>2012-11-24T09:01:31Z</time>
      </trkpt>
      <trkpt lat="42.458941000" lon="-2.465309000">
        <ele>403.70</ele>
        <time>2012-11-24T09:01:31Z</time>
      </trkpt>
      <trkpt lat="42.458938000" lon="-2.465318000">
        <ele>403.70</ele>
        <time>2012-11-24T09:01:33Z</time>
      </trkpt>
      <trkpt lat="42.458938000" lon="-2.465324000">
        <ele>403.70</ele>
        <time>2012-11-24T09:01:33Z</time>
      </trkpt>
      <trkpt lat="42.458933000" lon="-2.465338000">
        <ele>403.70</ele>
        <time>2012-11-24T09:01:35Z</time>
      </trkpt>
      <trkpt lat="42.458925000" lon="-2.465383000">
        <ele>403.70</ele>
        <time>2012-11-24T09:01:42Z</time>
      </trkpt>
      <trkpt lat="42.458921000" lon="-2.465393000">
        <ele>403.70</ele>
        <time>2012-11-24T09:01:43Z</time>
      </trkpt>
      <trkpt lat="42.458918000" lon="-2.465408000">
        <ele>403.70</ele>
        <time>2012-11-24T09:01:45Z</time>
      </trkpt>
      <trkpt lat="42.458918000" lon="-2.465414000">
        <ele>403.70</ele>
        <time>2012-11-24T09:01:47Z</time>
      </trkpt>
      <trkpt lat="42.458920000" lon="-2.465411000">
        <ele>403.70</ele>
        <time>2012-11-24T09:01:49Z</time>
      </trkpt>
      <trkpt lat="42.458933000" lon="-2.465363000">
        <ele>403.70</ele>
        <time>2012-11-24T09:01:57Z</time>
      </trkpt>
      <trkpt lat="42.458936000" lon="-2.465339000">
        <ele>403.70</ele>
        <time>2012-11-24T09:02:01Z</time>
      </trkpt>
      <trkpt lat="42.458945000" lon="-2.465313000">
        <ele>403.70</ele>
        <time>2012-11-24T09:02:06Z</time>
      </trkpt>
      <trkpt lat="42.458946000" lon="-2.465308000">
        <ele>403.70</ele>
        <time>2012-11-24T09:02:08Z</time>
      </trkpt>
      <trkpt lat="42.458951000" lon="-2.465291000">
        <ele>403.70</ele>
        <time>2012-11-24T09:02:11Z</time>
      </trkpt>
      <trkpt lat="42.458955000" lon="-2.465283000">
        <ele>403.70</ele>
        <time>2012-11-24T09:02:13Z</time>
      </trkpt>
      <trkpt lat="42.458956000" lon="-2.465274000">
        <ele>403.70</ele>
        <time>2012-11-24T09:02:15Z</time>
      </trkpt>
      <trkpt lat="42.458958000" lon="-2.465269000">
        <ele>403.70</ele>
        <time>2012-11-24T09:02:17Z</time>
      </trkpt>
      <trkpt lat="42.458960000" lon="-2.465268000">
        <ele>403.70</ele>
        <time>2012-11-24T09:02:18Z</time>
      </trkpt>
      <trkpt lat="42.458961000" lon="-2.465243000">
        <ele>403.70</ele>
        <time>2012-11-24T09:02:27Z</time>
      </trkpt>
      <trkpt lat="42.458965000" lon="-2.465236000">
        <ele>403.70</ele>
        <time>2012-11-24T09:02:29Z</time>
      </trkpt>
      <trkpt lat="42.458966000" lon="-2.465231000">
        <ele>403.70</ele>
        <time>2012-11-24T09:02:30Z</time>
      </trkpt>
      <trkpt lat="42.458971000" lon="-2.465226000">
        <ele>403.70</ele>
        <time>2012-11-24T09:02:34Z</time>
      </trkpt>
      <trkpt lat="42.458973000" lon="-2.465216000">
        <ele>403.70</ele>
        <time>2012-11-24T09:02:36Z</time>
      </trkpt>
      <trkpt lat="42.458973000" lon="-2.465213000">
        <ele>403.70</ele>
        <time>2012-11-24T09:02:36Z</time>
      </trkpt>
      <trkpt lat="42.458976000" lon="-2.465201000">
        <ele>403.70</ele>
        <time>2012-11-24T09:02:41Z</time>
      </trkpt>
      <trkpt lat="42.458983000" lon="-2.465186000">
        <ele>403.70</ele>
        <time>2012-11-24T09:02:50Z</time>
      </trkpt>
      <trkpt lat="42.458980000" lon="-2.465176000">
        <ele>403.70</ele>
        <time>2012-11-24T09:03:02Z</time>
      </trkpt>
      <trkpt lat="42.458976000" lon="-2.465173000">
        <ele>403.70</ele>
        <time>2012-11-24T09:03:05Z</time>
      </trkpt>
      <trkpt lat="42.458975000" lon="-2.465169000">
        <ele>403.70</ele>
        <time>2012-11-24T09:03:09Z</time>
      </trkpt>
      <trkpt lat="42.458973000" lon="-2.465168000">
        <ele>403.70</ele>
        <time>2012-11-24T09:03:14Z</time>
      </trkpt>
      <trkpt lat="42.458973000" lon="-2.465169000">
        <ele>403.70</ele>
        <time>2012-11-24T09:03:16Z</time>
      </trkpt>
      <trkpt lat="42.458971000" lon="-2.465168000">
        <ele>403.70</ele>
        <time>2012-11-24T09:03:21Z</time>
      </trkpt>
      <trkpt lat="42.458971000" lon="-2.465168000">
        <ele>403.70</ele>
        <time>2012-11-24T09:03:21Z</time>
      </trkpt>
      <trkpt lat="42.458971000" lon="-2.465171000">
        <ele>403.70</ele>
        <time>2012-11-24T09:03:26Z</time>
      </trkpt>
      <trkpt lat="42.458975000" lon="-2.465184000">
        <ele>403.70</ele>
        <time>2012-11-24T09:03:28Z</time>
      </trkpt>
      <trkpt lat="42.458971000" lon="-2.465183000">
        <ele>403.70</ele>
        <time>2012-11-24T09:03:37Z</time>
      </trkpt>
      <trkpt lat="42.458971000" lon="-2.465181000">
        <ele>403.70</ele>
        <time>2012-11-24T09:03:38Z</time>
      </trkpt>
      <trkpt lat="42.458968000" lon="-2.465181000">
        <ele>403.70</ele>
        <time>2012-11-24T09:03:45Z</time>
      </trkpt>
      <trkpt lat="42.458968000" lon="-2.465179000">
        <ele>403.70</ele>
        <time>2012-11-24T09:03:47Z</time>
      </trkpt>
      <trkpt lat="42.458941000" lon="-2.465176000">
        <ele>403.70</ele>
        <time>2012-11-24T09:03:51Z</time>
      </trkpt>
      <trkpt lat="42.458941000" lon="-2.465176000">
        <ele>403.70</ele>
        <time>2012-11-24T09:03:52Z</time>
      </trkpt>
      <trkpt lat="42.458960000" lon="-2.465191000">
        <ele>403.70</ele>
        <time>2012-11-24T09:03:56Z</time>
      </trkpt>
      <trkpt lat="42.458971000" lon="-2.465203000">
        <ele>403.70</ele>
        <time>2012-11-24T09:03:56Z</time>
      </trkpt>
      <trkpt lat="42.458970000" lon="-2.465211000">
        <ele>403.70</ele>
        <time>2012-11-24T09:03:59Z</time>
      </trkpt>
      <trkpt lat="42.458975000" lon="-2.465213000">
        <ele>403.70</ele>
        <time>2012-11-24T09:04:01Z</time>
      </trkpt>
      <trkpt lat="42.458978000" lon="-2.465213000">
        <ele>403.70</ele>
        <time>2012-11-24T09:04:01Z</time>
      </trkpt>
      <trkpt lat="42.458978000" lon="-2.465211000">
        <ele>403.70</ele>
        <time>2012-11-24T09:04:03Z</time>
      </trkpt>
      <trkpt lat="42.458983000" lon="-2.465211000">
        <ele>403.70</ele>
        <time>2012-11-24T09:04:03Z</time>
      </trkpt>
      <trkpt lat="42.459000000" lon="-2.465216000">
        <ele>403.70</ele>
        <time>2012-11-24T09:04:06Z</time>
      </trkpt>
      <trkpt lat="42.459005000" lon="-2.465216000">
        <ele>403.70</ele>
        <time>2012-11-24T09:04:08Z</time>
      </trkpt>
      <trkpt lat="42.459008000" lon="-2.465218000">
        <ele>403.70</ele>
        <time>2012-11-24T09:04:08Z</time>
      </trkpt>
      <trkpt lat="42.459011000" lon="-2.465216000">
        <ele>403.70</ele>
        <time>2012-11-24T09:04:10Z</time>
      </trkpt>
      <trkpt lat="42.459015000" lon="-2.465216000">
        <ele>403.70</ele>
        <time>2012-11-24T09:04:10Z</time>
      </trkpt>
      <trkpt lat="42.459016000" lon="-2.465224000">
        <ele>403.70</ele>
        <time>2012-11-24T09:04:13Z</time>
      </trkpt>
      <trkpt lat="42.459018000" lon="-2.465224000">
        <ele>403.70</ele>
        <time>2012-11-24T09:04:13Z</time>
      </trkpt>
      <trkpt lat="42.459018000" lon="-2.465226000">
        <ele>403.70</ele>
        <time>2012-11-24T09:04:15Z</time>
      </trkpt>
      <trkpt lat="42.459016000" lon="-2.465239000">
        <ele>403.70</ele>
        <time>2012-11-24T09:04:17Z</time>
      </trkpt>
      <trkpt lat="42.459011000" lon="-2.465251000">
        <ele>403.70</ele>
        <time>2012-11-24T09:04:18Z</time>
      </trkpt>
      <trkpt lat="42.459020000" lon="-2.465213000">
        <ele>403.70</ele>
        <time>2012-11-24T09:04:22Z</time>
      </trkpt>
      <trkpt lat="42.459021000" lon="-2.465201000">
        <ele>403.70</ele>
        <time>2012-11-24T09:04:24Z</time>
      </trkpt>
      <trkpt lat="42.459018000" lon="-2.465201000">
        <ele>403.70</ele>
        <time>2012-11-24T09:04:24Z</time>
      </trkpt>
      <trkpt lat="42.459018000" lon="-2.465198000">
        <ele>403.70</ele>
        <time>2012-11-24T09:04:25Z</time>
      </trkpt>
      <trkpt lat="42.459015000" lon="-2.465194000">
        <ele>403.70</ele>
        <time>2012-11-24T09:04:27Z</time>
      </trkpt>
      <trkpt lat="42.459010000" lon="-2.465191000">
        <ele>403.70</ele>
        <time>2012-11-24T09:04:29Z</time>
      </trkpt>
      <trkpt lat="42.459006000" lon="-2.465191000">
        <ele>403.70</ele>
        <time>2012-11-24T09:04:31Z</time>
      </trkpt>
      <trkpt lat="42.458998000" lon="-2.465184000">
        <ele>403.70</ele>
        <time>2012-11-24T09:04:34Z</time>
      </trkpt>
      <trkpt lat="42.458995000" lon="-2.465179000">
        <ele>403.70</ele>
        <time>2012-11-24T09:04:36Z</time>
      </trkpt>
      <trkpt lat="42.458986000" lon="-2.465171000">
        <ele>403.70</ele>
        <time>2012-11-24T09:04:41Z</time>
      </trkpt>
      <trkpt lat="42.458985000" lon="-2.465168000">
        <ele>403.70</ele>
        <time>2012-11-24T09:04:43Z</time>
      </trkpt>
      <trkpt lat="42.458983000" lon="-2.465168000">
        <ele>403.70</ele>
        <time>2012-11-24T09:04:45Z</time>
      </trkpt>
      <trkpt lat="42.458978000" lon="-2.465163000">
        <ele>403.70</ele>
        <time>2012-11-24T09:04:48Z</time>
      </trkpt>
      <trkpt lat="42.458978000" lon="-2.465161000">
        <ele>403.70</ele>
        <time>2012-11-24T09:04:50Z</time>
      </trkpt>
      <trkpt lat="42.458976000" lon="-2.465161000">
        <ele>403.70</ele>
        <time>2012-11-24T09:04:50Z</time>
      </trkpt>
      <trkpt lat="42.458975000" lon="-2.465158000">
        <ele>403.70</ele>
        <time>2012-11-24T09:04:55Z</time>
      </trkpt>
      <trkpt lat="42.458936000" lon="-2.465138000">
        <ele>403.70</ele>
        <time>2012-11-24T09:05:25Z</time>
      </trkpt>
      <trkpt lat="42.458943000" lon="-2.465138000">
        <ele>403.70</ele>
        <time>2012-11-24T09:05:28Z</time>
      </trkpt>
      <trkpt lat="42.458945000" lon="-2.465136000">
        <ele>403.70</ele>
        <time>2012-11-24T09:05:28Z</time>
      </trkpt>
      <trkpt lat="42.458945000" lon="-2.465133000">
        <ele>403.70</ele>
        <time>2012-11-24T09:05:30Z</time>
      </trkpt>
      <trkpt lat="42.458948000" lon="-2.465133000">
        <ele>403.70</ele>
        <time>2012-11-24T09:05:30Z</time>
      </trkpt>
      <trkpt lat="42.458948000" lon="-2.465136000">
        <ele>403.70</ele>
        <time>2012-11-24T09:05:32Z</time>
      </trkpt>
      <trkpt lat="42.458946000" lon="-2.465138000">
        <ele>403.70</ele>
        <time>2012-11-24T09:05:33Z</time>
      </trkpt>
      <trkpt lat="42.458945000" lon="-2.465154000">
        <ele>403.70</ele>
        <time>2012-11-24T09:05:35Z</time>
      </trkpt>
      <trkpt lat="42.458946000" lon="-2.465168000">
        <ele>403.70</ele>
        <time>2012-11-24T09:05:37Z</time>
      </trkpt>
      <trkpt lat="42.458951000" lon="-2.465193000">
        <ele>403.70</ele>
        <time>2012-11-24T09:05:42Z</time>
      </trkpt>
      <trkpt lat="42.458950000" lon="-2.465238000">
        <ele>403.70</ele>
        <time>2012-11-24T09:05:47Z</time>
      </trkpt>
      <trkpt lat="42.458951000" lon="-2.465246000">
        <ele>403.70</ele>
        <time>2012-11-24T09:05:49Z</time>
      </trkpt>
      <trkpt lat="42.458953000" lon="-2.465248000">
        <ele>403.70</ele>
        <time>2012-11-24T09:05:51Z</time>
      </trkpt>
      <trkpt lat="42.458950000" lon="-2.465249000">
        <ele>403.70</ele>
        <time>2012-11-24T09:05:51Z</time>
      </trkpt>
      <trkpt lat="42.458936000" lon="-2.465248000">
        <ele>403.70</ele>
        <time>2012-11-24T09:05:54Z</time>
      </trkpt>
      <trkpt lat="42.458935000" lon="-2.465246000">
        <ele>403.70</ele>
        <time>2012-11-24T09:05:56Z</time>
      </trkpt>
      <trkpt lat="42.458936000" lon="-2.465244000">
        <ele>403.70</ele>
        <time>2012-11-24T09:05:56Z</time>
      </trkpt>
      <trkpt lat="42.458948000" lon="-2.465241000">
        <ele>403.70</ele>
        <time>2012-11-24T09:05:58Z</time>
      </trkpt>
      <trkpt lat="42.458965000" lon="-2.465238000">
        <ele>403.70</ele>
        <time>2012-11-24T09:05:58Z</time>
      </trkpt>
      <trkpt lat="42.458981000" lon="-2.465233000">
        <ele>403.70</ele>
        <time>2012-11-24T09:06:00Z</time>
      </trkpt>
      <trkpt lat="42.458998000" lon="-2.465228000">
        <ele>403.70</ele>
        <time>2012-11-24T09:06:01Z</time>
      </trkpt>
      <trkpt lat="42.459015000" lon="-2.465231000">
        <ele>403.70</ele>
        <time>2012-11-24T09:06:01Z</time>
      </trkpt>
      <trkpt lat="42.459031000" lon="-2.465228000">
        <ele>403.70</ele>
        <time>2012-11-24T09:06:03Z</time>
      </trkpt>
      <trkpt lat="42.459061000" lon="-2.465218000">
        <ele>403.70</ele>
        <time>2012-11-24T09:06:05Z</time>
      </trkpt>
      <trkpt lat="42.459071000" lon="-2.465219000">
        <ele>403.70</ele>
        <time>2012-11-24T09:06:05Z</time>
      </trkpt>
      <trkpt lat="42.459080000" lon="-2.465218000">
        <ele>403.70</ele>
        <time>2012-11-24T09:06:06Z</time>
      </trkpt>
      <trkpt lat="42.459093000" lon="-2.465214000">
        <ele>403.70</ele>
        <time>2012-11-24T09:06:08Z</time>
      </trkpt>
      <trkpt lat="42.459096000" lon="-2.465214000">
        <ele>403.70</ele>
        <time>2012-11-24T09:06:10Z</time>
      </trkpt>
      <trkpt lat="42.459103000" lon="-2.465214000">
        <ele>403.70</ele>
        <time>2012-11-24T09:06:13Z</time>
      </trkpt>
      <trkpt lat="42.459100000" lon="-2.465216000">
        <ele>403.70</ele>
        <time>2012-11-24T09:06:19Z</time>
      </trkpt>
      <trkpt lat="42.459100000" lon="-2.465218000">
        <ele>403.70</ele>
        <time>2012-11-24T09:06:20Z</time>
      </trkpt>
      <trkpt lat="42.459091000" lon="-2.465219000">
        <ele>403.70</ele>
        <time>2012-11-24T09:06:24Z</time>
      </trkpt>
      <trkpt lat="42.459081000" lon="-2.465219000">
        <ele>403.70</ele>
        <time>2012-11-24T09:06:29Z</time>
      </trkpt>
      <trkpt lat="42.459080000" lon="-2.465219000">
        <ele>403.70</ele>
        <time>2012-11-24T09:06:29Z</time>
      </trkpt>
      <trkpt lat="42.459055000" lon="-2.465219000">
        <ele>403.70</ele>
        <time>2012-11-24T09:06:43Z</time>
      </trkpt>
      <trkpt lat="42.459053000" lon="-2.465218000">
        <ele>403.70</ele>
        <time>2012-11-24T09:06:45Z</time>
      </trkpt>
      <trkpt lat="42.459051000" lon="-2.465218000">
        <ele>403.70</ele>
        <time>2012-11-24T09:06:45Z</time>
      </trkpt>
      <trkpt lat="42.459051000" lon="-2.465216000">
        <ele>403.70</ele>
        <time>2012-11-24T09:06:47Z</time>
      </trkpt>
      <trkpt lat="42.459050000" lon="-2.465218000">
        <ele>403.70</ele>
        <time>2012-11-24T09:06:48Z</time>
      </trkpt>
      <trkpt lat="42.459046000" lon="-2.465219000">
        <ele>403.70</ele>
        <time>2012-11-24T09:06:50Z</time>
      </trkpt>
      <trkpt lat="42.459046000" lon="-2.465211000">
        <ele>403.70</ele>
        <time>2012-11-24T09:06:52Z</time>
      </trkpt>
      <trkpt lat="42.459045000" lon="-2.465213000">
        <ele>403.70</ele>
        <time>2012-11-24T09:06:52Z</time>
      </trkpt>
      <trkpt lat="42.459043000" lon="-2.465213000">
        <ele>403.70</ele>
        <time>2012-11-24T09:06:54Z</time>
      </trkpt>
      <trkpt lat="42.459043000" lon="-2.465211000">
        <ele>403.70</ele>
        <time>2012-11-24T09:06:55Z</time>
      </trkpt>
      <trkpt lat="42.459041000" lon="-2.465213000">
        <ele>403.70</ele>
        <time>2012-11-24T09:06:57Z</time>
      </trkpt>
      <trkpt lat="42.459041000" lon="-2.465208000">
        <ele>403.70</ele>
        <time>2012-11-24T09:06:59Z</time>
      </trkpt>
      <trkpt lat="42.459045000" lon="-2.465198000">
        <ele>403.70</ele>
        <time>2012-11-24T09:07:00Z</time>
      </trkpt>
      <trkpt lat="42.459045000" lon="-2.465189000">
        <ele>403.70</ele>
        <time>2012-11-24T09:07:04Z</time>
      </trkpt>
      <trkpt lat="42.459041000" lon="-2.465191000">
        <ele>403.70</ele>
        <time>2012-11-24T09:07:06Z</time>
      </trkpt>
      <trkpt lat="42.459026000" lon="-2.465221000">
        <ele>403.70</ele>
        <time>2012-11-24T09:07:11Z</time>
      </trkpt>
      <trkpt lat="42.459023000" lon="-2.465228000">
        <ele>403.70</ele>
        <time>2012-11-24T09:07:11Z</time>
      </trkpt>
      <trkpt lat="42.459013000" lon="-2.465249000">
        <ele>403.70</ele>
        <time>2012-11-24T09:07:14Z</time>
      </trkpt>
      <trkpt lat="42.458995000" lon="-2.465299000">
        <ele>403.70</ele>
        <time>2012-11-24T09:07:18Z</time>
      </trkpt>
      <trkpt lat="42.458993000" lon="-2.465304000">
        <ele>403.70</ele>
        <time>2012-11-24T09:07:20Z</time>
      </trkpt>
      <trkpt lat="42.458988000" lon="-2.465314000">
        <ele>403.70</ele>
        <time>2012-11-24T09:07:21Z</time>
      </trkpt>
      <trkpt lat="42.458980000" lon="-2.465339000">
        <ele>403.70</ele>
        <time>2012-11-24T09:07:25Z</time>
      </trkpt>
      <trkpt lat="42.458970000" lon="-2.465359000">
        <ele>403.70</ele>
        <time>2012-11-24T09:07:30Z</time>
      </trkpt>
      <trkpt lat="42.458968000" lon="-2.465363000">
        <ele>403.70</ele>
        <time>2012-11-24T09:07:30Z</time>
      </trkpt>
      <trkpt lat="42.458968000" lon="-2.465364000">
        <ele>403.70</ele>
        <time>2012-11-24T09:07:32Z</time>
      </trkpt>
      <trkpt lat="42.458966000" lon="-2.465364000">
        <ele>403.70</ele>
        <time>2012-11-24T09:07:34Z</time>
      </trkpt>
      <trkpt lat="42.458968000" lon="-2.465363000">
        <ele>403.70</ele>
        <time>2012-11-24T09:07:37Z</time>
      </trkpt>
      <trkpt lat="42.458968000" lon="-2.465343000">
        <ele>403.70</ele>
        <time>2012-11-24T09:07:49Z</time>
      </trkpt>
      <trkpt lat="42.458971000" lon="-2.465343000">
        <ele>403.70</ele>
        <time>2012-11-24T09:07:51Z</time>
      </trkpt>
      <trkpt lat="42.458971000" lon="-2.465338000">
        <ele>403.70</ele>
        <time>2012-11-24T09:07:54Z</time>
      </trkpt>
      <trkpt lat="42.458973000" lon="-2.465336000">
        <ele>403.70</ele>
        <time>2012-11-24T09:07:56Z</time>
      </trkpt>
      <trkpt lat="42.458973000" lon="-2.465328000">
        <ele>403.70</ele>
        <time>2012-11-24T09:08:03Z</time>
      </trkpt>
      <trkpt lat="42.458975000" lon="-2.465326000">
        <ele>403.70</ele>
        <time>2012-11-24T09:08:03Z</time>
      </trkpt>
      <trkpt lat="42.458975000" lon="-2.465324000">
        <ele>403.70</ele>
        <time>2012-11-24T09:08:05Z</time>
      </trkpt>
      <trkpt lat="42.458973000" lon="-2.465323000">
        <ele>403.70</ele>
        <time>2012-11-24T09:08:05Z</time>
      </trkpt>
      <trkpt lat="42.458973000" lon="-2.465313000">
        <ele>403.70</ele>
        <time>2012-11-24T09:08:10Z</time>
      </trkpt>
      <trkpt lat="42.458971000" lon="-2.465311000">
        <ele>403.70</ele>
        <time>2012-11-24T09:08:12Z</time>
      </trkpt>
      <trkpt lat="42.458971000" lon="-2.465309000">
        <ele>403.70</ele>
        <time>2012-11-24T09:08:12Z</time>
      </trkpt>
      <trkpt lat="42.458970000" lon="-2.465298000">
        <ele>403.70</ele>
        <time>2012-11-24T09:08:19Z</time>
      </trkpt>
      <trkpt lat="42.458966000" lon="-2.465293000">
        <ele>403.70</ele>
        <time>2012-11-24T09:08:22Z</time>
      </trkpt>
      <trkpt lat="42.458965000" lon="-2.465286000">
        <ele>403.70</ele>
        <time>2012-11-24T09:08:24Z</time>
      </trkpt>
      <trkpt lat="42.458966000" lon="-2.465269000">
        <ele>403.70</ele>
        <time>2012-11-24T09:08:28Z</time>
      </trkpt>
      <trkpt lat="42.458971000" lon="-2.465253000">
        <ele>403.70</ele>
        <time>2012-11-24T09:08:31Z</time>
      </trkpt>
      <trkpt lat="42.458968000" lon="-2.465273000">
        <ele>403.70</ele>
        <time>2012-11-24T09:08:36Z</time>
      </trkpt>
      <trkpt lat="42.458966000" lon="-2.465276000">
        <ele>403.70</ele>
        <time>2012-11-24T09:08:38Z</time>
      </trkpt>
      <trkpt lat="42.458965000" lon="-2.465283000">
        <ele>403.70</ele>
        <time>2012-11-24T09:08:38Z</time>
      </trkpt>
      <trkpt lat="42.458961000" lon="-2.465288000">
        <ele>403.70</ele>
        <time>2012-11-24T09:08:40Z</time>
      </trkpt>
      <trkpt lat="42.458961000" lon="-2.465293000">
        <ele>403.70</ele>
        <time>2012-11-24T09:08:43Z</time>
      </trkpt>
      <trkpt lat="42.458958000" lon="-2.465301000">
        <ele>403.70</ele>
        <time>2012-11-24T09:08:45Z</time>
      </trkpt>
      <trkpt lat="42.458958000" lon="-2.465304000">
        <ele>403.70</ele>
        <time>2012-11-24T09:08:47Z</time>
      </trkpt>
      <trkpt lat="42.458961000" lon="-2.465309000">
        <ele>403.70</ele>
        <time>2012-11-24T09:08:48Z</time>
      </trkpt>
      <trkpt lat="42.458958000" lon="-2.465326000">
        <ele>403.70</ele>
        <time>2012-11-24T09:08:57Z</time>
      </trkpt>
      <trkpt lat="42.458956000" lon="-2.465326000">
        <ele>403.70</ele>
        <time>2012-11-24T09:08:59Z</time>
      </trkpt>
      <trkpt lat="42.458955000" lon="-2.465328000">
        <ele>403.70</ele>
        <time>2012-11-24T09:08:59Z</time>
      </trkpt>
      <trkpt lat="42.458946000" lon="-2.465333000">
        <ele>403.70</ele>
        <time>2012-11-24T09:09:01Z</time>
      </trkpt>
      <trkpt lat="42.458938000" lon="-2.465336000">
        <ele>403.70</ele>
        <time>2012-11-24T09:09:02Z</time>
      </trkpt>
      <trkpt lat="42.458928000" lon="-2.465338000">
        <ele>403.70</ele>
        <time>2012-11-24T09:09:04Z</time>
      </trkpt>
      <trkpt lat="42.458930000" lon="-2.465334000">
        <ele>403.70</ele>
        <time>2012-11-24T09:09:06Z</time>
      </trkpt>
      <trkpt lat="42.458920000" lon="-2.465339000">
        <ele>403.70</ele>
        <time>2012-11-24T09:09:09Z</time>
      </trkpt>
      <trkpt lat="42.458920000" lon="-2.465338000">
        <ele>403.70</ele>
        <time>2012-11-24T09:09:09Z</time>
      </trkpt>
      <trkpt lat="42.458920000" lon="-2.465341000">
        <ele>403.70</ele>
        <time>2012-11-24T09:09:11Z</time>
      </trkpt>
      <trkpt lat="42.458915000" lon="-2.465343000">
        <ele>403.70</ele>
        <time>2012-11-24T09:09:11Z</time>
      </trkpt>
      <trkpt lat="42.458910000" lon="-2.465339000">
        <ele>403.70</ele>
        <time>2012-11-24T09:09:13Z</time>
      </trkpt>
      <trkpt lat="42.458901000" lon="-2.465333000">
        <ele>403.70</ele>
        <time>2012-11-24T09:09:15Z</time>
      </trkpt>
      <trkpt lat="42.458896000" lon="-2.465333000">
        <ele>403.70</ele>
        <time>2012-11-24T09:09:16Z</time>
      </trkpt>
      <trkpt lat="42.458893000" lon="-2.465329000">
        <ele>403.70</ele>
        <time>2012-11-24T09:09:16Z</time>
      </trkpt>
      <trkpt lat="42.458888000" lon="-2.465326000">
        <ele>403.70</ele>
        <time>2012-11-24T09:09:18Z</time>
      </trkpt>
      <trkpt lat="42.458881000" lon="-2.465323000">
        <ele>403.70</ele>
        <time>2012-11-24T09:09:18Z</time>
      </trkpt>
      <trkpt lat="42.458873000" lon="-2.465319000">
        <ele>403.70</ele>
        <time>2012-11-24T09:09:20Z</time>
      </trkpt>
      <trkpt lat="42.458870000" lon="-2.465323000">
        <ele>403.70</ele>
        <time>2012-11-24T09:09:22Z</time>
      </trkpt>
      <trkpt lat="42.458865000" lon="-2.465323000">
        <ele>403.70</ele>
        <time>2012-11-24T09:09:23Z</time>
      </trkpt>
      <trkpt lat="42.458838000" lon="-2.465328000">
        <ele>403.70</ele>
        <time>2012-11-24T09:09:27Z</time>
      </trkpt>
      <trkpt lat="42.458833000" lon="-2.465334000">
        <ele>403.70</ele>
        <time>2012-11-24T09:09:30Z</time>
      </trkpt>
      <trkpt lat="42.458830000" lon="-2.465333000">
        <ele>403.70</ele>
        <time>2012-11-24T09:09:30Z</time>
      </trkpt>
      <trkpt lat="42.458828000" lon="-2.465334000">
        <ele>403.70</ele>
        <time>2012-11-24T09:09:32Z</time>
      </trkpt>
      <trkpt lat="42.458825000" lon="-2.465334000">
        <ele>403.70</ele>
        <time>2012-11-24T09:09:32Z</time>
      </trkpt>
      <trkpt lat="42.458823000" lon="-2.465338000">
        <ele>403.70</ele>
        <time>2012-11-24T09:09:34Z</time>
      </trkpt>
      <trkpt lat="42.458820000" lon="-2.465338000">
        <ele>403.70</ele>
        <time>2012-11-24T09:09:34Z</time>
      </trkpt>
      <trkpt lat="42.458796000" lon="-2.465351000">
        <ele>403.70</ele>
        <time>2012-11-24T09:09:35Z</time>
      </trkpt>
      <trkpt lat="42.458788000" lon="-2.465349000">
        <ele>403.80</ele>
        <time>2012-11-24T09:09:39Z</time>
      </trkpt>
      <trkpt lat="42.458776000" lon="-2.465341000">
        <ele>403.80</ele>
        <time>2012-11-24T09:09:42Z</time>
      </trkpt>
      <trkpt lat="42.458765000" lon="-2.465341000">
        <ele>403.90</ele>
        <time>2012-11-24T09:09:44Z</time>
      </trkpt>
      <trkpt lat="42.458738000" lon="-2.465359000">
        <ele>404.00</ele>
        <time>2012-11-24T09:09:53Z</time>
      </trkpt>
      <trkpt lat="42.458728000" lon="-2.465373000">
        <ele>404.00</ele>
        <time>2012-11-24T09:09:56Z</time>
      </trkpt>
      <trkpt lat="42.458726000" lon="-2.465373000">
        <ele>404.00</ele>
        <time>2012-11-24T09:09:58Z</time>
      </trkpt>
      <trkpt lat="42.458726000" lon="-2.465373000">
        <ele>404.00</ele>
        <time>2012-11-24T09:09:58Z</time>
      </trkpt>
      <trkpt lat="42.458721000" lon="-2.465374000">
        <ele>404.10</ele>
        <time>2012-11-24T09:10:02Z</time>
      </trkpt>
      <trkpt lat="42.458725000" lon="-2.465361000">
        <ele>404.10</ele>
        <time>2012-11-24T09:10:05Z</time>
      </trkpt>
      <trkpt lat="42.458730000" lon="-2.465353000">
        <ele>404.10</ele>
        <time>2012-11-24T09:10:07Z</time>
      </trkpt>
      <trkpt lat="42.458730000" lon="-2.465349000">
        <ele>404.10</ele>
        <time>2012-11-24T09:10:09Z</time>
      </trkpt>
      <trkpt lat="42.458731000" lon="-2.465344000">
        <ele>404.00</ele>
        <time>2012-11-24T09:10:10Z</time>
      </trkpt>
      <trkpt lat="42.458735000" lon="-2.465336000">
        <ele>404.00</ele>
        <time>2012-11-24T09:10:12Z</time>
      </trkpt>
      <trkpt lat="42.458738000" lon="-2.465323000">
        <ele>404.00</ele>
        <time>2012-11-24T09:10:16Z</time>
      </trkpt>
      <trkpt lat="42.458741000" lon="-2.465318000">
        <ele>404.00</ele>
        <time>2012-11-24T09:10:17Z</time>
      </trkpt>
      <trkpt lat="42.458736000" lon="-2.465324000">
        <ele>404.00</ele>
        <time>2012-11-24T09:10:19Z</time>
      </trkpt>
      <trkpt lat="42.458726000" lon="-2.465329000">
        <ele>404.00</ele>
        <time>2012-11-24T09:10:21Z</time>
      </trkpt>
      <trkpt lat="42.458733000" lon="-2.465333000">
        <ele>404.00</ele>
        <time>2012-11-24T09:10:24Z</time>
      </trkpt>
      <trkpt lat="42.458730000" lon="-2.465338000">
        <ele>404.00</ele>
        <time>2012-11-24T09:10:24Z</time>
      </trkpt>
      <trkpt lat="42.458725000" lon="-2.465336000">
        <ele>404.10</ele>
        <time>2012-11-24T09:10:26Z</time>
      </trkpt>
      <trkpt lat="42.458726000" lon="-2.465304000">
        <ele>404.10</ele>
        <time>2012-11-24T09:10:28Z</time>
      </trkpt>
      <trkpt lat="42.458723000" lon="-2.465276000">
        <ele>404.10</ele>
        <time>2012-11-24T09:10:28Z</time>
      </trkpt>
      <trkpt lat="42.458708000" lon="-2.465244000">
        <ele>404.10</ele>
        <time>2012-11-24T09:10:29Z</time>
      </trkpt>
      <trkpt lat="42.458698000" lon="-2.465208000">
        <ele>404.10</ele>
        <time>2012-11-24T09:10:31Z</time>
      </trkpt>
      <trkpt lat="42.458650000" lon="-2.464593000">
        <ele>404.30</ele>
        <time>2012-11-24T09:10:42Z</time>
      </trkpt>
      <trkpt lat="42.457793000" lon="-2.459688000">
        <ele>397.80</ele>
        <time>2012-11-24T09:12:05Z</time>
      </trkpt>
      <trkpt lat="42.457791000" lon="-2.459634000">
        <ele>397.80</ele>
        <time>2012-11-24T09:12:07Z</time>
      </trkpt>
      <trkpt lat="42.457555000" lon="-2.458444000">
        <ele>399.50</ele>
        <time>2012-11-24T09:12:30Z</time>
      </trkpt>
      <trkpt lat="42.457400000" lon="-2.457738000">
        <ele>398.70</ele>
        <time>2012-11-24T09:12:47Z</time>
      </trkpt>
      <trkpt lat="42.457378000" lon="-2.457561000">
        <ele>398.40</ele>
        <time>2012-11-24T09:12:51Z</time>
      </trkpt>
      <trkpt lat="42.457368000" lon="-2.457523000">
        <ele>398.30</ele>
        <time>2012-11-24T09:12:52Z</time>
      </trkpt>
      <trkpt lat="42.457331000" lon="-2.457464000">
        <ele>398.10</ele>
        <time>2012-11-24T09:12:54Z</time>
      </trkpt>
      <trkpt lat="42.457318000" lon="-2.457434000">
        <ele>398.10</ele>
        <time>2012-11-24T09:12:54Z</time>
      </trkpt>
      <trkpt lat="42.457295000" lon="-2.457336000">
        <ele>397.80</ele>
        <time>2012-11-24T09:12:58Z</time>
      </trkpt>
      <trkpt lat="42.457290000" lon="-2.457283000">
        <ele>397.70</ele>
        <time>2012-11-24T09:12:59Z</time>
      </trkpt>
      <trkpt lat="42.457291000" lon="-2.457271000">
        <ele>397.70</ele>
        <time>2012-11-24T09:13:01Z</time>
      </trkpt>
      <trkpt lat="42.457298000" lon="-2.457261000">
        <ele>397.60</ele>
        <time>2012-11-24T09:13:01Z</time>
      </trkpt>
      <trkpt lat="42.457303000" lon="-2.457254000">
        <ele>397.60</ele>
        <time>2012-11-24T09:13:03Z</time>
      </trkpt>
      <trkpt lat="42.457313000" lon="-2.457234000">
        <ele>397.60</ele>
        <time>2012-11-24T09:13:06Z</time>
      </trkpt>
      <trkpt lat="42.457315000" lon="-2.457228000">
        <ele>397.50</ele>
        <time>2012-11-24T09:13:06Z</time>
      </trkpt>
      <trkpt lat="42.457316000" lon="-2.457221000">
        <ele>397.50</ele>
        <time>2012-11-24T09:13:08Z</time>
      </trkpt>
      <trkpt lat="42.457320000" lon="-2.457213000">
        <ele>397.50</ele>
        <time>2012-11-24T09:13:08Z</time>
      </trkpt>
      <trkpt lat="42.457323000" lon="-2.457199000">
        <ele>397.50</ele>
        <time>2012-11-24T09:13:10Z</time>
      </trkpt>
      <trkpt lat="42.457345000" lon="-2.457113000">
        <ele>397.40</ele>
        <time>2012-11-24T09:13:13Z</time>
      </trkpt>
      <trkpt lat="42.457340000" lon="-2.457106000">
        <ele>397.30</ele>
        <time>2012-11-24T09:13:15Z</time>
      </trkpt>
      <trkpt lat="42.457331000" lon="-2.457101000">
        <ele>397.30</ele>
        <time>2012-11-24T09:13:17Z</time>
      </trkpt>
      <trkpt lat="42.457333000" lon="-2.457096000">
        <ele>397.30</ele>
        <time>2012-11-24T09:13:17Z</time>
      </trkpt>
      <trkpt lat="42.457348000" lon="-2.457089000">
        <ele>397.30</ele>
        <time>2012-11-24T09:13:18Z</time>
      </trkpt>
      <trkpt lat="42.457356000" lon="-2.457083000">
        <ele>397.30</ele>
        <time>2012-11-24T09:13:20Z</time>
      </trkpt>
      <trkpt lat="42.457373000" lon="-2.457078000">
        <ele>397.30</ele>
        <time>2012-11-24T09:13:22Z</time>
      </trkpt>
      <trkpt lat="42.457383000" lon="-2.457069000">
        <ele>397.30</ele>
        <time>2012-11-24T09:13:24Z</time>
      </trkpt>
      <trkpt lat="42.457386000" lon="-2.457068000">
        <ele>397.30</ele>
        <time>2012-11-24T09:13:25Z</time>
      </trkpt>
      <trkpt lat="42.457385000" lon="-2.457063000">
        <ele>397.30</ele>
        <time>2012-11-24T09:13:29Z</time>
      </trkpt>
      <trkpt lat="42.457375000" lon="-2.457059000">
        <ele>397.30</ele>
        <time>2012-11-24T09:13:32Z</time>
      </trkpt>
      <trkpt lat="42.457371000" lon="-2.457054000">
        <ele>397.30</ele>
        <time>2012-11-24T09:13:34Z</time>
      </trkpt>
      <trkpt lat="42.457368000" lon="-2.457051000">
        <ele>397.40</ele>
        <time>2012-11-24T09:13:34Z</time>
      </trkpt>
      <trkpt lat="42.457375000" lon="-2.457044000">
        <ele>397.40</ele>
        <time>2012-11-24T09:13:36Z</time>
      </trkpt>
      <trkpt lat="42.457383000" lon="-2.457039000">
        <ele>397.40</ele>
        <time>2012-11-24T09:13:36Z</time>
      </trkpt>
      <trkpt lat="42.457393000" lon="-2.457036000">
        <ele>397.40</ele>
        <time>2012-11-24T09:13:38Z</time>
      </trkpt>
      <trkpt lat="42.457421000" lon="-2.457021000">
        <ele>397.40</ele>
        <time>2012-11-24T09:13:41Z</time>
      </trkpt>
      <trkpt lat="42.457426000" lon="-2.457018000">
        <ele>397.50</ele>
        <time>2012-11-24T09:13:43Z</time>
      </trkpt>
      <trkpt lat="42.457430000" lon="-2.457009000">
        <ele>397.50</ele>
        <time>2012-11-24T09:13:45Z</time>
      </trkpt>
      <trkpt lat="42.457433000" lon="-2.457009000">
        <ele>397.50</ele>
        <time>2012-11-24T09:13:46Z</time>
      </trkpt>
      <trkpt lat="42.457421000" lon="-2.457013000">
        <ele>397.50</ele>
        <time>2012-11-24T09:13:48Z</time>
      </trkpt>
      <trkpt lat="42.457421000" lon="-2.457011000">
        <ele>397.50</ele>
        <time>2012-11-24T09:13:48Z</time>
      </trkpt>
      <trkpt lat="42.457421000" lon="-2.457013000">
        <ele>397.50</ele>
        <time>2012-11-24T09:13:50Z</time>
      </trkpt>
      <trkpt lat="42.457418000" lon="-2.457014000">
        <ele>397.50</ele>
        <time>2012-11-24T09:13:50Z</time>
      </trkpt>
      <trkpt lat="42.457411000" lon="-2.457008000">
        <ele>397.50</ele>
        <time>2012-11-24T09:13:52Z</time>
      </trkpt>
      <trkpt lat="42.457406000" lon="-2.456996000">
        <ele>397.50</ele>
        <time>2012-11-24T09:13:53Z</time>
      </trkpt>
      <trkpt lat="42.457395000" lon="-2.456946000">
        <ele>397.50</ele>
        <time>2012-11-24T09:13:55Z</time>
      </trkpt>
      <trkpt lat="42.457376000" lon="-2.456846000">
        <ele>397.70</ele>
        <time>2012-11-24T09:13:57Z</time>
      </trkpt>
      <trkpt lat="42.457356000" lon="-2.456776000">
        <ele>397.80</ele>
        <time>2012-11-24T09:14:00Z</time>
      </trkpt>
      <trkpt lat="42.457358000" lon="-2.456741000">
        <ele>397.90</ele>
        <time>2012-11-24T09:14:00Z</time>
      </trkpt>
      <trkpt lat="42.457366000" lon="-2.456708000">
        <ele>397.90</ele>
        <time>2012-11-24T09:14:02Z</time>
      </trkpt>
      <trkpt lat="42.457390000" lon="-2.456639000">
        <ele>398.10</ele>
        <time>2012-11-24T09:14:04Z</time>
      </trkpt>
      <trkpt lat="42.457396000" lon="-2.456603000">
        <ele>398.10</ele>
        <time>2012-11-24T09:14:04Z</time>
      </trkpt>
      <trkpt lat="42.457398000" lon="-2.456564000">
        <ele>398.20</ele>
        <time>2012-11-24T09:14:06Z</time>
      </trkpt>
      <trkpt lat="42.457233000" lon="-2.456128000">
        <ele>399.20</ele>
        <time>2012-11-24T09:14:16Z</time>
      </trkpt>
      <trkpt lat="42.457213000" lon="-2.456089000">
        <ele>399.20</ele>
        <time>2012-11-24T09:14:18Z</time>
      </trkpt>
      <trkpt lat="42.457158000" lon="-2.455924000">
        <ele>399.30</ele>
        <time>2012-11-24T09:14:21Z</time>
      </trkpt>
      <trkpt lat="42.457131000" lon="-2.455801000">
        <ele>399.30</ele>
        <time>2012-11-24T09:14:25Z</time>
      </trkpt>
      <trkpt lat="42.456761000" lon="-2.454151000">
        <ele>394.60</ele>
        <time>2012-11-24T09:15:01Z</time>
      </trkpt>
      <trkpt lat="42.456750000" lon="-2.454056000">
        <ele>394.30</ele>
        <time>2012-11-24T09:15:03Z</time>
      </trkpt>
      <trkpt lat="42.456738000" lon="-2.454009000">
        <ele>394.10</ele>
        <time>2012-11-24T09:15:05Z</time>
      </trkpt>
      <trkpt lat="42.456695000" lon="-2.453676000">
        <ele>393.20</ele>
        <time>2012-11-24T09:15:12Z</time>
      </trkpt>
      <trkpt lat="42.456663000" lon="-2.453536000">
        <ele>393.00</ele>
        <time>2012-11-24T09:15:15Z</time>
      </trkpt>
      <trkpt lat="42.456525000" lon="-2.452534000">
        <ele>392.90</ele>
        <time>2012-11-24T09:15:38Z</time>
      </trkpt>
      <trkpt lat="42.456520000" lon="-2.452514000">
        <ele>392.90</ele>
        <time>2012-11-24T09:15:38Z</time>
      </trkpt>
      <trkpt lat="42.456486000" lon="-2.452419000">
        <ele>392.90</ele>
        <time>2012-11-24T09:15:43Z</time>
      </trkpt>
      <trkpt lat="42.456485000" lon="-2.452409000">
        <ele>392.90</ele>
        <time>2012-11-24T09:15:45Z</time>
      </trkpt>
      <trkpt lat="42.456486000" lon="-2.452403000">
        <ele>393.00</ele>
        <time>2012-11-24T09:15:45Z</time>
      </trkpt>
      <trkpt lat="42.456486000" lon="-2.452384000">
        <ele>393.00</ele>
        <time>2012-11-24T09:15:55Z</time>
      </trkpt>
      <trkpt lat="42.456485000" lon="-2.452373000">
        <ele>393.00</ele>
        <time>2012-11-24T09:15:59Z</time>
      </trkpt>
      <trkpt lat="42.456481000" lon="-2.452359000">
        <ele>393.00</ele>
        <time>2012-11-24T09:16:00Z</time>
      </trkpt>
      <trkpt lat="42.456483000" lon="-2.452308000">
        <ele>393.00</ele>
        <time>2012-11-24T09:16:02Z</time>
      </trkpt>
      <trkpt lat="42.456390000" lon="-2.451619000">
        <ele>392.80</ele>
        <time>2012-11-24T09:16:18Z</time>
      </trkpt>
      <trkpt lat="42.456371000" lon="-2.451583000">
        <ele>392.80</ele>
        <time>2012-11-24T09:16:18Z</time>
      </trkpt>
      <trkpt lat="42.456343000" lon="-2.451554000">
        <ele>392.70</ele>
        <time>2012-11-24T09:16:20Z</time>
      </trkpt>
      <trkpt lat="42.456246000" lon="-2.451491000">
        <ele>392.40</ele>
        <time>2012-11-24T09:16:23Z</time>
      </trkpt>
      <trkpt lat="42.456166000" lon="-2.451406000">
        <ele>392.30</ele>
        <time>2012-11-24T09:16:25Z</time>
      </trkpt>
      <trkpt lat="42.456138000" lon="-2.451384000">
        <ele>392.20</ele>
        <time>2012-11-24T09:16:27Z</time>
      </trkpt>
      <trkpt lat="42.456108000" lon="-2.451369000">
        <ele>392.20</ele>
        <time>2012-11-24T09:16:28Z</time>
      </trkpt>
      <trkpt lat="42.456046000" lon="-2.451364000">
        <ele>392.30</ele>
        <time>2012-11-24T09:16:30Z</time>
      </trkpt>
      <trkpt lat="42.455865000" lon="-2.451406000">
        <ele>392.50</ele>
        <time>2012-11-24T09:16:35Z</time>
      </trkpt>
      <trkpt lat="42.455848000" lon="-2.451388000">
        <ele>392.50</ele>
        <time>2012-11-24T09:16:37Z</time>
      </trkpt>
      <trkpt lat="42.454558000" lon="-2.451778000">
        <ele>390.10</ele>
        <time>2012-11-24T09:17:19Z</time>
      </trkpt>
      <trkpt lat="42.454531000" lon="-2.451793000">
        <ele>390.10</ele>
        <time>2012-11-24T09:17:19Z</time>
      </trkpt>
      <trkpt lat="42.454313000" lon="-2.451984000">
        <ele>390.50</ele>
        <time>2012-11-24T09:17:26Z</time>
      </trkpt>
      <trkpt lat="42.454208000" lon="-2.452129000">
        <ele>390.70</ele>
        <time>2012-11-24T09:17:31Z</time>
      </trkpt>
      <trkpt lat="42.454141000" lon="-2.452188000">
        <ele>390.80</ele>
        <time>2012-11-24T09:17:33Z</time>
      </trkpt>
      <trkpt lat="42.454105000" lon="-2.452208000">
        <ele>390.80</ele>
        <time>2012-11-24T09:17:33Z</time>
      </trkpt>
      <trkpt lat="42.454066000" lon="-2.452219000">
        <ele>390.80</ele>
        <time>2012-11-24T09:17:35Z</time>
      </trkpt>
      <trkpt lat="42.454026000" lon="-2.452224000">
        <ele>390.90</ele>
        <time>2012-11-24T09:17:36Z</time>
      </trkpt>
      <trkpt lat="42.453985000" lon="-2.452218000">
        <ele>391.00</ele>
        <time>2012-11-24T09:17:36Z</time>
      </trkpt>
      <trkpt lat="42.453946000" lon="-2.452204000">
        <ele>391.00</ele>
        <time>2012-11-24T09:17:38Z</time>
      </trkpt>
      <trkpt lat="42.453910000" lon="-2.452181000">
        <ele>391.10</ele>
        <time>2012-11-24T09:17:38Z</time>
      </trkpt>
      <trkpt lat="42.453878000" lon="-2.452148000">
        <ele>391.30</ele>
        <time>2012-11-24T09:17:40Z</time>
      </trkpt>
      <trkpt lat="42.453851000" lon="-2.452109000">
        <ele>391.40</ele>
        <time>2012-11-24T09:17:40Z</time>
      </trkpt>
      <trkpt lat="42.453808000" lon="-2.452016000">
        <ele>391.70</ele>
        <time>2012-11-24T09:17:43Z</time>
      </trkpt>
      <trkpt lat="42.453795000" lon="-2.451963000">
        <ele>391.70</ele>
        <time>2012-11-24T09:17:43Z</time>
      </trkpt>
      <trkpt lat="42.453786000" lon="-2.451856000">
        <ele>391.80</ele>
        <time>2012-11-24T09:17:45Z</time>
      </trkpt>
      <trkpt lat="42.453791000" lon="-2.451748000">
        <ele>391.80</ele>
        <time>2012-11-24T09:17:47Z</time>
      </trkpt>
      <trkpt lat="42.453835000" lon="-2.451474000">
        <ele>391.80</ele>
        <time>2012-11-24T09:17:52Z</time>
      </trkpt>
      <trkpt lat="42.453830000" lon="-2.451254000">
        <ele>391.80</ele>
        <time>2012-11-24T09:17:57Z</time>
      </trkpt>
      <trkpt lat="42.453520000" lon="-2.449028000">
        <ele>393.20</ele>
        <time>2012-11-24T09:18:41Z</time>
      </trkpt>
      <trkpt lat="42.453510000" lon="-2.448999000">
        <ele>393.30</ele>
        <time>2012-11-24T09:18:41Z</time>
      </trkpt>
      <trkpt lat="42.453506000" lon="-2.448978000">
        <ele>393.40</ele>
        <time>2012-11-24T09:18:42Z</time>
      </trkpt>
      <trkpt lat="42.453506000" lon="-2.448964000">
        <ele>393.50</ele>
        <time>2012-11-24T09:18:44Z</time>
      </trkpt>
      <trkpt lat="42.453511000" lon="-2.448961000">
        <ele>393.50</ele>
        <time>2012-11-24T09:18:44Z</time>
      </trkpt>
      <trkpt lat="42.453518000" lon="-2.448959000">
        <ele>393.60</ele>
        <time>2012-11-24T09:18:46Z</time>
      </trkpt>
      <trkpt lat="42.453528000" lon="-2.448956000">
        <ele>393.60</ele>
        <time>2012-11-24T09:18:48Z</time>
      </trkpt>
      <trkpt lat="42.453531000" lon="-2.448953000">
        <ele>393.60</ele>
        <time>2012-11-24T09:18:48Z</time>
      </trkpt>
      <trkpt lat="42.453531000" lon="-2.448944000">
        <ele>393.60</ele>
        <time>2012-11-24T09:18:49Z</time>
      </trkpt>
      <trkpt lat="42.453528000" lon="-2.448926000">
        <ele>393.60</ele>
        <time>2012-11-24T09:18:51Z</time>
      </trkpt>
      <trkpt lat="42.453520000" lon="-2.448899000">
        <ele>393.70</ele>
        <time>2012-11-24T09:18:51Z</time>
      </trkpt>
      <trkpt lat="42.453491000" lon="-2.448836000">
        <ele>393.90</ele>
        <time>2012-11-24T09:18:53Z</time>
      </trkpt>
      <trkpt lat="42.453325000" lon="-2.448581000">
        <ele>394.40</ele>
        <time>2012-11-24T09:19:00Z</time>
      </trkpt>
      <trkpt lat="42.453308000" lon="-2.448531000">
        <ele>394.40</ele>
        <time>2012-11-24T09:19:00Z</time>
      </trkpt>
      <trkpt lat="42.453298000" lon="-2.448479000">
        <ele>394.50</ele>
        <time>2012-11-24T09:19:02Z</time>
      </trkpt>
      <trkpt lat="42.453296000" lon="-2.448374000">
        <ele>394.50</ele>
        <time>2012-11-24T09:19:03Z</time>
      </trkpt>
      <trkpt lat="42.453351000" lon="-2.447979000">
        <ele>394.40</ele>
        <time>2012-11-24T09:19:12Z</time>
      </trkpt>
      <trkpt lat="42.453303000" lon="-2.447596000">
        <ele>394.20</ele>
        <time>2012-11-24T09:19:19Z</time>
      </trkpt>
      <trkpt lat="42.453158000" lon="-2.446458000">
        <ele>393.30</ele>
        <time>2012-11-24T09:19:36Z</time>
      </trkpt>
      <trkpt lat="42.453145000" lon="-2.446418000">
        <ele>393.20</ele>
        <time>2012-11-24T09:19:38Z</time>
      </trkpt>
      <trkpt lat="42.453123000" lon="-2.446391000">
        <ele>393.20</ele>
        <time>2012-11-24T09:19:38Z</time>
      </trkpt>
      <trkpt lat="42.453096000" lon="-2.446371000">
        <ele>393.20</ele>
        <time>2012-11-24T09:19:40Z</time>
      </trkpt>
      <trkpt lat="42.452818000" lon="-2.446251000">
        <ele>393.10</ele>
        <time>2012-11-24T09:19:52Z</time>
      </trkpt>
      <trkpt lat="42.452813000" lon="-2.446249000">
        <ele>393.10</ele>
        <time>2012-11-24T09:19:52Z</time>
      </trkpt>
      <trkpt lat="42.452786000" lon="-2.446248000">
        <ele>393.10</ele>
        <time>2012-11-24T09:20:06Z</time>
      </trkpt>
      <trkpt lat="42.452780000" lon="-2.446254000">
        <ele>393.10</ele>
        <time>2012-11-24T09:20:11Z</time>
      </trkpt>
      <trkpt lat="42.452773000" lon="-2.446253000">
        <ele>393.10</ele>
        <time>2012-11-24T09:20:22Z</time>
      </trkpt>
      <trkpt lat="42.452770000" lon="-2.446251000">
        <ele>393.10</ele>
        <time>2012-11-24T09:20:22Z</time>
      </trkpt>
      <trkpt lat="42.452583000" lon="-2.446203000">
        <ele>393.30</ele>
        <time>2012-11-24T09:20:32Z</time>
      </trkpt>
      <trkpt lat="42.452181000" lon="-2.446128000">
        <ele>393.70</ele>
        <time>2012-11-24T09:20:46Z</time>
      </trkpt>
      <trkpt lat="42.451033000" lon="-2.445856000">
        <ele>395.20</ele>
        <time>2012-11-24T09:21:21Z</time>
      </trkpt>
      <trkpt lat="42.451000000" lon="-2.445841000">
        <ele>395.20</ele>
        <time>2012-11-24T09:21:23Z</time>
      </trkpt>
      <trkpt lat="42.450471000" lon="-2.445678000">
        <ele>395.80</ele>
        <time>2012-11-24T09:21:38Z</time>
      </trkpt>
      <trkpt lat="42.450106000" lon="-2.445706000">
        <ele>396.20</ele>
        <time>2012-11-24T09:21:51Z</time>
      </trkpt>
      <trkpt lat="42.450073000" lon="-2.445703000">
        <ele>396.20</ele>
        <time>2012-11-24T09:21:52Z</time>
      </trkpt>
      <trkpt lat="42.449731000" lon="-2.445633000">
        <ele>396.50</ele>
        <time>2012-11-24T09:22:01Z</time>
      </trkpt>
      <trkpt lat="42.449315000" lon="-2.445446000">
        <ele>396.90</ele>
        <time>2012-11-24T09:22:15Z</time>
      </trkpt>
      <trkpt lat="42.448725000" lon="-2.445423000">
        <ele>396.90</ele>
        <time>2012-11-24T09:22:31Z</time>
      </trkpt>
      <trkpt lat="42.448691000" lon="-2.445414000">
        <ele>397.00</ele>
        <time>2012-11-24T09:22:32Z</time>
      </trkpt>
      <trkpt lat="42.447556000" lon="-2.444736000">
        <ele>397.40</ele>
        <time>2012-11-24T09:23:11Z</time>
      </trkpt>
      <trkpt lat="42.447303000" lon="-2.444453000">
        <ele>398.00</ele>
        <time>2012-11-24T09:23:23Z</time>
      </trkpt>
      <trkpt lat="42.447185000" lon="-2.444363000">
        <ele>398.40</ele>
        <time>2012-11-24T09:23:28Z</time>
      </trkpt>
      <trkpt lat="42.446145000" lon="-2.443804000">
        <ele>400.20</ele>
        <time>2012-11-24T09:23:59Z</time>
      </trkpt>
      <trkpt lat="42.446108000" lon="-2.443798000">
        <ele>400.30</ele>
        <time>2012-11-24T09:24:01Z</time>
      </trkpt>
      <trkpt lat="42.444031000" lon="-2.444014000">
        <ele>401.70</ele>
        <time>2012-11-24T09:25:00Z</time>
      </trkpt>
      <trkpt lat="42.443998000" lon="-2.444011000">
        <ele>401.80</ele>
        <time>2012-11-24T09:25:02Z</time>
      </trkpt>
      <trkpt lat="42.442856000" lon="-2.443903000">
        <ele>403.60</ele>
        <time>2012-11-24T09:25:35Z</time>
      </trkpt>
      <trkpt lat="42.442680000" lon="-2.443904000">
        <ele>403.20</ele>
        <time>2012-11-24T09:25:41Z</time>
      </trkpt>
      <trkpt lat="42.442480000" lon="-2.443971000">
        <ele>402.50</ele>
        <time>2012-11-24T09:25:46Z</time>
      </trkpt>
      <trkpt lat="42.441188000" lon="-2.444561000">
        <ele>404.80</ele>
        <time>2012-11-24T09:26:26Z</time>
      </trkpt>
      <trkpt lat="42.441155000" lon="-2.444568000">
        <ele>404.90</ele>
        <time>2012-11-24T09:26:26Z</time>
      </trkpt>
      <trkpt lat="42.440378000" lon="-2.444501000">
        <ele>405.10</ele>
        <time>2012-11-24T09:26:50Z</time>
      </trkpt>
      <trkpt lat="42.438716000" lon="-2.444811000">
        <ele>408.60</ele>
        <time>2012-11-24T09:27:34Z</time>
      </trkpt>
      <trkpt lat="42.438678000" lon="-2.444828000">
        <ele>408.60</ele>
        <time>2012-11-24T09:27:36Z</time>
      </trkpt>
      <trkpt lat="42.436705000" lon="-2.445591000">
        <ele>411.70</ele>
        <time>2012-11-24T09:28:28Z</time>
      </trkpt>
      <trkpt lat="42.436671000" lon="-2.445586000">
        <ele>411.70</ele>
        <time>2012-11-24T09:28:30Z</time>
      </trkpt>
      <trkpt lat="42.436640000" lon="-2.445563000">
        <ele>411.70</ele>
        <time>2012-11-24T09:28:31Z</time>
      </trkpt>
      <trkpt lat="42.435958000" lon="-2.444759000">
        <ele>410.30</ele>
        <time>2012-11-24T09:28:54Z</time>
      </trkpt>
      <trkpt lat="42.435926000" lon="-2.444731000">
        <ele>410.30</ele>
        <time>2012-11-24T09:28:56Z</time>
      </trkpt>
      <trkpt lat="42.435493000" lon="-2.444396000">
        <ele>411.40</ele>
        <time>2012-11-24T09:29:08Z</time>
      </trkpt>
      <trkpt lat="42.435168000" lon="-2.444339000">
        <ele>411.80</ele>
        <time>2012-11-24T09:29:18Z</time>
      </trkpt>
      <trkpt lat="42.435001000" lon="-2.444241000">
        <ele>411.90</ele>
        <time>2012-11-24T09:29:22Z</time>
      </trkpt>
      <trkpt lat="42.434741000" lon="-2.444021000">
        <ele>412.30</ele>
        <time>2012-11-24T09:29:32Z</time>
      </trkpt>
      <trkpt lat="42.434513000" lon="-2.443764000">
        <ele>412.90</ele>
        <time>2012-11-24T09:29:39Z</time>
      </trkpt>
      <trkpt lat="42.434473000" lon="-2.443681000">
        <ele>412.90</ele>
        <time>2012-11-24T09:29:41Z</time>
      </trkpt>
      <trkpt lat="42.434450000" lon="-2.443581000">
        <ele>412.80</ele>
        <time>2012-11-24T09:29:43Z</time>
      </trkpt>
      <trkpt lat="42.434426000" lon="-2.443311000">
        <ele>412.60</ele>
        <time>2012-11-24T09:29:48Z</time>
      </trkpt>
      <trkpt lat="42.434403000" lon="-2.443209000">
        <ele>412.50</ele>
        <time>2012-11-24T09:29:50Z</time>
      </trkpt>
      <trkpt lat="42.434346000" lon="-2.443089000">
        <ele>412.40</ele>
        <time>2012-11-24T09:29:53Z</time>
      </trkpt>
      <trkpt lat="42.434300000" lon="-2.443026000">
        <ele>412.40</ele>
        <time>2012-11-24T09:29:55Z</time>
      </trkpt>
      <trkpt lat="42.434275000" lon="-2.443001000">
        <ele>412.40</ele>
        <time>2012-11-24T09:29:57Z</time>
      </trkpt>
      <trkpt lat="42.434088000" lon="-2.442908000">
        <ele>412.50</ele>
        <time>2012-11-24T09:30:02Z</time>
      </trkpt>
      <trkpt lat="42.433456000" lon="-2.442781000">
        <ele>413.20</ele>
        <time>2012-11-24T09:30:21Z</time>
      </trkpt>
      <trkpt lat="42.433415000" lon="-2.442781000">
        <ele>413.20</ele>
        <time>2012-11-24T09:30:23Z</time>
      </trkpt>
      <trkpt lat="42.433270000" lon="-2.442824000">
        <ele>413.40</ele>
        <time>2012-11-24T09:30:26Z</time>
      </trkpt>
      <trkpt lat="42.433218000" lon="-2.442856000">
        <ele>413.50</ele>
        <time>2012-11-24T09:30:26Z</time>
      </trkpt>
      <trkpt lat="42.433015000" lon="-2.443054000">
        <ele>413.90</ele>
        <time>2012-11-24T09:30:30Z</time>
      </trkpt>
      <trkpt lat="42.432956000" lon="-2.443094000">
        <ele>414.10</ele>
        <time>2012-11-24T09:30:31Z</time>
      </trkpt>
      <trkpt lat="42.432896000" lon="-2.443121000">
        <ele>414.30</ele>
        <time>2012-11-24T09:30:33Z</time>
      </trkpt>
      <trkpt lat="42.432778000" lon="-2.443146000">
        <ele>414.50</ele>
        <time>2012-11-24T09:30:35Z</time>
      </trkpt>
      <trkpt lat="42.432668000" lon="-2.443139000">
        <ele>414.60</ele>
        <time>2012-11-24T09:30:37Z</time>
      </trkpt>
      <trkpt lat="42.432113000" lon="-2.442874000">
        <ele>414.90</ele>
        <time>2012-11-24T09:30:49Z</time>
      </trkpt>
      <trkpt lat="42.431740000" lon="-2.442639000">
        <ele>414.90</ele>
        <time>2012-11-24T09:30:59Z</time>
      </trkpt>
      <trkpt lat="42.431700000" lon="-2.442623000">
        <ele>414.90</ele>
        <time>2012-11-24T09:31:01Z</time>
      </trkpt>
      <trkpt lat="42.431198000" lon="-2.442306000">
        <ele>415.00</ele>
        <time>2012-11-24T09:31:13Z</time>
      </trkpt>
      <trkpt lat="42.431011000" lon="-2.442078000">
        <ele>415.00</ele>
        <time>2012-11-24T09:31:20Z</time>
      </trkpt>
      <trkpt lat="42.429981000" lon="-2.441424000">
        <ele>415.50</ele>
        <time>2012-11-24T09:31:48Z</time>
      </trkpt>
      <trkpt lat="42.429280000" lon="-2.441119000">
        <ele>416.20</ele>
        <time>2012-11-24T09:32:05Z</time>
      </trkpt>
      <trkpt lat="42.429238000" lon="-2.441111000">
        <ele>416.20</ele>
        <time>2012-11-24T09:32:07Z</time>
      </trkpt>
      <trkpt lat="42.428725000" lon="-2.441014000">
        <ele>416.70</ele>
        <time>2012-11-24T09:32:19Z</time>
      </trkpt>
      <trkpt lat="42.427970000" lon="-2.440558000">
        <ele>420.80</ele>
        <time>2012-11-24T09:32:42Z</time>
      </trkpt>
      <trkpt lat="42.427775000" lon="-2.440531000">
        <ele>421.40</ele>
        <time>2012-11-24T09:32:47Z</time>
      </trkpt>
      <trkpt lat="42.427581000" lon="-2.440538000">
        <ele>421.40</ele>
        <time>2012-11-24T09:32:51Z</time>
      </trkpt>
      <trkpt lat="42.427111000" lon="-2.440343000">
        <ele>421.90</ele>
        <time>2012-11-24T09:33:03Z</time>
      </trkpt>
      <trkpt lat="42.426740000" lon="-2.440084000">
        <ele>422.50</ele>
        <time>2012-11-24T09:33:15Z</time>
      </trkpt>
      <trkpt lat="42.426705000" lon="-2.440071000">
        <ele>422.60</ele>
        <time>2012-11-24T09:33:15Z</time>
      </trkpt>
      <trkpt lat="42.426596000" lon="-2.440064000">
        <ele>422.80</ele>
        <time>2012-11-24T09:33:19Z</time>
      </trkpt>
      <trkpt lat="42.426415000" lon="-2.440116000">
        <ele>423.20</ele>
        <time>2012-11-24T09:33:24Z</time>
      </trkpt>
      <trkpt lat="42.426261000" lon="-2.440113000">
        <ele>423.50</ele>
        <time>2012-11-24T09:33:27Z</time>
      </trkpt>
      <trkpt lat="42.426101000" lon="-2.440089000">
        <ele>423.50</ele>
        <time>2012-11-24T09:33:31Z</time>
      </trkpt>
      <trkpt lat="42.425905000" lon="-2.440106000">
        <ele>423.40</ele>
        <time>2012-11-24T09:33:36Z</time>
      </trkpt>
      <trkpt lat="42.425756000" lon="-2.440068000">
        <ele>423.20</ele>
        <time>2012-11-24T09:33:41Z</time>
      </trkpt>
      <trkpt lat="42.425421000" lon="-2.439908000">
        <ele>423.00</ele>
        <time>2012-11-24T09:33:50Z</time>
      </trkpt>
      <trkpt lat="42.425256000" lon="-2.439766000">
        <ele>422.90</ele>
        <time>2012-11-24T09:33:55Z</time>
      </trkpt>
      <trkpt lat="42.425111000" lon="-2.439699000">
        <ele>422.70</ele>
        <time>2012-11-24T09:33:59Z</time>
      </trkpt>
      <trkpt lat="42.424871000" lon="-2.439658000">
        <ele>422.50</ele>
        <time>2012-11-24T09:34:04Z</time>
      </trkpt>
      <trkpt lat="42.424756000" lon="-2.439604000">
        <ele>422.30</ele>
        <time>2012-11-24T09:34:07Z</time>
      </trkpt>
      <trkpt lat="42.424191000" lon="-2.439094000">
        <ele>422.80</ele>
        <time>2012-11-24T09:34:23Z</time>
      </trkpt>
      <trkpt lat="42.424155000" lon="-2.439071000">
        <ele>422.80</ele>
        <time>2012-11-24T09:34:25Z</time>
      </trkpt>
      <trkpt lat="42.422740000" lon="-2.438806000">
        <ele>425.30</ele>
        <time>2012-11-24T09:34:58Z</time>
      </trkpt>
      <trkpt lat="42.419495000" lon="-2.439706000">
        <ele>427.80</ele>
        <time>2012-11-24T09:36:16Z</time>
      </trkpt>
      <trkpt lat="42.419456000" lon="-2.439726000">
        <ele>427.80</ele>
        <time>2012-11-24T09:36:16Z</time>
      </trkpt>
      <trkpt lat="42.418975000" lon="-2.439923000">
        <ele>426.90</ele>
        <time>2012-11-24T09:36:29Z</time>
      </trkpt>
      <trkpt lat="42.418933000" lon="-2.439944000">
        <ele>426.80</ele>
        <time>2012-11-24T09:36:30Z</time>
      </trkpt>
      <trkpt lat="42.418856000" lon="-2.440009000">
        <ele>426.70</ele>
        <time>2012-11-24T09:36:32Z</time>
      </trkpt>
      <trkpt lat="42.418463000" lon="-2.440521000">
        <ele>427.10</ele>
        <time>2012-11-24T09:36:44Z</time>
      </trkpt>
      <trkpt lat="42.417738000" lon="-2.441211000">
        <ele>430.80</ele>
        <time>2012-11-24T09:37:05Z</time>
      </trkpt>
      <trkpt lat="42.417023000" lon="-2.441516000">
        <ele>431.90</ele>
        <time>2012-11-24T09:37:24Z</time>
      </trkpt>
      <trkpt lat="42.416981000" lon="-2.441524000">
        <ele>432.00</ele>
        <time>2012-11-24T09:37:26Z</time>
      </trkpt>
      <trkpt lat="42.416118000" lon="-2.441783000">
        <ele>432.50</ele>
        <time>2012-11-24T09:37:47Z</time>
      </trkpt>
      <trkpt lat="42.416006000" lon="-2.441861000">
        <ele>432.40</ele>
        <time>2012-11-24T09:37:49Z</time>
      </trkpt>
      <trkpt lat="42.415775000" lon="-2.442123000">
        <ele>432.40</ele>
        <time>2012-11-24T09:37:57Z</time>
      </trkpt>
      <trkpt lat="42.415585000" lon="-2.442218000">
        <ele>432.20</ele>
        <time>2012-11-24T09:38:01Z</time>
      </trkpt>
      <trkpt lat="42.414933000" lon="-2.442283000">
        <ele>432.60</ele>
        <time>2012-11-24T09:38:18Z</time>
      </trkpt>
      <trkpt lat="42.414455000" lon="-2.442286000">
        <ele>432.90</ele>
        <time>2012-11-24T09:38:29Z</time>
      </trkpt>
      <trkpt lat="42.414413000" lon="-2.442294000">
        <ele>432.80</ele>
        <time>2012-11-24T09:38:29Z</time>
      </trkpt>
      <trkpt lat="42.413658000" lon="-2.442758000">
        <ele>433.70</ele>
        <time>2012-11-24T09:38:50Z</time>
      </trkpt>
      <trkpt lat="42.412516000" lon="-2.443129000">
        <ele>435.40</ele>
        <time>2012-11-24T09:39:21Z</time>
      </trkpt>
      <trkpt lat="42.412433000" lon="-2.443129000">
        <ele>435.50</ele>
        <time>2012-11-24T09:39:23Z</time>
      </trkpt>
      <trkpt lat="42.412391000" lon="-2.443121000">
        <ele>435.50</ele>
        <time>2012-11-24T09:39:24Z</time>
      </trkpt>
      <trkpt lat="42.412188000" lon="-2.443019000">
        <ele>435.80</ele>
        <time>2012-11-24T09:39:30Z</time>
      </trkpt>
      <trkpt lat="42.412145000" lon="-2.443009000">
        <ele>435.80</ele>
        <time>2012-11-24T09:39:30Z</time>
      </trkpt>
      <trkpt lat="42.412100000" lon="-2.443009000">
        <ele>435.90</ele>
        <time>2012-11-24T09:39:31Z</time>
      </trkpt>
      <trkpt lat="42.412056000" lon="-2.443021000">
        <ele>435.90</ele>
        <time>2012-11-24T09:39:33Z</time>
      </trkpt>
      <trkpt lat="42.411583000" lon="-2.443303000">
        <ele>436.40</ele>
        <time>2012-11-24T09:39:45Z</time>
      </trkpt>
      <trkpt lat="42.411221000" lon="-2.443324000">
        <ele>436.90</ele>
        <time>2012-11-24T09:39:52Z</time>
      </trkpt>
      <trkpt lat="42.411121000" lon="-2.443306000">
        <ele>436.90</ele>
        <time>2012-11-24T09:39:54Z</time>
      </trkpt>
      <trkpt lat="42.411075000" lon="-2.443284000">
        <ele>436.90</ele>
        <time>2012-11-24T09:39:56Z</time>
      </trkpt>
      <trkpt lat="42.411030000" lon="-2.443251000">
        <ele>436.90</ele>
        <time>2012-11-24T09:39:56Z</time>
      </trkpt>
      <trkpt lat="42.410830000" lon="-2.443051000">
        <ele>436.70</ele>
        <time>2012-11-24T09:40:01Z</time>
      </trkpt>
      <trkpt lat="42.410686000" lon="-2.442973000">
        <ele>436.70</ele>
        <time>2012-11-24T09:40:05Z</time>
      </trkpt>
      <trkpt lat="42.410486000" lon="-2.442923000">
        <ele>436.80</ele>
        <time>2012-11-24T09:40:08Z</time>
      </trkpt>
      <trkpt lat="42.410343000" lon="-2.442921000">
        <ele>437.00</ele>
        <time>2012-11-24T09:40:12Z</time>
      </trkpt>
      <trkpt lat="42.409466000" lon="-2.443133000">
        <ele>437.70</ele>
        <time>2012-11-24T09:40:34Z</time>
      </trkpt>
      <trkpt lat="42.409430000" lon="-2.443149000">
        <ele>437.70</ele>
        <time>2012-11-24T09:40:34Z</time>
      </trkpt>
      <trkpt lat="42.408086000" lon="-2.443854000">
        <ele>437.80</ele>
        <time>2012-11-24T09:41:14Z</time>
      </trkpt>
      <trkpt lat="42.407951000" lon="-2.443954000">
        <ele>438.00</ele>
        <time>2012-11-24T09:41:18Z</time>
      </trkpt>
      <trkpt lat="42.407615000" lon="-2.444443000">
        <ele>439.20</ele>
        <time>2012-11-24T09:41:32Z</time>
      </trkpt>
      <trkpt lat="42.407485000" lon="-2.444674000">
        <ele>439.50</ele>
        <time>2012-11-24T09:41:39Z</time>
      </trkpt>
      <trkpt lat="42.407475000" lon="-2.444703000">
        <ele>439.50</ele>
        <time>2012-11-24T09:41:40Z</time>
      </trkpt>
      <trkpt lat="42.407400000" lon="-2.444968000">
        <ele>439.70</ele>
        <time>2012-11-24T09:41:47Z</time>
      </trkpt>
      <trkpt lat="42.407075000" lon="-2.446034000">
        <ele>440.00</ele>
        <time>2012-11-24T09:42:06Z</time>
      </trkpt>
      <trkpt lat="42.406843000" lon="-2.446416000">
        <ele>440.50</ele>
        <time>2012-11-24T09:42:17Z</time>
      </trkpt>
      <trkpt lat="42.406828000" lon="-2.446458000">
        <ele>440.60</ele>
        <time>2012-11-24T09:42:19Z</time>
      </trkpt>
      <trkpt lat="42.406820000" lon="-2.446503000">
        <ele>440.70</ele>
        <time>2012-11-24T09:42:19Z</time>
      </trkpt>
      <trkpt lat="42.406820000" lon="-2.446548000">
        <ele>440.80</ele>
        <time>2012-11-24T09:42:20Z</time>
      </trkpt>
      <trkpt lat="42.406825000" lon="-2.446594000">
        <ele>440.90</ele>
        <time>2012-11-24T09:42:22Z</time>
      </trkpt>
      <trkpt lat="42.406883000" lon="-2.446814000">
        <ele>441.40</ele>
        <time>2012-11-24T09:42:26Z</time>
      </trkpt>
      <trkpt lat="42.407151000" lon="-2.448226000">
        <ele>442.30</ele>
        <time>2012-11-24T09:42:55Z</time>
      </trkpt>
      <trkpt lat="42.407150000" lon="-2.448271000">
        <ele>442.40</ele>
        <time>2012-11-24T09:42:57Z</time>
      </trkpt>
      <trkpt lat="42.407143000" lon="-2.448314000">
        <ele>442.40</ele>
        <time>2012-11-24T09:42:57Z</time>
      </trkpt>
      <trkpt lat="42.407131000" lon="-2.448356000">
        <ele>442.50</ele>
        <time>2012-11-24T09:42:59Z</time>
      </trkpt>
      <trkpt lat="42.407116000" lon="-2.448391000">
        <ele>442.50</ele>
        <time>2012-11-24T09:42:59Z</time>
      </trkpt>
      <trkpt lat="42.407096000" lon="-2.448423000">
        <ele>442.50</ele>
        <time>2012-11-24T09:43:00Z</time>
      </trkpt>
      <trkpt lat="42.406928000" lon="-2.448579000">
        <ele>442.80</ele>
        <time>2012-11-24T09:43:06Z</time>
      </trkpt>
      <trkpt lat="42.406070000" lon="-2.449373000">
        <ele>445.40</ele>
        <time>2012-11-24T09:43:34Z</time>
      </trkpt>
      <trkpt lat="42.405013000" lon="-2.450039000">
        <ele>446.80</ele>
        <time>2012-11-24T09:44:03Z</time>
      </trkpt>
      <trkpt lat="42.404981000" lon="-2.450068000">
        <ele>446.80</ele>
        <time>2012-11-24T09:44:03Z</time>
      </trkpt>
      <trkpt lat="42.404368000" lon="-2.450898000">
        <ele>447.70</ele>
        <time>2012-11-24T09:44:26Z</time>
      </trkpt>
      <trkpt lat="42.403568000" lon="-2.451823000">
        <ele>447.90</ele>
        <time>2012-11-24T09:44:52Z</time>
      </trkpt>
      <trkpt lat="42.402948000" lon="-2.452319000">
        <ele>448.20</ele>
        <time>2012-11-24T09:45:09Z</time>
      </trkpt>
      <trkpt lat="42.402913000" lon="-2.452339000">
        <ele>448.20</ele>
        <time>2012-11-24T09:45:09Z</time>
      </trkpt>
      <trkpt lat="42.402668000" lon="-2.452538000">
        <ele>448.40</ele>
        <time>2012-11-24T09:45:16Z</time>
      </trkpt>
      <trkpt lat="42.401961000" lon="-2.453328000">
        <ele>450.00</ele>
        <time>2012-11-24T09:45:37Z</time>
      </trkpt>
      <trkpt lat="42.401571000" lon="-2.453626000">
        <ele>451.20</ele>
        <time>2012-11-24T09:45:48Z</time>
      </trkpt>
      <trkpt lat="42.401051000" lon="-2.454226000">
        <ele>452.10</ele>
        <time>2012-11-24T09:46:05Z</time>
      </trkpt>
      <trkpt lat="42.399931000" lon="-2.454928000">
        <ele>454.70</ele>
        <time>2012-11-24T09:46:35Z</time>
      </trkpt>
      <trkpt lat="42.399896000" lon="-2.454959000">
        <ele>454.80</ele>
        <time>2012-11-24T09:46:36Z</time>
      </trkpt>
      <trkpt lat="42.399140000" lon="-2.455581000">
        <ele>455.90</ele>
        <time>2012-11-24T09:46:57Z</time>
      </trkpt>
      <trkpt lat="42.398701000" lon="-2.455739000">
        <ele>455.90</ele>
        <time>2012-11-24T09:47:08Z</time>
      </trkpt>
      <trkpt lat="42.397893000" lon="-2.456106000">
        <ele>456.00</ele>
        <time>2012-11-24T09:47:32Z</time>
      </trkpt>
      <trkpt lat="42.397698000" lon="-2.456306000">
        <ele>456.20</ele>
        <time>2012-11-24T09:47:39Z</time>
      </trkpt>
      <trkpt lat="42.397663000" lon="-2.456328000">
        <ele>456.20</ele>
        <time>2012-11-24T09:47:41Z</time>
      </trkpt>
      <trkpt lat="42.397225000" lon="-2.456453000">
        <ele>456.80</ele>
        <time>2012-11-24T09:47:51Z</time>
      </trkpt>
      <trkpt lat="42.397113000" lon="-2.456531000">
        <ele>456.90</ele>
        <time>2012-11-24T09:47:55Z</time>
      </trkpt>
      <trkpt lat="42.396850000" lon="-2.456823000">
        <ele>457.20</ele>
        <time>2012-11-24T09:48:02Z</time>
      </trkpt>
      <trkpt lat="42.396736000" lon="-2.456901000">
        <ele>457.40</ele>
        <time>2012-11-24T09:48:05Z</time>
      </trkpt>
      <trkpt lat="42.396581000" lon="-2.456966000">
        <ele>457.80</ele>
        <time>2012-11-24T09:48:09Z</time>
      </trkpt>
      <trkpt lat="42.396463000" lon="-2.456973000">
        <ele>458.00</ele>
        <time>2012-11-24T09:48:12Z</time>
      </trkpt>
      <trkpt lat="42.396300000" lon="-2.456944000">
        <ele>458.30</ele>
        <time>2012-11-24T09:48:16Z</time>
      </trkpt>
      <trkpt lat="42.396260000" lon="-2.456946000">
        <ele>458.40</ele>
        <time>2012-11-24T09:48:18Z</time>
      </trkpt>
      <trkpt lat="42.396220000" lon="-2.456958000">
        <ele>458.40</ele>
        <time>2012-11-24T09:48:19Z</time>
      </trkpt>
      <trkpt lat="42.396183000" lon="-2.456978000">
        <ele>458.50</ele>
        <time>2012-11-24T09:48:19Z</time>
      </trkpt>
      <trkpt lat="42.396045000" lon="-2.457084000">
        <ele>459.00</ele>
        <time>2012-11-24T09:48:23Z</time>
      </trkpt>
      <trkpt lat="42.395890000" lon="-2.457168000">
        <ele>459.40</ele>
        <time>2012-11-24T09:48:28Z</time>
      </trkpt>
      <trkpt lat="42.395753000" lon="-2.457286000">
        <ele>459.80</ele>
        <time>2012-11-24T09:48:31Z</time>
      </trkpt>
      <trkpt lat="42.395716000" lon="-2.457308000">
        <ele>460.00</ele>
        <time>2012-11-24T09:48:33Z</time>
      </trkpt>
      <trkpt lat="42.395473000" lon="-2.457376000">
        <ele>460.70</ele>
        <time>2012-11-24T09:48:38Z</time>
      </trkpt>
      <trkpt lat="42.395106000" lon="-2.457621000">
        <ele>461.50</ele>
        <time>2012-11-24T09:48:49Z</time>
      </trkpt>
      <trkpt lat="42.395066000" lon="-2.457639000">
        <ele>461.50</ele>
        <time>2012-11-24T09:48:49Z</time>
      </trkpt>
      <trkpt lat="42.394626000" lon="-2.458061000">
        <ele>461.10</ele>
        <time>2012-11-24T09:49:03Z</time>
      </trkpt>
      <trkpt lat="42.394458000" lon="-2.458303000">
        <ele>461.20</ele>
        <time>2012-11-24T09:49:08Z</time>
      </trkpt>
      <trkpt lat="42.394166000" lon="-2.458571000">
        <ele>462.20</ele>
        <time>2012-11-24T09:49:17Z</time>
      </trkpt>
      <trkpt lat="42.393553000" lon="-2.458879000">
        <ele>463.90</ele>
        <time>2012-11-24T09:49:31Z</time>
      </trkpt>
      <trkpt lat="42.393140000" lon="-2.458996000">
        <ele>464.30</ele>
        <time>2012-11-24T09:49:41Z</time>
      </trkpt>
      <trkpt lat="42.392826000" lon="-2.459168000">
        <ele>464.50</ele>
        <time>2012-11-24T09:49:50Z</time>
      </trkpt>
      <trkpt lat="42.392786000" lon="-2.459181000">
        <ele>464.50</ele>
        <time>2012-11-24T09:49:50Z</time>
      </trkpt>
      <trkpt lat="42.391023000" lon="-2.459719000">
        <ele>466.40</ele>
        <time>2012-11-24T09:50:33Z</time>
      </trkpt>
      <trkpt lat="42.390721000" lon="-2.459653000">
        <ele>467.10</ele>
        <time>2012-11-24T09:50:40Z</time>
      </trkpt>
      <trkpt lat="42.390593000" lon="-2.459663000">
        <ele>467.40</ele>
        <time>2012-11-24T09:50:42Z</time>
      </trkpt>
      <trkpt lat="42.390085000" lon="-2.459894000">
        <ele>467.60</ele>
        <time>2012-11-24T09:50:54Z</time>
      </trkpt>
      <trkpt lat="42.390045000" lon="-2.459921000">
        <ele>467.60</ele>
        <time>2012-11-24T09:50:56Z</time>
      </trkpt>
      <trkpt lat="42.389863000" lon="-2.460076000">
        <ele>467.70</ele>
        <time>2012-11-24T09:51:01Z</time>
      </trkpt>
      <trkpt lat="42.389840000" lon="-2.460124000">
        <ele>467.80</ele>
        <time>2012-11-24T09:51:01Z</time>
      </trkpt>
      <trkpt lat="42.389826000" lon="-2.460178000">
        <ele>467.90</ele>
        <time>2012-11-24T09:51:03Z</time>
      </trkpt>
      <trkpt lat="42.389825000" lon="-2.460236000">
        <ele>468.00</ele>
        <time>2012-11-24T09:51:03Z</time>
      </trkpt>
      <trkpt lat="42.389835000" lon="-2.460293000">
        <ele>468.20</ele>
        <time>2012-11-24T09:51:05Z</time>
      </trkpt>
      <trkpt lat="42.390073000" lon="-2.460846000">
        <ele>468.40</ele>
        <time>2012-11-24T09:51:15Z</time>
      </trkpt>
      <trkpt lat="42.390646000" lon="-2.461699000">
        <ele>467.50</ele>
        <time>2012-11-24T09:51:34Z</time>
      </trkpt>
      <trkpt lat="42.391193000" lon="-2.462231000">
        <ele>466.30</ele>
        <time>2012-11-24T09:51:50Z</time>
      </trkpt>
      <trkpt lat="42.391380000" lon="-2.462614000">
        <ele>466.60</ele>
        <time>2012-11-24T09:51:57Z</time>
      </trkpt>
      <trkpt lat="42.391400000" lon="-2.462671000">
        <ele>466.70</ele>
        <time>2012-11-24T09:51:57Z</time>
      </trkpt>
      <trkpt lat="42.391546000" lon="-2.462988000">
        <ele>467.20</ele>
        <time>2012-11-24T09:52:04Z</time>
      </trkpt>
      <trkpt lat="42.391721000" lon="-2.463189000">
        <ele>467.50</ele>
        <time>2012-11-24T09:52:09Z</time>
      </trkpt>
      <trkpt lat="42.391731000" lon="-2.463229000">
        <ele>467.50</ele>
        <time>2012-11-24T09:52:11Z</time>
      </trkpt>
      <trkpt lat="42.391728000" lon="-2.463269000">
        <ele>467.50</ele>
        <time>2012-11-24T09:52:11Z</time>
      </trkpt>
      <trkpt lat="42.391713000" lon="-2.463309000">
        <ele>467.50</ele>
        <time>2012-11-24T09:52:13Z</time>
      </trkpt>
      <trkpt lat="42.391670000" lon="-2.463386000">
        <ele>467.50</ele>
        <time>2012-11-24T09:52:14Z</time>
      </trkpt>
      <trkpt lat="42.391641000" lon="-2.463421000">
        <ele>467.50</ele>
        <time>2012-11-24T09:52:16Z</time>
      </trkpt>
      <trkpt lat="42.391540000" lon="-2.463494000">
        <ele>467.50</ele>
        <time>2012-11-24T09:52:18Z</time>
      </trkpt>
      <trkpt lat="42.391286000" lon="-2.463614000">
        <ele>467.70</ele>
        <time>2012-11-24T09:52:25Z</time>
      </trkpt>
      <trkpt lat="42.391115000" lon="-2.463754000">
        <ele>468.00</ele>
        <time>2012-11-24T09:52:30Z</time>
      </trkpt>
      <trkpt lat="42.390445000" lon="-2.464386000">
        <ele>468.20</ele>
        <time>2012-11-24T09:52:51Z</time>
      </trkpt>
      <trkpt lat="42.390411000" lon="-2.464404000">
        <ele>468.20</ele>
        <time>2012-11-24T09:52:53Z</time>
      </trkpt>
      <trkpt lat="42.389945000" lon="-2.464543000">
        <ele>468.50</ele>
        <time>2012-11-24T09:53:05Z</time>
      </trkpt>
      <trkpt lat="42.389911000" lon="-2.464546000">
        <ele>468.50</ele>
        <time>2012-11-24T09:53:07Z</time>
      </trkpt>
      <trkpt lat="42.389816000" lon="-2.464521000">
        <ele>468.70</ele>
        <time>2012-11-24T09:53:10Z</time>
      </trkpt>
      <trkpt lat="42.389790000" lon="-2.464506000">
        <ele>468.70</ele>
        <time>2012-11-24T09:53:10Z</time>
      </trkpt>
      <trkpt lat="42.389768000" lon="-2.464483000">
        <ele>468.80</ele>
        <time>2012-11-24T09:53:12Z</time>
      </trkpt>
      <trkpt lat="42.389750000" lon="-2.464454000">
        <ele>468.80</ele>
        <time>2012-11-24T09:53:12Z</time>
      </trkpt>
      <trkpt lat="42.389736000" lon="-2.464419000">
        <ele>468.90</ele>
        <time>2012-11-24T09:53:14Z</time>
      </trkpt>
      <trkpt lat="42.389696000" lon="-2.464058000">
        <ele>469.40</ele>
        <time>2012-11-24T09:53:24Z</time>
      </trkpt>
      <trkpt lat="42.389683000" lon="-2.463838000">
        <ele>469.70</ele>
        <time>2012-11-24T09:53:29Z</time>
      </trkpt>
      <trkpt lat="42.389665000" lon="-2.463753000">
        <ele>469.80</ele>
        <time>2012-11-24T09:53:31Z</time>
      </trkpt>
      <trkpt lat="42.389646000" lon="-2.463714000">
        <ele>469.80</ele>
        <time>2012-11-24T09:53:33Z</time>
      </trkpt>
      <trkpt lat="42.389618000" lon="-2.463688000">
        <ele>469.90</ele>
        <time>2012-11-24T09:53:33Z</time>
      </trkpt>
      <trkpt lat="42.389193000" lon="-2.463379000">
        <ele>470.20</ele>
        <time>2012-11-24T09:53:48Z</time>
      </trkpt>
      <trkpt lat="42.389136000" lon="-2.463364000">
        <ele>470.20</ele>
        <time>2012-11-24T09:53:50Z</time>
      </trkpt>
      <trkpt lat="42.389110000" lon="-2.463369000">
        <ele>470.20</ele>
        <time>2012-11-24T09:53:52Z</time>
      </trkpt>
      <trkpt lat="42.388568000" lon="-2.463656000">
        <ele>470.30</ele>
        <time>2012-11-24T09:54:09Z</time>
      </trkpt>
      <trkpt lat="42.388538000" lon="-2.463681000">
        <ele>470.30</ele>
        <time>2012-11-24T09:54:09Z</time>
      </trkpt>
      <trkpt lat="42.388493000" lon="-2.463756000">
        <ele>470.50</ele>
        <time>2012-11-24T09:54:11Z</time>
      </trkpt>
      <trkpt lat="42.388385000" lon="-2.464003000">
        <ele>470.90</ele>
        <time>2012-11-24T09:54:18Z</time>
      </trkpt>
      <trkpt lat="42.388340000" lon="-2.464071000">
        <ele>471.00</ele>
        <time>2012-11-24T09:54:20Z</time>
      </trkpt>
      <trkpt lat="42.388313000" lon="-2.464101000">
        <ele>471.10</ele>
        <time>2012-11-24T09:54:20Z</time>
      </trkpt>
      <trkpt lat="42.387980000" lon="-2.464329000">
        <ele>472.30</ele>
        <time>2012-11-24T09:54:30Z</time>
      </trkpt>
      <trkpt lat="42.387746000" lon="-2.464594000">
        <ele>473.10</ele>
        <time>2012-11-24T09:54:39Z</time>
      </trkpt>
      <trkpt lat="42.387646000" lon="-2.464748000">
        <ele>473.20</ele>
        <time>2012-11-24T09:54:42Z</time>
      </trkpt>
      <trkpt lat="42.387618000" lon="-2.464776000">
        <ele>473.30</ele>
        <time>2012-11-24T09:54:44Z</time>
      </trkpt>
      <trkpt lat="42.387583000" lon="-2.464789000">
        <ele>473.30</ele>
        <time>2012-11-24T09:54:44Z</time>
      </trkpt>
      <trkpt lat="42.385698000" lon="-2.464791000">
        <ele>475.20</ele>
        <time>2012-11-24T09:55:31Z</time>
      </trkpt>
      <trkpt lat="42.385656000" lon="-2.464783000">
        <ele>475.20</ele>
        <time>2012-11-24T09:55:31Z</time>
      </trkpt>
      <trkpt lat="42.384223000" lon="-2.464496000">
        <ele>476.90</ele>
        <time>2012-11-24T09:56:06Z</time>
      </trkpt>
      <trkpt lat="42.383951000" lon="-2.464621000">
        <ele>477.60</ele>
        <time>2012-11-24T09:56:13Z</time>
      </trkpt>
      <trkpt lat="42.383456000" lon="-2.465068000">
        <ele>477.80</ele>
        <time>2012-11-24T09:56:27Z</time>
      </trkpt>
      <trkpt lat="42.383428000" lon="-2.465109000">
        <ele>477.90</ele>
        <time>2012-11-24T09:56:29Z</time>
      </trkpt>
      <trkpt lat="42.383405000" lon="-2.465156000">
        <ele>477.90</ele>
        <time>2012-11-24T09:56:29Z</time>
      </trkpt>
      <trkpt lat="42.383388000" lon="-2.465208000">
        <ele>478.00</ele>
        <time>2012-11-24T09:56:30Z</time>
      </trkpt>
      <trkpt lat="42.383378000" lon="-2.465263000">
        <ele>478.10</ele>
        <time>2012-11-24T09:56:32Z</time>
      </trkpt>
      <trkpt lat="42.383375000" lon="-2.465319000">
        <ele>478.10</ele>
        <time>2012-11-24T09:56:32Z</time>
      </trkpt>
      <trkpt lat="42.383360000" lon="-2.465478000">
        <ele>478.40</ele>
        <time>2012-11-24T09:56:36Z</time>
      </trkpt>
      <trkpt lat="42.383338000" lon="-2.465521000">
        <ele>478.40</ele>
        <time>2012-11-24T09:56:36Z</time>
      </trkpt>
      <trkpt lat="42.383076000" lon="-2.465814000">
        <ele>478.70</ele>
        <time>2012-11-24T09:56:44Z</time>
      </trkpt>
      <trkpt lat="42.382806000" lon="-2.465954000">
        <ele>478.90</ele>
        <time>2012-11-24T09:56:51Z</time>
      </trkpt>
      <trkpt lat="42.382451000" lon="-2.466083000">
        <ele>479.10</ele>
        <time>2012-11-24T09:57:00Z</time>
      </trkpt>
      <trkpt lat="42.381895000" lon="-2.466656000">
        <ele>479.90</ele>
        <time>2012-11-24T09:57:17Z</time>
      </trkpt>
      <trkpt lat="42.381585000" lon="-2.467059000">
        <ele>479.90</ele>
        <time>2012-11-24T09:57:28Z</time>
      </trkpt>
      <trkpt lat="42.381205000" lon="-2.467358000">
        <ele>480.20</ele>
        <time>2012-11-24T09:57:37Z</time>
      </trkpt>
      <trkpt lat="42.381163000" lon="-2.467381000">
        <ele>480.30</ele>
        <time>2012-11-24T09:57:38Z</time>
      </trkpt>
      <trkpt lat="42.379378000" lon="-2.468481000">
        <ele>479.50</ele>
        <time>2012-11-24T09:58:25Z</time>
      </trkpt>
      <trkpt lat="42.379020000" lon="-2.468963000">
        <ele>480.90</ele>
        <time>2012-11-24T09:58:38Z</time>
      </trkpt>
      <trkpt lat="42.378816000" lon="-2.469143000">
        <ele>481.60</ele>
        <time>2012-11-24T09:58:43Z</time>
      </trkpt>
      <trkpt lat="42.378781000" lon="-2.469164000">
        <ele>481.70</ele>
        <time>2012-11-24T09:58:45Z</time>
      </trkpt>
      <trkpt lat="42.377286000" lon="-2.469736000">
        <ele>484.60</ele>
        <time>2012-11-24T09:59:23Z</time>
      </trkpt>
      <trkpt lat="42.376425000" lon="-2.470034000">
        <ele>485.50</ele>
        <time>2012-11-24T09:59:44Z</time>
      </trkpt>
      <trkpt lat="42.376388000" lon="-2.470054000">
        <ele>485.50</ele>
        <time>2012-11-24T09:59:46Z</time>
      </trkpt>
      <trkpt lat="42.375100000" lon="-2.471383000">
        <ele>487.50</ele>
        <time>2012-11-24T10:00:26Z</time>
      </trkpt>
      <trkpt lat="42.373841000" lon="-2.472379000">
        <ele>490.10</ele>
        <time>2012-11-24T10:01:02Z</time>
      </trkpt>
      <trkpt lat="42.373805000" lon="-2.472398000">
        <ele>490.10</ele>
        <time>2012-11-24T10:01:02Z</time>
      </trkpt>
      <trkpt lat="42.372858000" lon="-2.473016000">
        <ele>494.10</ele>
        <time>2012-11-24T10:01:28Z</time>
      </trkpt>
      <trkpt lat="42.372440000" lon="-2.473203000">
        <ele>496.30</ele>
        <time>2012-11-24T10:01:39Z</time>
      </trkpt>
      <trkpt lat="42.371820000" lon="-2.473439000">
        <ele>498.00</ele>
        <time>2012-11-24T10:01:56Z</time>
      </trkpt>
      <trkpt lat="42.371403000" lon="-2.473686000">
        <ele>496.80</ele>
        <time>2012-11-24T10:02:08Z</time>
      </trkpt>
      <trkpt lat="42.371363000" lon="-2.473696000">
        <ele>496.70</ele>
        <time>2012-11-24T10:02:10Z</time>
      </trkpt>
      <trkpt lat="42.369415000" lon="-2.474479000">
        <ele>495.60</ele>
        <time>2012-11-24T10:03:02Z</time>
      </trkpt>
      <trkpt lat="42.369261000" lon="-2.474563000">
        <ele>496.10</ele>
        <time>2012-11-24T10:03:06Z</time>
      </trkpt>
      <trkpt lat="42.369226000" lon="-2.474593000">
        <ele>496.20</ele>
        <time>2012-11-24T10:03:08Z</time>
      </trkpt>
      <trkpt lat="42.368940000" lon="-2.474711000">
        <ele>496.90</ele>
        <time>2012-11-24T10:03:16Z</time>
      </trkpt>
      <trkpt lat="42.368901000" lon="-2.474719000">
        <ele>496.90</ele>
        <time>2012-11-24T10:03:16Z</time>
      </trkpt>
      <trkpt lat="42.367795000" lon="-2.474841000">
        <ele>497.30</ele>
        <time>2012-11-24T10:03:44Z</time>
      </trkpt>
      <trkpt lat="42.367130000" lon="-2.475306000">
        <ele>498.10</ele>
        <time>2012-11-24T10:04:02Z</time>
      </trkpt>
      <trkpt lat="42.366988000" lon="-2.475496000">
        <ele>498.70</ele>
        <time>2012-11-24T10:04:07Z</time>
      </trkpt>
      <trkpt lat="42.366808000" lon="-2.475799000">
        <ele>498.60</ele>
        <time>2012-11-24T10:04:16Z</time>
      </trkpt>
      <trkpt lat="42.366405000" lon="-2.476294000">
        <ele>497.90</ele>
        <time>2012-11-24T10:04:36Z</time>
      </trkpt>
      <trkpt lat="42.366390000" lon="-2.476319000">
        <ele>497.90</ele>
        <time>2012-11-24T10:04:38Z</time>
      </trkpt>
      <trkpt lat="42.366330000" lon="-2.476401000">
        <ele>498.00</ele>
        <time>2012-11-24T10:04:40Z</time>
      </trkpt>
      <trkpt lat="42.366218000" lon="-2.476709000">
        <ele>498.90</ele>
        <time>2012-11-24T10:04:47Z</time>
      </trkpt>
      <trkpt lat="42.366141000" lon="-2.476973000">
        <ele>500.20</ele>
        <time>2012-11-24T10:04:54Z</time>
      </trkpt>
      <trkpt lat="42.366121000" lon="-2.477014000">
        <ele>500.40</ele>
        <time>2012-11-24T10:04:54Z</time>
      </trkpt>
      <trkpt lat="42.366068000" lon="-2.477086000">
        <ele>500.70</ele>
        <time>2012-11-24T10:04:57Z</time>
      </trkpt>
      <trkpt lat="42.365368000" lon="-2.477476000">
        <ele>502.30</ele>
        <time>2012-11-24T10:05:17Z</time>
      </trkpt>
      <trkpt lat="42.364750000" lon="-2.477706000">
        <ele>504.50</ele>
        <time>2012-11-24T10:05:34Z</time>
      </trkpt>
      <trkpt lat="42.364733000" lon="-2.477708000">
        <ele>504.50</ele>
        <time>2012-11-24T10:05:36Z</time>
      </trkpt>
      <trkpt lat="42.364716000" lon="-2.477706000">
        <ele>504.60</ele>
        <time>2012-11-24T10:05:36Z</time>
      </trkpt>
      <trkpt lat="42.364696000" lon="-2.477714000">
        <ele>504.70</ele>
        <time>2012-11-24T10:05:37Z</time>
      </trkpt>
      <trkpt lat="42.364673000" lon="-2.477731000">
        <ele>504.70</ele>
        <time>2012-11-24T10:05:39Z</time>
      </trkpt>
      <trkpt lat="42.364643000" lon="-2.477746000">
        <ele>504.90</ele>
        <time>2012-11-24T10:05:39Z</time>
      </trkpt>
      <trkpt lat="42.364243000" lon="-2.477818000">
        <ele>504.50</ele>
        <time>2012-11-24T10:05:50Z</time>
      </trkpt>
      <trkpt lat="42.364096000" lon="-2.477878000">
        <ele>504.10</ele>
        <time>2012-11-24T10:05:55Z</time>
      </trkpt>
      <trkpt lat="42.363303000" lon="-2.478524000">
        <ele>505.90</ele>
        <time>2012-11-24T10:06:21Z</time>
      </trkpt>
      <trkpt lat="42.363283000" lon="-2.478553000">
        <ele>506.10</ele>
        <time>2012-11-24T10:06:23Z</time>
      </trkpt>
      <trkpt lat="42.363271000" lon="-2.478583000">
        <ele>506.30</ele>
        <time>2012-11-24T10:06:23Z</time>
      </trkpt>
      <trkpt lat="42.363246000" lon="-2.478663000">
        <ele>506.80</ele>
        <time>2012-11-24T10:06:26Z</time>
      </trkpt>
      <trkpt lat="42.363236000" lon="-2.478679000">
        <ele>506.90</ele>
        <time>2012-11-24T10:06:28Z</time>
      </trkpt>
      <trkpt lat="42.363163000" lon="-2.478754000">
        <ele>507.50</ele>
        <time>2012-11-24T10:06:31Z</time>
      </trkpt>
      <trkpt lat="42.363131000" lon="-2.478776000">
        <ele>507.60</ele>
        <time>2012-11-24T10:06:33Z</time>
      </trkpt>
      <trkpt lat="42.363095000" lon="-2.478793000">
        <ele>507.60</ele>
        <time>2012-11-24T10:06:33Z</time>
      </trkpt>
      <trkpt lat="42.361920000" lon="-2.478994000">
        <ele>506.10</ele>
        <time>2012-11-24T10:06:58Z</time>
      </trkpt>
      <trkpt lat="42.361875000" lon="-2.479011000">
        <ele>506.20</ele>
        <time>2012-11-24T10:06:59Z</time>
      </trkpt>
      <trkpt lat="42.361791000" lon="-2.479058000">
        <ele>506.60</ele>
        <time>2012-11-24T10:07:01Z</time>
      </trkpt>
      <trkpt lat="42.361755000" lon="-2.479104000">
        <ele>506.80</ele>
        <time>2012-11-24T10:07:03Z</time>
      </trkpt>
      <trkpt lat="42.361718000" lon="-2.479131000">
        <ele>506.90</ele>
        <time>2012-11-24T10:07:06Z</time>
      </trkpt>
      <trkpt lat="42.361706000" lon="-2.479133000">
        <ele>507.00</ele>
        <time>2012-11-24T10:07:06Z</time>
      </trkpt>
      <trkpt lat="42.361706000" lon="-2.479136000">
        <ele>507.00</ele>
        <time>2012-11-24T10:07:08Z</time>
      </trkpt>
      <trkpt lat="42.361705000" lon="-2.479136000">
        <ele>507.00</ele>
        <time>2012-11-24T10:07:08Z</time>
      </trkpt>
      <trkpt lat="42.361705000" lon="-2.479134000">
        <ele>507.10</ele>
        <time>2012-11-24T10:07:10Z</time>
      </trkpt>
      <trkpt lat="42.361700000" lon="-2.479129000">
        <ele>507.10</ele>
        <time>2012-11-24T10:07:15Z</time>
      </trkpt>
      <trkpt lat="42.361700000" lon="-2.479123000">
        <ele>507.10</ele>
        <time>2012-11-24T10:07:20Z</time>
      </trkpt>
      <trkpt lat="42.361698000" lon="-2.479123000">
        <ele>507.10</ele>
        <time>2012-11-24T10:07:22Z</time>
      </trkpt>
      <trkpt lat="42.361698000" lon="-2.479118000">
        <ele>507.10</ele>
        <time>2012-11-24T10:07:25Z</time>
      </trkpt>
      <trkpt lat="42.361698000" lon="-2.479116000">
        <ele>507.00</ele>
        <time>2012-11-24T10:07:27Z</time>
      </trkpt>
      <trkpt lat="42.361696000" lon="-2.479116000">
        <ele>507.00</ele>
        <time>2012-11-24T10:07:29Z</time>
      </trkpt>
      <trkpt lat="42.361695000" lon="-2.479114000">
        <ele>507.10</ele>
        <time>2012-11-24T10:07:32Z</time>
      </trkpt>
      <trkpt lat="42.361695000" lon="-2.479113000">
        <ele>507.00</ele>
        <time>2012-11-24T10:07:36Z</time>
      </trkpt>
      <trkpt lat="42.361693000" lon="-2.479113000">
        <ele>507.00</ele>
        <time>2012-11-24T10:07:36Z</time>
      </trkpt>
      <trkpt lat="42.361695000" lon="-2.479111000">
        <ele>507.00</ele>
        <time>2012-11-24T10:07:38Z</time>
      </trkpt>
      <trkpt lat="42.361696000" lon="-2.479099000">
        <ele>507.00</ele>
        <time>2012-11-24T10:07:46Z</time>
      </trkpt>
      <trkpt lat="42.361703000" lon="-2.479096000">
        <ele>507.00</ele>
        <time>2012-11-24T10:07:48Z</time>
      </trkpt>
      <trkpt lat="42.361700000" lon="-2.479096000">
        <ele>507.00</ele>
        <time>2012-11-24T10:07:53Z</time>
      </trkpt>
      <trkpt lat="42.361700000" lon="-2.479088000">
        <ele>507.00</ele>
        <time>2012-11-24T10:08:00Z</time>
      </trkpt>
      <trkpt lat="42.361703000" lon="-2.479084000">
        <ele>507.00</ele>
        <time>2012-11-24T10:08:02Z</time>
      </trkpt>
      <trkpt lat="42.361703000" lon="-2.479081000">
        <ele>507.00</ele>
        <time>2012-11-24T10:08:04Z</time>
      </trkpt>
      <trkpt lat="42.361706000" lon="-2.479081000">
        <ele>507.00</ele>
        <time>2012-11-24T10:08:04Z</time>
      </trkpt>
      <trkpt lat="42.361706000" lon="-2.479079000">
        <ele>507.00</ele>
        <time>2012-11-24T10:08:07Z</time>
      </trkpt>
      <trkpt lat="42.361708000" lon="-2.479079000">
        <ele>507.00</ele>
        <time>2012-11-24T10:08:07Z</time>
      </trkpt>
      <trkpt lat="42.361708000" lon="-2.479076000">
        <ele>507.00</ele>
        <time>2012-11-24T10:08:11Z</time>
      </trkpt>
      <trkpt lat="42.361708000" lon="-2.479076000">
        <ele>507.00</ele>
        <time>2012-11-24T10:08:11Z</time>
      </trkpt>
      <trkpt lat="42.361708000" lon="-2.479074000">
        <ele>506.90</ele>
        <time>2012-11-24T10:08:12Z</time>
      </trkpt>
      <trkpt lat="42.361706000" lon="-2.479073000">
        <ele>506.90</ele>
        <time>2012-11-24T10:08:14Z</time>
      </trkpt>
      <trkpt lat="42.361705000" lon="-2.479069000">
        <ele>506.90</ele>
        <time>2012-11-24T10:08:18Z</time>
      </trkpt>
      <trkpt lat="42.361701000" lon="-2.479068000">
        <ele>506.90</ele>
        <time>2012-11-24T10:08:21Z</time>
      </trkpt>
      <trkpt lat="42.361701000" lon="-2.479066000">
        <ele>506.90</ele>
        <time>2012-11-24T10:08:25Z</time>
      </trkpt>
      <trkpt lat="42.361700000" lon="-2.479068000">
        <ele>506.90</ele>
        <time>2012-11-24T10:08:28Z</time>
      </trkpt>
      <trkpt lat="42.361700000" lon="-2.479064000">
        <ele>506.90</ele>
        <time>2012-11-24T10:08:33Z</time>
      </trkpt>
      <trkpt lat="42.361696000" lon="-2.479064000">
        <ele>506.90</ele>
        <time>2012-11-24T10:08:37Z</time>
      </trkpt>
      <trkpt lat="42.361695000" lon="-2.479059000">
        <ele>506.90</ele>
        <time>2012-11-24T10:08:40Z</time>
      </trkpt>
      <trkpt lat="42.361691000" lon="-2.479058000">
        <ele>506.90</ele>
        <time>2012-11-24T10:08:42Z</time>
      </trkpt>
      <trkpt lat="42.361690000" lon="-2.479053000">
        <ele>506.90</ele>
        <time>2012-11-24T10:08:46Z</time>
      </trkpt>
      <trkpt lat="42.361688000" lon="-2.479053000">
        <ele>506.90</ele>
        <time>2012-11-24T10:08:47Z</time>
      </trkpt>
      <trkpt lat="42.361688000" lon="-2.479051000">
        <ele>506.90</ele>
        <time>2012-11-24T10:08:47Z</time>
      </trkpt>
      <trkpt lat="42.361680000" lon="-2.479043000">
        <ele>506.90</ele>
        <time>2012-11-24T10:08:54Z</time>
      </trkpt>
      <trkpt lat="42.361680000" lon="-2.479041000">
        <ele>506.90</ele>
        <time>2012-11-24T10:08:56Z</time>
      </trkpt>
      <trkpt lat="42.361678000" lon="-2.479041000">
        <ele>506.90</ele>
        <time>2012-11-24T10:08:56Z</time>
      </trkpt>
      <trkpt lat="42.361676000" lon="-2.479044000">
        <ele>507.00</ele>
        <time>2012-11-24T10:08:59Z</time>
      </trkpt>
      <trkpt lat="42.361676000" lon="-2.479043000">
        <ele>507.00</ele>
        <time>2012-11-24T10:09:01Z</time>
      </trkpt>
      <trkpt lat="42.361676000" lon="-2.479048000">
        <ele>507.00</ele>
        <time>2012-11-24T10:09:05Z</time>
      </trkpt>
      <trkpt lat="42.361678000" lon="-2.479048000">
        <ele>507.00</ele>
        <time>2012-11-24T10:09:06Z</time>
      </trkpt>
      <trkpt lat="42.361676000" lon="-2.479048000">
        <ele>507.00</ele>
        <time>2012-11-24T10:09:08Z</time>
      </trkpt>
      <trkpt lat="42.361675000" lon="-2.479046000">
        <ele>507.00</ele>
        <time>2012-11-24T10:09:08Z</time>
      </trkpt>
      <trkpt lat="42.361656000" lon="-2.479048000">
        <ele>507.00</ele>
        <time>2012-11-24T10:09:10Z</time>
      </trkpt>
      <trkpt lat="42.361621000" lon="-2.479061000">
        <ele>507.10</ele>
        <time>2012-11-24T10:09:12Z</time>
      </trkpt>
      <trkpt lat="42.361586000" lon="-2.479089000">
        <ele>507.20</ele>
        <time>2012-11-24T10:09:15Z</time>
      </trkpt>
      <trkpt lat="42.361570000" lon="-2.479109000">
        <ele>507.20</ele>
        <time>2012-11-24T10:09:15Z</time>
      </trkpt>
      <trkpt lat="42.361498000" lon="-2.479231000">
        <ele>507.50</ele>
        <time>2012-11-24T10:09:20Z</time>
      </trkpt>
      <trkpt lat="42.361436000" lon="-2.479291000">
        <ele>507.70</ele>
        <time>2012-11-24T10:09:24Z</time>
      </trkpt>
      <trkpt lat="42.361328000" lon="-2.479379000">
        <ele>507.80</ele>
        <time>2012-11-24T10:09:29Z</time>
      </trkpt>
      <trkpt lat="42.360988000" lon="-2.479748000">
        <ele>508.40</ele>
        <time>2012-11-24T10:09:45Z</time>
      </trkpt>
      <trkpt lat="42.360965000" lon="-2.479764000">
        <ele>508.40</ele>
        <time>2012-11-24T10:09:47Z</time>
      </trkpt>
      <trkpt lat="42.360948000" lon="-2.479803000">
        <ele>508.50</ele>
        <time>2012-11-24T10:09:48Z</time>
      </trkpt>
      <trkpt lat="42.360881000" lon="-2.479869000">
        <ele>508.70</ele>
        <time>2012-11-24T10:09:50Z</time>
      </trkpt>
      <trkpt lat="42.360405000" lon="-2.480226000">
        <ele>509.60</ele>
        <time>2012-11-24T10:10:09Z</time>
      </trkpt>
      <trkpt lat="42.360376000" lon="-2.480241000">
        <ele>509.60</ele>
        <time>2012-11-24T10:10:11Z</time>
      </trkpt>
      <trkpt lat="42.359546000" lon="-2.480664000">
        <ele>509.10</ele>
        <time>2012-11-24T10:10:37Z</time>
      </trkpt>
      <trkpt lat="42.359023000" lon="-2.481101000">
        <ele>511.70</ele>
        <time>2012-11-24T10:10:53Z</time>
      </trkpt>
      <trkpt lat="42.358603000" lon="-2.481304000">
        <ele>513.00</ele>
        <time>2012-11-24T10:11:05Z</time>
      </trkpt>
      <trkpt lat="42.357956000" lon="-2.481773000">
        <ele>514.10</ele>
        <time>2012-11-24T10:11:26Z</time>
      </trkpt>
      <trkpt lat="42.357920000" lon="-2.481784000">
        <ele>514.20</ele>
        <time>2012-11-24T10:11:26Z</time>
      </trkpt>
      <trkpt lat="42.357260000" lon="-2.481763000">
        <ele>513.90</ele>
        <time>2012-11-24T10:11:45Z</time>
      </trkpt>
      <trkpt lat="42.355676000" lon="-2.482081000">
        <ele>515.90</ele>
        <time>2012-11-24T10:12:27Z</time>
      </trkpt>
      <trkpt lat="42.355643000" lon="-2.482094000">
        <ele>515.90</ele>
        <time>2012-11-24T10:12:27Z</time>
      </trkpt>
      <trkpt lat="42.354008000" lon="-2.483243000">
        <ele>517.80</ele>
        <time>2012-11-24T10:13:14Z</time>
      </trkpt>
      <trkpt lat="42.353741000" lon="-2.483386000">
        <ele>517.70</ele>
        <time>2012-11-24T10:13:21Z</time>
      </trkpt>
      <trkpt lat="42.353355000" lon="-2.483489000">
        <ele>517.50</ele>
        <time>2012-11-24T10:13:31Z</time>
      </trkpt>
      <trkpt lat="42.353320000" lon="-2.483508000">
        <ele>517.50</ele>
        <time>2012-11-24T10:13:33Z</time>
      </trkpt>
      <trkpt lat="42.352226000" lon="-2.484383000">
        <ele>519.40</ele>
        <time>2012-11-24T10:14:04Z</time>
      </trkpt>
      <trkpt lat="42.351880000" lon="-2.484466000">
        <ele>519.50</ele>
        <time>2012-11-24T10:14:13Z</time>
      </trkpt>
      <trkpt lat="42.351215000" lon="-2.484963000">
        <ele>521.20</ele>
        <time>2012-11-24T10:14:32Z</time>
      </trkpt>
      <trkpt lat="42.351176000" lon="-2.484981000">
        <ele>521.20</ele>
        <time>2012-11-24T10:14:34Z</time>
      </trkpt>
      <trkpt lat="42.349680000" lon="-2.485623000">
        <ele>523.60</ele>
        <time>2012-11-24T10:15:14Z</time>
      </trkpt>
      <trkpt lat="42.349420000" lon="-2.485789000">
        <ele>523.90</ele>
        <time>2012-11-24T10:15:21Z</time>
      </trkpt>
      <trkpt lat="42.349063000" lon="-2.486134000">
        <ele>524.70</ele>
        <time>2012-11-24T10:15:31Z</time>
      </trkpt>
      <trkpt lat="42.348223000" lon="-2.486528000">
        <ele>523.70</ele>
        <time>2012-11-24T10:15:54Z</time>
      </trkpt>
      <trkpt lat="42.348188000" lon="-2.486554000">
        <ele>523.70</ele>
        <time>2012-11-24T10:15:54Z</time>
      </trkpt>
      <trkpt lat="42.347315000" lon="-2.487869000">
        <ele>526.30</ele>
        <time>2012-11-24T10:16:25Z</time>
      </trkpt>
      <trkpt lat="42.346776000" lon="-2.488349000">
        <ele>527.70</ele>
        <time>2012-11-24T10:16:41Z</time>
      </trkpt>
      <trkpt lat="42.346068000" lon="-2.488966000">
        <ele>530.20</ele>
        <time>2012-11-24T10:17:00Z</time>
      </trkpt>
      <trkpt lat="42.346028000" lon="-2.488991000">
        <ele>530.20</ele>
        <time>2012-11-24T10:17:02Z</time>
      </trkpt>
      <trkpt lat="42.345246000" lon="-2.489713000">
        <ele>531.10</ele>
        <time>2012-11-24T10:17:25Z</time>
      </trkpt>
      <trkpt lat="42.344428000" lon="-2.490286000">
        <ele>532.40</ele>
        <time>2012-11-24T10:17:46Z</time>
      </trkpt>
      <trkpt lat="42.343861000" lon="-2.490631000">
        <ele>532.70</ele>
        <time>2012-11-24T10:18:01Z</time>
      </trkpt>
      <trkpt lat="42.343765000" lon="-2.490738000">
        <ele>533.00</ele>
        <time>2012-11-24T10:18:03Z</time>
      </trkpt>
      <trkpt lat="42.343740000" lon="-2.490779000">
        <ele>533.00</ele>
        <time>2012-11-24T10:18:05Z</time>
      </trkpt>
      <trkpt lat="42.342160000" lon="-2.493094000">
        <ele>536.60</ele>
        <time>2012-11-24T10:19:02Z</time>
      </trkpt>
      <trkpt lat="42.342048000" lon="-2.493261000">
        <ele>537.30</ele>
        <time>2012-11-24T10:19:06Z</time>
      </trkpt>
      <trkpt lat="42.342025000" lon="-2.493309000">
        <ele>537.40</ele>
        <time>2012-11-24T10:19:06Z</time>
      </trkpt>
      <trkpt lat="42.341990000" lon="-2.493413000">
        <ele>537.70</ele>
        <time>2012-11-24T10:19:09Z</time>
      </trkpt>
      <trkpt lat="42.341980000" lon="-2.493521000">
        <ele>538.10</ele>
        <time>2012-11-24T10:19:11Z</time>
      </trkpt>
      <trkpt lat="42.341970000" lon="-2.493573000">
        <ele>538.30</ele>
        <time>2012-11-24T10:19:11Z</time>
      </trkpt>
      <trkpt lat="42.341663000" lon="-2.494181000">
        <ele>538.10</ele>
        <time>2012-11-24T10:19:25Z</time>
      </trkpt>
      <trkpt lat="42.341125000" lon="-2.494849000">
        <ele>537.70</ele>
        <time>2012-11-24T10:19:42Z</time>
      </trkpt>
      <trkpt lat="42.340873000" lon="-2.495398000">
        <ele>539.30</ele>
        <time>2012-11-24T10:19:53Z</time>
      </trkpt>
      <trkpt lat="42.340175000" lon="-2.496524000">
        <ele>541.30</ele>
        <time>2012-11-24T10:20:19Z</time>
      </trkpt>
      <trkpt lat="42.340153000" lon="-2.496571000">
        <ele>541.30</ele>
        <time>2012-11-24T10:20:19Z</time>
      </trkpt>
      <trkpt lat="42.339808000" lon="-2.497793000">
        <ele>544.00</ele>
        <time>2012-11-24T10:20:43Z</time>
      </trkpt>
      <trkpt lat="42.339725000" lon="-2.497989000">
        <ele>544.60</ele>
        <time>2012-11-24T10:20:47Z</time>
      </trkpt>
      <trkpt lat="42.339410000" lon="-2.498456000">
        <ele>546.70</ele>
        <time>2012-11-24T10:20:59Z</time>
      </trkpt>
      <trkpt lat="42.339253000" lon="-2.498961000">
        <ele>548.80</ele>
        <time>2012-11-24T10:21:11Z</time>
      </trkpt>
      <trkpt lat="42.339240000" lon="-2.498988000">
        <ele>548.90</ele>
        <time>2012-11-24T10:21:11Z</time>
      </trkpt>
      <trkpt lat="42.339165000" lon="-2.499104000">
        <ele>549.10</ele>
        <time>2012-11-24T10:21:16Z</time>
      </trkpt>
      <trkpt lat="42.339140000" lon="-2.499121000">
        <ele>549.20</ele>
        <time>2012-11-24T10:21:16Z</time>
      </trkpt>
      <trkpt lat="42.339081000" lon="-2.499129000">
        <ele>549.10</ele>
        <time>2012-11-24T10:21:18Z</time>
      </trkpt>
      <trkpt lat="42.339056000" lon="-2.499149000">
        <ele>549.10</ele>
        <time>2012-11-24T10:21:20Z</time>
      </trkpt>
      <trkpt lat="42.339038000" lon="-2.499178000">
        <ele>549.10</ele>
        <time>2012-11-24T10:21:20Z</time>
      </trkpt>
      <trkpt lat="42.338850000" lon="-2.499831000">
        <ele>551.10</ele>
        <time>2012-11-24T10:21:37Z</time>
      </trkpt>
      <trkpt lat="42.338795000" lon="-2.499946000">
        <ele>551.60</ele>
        <time>2012-11-24T10:21:41Z</time>
      </trkpt>
      <trkpt lat="42.338343000" lon="-2.500569000">
        <ele>552.90</ele>
        <time>2012-11-24T10:21:58Z</time>
      </trkpt>
      <trkpt lat="42.338248000" lon="-2.500756000">
        <ele>553.10</ele>
        <time>2012-11-24T10:22:03Z</time>
      </trkpt>
      <trkpt lat="42.338208000" lon="-2.500869000">
        <ele>553.30</ele>
        <time>2012-11-24T10:22:07Z</time>
      </trkpt>
      <trkpt lat="42.338191000" lon="-2.500901000">
        <ele>553.40</ele>
        <time>2012-11-24T10:22:07Z</time>
      </trkpt>
      <trkpt lat="42.338170000" lon="-2.500924000">
        <ele>553.50</ele>
        <time>2012-11-24T10:22:09Z</time>
      </trkpt>
      <trkpt lat="42.338108000" lon="-2.500943000">
        <ele>553.40</ele>
        <time>2012-11-24T10:22:10Z</time>
      </trkpt>
      <trkpt lat="42.337958000" lon="-2.500969000">
        <ele>553.20</ele>
        <time>2012-11-24T10:22:14Z</time>
      </trkpt>
      <trkpt lat="42.337235000" lon="-2.501416000">
        <ele>553.10</ele>
        <time>2012-11-24T10:22:35Z</time>
      </trkpt>
      <trkpt lat="42.337203000" lon="-2.501446000">
        <ele>553.10</ele>
        <time>2012-11-24T10:22:36Z</time>
      </trkpt>
      <trkpt lat="42.336153000" lon="-2.502003000">
        <ele>553.30</ele>
        <time>2012-11-24T10:23:03Z</time>
      </trkpt>
      <trkpt lat="42.336073000" lon="-2.502073000">
        <ele>553.30</ele>
        <time>2012-11-24T10:23:04Z</time>
      </trkpt>
      <trkpt lat="42.335948000" lon="-2.502234000">
        <ele>553.20</ele>
        <time>2012-11-24T10:23:08Z</time>
      </trkpt>
      <trkpt lat="42.335845000" lon="-2.502403000">
        <ele>553.10</ele>
        <time>2012-11-24T10:23:13Z</time>
      </trkpt>
      <trkpt lat="42.335265000" lon="-2.503009000">
        <ele>552.70</ele>
        <time>2012-11-24T10:23:29Z</time>
      </trkpt>
      <trkpt lat="42.335133000" lon="-2.503083000">
        <ele>552.50</ele>
        <time>2012-11-24T10:23:32Z</time>
      </trkpt>
      <trkpt lat="42.334893000" lon="-2.503138000">
        <ele>552.00</ele>
        <time>2012-11-24T10:23:37Z</time>
      </trkpt>
      <trkpt lat="42.334846000" lon="-2.503158000">
        <ele>551.90</ele>
        <time>2012-11-24T10:23:39Z</time>
      </trkpt>
      <trkpt lat="42.334353000" lon="-2.503569000">
        <ele>551.10</ele>
        <time>2012-11-24T10:23:53Z</time>
      </trkpt>
      <trkpt lat="42.333943000" lon="-2.503748000">
        <ele>551.60</ele>
        <time>2012-11-24T10:24:02Z</time>
      </trkpt>
      <trkpt lat="42.333648000" lon="-2.503949000">
        <ele>552.40</ele>
        <time>2012-11-24T10:24:11Z</time>
      </trkpt>
      <trkpt lat="42.333118000" lon="-2.504209000">
        <ele>553.30</ele>
        <time>2012-11-24T10:24:24Z</time>
      </trkpt>
      <trkpt lat="42.332990000" lon="-2.504334000">
        <ele>553.60</ele>
        <time>2012-11-24T10:24:28Z</time>
      </trkpt>
      <trkpt lat="42.332810000" lon="-2.504689000">
        <ele>554.00</ele>
        <time>2012-11-24T10:24:37Z</time>
      </trkpt>
      <trkpt lat="42.332373000" lon="-2.505893000">
        <ele>558.40</ele>
        <time>2012-11-24T10:25:03Z</time>
      </trkpt>
      <trkpt lat="42.332350000" lon="-2.505934000">
        <ele>558.50</ele>
        <time>2012-11-24T10:25:03Z</time>
      </trkpt>
      <trkpt lat="42.331858000" lon="-2.506704000">
        <ele>562.70</ele>
        <time>2012-11-24T10:25:27Z</time>
      </trkpt>
      <trkpt lat="42.331810000" lon="-2.506738000">
        <ele>562.80</ele>
        <time>2012-11-24T10:25:29Z</time>
      </trkpt>
      <trkpt lat="42.330510000" lon="-2.507289000">
        <ele>558.90</ele>
        <time>2012-11-24T10:26:04Z</time>
      </trkpt>
      <trkpt lat="42.330470000" lon="-2.507318000">
        <ele>558.90</ele>
        <time>2012-11-24T10:26:04Z</time>
      </trkpt>
      <trkpt lat="42.329956000" lon="-2.507934000">
        <ele>559.30</ele>
        <time>2012-11-24T10:26:21Z</time>
      </trkpt>
      <trkpt lat="42.329758000" lon="-2.508148000">
        <ele>559.30</ele>
        <time>2012-11-24T10:26:26Z</time>
      </trkpt>
      <trkpt lat="42.329146000" lon="-2.509108000">
        <ele>561.80</ele>
        <time>2012-11-24T10:26:49Z</time>
      </trkpt>
      <trkpt lat="42.328765000" lon="-2.510033000">
        <ele>565.00</ele>
        <time>2012-11-24T10:27:05Z</time>
      </trkpt>
      <trkpt lat="42.328505000" lon="-2.510473000">
        <ele>566.90</ele>
        <time>2012-11-24T10:27:15Z</time>
      </trkpt>
      <trkpt lat="42.328485000" lon="-2.510519000">
        <ele>567.20</ele>
        <time>2012-11-24T10:27:15Z</time>
      </trkpt>
      <trkpt lat="42.328245000" lon="-2.510969000">
        <ele>571.70</ele>
        <time>2012-11-24T10:27:29Z</time>
      </trkpt>
      <trkpt lat="42.327851000" lon="-2.511266000">
        <ele>568.80</ele>
        <time>2012-11-24T10:27:43Z</time>
      </trkpt>
      <trkpt lat="42.327796000" lon="-2.511283000">
        <ele>568.70</ele>
        <time>2012-11-24T10:27:45Z</time>
      </trkpt>
      <trkpt lat="42.327763000" lon="-2.511284000">
        <ele>568.50</ele>
        <time>2012-11-24T10:27:47Z</time>
      </trkpt>
      <trkpt lat="42.327725000" lon="-2.511278000">
        <ele>568.30</ele>
        <time>2012-11-24T10:27:48Z</time>
      </trkpt>
      <trkpt lat="42.327688000" lon="-2.511248000">
        <ele>567.80</ele>
        <time>2012-11-24T10:27:48Z</time>
      </trkpt>
      <trkpt lat="42.327588000" lon="-2.511051000">
        <ele>566.30</ele>
        <time>2012-11-24T10:27:52Z</time>
      </trkpt>
      <trkpt lat="42.327565000" lon="-2.510966000">
        <ele>565.80</ele>
        <time>2012-11-24T10:27:52Z</time>
      </trkpt>
      <trkpt lat="42.327400000" lon="-2.509944000">
        <ele>561.90</ele>
        <time>2012-11-24T10:28:07Z</time>
      </trkpt>
      <trkpt lat="42.327386000" lon="-2.509908000">
        <ele>561.80</ele>
        <time>2012-11-24T10:28:09Z</time>
      </trkpt>
      <trkpt lat="42.327370000" lon="-2.509888000">
        <ele>561.70</ele>
        <time>2012-11-24T10:28:09Z</time>
      </trkpt>
      <trkpt lat="42.327345000" lon="-2.509883000">
        <ele>561.70</ele>
        <time>2012-11-24T10:28:11Z</time>
      </trkpt>
      <trkpt lat="42.327316000" lon="-2.509891000">
        <ele>561.60</ele>
        <time>2012-11-24T10:28:11Z</time>
      </trkpt>
      <trkpt lat="42.326921000" lon="-2.510103000">
        <ele>561.70</ele>
        <time>2012-11-24T10:28:23Z</time>
      </trkpt>
      <trkpt lat="42.326883000" lon="-2.510114000">
        <ele>561.70</ele>
        <time>2012-11-24T10:28:25Z</time>
      </trkpt>
      <trkpt lat="42.326223000" lon="-2.510124000">
        <ele>562.30</ele>
        <time>2012-11-24T10:28:42Z</time>
      </trkpt>
      <trkpt lat="42.325971000" lon="-2.510209000">
        <ele>562.40</ele>
        <time>2012-11-24T10:28:49Z</time>
      </trkpt>
      <trkpt lat="42.325938000" lon="-2.510231000">
        <ele>562.40</ele>
        <time>2012-11-24T10:28:49Z</time>
      </trkpt>
      <trkpt lat="42.325705000" lon="-2.510484000">
        <ele>562.70</ele>
        <time>2012-11-24T10:28:58Z</time>
      </trkpt>
      <trkpt lat="42.325430000" lon="-2.510949000">
        <ele>564.10</ele>
        <time>2012-11-24T10:29:10Z</time>
      </trkpt>
      <trkpt lat="42.325400000" lon="-2.511024000">
        <ele>564.30</ele>
        <time>2012-11-24T10:29:12Z</time>
      </trkpt>
      <trkpt lat="42.325365000" lon="-2.511149000">
        <ele>564.60</ele>
        <time>2012-11-24T10:29:14Z</time>
      </trkpt>
      <trkpt lat="42.325275000" lon="-2.511341000">
        <ele>564.70</ele>
        <time>2012-11-24T10:29:19Z</time>
      </trkpt>
      <trkpt lat="42.325255000" lon="-2.511403000">
        <ele>564.70</ele>
        <time>2012-11-24T10:29:22Z</time>
      </trkpt>
      <trkpt lat="42.325243000" lon="-2.511428000">
        <ele>564.60</ele>
        <time>2012-11-24T10:29:22Z</time>
      </trkpt>
      <trkpt lat="42.325173000" lon="-2.511518000">
        <ele>564.50</ele>
        <time>2012-11-24T10:29:26Z</time>
      </trkpt>
      <trkpt lat="42.325156000" lon="-2.511551000">
        <ele>564.50</ele>
        <time>2012-11-24T10:29:28Z</time>
      </trkpt>
      <trkpt lat="42.325076000" lon="-2.511696000">
        <ele>564.30</ele>
        <time>2012-11-24T10:29:33Z</time>
      </trkpt>
      <trkpt lat="42.325065000" lon="-2.511719000">
        <ele>564.20</ele>
        <time>2012-11-24T10:29:33Z</time>
      </trkpt>
      <trkpt lat="42.325036000" lon="-2.511758000">
        <ele>564.20</ele>
        <time>2012-11-24T10:29:36Z</time>
      </trkpt>
      <trkpt lat="42.325028000" lon="-2.511773000">
        <ele>564.20</ele>
        <time>2012-11-24T10:29:36Z</time>
      </trkpt>
      <trkpt lat="42.325023000" lon="-2.511793000">
        <ele>564.20</ele>
        <time>2012-11-24T10:29:38Z</time>
      </trkpt>
      <trkpt lat="42.324978000" lon="-2.511914000">
        <ele>564.10</ele>
        <time>2012-11-24T10:29:41Z</time>
      </trkpt>
      <trkpt lat="42.324470000" lon="-2.512743000">
        <ele>564.80</ele>
        <time>2012-11-24T10:30:04Z</time>
      </trkpt>
      <trkpt lat="42.323453000" lon="-2.513994000">
        <ele>567.40</ele>
        <time>2012-11-24T10:30:41Z</time>
      </trkpt>
      <trkpt lat="42.323423000" lon="-2.514021000">
        <ele>567.50</ele>
        <time>2012-11-24T10:30:42Z</time>
      </trkpt>
      <trkpt lat="42.323030000" lon="-2.514521000">
        <ele>567.40</ele>
        <time>2012-11-24T10:30:58Z</time>
      </trkpt>
      <trkpt lat="42.323005000" lon="-2.514543000">
        <ele>567.30</ele>
        <time>2012-11-24T10:30:58Z</time>
      </trkpt>
      <trkpt lat="42.322978000" lon="-2.514556000">
        <ele>567.30</ele>
        <time>2012-11-24T10:31:00Z</time>
      </trkpt>
      <trkpt lat="42.322955000" lon="-2.514554000">
        <ele>567.20</ele>
        <time>2012-11-24T10:31:00Z</time>
      </trkpt>
      <trkpt lat="42.322938000" lon="-2.514534000">
        <ele>567.10</ele>
        <time>2012-11-24T10:31:02Z</time>
      </trkpt>
      <trkpt lat="42.322795000" lon="-2.514184000">
        <ele>567.10</ele>
        <time>2012-11-24T10:31:10Z</time>
      </trkpt>
      <trkpt lat="42.322790000" lon="-2.514143000">
        <ele>567.20</ele>
        <time>2012-11-24T10:31:12Z</time>
      </trkpt>
      <trkpt lat="42.322800000" lon="-2.514099000">
        <ele>567.20</ele>
        <time>2012-11-24T10:31:12Z</time>
      </trkpt>
      <trkpt lat="42.322856000" lon="-2.514014000">
        <ele>567.10</ele>
        <time>2012-11-24T10:31:14Z</time>
      </trkpt>
      <trkpt lat="42.323071000" lon="-2.513771000">
        <ele>567.00</ele>
        <time>2012-11-24T10:31:21Z</time>
      </trkpt>
      <trkpt lat="42.323093000" lon="-2.513721000">
        <ele>567.00</ele>
        <time>2012-11-24T10:31:21Z</time>
      </trkpt>
      <trkpt lat="42.323106000" lon="-2.513668000">
        <ele>566.90</ele>
        <time>2012-11-24T10:31:23Z</time>
      </trkpt>
      <trkpt lat="42.323111000" lon="-2.513614000">
        <ele>566.90</ele>
        <time>2012-11-24T10:31:24Z</time>
      </trkpt>
      <trkpt lat="42.323018000" lon="-2.513003000">
        <ele>566.80</ele>
        <time>2012-11-24T10:31:38Z</time>
      </trkpt>
      <trkpt lat="42.322946000" lon="-2.512761000">
        <ele>566.90</ele>
        <time>2012-11-24T10:31:45Z</time>
      </trkpt>
      <trkpt lat="42.322933000" lon="-2.512729000">
        <ele>566.90</ele>
        <time>2012-11-24T10:31:47Z</time>
      </trkpt>
      <trkpt lat="42.322811000" lon="-2.512408000">
        <ele>567.30</ele>
        <time>2012-11-24T10:31:57Z</time>
      </trkpt>
      <trkpt lat="42.322835000" lon="-2.512143000">
        <ele>567.30</ele>
        <time>2012-11-24T10:32:04Z</time>
      </trkpt>
      <trkpt lat="42.322833000" lon="-2.512106000">
        <ele>567.30</ele>
        <time>2012-11-24T10:32:04Z</time>
      </trkpt>
      <trkpt lat="42.322798000" lon="-2.511971000">
        <ele>567.30</ele>
        <time>2012-11-24T10:32:08Z</time>
      </trkpt>
      <trkpt lat="42.322716000" lon="-2.511813000">
        <ele>567.50</ele>
        <time>2012-11-24T10:32:13Z</time>
      </trkpt>
      <trkpt lat="42.322175000" lon="-2.511113000">
        <ele>568.80</ele>
        <time>2012-11-24T10:32:41Z</time>
      </trkpt>
      <trkpt lat="42.321893000" lon="-2.510858000">
        <ele>571.10</ele>
        <time>2012-11-24T10:32:55Z</time>
      </trkpt>
      <trkpt lat="42.321886000" lon="-2.510849000">
        <ele>571.10</ele>
        <time>2012-11-24T10:32:57Z</time>
      </trkpt>
      <trkpt lat="42.321885000" lon="-2.510844000">
        <ele>571.40</ele>
        <time>2012-11-24T10:33:00Z</time>
      </trkpt>
      <trkpt lat="42.321883000" lon="-2.510841000">
        <ele>571.40</ele>
        <time>2012-11-24T10:33:02Z</time>
      </trkpt>
      <trkpt lat="42.321885000" lon="-2.510838000">
        <ele>571.50</ele>
        <time>2012-11-24T10:33:04Z</time>
      </trkpt>
      <trkpt lat="42.321885000" lon="-2.510833000">
        <ele>571.50</ele>
        <time>2012-11-24T10:33:09Z</time>
      </trkpt>
      <trkpt lat="42.321888000" lon="-2.510829000">
        <ele>571.50</ele>
        <time>2012-11-24T10:33:16Z</time>
      </trkpt>
      <trkpt lat="42.321890000" lon="-2.510826000">
        <ele>571.40</ele>
        <time>2012-11-24T10:33:23Z</time>
      </trkpt>
      <trkpt lat="42.321890000" lon="-2.510823000">
        <ele>571.40</ele>
        <time>2012-11-24T10:33:28Z</time>
      </trkpt>
      <trkpt lat="42.321890000" lon="-2.510823000">
        <ele>571.40</ele>
        <time>2012-11-24T10:33:28Z</time>
      </trkpt>
      <trkpt lat="42.321890000" lon="-2.510821000">
        <ele>571.50</ele>
        <time>2012-11-24T10:33:30Z</time>
      </trkpt>
      <trkpt lat="42.321891000" lon="-2.510821000">
        <ele>571.40</ele>
        <time>2012-11-24T10:33:31Z</time>
      </trkpt>
      <trkpt lat="42.321891000" lon="-2.510818000">
        <ele>571.40</ele>
        <time>2012-11-24T10:33:35Z</time>
      </trkpt>
      <trkpt lat="42.321893000" lon="-2.510818000">
        <ele>571.40</ele>
        <time>2012-11-24T10:33:37Z</time>
      </trkpt>
      <trkpt lat="42.321893000" lon="-2.510814000">
        <ele>571.40</ele>
        <time>2012-11-24T10:33:40Z</time>
      </trkpt>
      <trkpt lat="42.321896000" lon="-2.510813000">
        <ele>571.40</ele>
        <time>2012-11-24T10:33:47Z</time>
      </trkpt>
      <trkpt lat="42.321896000" lon="-2.510809000">
        <ele>571.40</ele>
        <time>2012-11-24T10:33:52Z</time>
      </trkpt>
      <trkpt lat="42.321898000" lon="-2.510808000">
        <ele>571.40</ele>
        <time>2012-11-24T10:33:56Z</time>
      </trkpt>
      <trkpt lat="42.321893000" lon="-2.510809000">
        <ele>571.40</ele>
        <time>2012-11-24T10:34:01Z</time>
      </trkpt>
      <trkpt lat="42.321893000" lon="-2.510809000">
        <ele>571.40</ele>
        <time>2012-11-24T10:34:03Z</time>
      </trkpt>
      <trkpt lat="42.321891000" lon="-2.510809000">
        <ele>571.50</ele>
        <time>2012-11-24T10:34:05Z</time>
      </trkpt>
      <trkpt lat="42.321890000" lon="-2.510818000">
        <ele>571.50</ele>
        <time>2012-11-24T10:34:15Z</time>
      </trkpt>
      <trkpt lat="42.321888000" lon="-2.510818000">
        <ele>571.50</ele>
        <time>2012-11-24T10:34:17Z</time>
      </trkpt>
      <trkpt lat="42.321888000" lon="-2.510821000">
        <ele>571.50</ele>
        <time>2012-11-24T10:34:20Z</time>
      </trkpt>
      <trkpt lat="42.321885000" lon="-2.510824000">
        <ele>571.50</ele>
        <time>2012-11-24T10:34:22Z</time>
      </trkpt>
      <trkpt lat="42.321878000" lon="-2.510826000">
        <ele>571.50</ele>
        <time>2012-11-24T10:34:22Z</time>
      </trkpt>
      <trkpt lat="42.321875000" lon="-2.510828000">
        <ele>571.60</ele>
        <time>2012-11-24T10:34:24Z</time>
      </trkpt>
      <trkpt lat="42.321870000" lon="-2.510829000">
        <ele>571.60</ele>
        <time>2012-11-24T10:34:25Z</time>
      </trkpt>
      <trkpt lat="42.321851000" lon="-2.510831000">
        <ele>571.70</ele>
        <time>2012-11-24T10:34:27Z</time>
      </trkpt>
      <trkpt lat="42.321826000" lon="-2.510844000">
        <ele>571.90</ele>
        <time>2012-11-24T10:34:29Z</time>
      </trkpt>
      <trkpt lat="42.321815000" lon="-2.510859000">
        <ele>572.00</ele>
        <time>2012-11-24T10:34:31Z</time>
      </trkpt>
      <trkpt lat="42.321801000" lon="-2.510884000">
        <ele>572.00</ele>
        <time>2012-11-24T10:34:31Z</time>
      </trkpt>
      <trkpt lat="42.321713000" lon="-2.511094000">
        <ele>572.00</ele>
        <time>2012-11-24T10:34:38Z</time>
      </trkpt>
      <trkpt lat="42.321696000" lon="-2.511119000">
        <ele>572.00</ele>
        <time>2012-11-24T10:34:39Z</time>
      </trkpt>
      <trkpt lat="42.321636000" lon="-2.511199000">
        <ele>571.90</ele>
        <time>2012-11-24T10:34:43Z</time>
      </trkpt>
      <trkpt lat="42.321253000" lon="-2.511818000">
        <ele>572.60</ele>
        <time>2012-11-24T10:35:02Z</time>
      </trkpt>
      <trkpt lat="42.321228000" lon="-2.511848000">
        <ele>572.60</ele>
        <time>2012-11-24T10:35:04Z</time>
      </trkpt>
      <trkpt lat="42.320113000" lon="-2.513833000">
        <ele>579.60</ele>
        <time>2012-11-24T10:35:54Z</time>
      </trkpt>
      <trkpt lat="42.318975000" lon="-2.517858000">
        <ele>580.60</ele>
        <time>2012-11-24T10:37:16Z</time>
      </trkpt>
      <trkpt lat="42.318953000" lon="-2.517908000">
        <ele>580.60</ele>
        <time>2012-11-24T10:37:16Z</time>
      </trkpt>
      <trkpt lat="42.318463000" lon="-2.521509000">
        <ele>592.00</ele>
        <time>2012-11-24T10:38:19Z</time>
      </trkpt>
      <trkpt lat="42.318455000" lon="-2.521546000">
        <ele>592.30</ele>
        <time>2012-11-24T10:38:21Z</time>
      </trkpt>
      <trkpt lat="42.318110000" lon="-2.524058000">
        <ele>588.50</ele>
        <time>2012-11-24T10:39:13Z</time>
      </trkpt>
      <trkpt lat="42.318050000" lon="-2.524248000">
        <ele>586.90</ele>
        <time>2012-11-24T10:39:16Z</time>
      </trkpt>
      <trkpt lat="42.317993000" lon="-2.524364000">
        <ele>585.90</ele>
        <time>2012-11-24T10:39:20Z</time>
      </trkpt>
      <trkpt lat="42.317946000" lon="-2.524429000">
        <ele>585.30</ele>
        <time>2012-11-24T10:39:22Z</time>
      </trkpt>
      <trkpt lat="42.317921000" lon="-2.524454000">
        <ele>585.10</ele>
        <time>2012-11-24T10:39:23Z</time>
      </trkpt>
      <trkpt lat="42.317358000" lon="-2.524711000">
        <ele>595.60</ele>
        <time>2012-11-24T10:39:39Z</time>
      </trkpt>
      <trkpt lat="42.317153000" lon="-2.524776000">
        <ele>599.30</ele>
        <time>2012-11-24T10:39:46Z</time>
      </trkpt>
      <trkpt lat="42.316920000" lon="-2.524948000">
        <ele>599.50</ele>
        <time>2012-11-24T10:39:55Z</time>
      </trkpt>
      <trkpt lat="42.316678000" lon="-2.525216000">
        <ele>597.10</ele>
        <time>2012-11-24T10:40:03Z</time>
      </trkpt>
      <trkpt lat="42.316390000" lon="-2.525639000">
        <ele>594.40</ele>
        <time>2012-11-24T10:40:16Z</time>
      </trkpt>
      <trkpt lat="42.316301000" lon="-2.525713000">
        <ele>594.60</ele>
        <time>2012-11-24T10:40:19Z</time>
      </trkpt>
      <trkpt lat="42.315738000" lon="-2.525954000">
        <ele>601.60</ele>
        <time>2012-11-24T10:40:35Z</time>
      </trkpt>
      <trkpt lat="42.315706000" lon="-2.525979000">
        <ele>601.70</ele>
        <time>2012-11-24T10:40:35Z</time>
      </trkpt>
      <trkpt lat="42.314590000" lon="-2.527364000">
        <ele>590.30</ele>
        <time>2012-11-24T10:41:20Z</time>
      </trkpt>
      <trkpt lat="42.314576000" lon="-2.527391000">
        <ele>590.30</ele>
        <time>2012-11-24T10:41:20Z</time>
      </trkpt>
      <trkpt lat="42.314570000" lon="-2.527411000">
        <ele>590.30</ele>
        <time>2012-11-24T10:41:22Z</time>
      </trkpt>
      <trkpt lat="42.314571000" lon="-2.527419000">
        <ele>590.30</ele>
        <time>2012-11-24T10:41:22Z</time>
      </trkpt>
      <trkpt lat="42.314581000" lon="-2.527421000">
        <ele>590.20</ele>
        <time>2012-11-24T10:41:23Z</time>
      </trkpt>
      <trkpt lat="42.314601000" lon="-2.527423000">
        <ele>590.20</ele>
        <time>2012-11-24T10:41:25Z</time>
      </trkpt>
      <trkpt lat="42.314605000" lon="-2.527428000">
        <ele>590.10</ele>
        <time>2012-11-24T10:41:27Z</time>
      </trkpt>
      <trkpt lat="42.314613000" lon="-2.527436000">
        <ele>590.10</ele>
        <time>2012-11-24T10:41:29Z</time>
      </trkpt>
      <trkpt lat="42.314618000" lon="-2.527436000">
        <ele>590.10</ele>
        <time>2012-11-24T10:41:30Z</time>
      </trkpt>
      <trkpt lat="42.314620000" lon="-2.527438000">
        <ele>590.10</ele>
        <time>2012-11-24T10:41:32Z</time>
      </trkpt>
      <trkpt lat="42.314623000" lon="-2.527434000">
        <ele>590.00</ele>
        <time>2012-11-24T10:41:32Z</time>
      </trkpt>
      <trkpt lat="42.314626000" lon="-2.527431000">
        <ele>590.00</ele>
        <time>2012-11-24T10:41:34Z</time>
      </trkpt>
      <trkpt lat="42.314630000" lon="-2.527434000">
        <ele>590.00</ele>
        <time>2012-11-24T10:41:34Z</time>
      </trkpt>
      <trkpt lat="42.314633000" lon="-2.527433000">
        <ele>590.00</ele>
        <time>2012-11-24T10:41:37Z</time>
      </trkpt>
      <trkpt lat="42.314628000" lon="-2.527429000">
        <ele>590.00</ele>
        <time>2012-11-24T10:41:39Z</time>
      </trkpt>
      <trkpt lat="42.314635000" lon="-2.527431000">
        <ele>590.00</ele>
        <time>2012-11-24T10:41:43Z</time>
      </trkpt>
      <trkpt lat="42.314631000" lon="-2.527431000">
        <ele>590.00</ele>
        <time>2012-11-24T10:41:43Z</time>
      </trkpt>
      <trkpt lat="42.314633000" lon="-2.527433000">
        <ele>590.00</ele>
        <time>2012-11-24T10:41:44Z</time>
      </trkpt>
      <trkpt lat="42.314648000" lon="-2.527434000">
        <ele>590.00</ele>
        <time>2012-11-24T10:41:48Z</time>
      </trkpt>
      <trkpt lat="42.314656000" lon="-2.527438000">
        <ele>590.00</ele>
        <time>2012-11-24T10:41:50Z</time>
      </trkpt>
      <trkpt lat="42.314651000" lon="-2.527439000">
        <ele>590.00</ele>
        <time>2012-11-24T10:41:53Z</time>
      </trkpt>
      <trkpt lat="42.314650000" lon="-2.527443000">
        <ele>590.00</ele>
        <time>2012-11-24T10:41:55Z</time>
      </trkpt>
      <trkpt lat="42.314655000" lon="-2.527458000">
        <ele>590.00</ele>
        <time>2012-11-24T10:42:02Z</time>
      </trkpt>
      <trkpt lat="42.314653000" lon="-2.527459000">
        <ele>590.00</ele>
        <time>2012-11-24T10:42:02Z</time>
      </trkpt>
      <trkpt lat="42.314653000" lon="-2.527466000">
        <ele>589.90</ele>
        <time>2012-11-24T10:42:05Z</time>
      </trkpt>
      <trkpt lat="42.314651000" lon="-2.527483000">
        <ele>589.90</ele>
        <time>2012-11-24T10:42:12Z</time>
      </trkpt>
      <trkpt lat="42.314656000" lon="-2.527489000">
        <ele>589.90</ele>
        <time>2012-11-24T10:42:16Z</time>
      </trkpt>
      <trkpt lat="42.314688000" lon="-2.527486000">
        <ele>589.90</ele>
        <time>2012-11-24T10:42:21Z</time>
      </trkpt>
      <trkpt lat="42.314695000" lon="-2.527486000">
        <ele>589.80</ele>
        <time>2012-11-24T10:42:23Z</time>
      </trkpt>
      <trkpt lat="42.314701000" lon="-2.527486000">
        <ele>589.80</ele>
        <time>2012-11-24T10:42:23Z</time>
      </trkpt>
      <trkpt lat="42.314730000" lon="-2.527478000">
        <ele>589.80</ele>
        <time>2012-11-24T10:42:28Z</time>
      </trkpt>
      <trkpt lat="42.314750000" lon="-2.527468000">
        <ele>589.80</ele>
        <time>2012-11-24T10:42:33Z</time>
      </trkpt>
      <trkpt lat="42.314753000" lon="-2.527464000">
        <ele>589.80</ele>
        <time>2012-11-24T10:42:33Z</time>
      </trkpt>
      <trkpt lat="42.314758000" lon="-2.527463000">
        <ele>589.80</ele>
        <time>2012-11-24T10:42:35Z</time>
      </trkpt>
      <trkpt lat="42.314761000" lon="-2.527459000">
        <ele>589.80</ele>
        <time>2012-11-24T10:42:35Z</time>
      </trkpt>
      <trkpt lat="42.314770000" lon="-2.527456000">
        <ele>589.80</ele>
        <time>2012-11-24T10:42:37Z</time>
      </trkpt>
      <trkpt lat="42.314771000" lon="-2.527454000">
        <ele>589.80</ele>
        <time>2012-11-24T10:42:38Z</time>
      </trkpt>
      <trkpt lat="42.314783000" lon="-2.527448000">
        <ele>589.80</ele>
        <time>2012-11-24T10:42:45Z</time>
      </trkpt>
      <trkpt lat="42.314778000" lon="-2.527448000">
        <ele>589.80</ele>
        <time>2012-11-24T10:42:49Z</time>
      </trkpt>
      <trkpt lat="42.314778000" lon="-2.527451000">
        <ele>589.80</ele>
        <time>2012-11-24T10:42:52Z</time>
      </trkpt>
      <trkpt lat="42.314768000" lon="-2.527451000">
        <ele>589.80</ele>
        <time>2012-11-24T10:42:59Z</time>
      </trkpt>
      <trkpt lat="42.314765000" lon="-2.527449000">
        <ele>589.80</ele>
        <time>2012-11-24T10:42:59Z</time>
      </trkpt>
      <trkpt lat="42.314765000" lon="-2.527444000">
        <ele>589.80</ele>
        <time>2012-11-24T10:43:03Z</time>
      </trkpt>
      <trkpt lat="42.314761000" lon="-2.527443000">
        <ele>589.80</ele>
        <time>2012-11-24T10:43:05Z</time>
      </trkpt>
      <trkpt lat="42.314761000" lon="-2.527441000">
        <ele>589.80</ele>
        <time>2012-11-24T10:43:06Z</time>
      </trkpt>
      <trkpt lat="42.314758000" lon="-2.527439000">
        <ele>589.80</ele>
        <time>2012-11-24T10:43:06Z</time>
      </trkpt>
      <trkpt lat="42.314760000" lon="-2.527438000">
        <ele>589.80</ele>
        <time>2012-11-24T10:43:08Z</time>
      </trkpt>
      <trkpt lat="42.314760000" lon="-2.527436000">
        <ele>589.80</ele>
        <time>2012-11-24T10:43:10Z</time>
      </trkpt>
      <trkpt lat="42.314771000" lon="-2.527438000">
        <ele>589.80</ele>
        <time>2012-11-24T10:43:15Z</time>
      </trkpt>
      <trkpt lat="42.314778000" lon="-2.527443000">
        <ele>589.80</ele>
        <time>2012-11-24T10:43:17Z</time>
      </trkpt>
      <trkpt lat="42.314783000" lon="-2.527444000">
        <ele>589.80</ele>
        <time>2012-11-24T10:43:17Z</time>
      </trkpt>
      <trkpt lat="42.314786000" lon="-2.527448000">
        <ele>589.80</ele>
        <time>2012-11-24T10:43:18Z</time>
      </trkpt>
      <trkpt lat="42.314791000" lon="-2.527449000">
        <ele>589.80</ele>
        <time>2012-11-24T10:43:20Z</time>
      </trkpt>
      <trkpt lat="42.314796000" lon="-2.527453000">
        <ele>589.80</ele>
        <time>2012-11-24T10:43:20Z</time>
      </trkpt>
      <trkpt lat="42.314800000" lon="-2.527454000">
        <ele>589.80</ele>
        <time>2012-11-24T10:43:22Z</time>
      </trkpt>
      <trkpt lat="42.314803000" lon="-2.527458000">
        <ele>589.70</ele>
        <time>2012-11-24T10:43:22Z</time>
      </trkpt>
      <trkpt lat="42.314810000" lon="-2.527461000">
        <ele>589.70</ele>
        <time>2012-11-24T10:43:24Z</time>
      </trkpt>
      <trkpt lat="42.314818000" lon="-2.527468000">
        <ele>589.70</ele>
        <time>2012-11-24T10:43:29Z</time>
      </trkpt>
      <trkpt lat="42.314843000" lon="-2.527473000">
        <ele>589.70</ele>
        <time>2012-11-24T10:43:36Z</time>
      </trkpt>
      <trkpt lat="42.314850000" lon="-2.527476000">
        <ele>589.70</ele>
        <time>2012-11-24T10:43:38Z</time>
      </trkpt>
      <trkpt lat="42.314853000" lon="-2.527476000">
        <ele>589.70</ele>
        <time>2012-11-24T10:43:38Z</time>
      </trkpt>
      <trkpt lat="42.314856000" lon="-2.527476000">
        <ele>589.60</ele>
        <time>2012-11-24T10:43:39Z</time>
      </trkpt>
      <trkpt lat="42.314863000" lon="-2.527476000">
        <ele>589.60</ele>
        <time>2012-11-24T10:43:43Z</time>
      </trkpt>
      <trkpt lat="42.314863000" lon="-2.527474000">
        <ele>589.60</ele>
        <time>2012-11-24T10:43:45Z</time>
      </trkpt>
      <trkpt lat="42.314868000" lon="-2.527471000">
        <ele>589.60</ele>
        <time>2012-11-24T10:43:48Z</time>
      </trkpt>
      <trkpt lat="42.314871000" lon="-2.527473000">
        <ele>589.60</ele>
        <time>2012-11-24T10:43:50Z</time>
      </trkpt>
      <trkpt lat="42.314878000" lon="-2.527469000">
        <ele>589.60</ele>
        <time>2012-11-24T10:43:53Z</time>
      </trkpt>
      <trkpt lat="42.314903000" lon="-2.527469000">
        <ele>589.60</ele>
        <time>2012-11-24T10:44:02Z</time>
      </trkpt>
      <trkpt lat="42.314898000" lon="-2.527469000">
        <ele>589.60</ele>
        <time>2012-11-24T10:44:04Z</time>
      </trkpt>
      <trkpt lat="42.314901000" lon="-2.527471000">
        <ele>589.60</ele>
        <time>2012-11-24T10:44:07Z</time>
      </trkpt>
      <trkpt lat="42.314901000" lon="-2.527473000">
        <ele>589.60</ele>
        <time>2012-11-24T10:44:07Z</time>
      </trkpt>
      <trkpt lat="42.314893000" lon="-2.527473000">
        <ele>589.60</ele>
        <time>2012-11-24T10:44:11Z</time>
      </trkpt>
      <trkpt lat="42.314895000" lon="-2.527471000">
        <ele>589.60</ele>
        <time>2012-11-24T10:44:11Z</time>
      </trkpt>
      <trkpt lat="42.314891000" lon="-2.527478000">
        <ele>589.60</ele>
        <time>2012-11-24T10:44:16Z</time>
      </trkpt>
      <trkpt lat="42.314873000" lon="-2.527484000">
        <ele>589.60</ele>
        <time>2012-11-24T10:44:23Z</time>
      </trkpt>
      <trkpt lat="42.314868000" lon="-2.527488000">
        <ele>589.60</ele>
        <time>2012-11-24T10:44:25Z</time>
      </trkpt>
      <trkpt lat="42.314863000" lon="-2.527489000">
        <ele>589.60</ele>
        <time>2012-11-24T10:44:25Z</time>
      </trkpt>
      <trkpt lat="42.314860000" lon="-2.527493000">
        <ele>589.60</ele>
        <time>2012-11-24T10:44:26Z</time>
      </trkpt>
      <trkpt lat="42.314850000" lon="-2.527496000">
        <ele>589.60</ele>
        <time>2012-11-24T10:44:30Z</time>
      </trkpt>
      <trkpt lat="42.314845000" lon="-2.527499000">
        <ele>589.60</ele>
        <time>2012-11-24T10:44:32Z</time>
      </trkpt>
      <trkpt lat="42.314845000" lon="-2.527501000">
        <ele>589.60</ele>
        <time>2012-11-24T10:44:33Z</time>
      </trkpt>
      <trkpt lat="42.314838000" lon="-2.527504000">
        <ele>589.60</ele>
        <time>2012-11-24T10:44:37Z</time>
      </trkpt>
      <trkpt lat="42.314841000" lon="-2.527506000">
        <ele>589.60</ele>
        <time>2012-11-24T10:44:40Z</time>
      </trkpt>
      <trkpt lat="42.314843000" lon="-2.527504000">
        <ele>589.60</ele>
        <time>2012-11-24T10:44:40Z</time>
      </trkpt>
      <trkpt lat="42.314836000" lon="-2.527503000">
        <ele>589.60</ele>
        <time>2012-11-24T10:44:44Z</time>
      </trkpt>
      <trkpt lat="42.314835000" lon="-2.527501000">
        <ele>589.60</ele>
        <time>2012-11-24T10:44:46Z</time>
      </trkpt>
      <trkpt lat="42.314831000" lon="-2.527501000">
        <ele>589.60</ele>
        <time>2012-11-24T10:44:47Z</time>
      </trkpt>
      <trkpt lat="42.314831000" lon="-2.527499000">
        <ele>589.60</ele>
        <time>2012-11-24T10:44:49Z</time>
      </trkpt>
      <trkpt lat="42.314828000" lon="-2.527499000">
        <ele>589.70</ele>
        <time>2012-11-24T10:44:49Z</time>
      </trkpt>
      <trkpt lat="42.314816000" lon="-2.527493000">
        <ele>589.70</ele>
        <time>2012-11-24T10:44:56Z</time>
      </trkpt>
      <trkpt lat="42.314801000" lon="-2.527488000">
        <ele>589.70</ele>
        <time>2012-11-24T10:45:06Z</time>
      </trkpt>
      <trkpt lat="42.314803000" lon="-2.527491000">
        <ele>589.70</ele>
        <time>2012-11-24T10:45:08Z</time>
      </trkpt>
      <trkpt lat="42.314798000" lon="-2.527494000">
        <ele>589.70</ele>
        <time>2012-11-24T10:45:12Z</time>
      </trkpt>
      <trkpt lat="42.314798000" lon="-2.527496000">
        <ele>589.70</ele>
        <time>2012-11-24T10:45:12Z</time>
      </trkpt>
      <trkpt lat="42.314786000" lon="-2.527508000">
        <ele>589.70</ele>
        <time>2012-11-24T10:45:17Z</time>
      </trkpt>
      <trkpt lat="42.314780000" lon="-2.527511000">
        <ele>589.70</ele>
        <time>2012-11-24T10:45:19Z</time>
      </trkpt>
      <trkpt lat="42.314761000" lon="-2.527533000">
        <ele>589.70</ele>
        <time>2012-11-24T10:45:22Z</time>
      </trkpt>
      <trkpt lat="42.314750000" lon="-2.527543000">
        <ele>589.70</ele>
        <time>2012-11-24T10:45:22Z</time>
      </trkpt>
      <trkpt lat="42.314505000" lon="-2.527681000">
        <ele>590.20</ele>
        <time>2012-11-24T10:45:31Z</time>
      </trkpt>
      <trkpt lat="42.314325000" lon="-2.527739000">
        <ele>592.20</ele>
        <time>2012-11-24T10:45:38Z</time>
      </trkpt>
      <trkpt lat="42.314281000" lon="-2.527744000">
        <ele>592.60</ele>
        <time>2012-11-24T10:45:38Z</time>
      </trkpt>
      <trkpt lat="42.314240000" lon="-2.527738000">
        <ele>593.10</ele>
        <time>2012-11-24T10:45:40Z</time>
      </trkpt>
      <trkpt lat="42.314110000" lon="-2.527663000">
        <ele>595.10</ele>
        <time>2012-11-24T10:45:43Z</time>
      </trkpt>
      <trkpt lat="42.314083000" lon="-2.527636000">
        <ele>595.40</ele>
        <time>2012-11-24T10:45:45Z</time>
      </trkpt>
      <trkpt lat="42.314015000" lon="-2.527548000">
        <ele>597.00</ele>
        <time>2012-11-24T10:45:48Z</time>
      </trkpt>
      <trkpt lat="42.313938000" lon="-2.527383000">
        <ele>599.00</ele>
        <time>2012-11-24T10:45:52Z</time>
      </trkpt>
      <trkpt lat="42.313920000" lon="-2.527358000">
        <ele>599.30</ele>
        <time>2012-11-24T10:45:54Z</time>
      </trkpt>
      <trkpt lat="42.313873000" lon="-2.527331000">
        <ele>600.10</ele>
        <time>2012-11-24T10:45:55Z</time>
      </trkpt>
      <trkpt lat="42.313830000" lon="-2.527319000">
        <ele>600.90</ele>
        <time>2012-11-24T10:45:57Z</time>
      </trkpt>
      <trkpt lat="42.313811000" lon="-2.527319000">
        <ele>601.20</ele>
        <time>2012-11-24T10:45:59Z</time>
      </trkpt>
      <trkpt lat="42.313741000" lon="-2.527301000">
        <ele>602.50</ele>
        <time>2012-11-24T10:46:02Z</time>
      </trkpt>
      <trkpt lat="42.313725000" lon="-2.527293000">
        <ele>602.90</ele>
        <time>2012-11-24T10:46:04Z</time>
      </trkpt>
      <trkpt lat="42.313715000" lon="-2.527279000">
        <ele>603.40</ele>
        <time>2012-11-24T10:46:04Z</time>
      </trkpt>
      <trkpt lat="42.313713000" lon="-2.527271000">
        <ele>603.70</ele>
        <time>2012-11-24T10:46:06Z</time>
      </trkpt>
      <trkpt lat="42.313713000" lon="-2.527259000">
        <ele>603.80</ele>
        <time>2012-11-24T10:46:06Z</time>
      </trkpt>
      <trkpt lat="42.313713000" lon="-2.527251000">
        <ele>604.00</ele>
        <time>2012-11-24T10:46:07Z</time>
      </trkpt>
      <trkpt lat="42.313713000" lon="-2.527244000">
        <ele>604.00</ele>
        <time>2012-11-24T10:46:09Z</time>
      </trkpt>
      <trkpt lat="42.313713000" lon="-2.527236000">
        <ele>604.10</ele>
        <time>2012-11-24T10:46:09Z</time>
      </trkpt>
      <trkpt lat="42.313715000" lon="-2.527229000">
        <ele>604.10</ele>
        <time>2012-11-24T10:46:11Z</time>
      </trkpt>
      <trkpt lat="42.313715000" lon="-2.527223000">
        <ele>604.20</ele>
        <time>2012-11-24T10:46:11Z</time>
      </trkpt>
      <trkpt lat="42.313716000" lon="-2.527193000">
        <ele>604.20</ele>
        <time>2012-11-24T10:46:16Z</time>
      </trkpt>
      <trkpt lat="42.313718000" lon="-2.527184000">
        <ele>604.20</ele>
        <time>2012-11-24T10:46:16Z</time>
      </trkpt>
      <trkpt lat="42.313718000" lon="-2.527176000">
        <ele>604.30</ele>
        <time>2012-11-24T10:46:18Z</time>
      </trkpt>
      <trkpt lat="42.313720000" lon="-2.527168000">
        <ele>604.30</ele>
        <time>2012-11-24T10:46:18Z</time>
      </trkpt>
      <trkpt lat="42.313721000" lon="-2.527144000">
        <ele>604.30</ele>
        <time>2012-11-24T10:46:21Z</time>
      </trkpt>
      <trkpt lat="42.313725000" lon="-2.527126000">
        <ele>604.30</ele>
        <time>2012-11-24T10:46:25Z</time>
      </trkpt>
      <trkpt lat="42.313725000" lon="-2.527121000">
        <ele>604.40</ele>
        <time>2012-11-24T10:46:25Z</time>
      </trkpt>
      <trkpt lat="42.313726000" lon="-2.527104000">
        <ele>604.40</ele>
        <time>2012-11-24T10:46:28Z</time>
      </trkpt>
      <trkpt lat="42.313730000" lon="-2.527084000">
        <ele>604.40</ele>
        <time>2012-11-24T10:46:32Z</time>
      </trkpt>
      <trkpt lat="42.313728000" lon="-2.527079000">
        <ele>604.40</ele>
        <time>2012-11-24T10:46:34Z</time>
      </trkpt>
      <trkpt lat="42.313728000" lon="-2.527081000">
        <ele>604.50</ele>
        <time>2012-11-24T10:46:35Z</time>
      </trkpt>
      <trkpt lat="42.313726000" lon="-2.527076000">
        <ele>604.50</ele>
        <time>2012-11-24T10:46:35Z</time>
      </trkpt>
      <trkpt lat="42.313726000" lon="-2.527071000">
        <ele>604.50</ele>
        <time>2012-11-24T10:46:37Z</time>
      </trkpt>
      <trkpt lat="42.313726000" lon="-2.527066000">
        <ele>604.60</ele>
        <time>2012-11-24T10:46:37Z</time>
      </trkpt>
      <trkpt lat="42.313726000" lon="-2.527056000">
        <ele>604.60</ele>
        <time>2012-11-24T10:46:39Z</time>
      </trkpt>
      <trkpt lat="42.313726000" lon="-2.527053000">
        <ele>604.70</ele>
        <time>2012-11-24T10:46:41Z</time>
      </trkpt>
      <trkpt lat="42.313726000" lon="-2.527044000">
        <ele>604.70</ele>
        <time>2012-11-24T10:46:46Z</time>
      </trkpt>
      <trkpt lat="42.313725000" lon="-2.527043000">
        <ele>604.80</ele>
        <time>2012-11-24T10:46:48Z</time>
      </trkpt>
      <trkpt lat="42.313715000" lon="-2.527049000">
        <ele>604.90</ele>
        <time>2012-11-24T10:46:49Z</time>
      </trkpt>
      <trkpt lat="42.313701000" lon="-2.527049000">
        <ele>605.10</ele>
        <time>2012-11-24T10:46:49Z</time>
      </trkpt>
      <trkpt lat="42.313635000" lon="-2.527041000">
        <ele>606.40</ele>
        <time>2012-11-24T10:46:53Z</time>
      </trkpt>
      <trkpt lat="42.313571000" lon="-2.527043000">
        <ele>607.80</ele>
        <time>2012-11-24T10:46:56Z</time>
      </trkpt>
      <trkpt lat="42.313496000" lon="-2.527036000">
        <ele>609.50</ele>
        <time>2012-11-24T10:47:00Z</time>
      </trkpt>
      <trkpt lat="42.313193000" lon="-2.527071000">
        <ele>616.80</ele>
        <time>2012-11-24T10:47:12Z</time>
      </trkpt>
      <trkpt lat="42.313175000" lon="-2.527079000">
        <ele>617.20</ele>
        <time>2012-11-24T10:47:14Z</time>
      </trkpt>
      <trkpt lat="42.313136000" lon="-2.527111000">
        <ele>618.40</ele>
        <time>2012-11-24T10:47:15Z</time>
      </trkpt>
      <trkpt lat="42.313110000" lon="-2.527123000">
        <ele>619.20</ele>
        <time>2012-11-24T10:47:17Z</time>
      </trkpt>
      <trkpt lat="42.312945000" lon="-2.527153000">
        <ele>624.50</ele>
        <time>2012-11-24T10:47:22Z</time>
      </trkpt>
      <trkpt lat="42.312923000" lon="-2.527153000">
        <ele>625.20</ele>
        <time>2012-11-24T10:47:24Z</time>
      </trkpt>
      <trkpt lat="42.312838000" lon="-2.527169000">
        <ele>626.70</ele>
        <time>2012-11-24T10:47:28Z</time>
      </trkpt>
      <trkpt lat="42.312633000" lon="-2.527168000">
        <ele>627.00</ele>
        <time>2012-11-24T10:47:38Z</time>
      </trkpt>
      <trkpt lat="42.312600000" lon="-2.527174000">
        <ele>627.20</ele>
        <time>2012-11-24T10:47:40Z</time>
      </trkpt>
      <trkpt lat="42.312451000" lon="-2.527159000">
        <ele>626.90</ele>
        <time>2012-11-24T10:47:48Z</time>
      </trkpt>
      <trkpt lat="42.312433000" lon="-2.527153000">
        <ele>626.90</ele>
        <time>2012-11-24T10:47:50Z</time>
      </trkpt>
      <trkpt lat="42.312355000" lon="-2.527144000">
        <ele>626.40</ele>
        <time>2012-11-24T10:47:54Z</time>
      </trkpt>
      <trkpt lat="42.312256000" lon="-2.527158000">
        <ele>626.80</ele>
        <time>2012-11-24T10:47:59Z</time>
      </trkpt>
      <trkpt lat="42.312220000" lon="-2.527153000">
        <ele>626.80</ele>
        <time>2012-11-24T10:48:01Z</time>
      </trkpt>
      <trkpt lat="42.311858000" lon="-2.527154000">
        <ele>626.00</ele>
        <time>2012-11-24T10:48:22Z</time>
      </trkpt>
      <trkpt lat="42.311653000" lon="-2.527258000">
        <ele>628.10</ele>
        <time>2012-11-24T10:48:34Z</time>
      </trkpt>
      <trkpt lat="42.311583000" lon="-2.527278000">
        <ele>628.30</ele>
        <time>2012-11-24T10:48:39Z</time>
      </trkpt>
      <trkpt lat="42.311550000" lon="-2.527283000">
        <ele>628.30</ele>
        <time>2012-11-24T10:48:41Z</time>
      </trkpt>
      <trkpt lat="42.311381000" lon="-2.527238000">
        <ele>626.20</ele>
        <time>2012-11-24T10:48:51Z</time>
      </trkpt>
      <trkpt lat="42.311366000" lon="-2.527238000">
        <ele>626.10</ele>
        <time>2012-11-24T10:48:51Z</time>
      </trkpt>
      <trkpt lat="42.311295000" lon="-2.527254000">
        <ele>625.70</ele>
        <time>2012-11-24T10:48:56Z</time>
      </trkpt>
      <trkpt lat="42.311281000" lon="-2.527264000">
        <ele>625.80</ele>
        <time>2012-11-24T10:48:58Z</time>
      </trkpt>
      <trkpt lat="42.311255000" lon="-2.527279000">
        <ele>625.90</ele>
        <time>2012-11-24T10:49:00Z</time>
      </trkpt>
      <trkpt lat="42.311220000" lon="-2.527311000">
        <ele>626.80</ele>
        <time>2012-11-24T10:49:02Z</time>
      </trkpt>
      <trkpt lat="42.311196000" lon="-2.527339000">
        <ele>627.80</ele>
        <time>2012-11-24T10:49:05Z</time>
      </trkpt>
      <trkpt lat="42.311075000" lon="-2.527434000">
        <ele>631.90</ele>
        <time>2012-11-24T10:49:14Z</time>
      </trkpt>
      <trkpt lat="42.310845000" lon="-2.527536000">
        <ele>636.20</ele>
        <time>2012-11-24T10:49:28Z</time>
      </trkpt>
      <trkpt lat="42.310813000" lon="-2.527554000">
        <ele>636.50</ele>
        <time>2012-11-24T10:49:31Z</time>
      </trkpt>
      <trkpt lat="42.310796000" lon="-2.527559000">
        <ele>636.70</ele>
        <time>2012-11-24T10:49:31Z</time>
      </trkpt>
      <trkpt lat="42.310750000" lon="-2.527591000">
        <ele>637.10</ele>
        <time>2012-11-24T10:49:35Z</time>
      </trkpt>
      <trkpt lat="42.310640000" lon="-2.527676000">
        <ele>637.20</ele>
        <time>2012-11-24T10:49:42Z</time>
      </trkpt>
      <trkpt lat="42.310585000" lon="-2.527693000">
        <ele>637.10</ele>
        <time>2012-11-24T10:49:45Z</time>
      </trkpt>
      <trkpt lat="42.310533000" lon="-2.527701000">
        <ele>637.20</ele>
        <time>2012-11-24T10:49:47Z</time>
      </trkpt>
      <trkpt lat="42.310518000" lon="-2.527708000">
        <ele>637.20</ele>
        <time>2012-11-24T10:49:49Z</time>
      </trkpt>
      <trkpt lat="42.310415000" lon="-2.527796000">
        <ele>635.60</ele>
        <time>2012-11-24T10:49:56Z</time>
      </trkpt>
      <trkpt lat="42.310398000" lon="-2.527806000">
        <ele>635.60</ele>
        <time>2012-11-24T10:49:57Z</time>
      </trkpt>
      <trkpt lat="42.310381000" lon="-2.527811000">
        <ele>635.80</ele>
        <time>2012-11-24T10:49:57Z</time>
      </trkpt>
      <trkpt lat="42.310345000" lon="-2.527813000">
        <ele>636.80</ele>
        <time>2012-11-24T10:49:59Z</time>
      </trkpt>
      <trkpt lat="42.310308000" lon="-2.527806000">
        <ele>638.30</ele>
        <time>2012-11-24T10:50:01Z</time>
      </trkpt>
      <trkpt lat="42.310291000" lon="-2.527806000">
        <ele>639.00</ele>
        <time>2012-11-24T10:50:03Z</time>
      </trkpt>
      <trkpt lat="42.310230000" lon="-2.527838000">
        <ele>640.80</ele>
        <time>2012-11-24T10:50:06Z</time>
      </trkpt>
      <trkpt lat="42.310175000" lon="-2.527886000">
        <ele>641.60</ele>
        <time>2012-11-24T10:50:11Z</time>
      </trkpt>
      <trkpt lat="42.310063000" lon="-2.528033000">
        <ele>645.30</ele>
        <time>2012-11-24T10:50:20Z</time>
      </trkpt>
      <trkpt lat="42.310051000" lon="-2.528053000">
        <ele>645.90</ele>
        <time>2012-11-24T10:50:20Z</time>
      </trkpt>
      <trkpt lat="42.310036000" lon="-2.528073000">
        <ele>646.40</ele>
        <time>2012-11-24T10:50:22Z</time>
      </trkpt>
      <trkpt lat="42.309970000" lon="-2.528171000">
        <ele>648.80</ele>
        <time>2012-11-24T10:50:27Z</time>
      </trkpt>
      <trkpt lat="42.309676000" lon="-2.528528000">
        <ele>648.60</ele>
        <time>2012-11-24T10:50:48Z</time>
      </trkpt>
      <trkpt lat="42.309661000" lon="-2.528539000">
        <ele>648.30</ele>
        <time>2012-11-24T10:50:48Z</time>
      </trkpt>
      <trkpt lat="42.309560000" lon="-2.528659000">
        <ele>644.80</ele>
        <time>2012-11-24T10:50:57Z</time>
      </trkpt>
      <trkpt lat="42.309545000" lon="-2.528673000">
        <ele>644.70</ele>
        <time>2012-11-24T10:50:58Z</time>
      </trkpt>
      <trkpt lat="42.309483000" lon="-2.528739000">
        <ele>643.80</ele>
        <time>2012-11-24T10:51:02Z</time>
      </trkpt>
      <trkpt lat="42.308931000" lon="-2.529183000">
        <ele>650.20</ele>
        <time>2012-11-24T10:51:40Z</time>
      </trkpt>
      <trkpt lat="42.308715000" lon="-2.529473000">
        <ele>648.80</ele>
        <time>2012-11-24T10:51:54Z</time>
      </trkpt>
      <trkpt lat="42.308603000" lon="-2.529564000">
        <ele>648.30</ele>
        <time>2012-11-24T10:52:01Z</time>
      </trkpt>
      <trkpt lat="42.308583000" lon="-2.529574000">
        <ele>648.30</ele>
        <time>2012-11-24T10:52:01Z</time>
      </trkpt>
      <trkpt lat="42.308373000" lon="-2.529629000">
        <ele>648.80</ele>
        <time>2012-11-24T10:52:10Z</time>
      </trkpt>
      <trkpt lat="42.308183000" lon="-2.529626000">
        <ele>648.90</ele>
        <time>2012-11-24T10:52:17Z</time>
      </trkpt>
      <trkpt lat="42.308153000" lon="-2.529631000">
        <ele>648.90</ele>
        <time>2012-11-24T10:52:18Z</time>
      </trkpt>
      <trkpt lat="42.308098000" lon="-2.529668000">
        <ele>649.00</ele>
        <time>2012-11-24T10:52:20Z</time>
      </trkpt>
      <trkpt lat="42.308016000" lon="-2.529773000">
        <ele>649.30</ele>
        <time>2012-11-24T10:52:24Z</time>
      </trkpt>
      <trkpt lat="42.307970000" lon="-2.529861000">
        <ele>649.30</ele>
        <time>2012-11-24T10:52:27Z</time>
      </trkpt>
      <trkpt lat="42.307935000" lon="-2.529989000">
        <ele>649.20</ele>
        <time>2012-11-24T10:52:31Z</time>
      </trkpt>
      <trkpt lat="42.307931000" lon="-2.530021000">
        <ele>649.10</ele>
        <time>2012-11-24T10:52:32Z</time>
      </trkpt>
      <trkpt lat="42.307936000" lon="-2.530081000">
        <ele>649.10</ele>
        <time>2012-11-24T10:52:34Z</time>
      </trkpt>
      <trkpt lat="42.307943000" lon="-2.530108000">
        <ele>649.20</ele>
        <time>2012-11-24T10:52:36Z</time>
      </trkpt>
      <trkpt lat="42.307946000" lon="-2.530133000">
        <ele>649.20</ele>
        <time>2012-11-24T10:52:36Z</time>
      </trkpt>
      <trkpt lat="42.308001000" lon="-2.530359000">
        <ele>650.30</ele>
        <time>2012-11-24T10:52:46Z</time>
      </trkpt>
      <trkpt lat="42.308016000" lon="-2.530406000">
        <ele>650.60</ele>
        <time>2012-11-24T10:52:48Z</time>
      </trkpt>
      <trkpt lat="42.308018000" lon="-2.530431000">
        <ele>650.80</ele>
        <time>2012-11-24T10:52:48Z</time>
      </trkpt>
      <trkpt lat="42.308043000" lon="-2.530551000">
        <ele>651.70</ele>
        <time>2012-11-24T10:52:53Z</time>
      </trkpt>
      <trkpt lat="42.308050000" lon="-2.530621000">
        <ele>652.20</ele>
        <time>2012-11-24T10:52:57Z</time>
      </trkpt>
      <trkpt lat="42.308063000" lon="-2.530686000">
        <ele>652.80</ele>
        <time>2012-11-24T10:53:00Z</time>
      </trkpt>
      <trkpt lat="42.308076000" lon="-2.530806000">
        <ele>653.70</ele>
        <time>2012-11-24T10:53:05Z</time>
      </trkpt>
      <trkpt lat="42.308076000" lon="-2.530828000">
        <ele>653.80</ele>
        <time>2012-11-24T10:53:07Z</time>
      </trkpt>
      <trkpt lat="42.308076000" lon="-2.530933000">
        <ele>654.40</ele>
        <time>2012-11-24T10:53:11Z</time>
      </trkpt>
      <trkpt lat="42.308081000" lon="-2.530974000">
        <ele>654.60</ele>
        <time>2012-11-24T10:53:14Z</time>
      </trkpt>
      <trkpt lat="42.308078000" lon="-2.531116000">
        <ele>655.30</ele>
        <time>2012-11-24T10:53:21Z</time>
      </trkpt>
      <trkpt lat="42.308083000" lon="-2.531193000">
        <ele>655.70</ele>
        <time>2012-11-24T10:53:25Z</time>
      </trkpt>
      <trkpt lat="42.308081000" lon="-2.531211000">
        <ele>655.80</ele>
        <time>2012-11-24T10:53:25Z</time>
      </trkpt>
      <trkpt lat="42.308083000" lon="-2.531309000">
        <ele>656.60</ele>
        <time>2012-11-24T10:53:30Z</time>
      </trkpt>
      <trkpt lat="42.308076000" lon="-2.531348000">
        <ele>656.90</ele>
        <time>2012-11-24T10:53:33Z</time>
      </trkpt>
      <trkpt lat="42.308080000" lon="-2.531401000">
        <ele>657.50</ele>
        <time>2012-11-24T10:53:35Z</time>
      </trkpt>
      <trkpt lat="42.308071000" lon="-2.531513000">
        <ele>658.50</ele>
        <time>2012-11-24T10:53:42Z</time>
      </trkpt>
      <trkpt lat="42.308073000" lon="-2.531551000">
        <ele>659.00</ele>
        <time>2012-11-24T10:53:44Z</time>
      </trkpt>
      <trkpt lat="42.308066000" lon="-2.531666000">
        <ele>660.10</ele>
        <time>2012-11-24T10:53:49Z</time>
      </trkpt>
      <trkpt lat="42.308068000" lon="-2.531684000">
        <ele>660.30</ele>
        <time>2012-11-24T10:53:51Z</time>
      </trkpt>
      <trkpt lat="42.308066000" lon="-2.531743000">
        <ele>661.00</ele>
        <time>2012-11-24T10:53:54Z</time>
      </trkpt>
      <trkpt lat="42.308070000" lon="-2.531836000">
        <ele>662.10</ele>
        <time>2012-11-24T10:53:58Z</time>
      </trkpt>
      <trkpt lat="42.308065000" lon="-2.531909000">
        <ele>662.80</ele>
        <time>2012-11-24T10:54:03Z</time>
      </trkpt>
      <trkpt lat="42.308071000" lon="-2.532014000">
        <ele>664.10</ele>
        <time>2012-11-24T10:54:08Z</time>
      </trkpt>
      <trkpt lat="42.308070000" lon="-2.532029000">
        <ele>664.20</ele>
        <time>2012-11-24T10:54:10Z</time>
      </trkpt>
      <trkpt lat="42.308070000" lon="-2.532078000">
        <ele>664.80</ele>
        <time>2012-11-24T10:54:12Z</time>
      </trkpt>
      <trkpt lat="42.308068000" lon="-2.532094000">
        <ele>665.00</ele>
        <time>2012-11-24T10:54:13Z</time>
      </trkpt>
      <trkpt lat="42.308081000" lon="-2.532206000">
        <ele>666.90</ele>
        <time>2012-11-24T10:54:20Z</time>
      </trkpt>
      <trkpt lat="42.308081000" lon="-2.532241000">
        <ele>667.50</ele>
        <time>2012-11-24T10:54:22Z</time>
      </trkpt>
      <trkpt lat="42.308100000" lon="-2.532361000">
        <ele>669.70</ele>
        <time>2012-11-24T10:54:29Z</time>
      </trkpt>
      <trkpt lat="42.308098000" lon="-2.532378000">
        <ele>670.00</ele>
        <time>2012-11-24T10:54:31Z</time>
      </trkpt>
      <trkpt lat="42.308100000" lon="-2.532393000">
        <ele>670.30</ele>
        <time>2012-11-24T10:54:31Z</time>
      </trkpt>
      <trkpt lat="42.308101000" lon="-2.532426000">
        <ele>670.90</ele>
        <time>2012-11-24T10:54:34Z</time>
      </trkpt>
      <trkpt lat="42.308108000" lon="-2.532456000">
        <ele>671.40</ele>
        <time>2012-11-24T10:54:36Z</time>
      </trkpt>
      <trkpt lat="42.308113000" lon="-2.532508000">
        <ele>672.30</ele>
        <time>2012-11-24T10:54:38Z</time>
      </trkpt>
      <trkpt lat="42.308126000" lon="-2.532591000">
        <ele>673.90</ele>
        <time>2012-11-24T10:54:43Z</time>
      </trkpt>
      <trkpt lat="42.308126000" lon="-2.532606000">
        <ele>674.20</ele>
        <time>2012-11-24T10:54:45Z</time>
      </trkpt>
      <trkpt lat="42.308128000" lon="-2.532623000">
        <ele>674.50</ele>
        <time>2012-11-24T10:54:45Z</time>
      </trkpt>
      <trkpt lat="42.308128000" lon="-2.532649000">
        <ele>675.00</ele>
        <time>2012-11-24T10:54:48Z</time>
      </trkpt>
      <trkpt lat="42.308126000" lon="-2.532663000">
        <ele>675.20</ele>
        <time>2012-11-24T10:54:48Z</time>
      </trkpt>
      <trkpt lat="42.308128000" lon="-2.532678000">
        <ele>675.40</ele>
        <time>2012-11-24T10:54:50Z</time>
      </trkpt>
      <trkpt lat="42.308128000" lon="-2.532706000">
        <ele>675.90</ele>
        <time>2012-11-24T10:54:52Z</time>
      </trkpt>
      <trkpt lat="42.308125000" lon="-2.532721000">
        <ele>676.10</ele>
        <time>2012-11-24T10:54:52Z</time>
      </trkpt>
      <trkpt lat="42.308126000" lon="-2.532738000">
        <ele>676.30</ele>
        <time>2012-11-24T10:54:54Z</time>
      </trkpt>
      <trkpt lat="42.308133000" lon="-2.532751000">
        <ele>676.60</ele>
        <time>2012-11-24T10:54:55Z</time>
      </trkpt>
      <trkpt lat="42.308143000" lon="-2.532788000">
        <ele>677.40</ele>
        <time>2012-11-24T10:54:57Z</time>
      </trkpt>
      <trkpt lat="42.308145000" lon="-2.532841000">
        <ele>678.20</ele>
        <time>2012-11-24T10:55:00Z</time>
      </trkpt>
      <trkpt lat="42.308141000" lon="-2.532861000">
        <ele>678.50</ele>
        <time>2012-11-24T10:55:02Z</time>
      </trkpt>
      <trkpt lat="42.308141000" lon="-2.532878000">
        <ele>678.80</ele>
        <time>2012-11-24T10:55:02Z</time>
      </trkpt>
      <trkpt lat="42.308145000" lon="-2.532891000">
        <ele>679.00</ele>
        <time>2012-11-24T10:55:04Z</time>
      </trkpt>
      <trkpt lat="42.308148000" lon="-2.532916000">
        <ele>679.50</ele>
        <time>2012-11-24T10:55:06Z</time>
      </trkpt>
      <trkpt lat="42.308145000" lon="-2.532941000">
        <ele>679.90</ele>
        <time>2012-11-24T10:55:07Z</time>
      </trkpt>
      <trkpt lat="42.308145000" lon="-2.532946000">
        <ele>680.00</ele>
        <time>2012-11-24T10:55:09Z</time>
      </trkpt>
      <trkpt lat="42.308145000" lon="-2.532949000">
        <ele>680.10</ele>
        <time>2012-11-24T10:55:09Z</time>
      </trkpt>
      <trkpt lat="42.308141000" lon="-2.532961000">
        <ele>680.20</ele>
        <time>2012-11-24T10:55:11Z</time>
      </trkpt>
      <trkpt lat="42.308140000" lon="-2.532976000">
        <ele>680.40</ele>
        <time>2012-11-24T10:55:11Z</time>
      </trkpt>
      <trkpt lat="42.308136000" lon="-2.532989000">
        <ele>680.50</ele>
        <time>2012-11-24T10:55:13Z</time>
      </trkpt>
      <trkpt lat="42.308136000" lon="-2.533003000">
        <ele>680.60</ele>
        <time>2012-11-24T10:55:13Z</time>
      </trkpt>
      <trkpt lat="42.308125000" lon="-2.533069000">
        <ele>681.40</ele>
        <time>2012-11-24T10:55:18Z</time>
      </trkpt>
      <trkpt lat="42.308131000" lon="-2.533249000">
        <ele>683.80</ele>
        <time>2012-11-24T10:55:28Z</time>
      </trkpt>
      <trkpt lat="42.308123000" lon="-2.533316000">
        <ele>684.70</ele>
        <time>2012-11-24T10:55:30Z</time>
      </trkpt>
      <trkpt lat="42.308115000" lon="-2.533358000">
        <ele>685.30</ele>
        <time>2012-11-24T10:55:32Z</time>
      </trkpt>
      <trkpt lat="42.308115000" lon="-2.533418000">
        <ele>686.10</ele>
        <time>2012-11-24T10:55:35Z</time>
      </trkpt>
      <trkpt lat="42.308113000" lon="-2.533434000">
        <ele>686.40</ele>
        <time>2012-11-24T10:55:37Z</time>
      </trkpt>
      <trkpt lat="42.308118000" lon="-2.533473000">
        <ele>687.00</ele>
        <time>2012-11-24T10:55:39Z</time>
      </trkpt>
      <trkpt lat="42.308108000" lon="-2.533508000">
        <ele>687.50</ele>
        <time>2012-11-24T10:55:41Z</time>
      </trkpt>
      <trkpt lat="42.308103000" lon="-2.533604000">
        <ele>688.90</ele>
        <time>2012-11-24T10:55:46Z</time>
      </trkpt>
      <trkpt lat="42.308105000" lon="-2.533621000">
        <ele>689.10</ele>
        <time>2012-11-24T10:55:46Z</time>
      </trkpt>
      <trkpt lat="42.308111000" lon="-2.533653000">
        <ele>689.60</ele>
        <time>2012-11-24T10:55:49Z</time>
      </trkpt>
      <trkpt lat="42.308121000" lon="-2.533664000">
        <ele>689.80</ele>
        <time>2012-11-24T10:55:49Z</time>
      </trkpt>
      <trkpt lat="42.308165000" lon="-2.533696000">
        <ele>690.10</ele>
        <time>2012-11-24T10:55:53Z</time>
      </trkpt>
      <trkpt lat="42.308176000" lon="-2.533704000">
        <ele>690.20</ele>
        <time>2012-11-24T10:55:54Z</time>
      </trkpt>
      <trkpt lat="42.308210000" lon="-2.533713000">
        <ele>690.10</ele>
        <time>2012-11-24T10:55:58Z</time>
      </trkpt>
      <trkpt lat="42.308230000" lon="-2.533724000">
        <ele>690.10</ele>
        <time>2012-11-24T10:56:00Z</time>
      </trkpt>
      <trkpt lat="42.308240000" lon="-2.533729000">
        <ele>690.00</ele>
        <time>2012-11-24T10:56:00Z</time>
      </trkpt>
      <trkpt lat="42.308248000" lon="-2.533736000">
        <ele>690.00</ele>
        <time>2012-11-24T10:56:01Z</time>
      </trkpt>
      <trkpt lat="42.308255000" lon="-2.533748000">
        <ele>690.10</ele>
        <time>2012-11-24T10:56:03Z</time>
      </trkpt>
      <trkpt lat="42.308261000" lon="-2.533763000">
        <ele>690.10</ele>
        <time>2012-11-24T10:56:03Z</time>
      </trkpt>
      <trkpt lat="42.308266000" lon="-2.533779000">
        <ele>690.00</ele>
        <time>2012-11-24T10:56:05Z</time>
      </trkpt>
      <trkpt lat="42.308270000" lon="-2.533798000">
        <ele>690.00</ele>
        <time>2012-11-24T10:56:05Z</time>
      </trkpt>
      <trkpt lat="42.308270000" lon="-2.533819000">
        <ele>690.00</ele>
        <time>2012-11-24T10:56:07Z</time>
      </trkpt>
      <trkpt lat="42.308261000" lon="-2.533861000">
        <ele>690.00</ele>
        <time>2012-11-24T10:56:08Z</time>
      </trkpt>
      <trkpt lat="42.308243000" lon="-2.533901000">
        <ele>690.10</ele>
        <time>2012-11-24T10:56:10Z</time>
      </trkpt>
      <trkpt lat="42.308238000" lon="-2.533903000">
        <ele>690.20</ele>
        <time>2012-11-24T10:56:12Z</time>
      </trkpt>
      <trkpt lat="42.308236000" lon="-2.533909000">
        <ele>690.20</ele>
        <time>2012-11-24T10:56:14Z</time>
      </trkpt>
      <trkpt lat="42.308235000" lon="-2.533909000">
        <ele>690.30</ele>
        <time>2012-11-24T10:56:14Z</time>
      </trkpt>
      <trkpt lat="42.308228000" lon="-2.533916000">
        <ele>690.30</ele>
        <time>2012-11-24T10:56:17Z</time>
      </trkpt>
      <trkpt lat="42.308228000" lon="-2.533919000">
        <ele>690.30</ele>
        <time>2012-11-24T10:56:17Z</time>
      </trkpt>
      <trkpt lat="42.308226000" lon="-2.533923000">
        <ele>690.40</ele>
        <time>2012-11-24T10:56:24Z</time>
      </trkpt>
      <trkpt lat="42.308225000" lon="-2.533929000">
        <ele>690.40</ele>
        <time>2012-11-24T10:56:29Z</time>
      </trkpt>
      <trkpt lat="42.308226000" lon="-2.533933000">
        <ele>690.40</ele>
        <time>2012-11-24T10:56:36Z</time>
      </trkpt>
      <trkpt lat="42.308228000" lon="-2.533933000">
        <ele>690.40</ele>
        <time>2012-11-24T10:56:36Z</time>
      </trkpt>
      <trkpt lat="42.308230000" lon="-2.533931000">
        <ele>690.40</ele>
        <time>2012-11-24T10:56:40Z</time>
      </trkpt>
      <trkpt lat="42.308230000" lon="-2.533931000">
        <ele>690.40</ele>
        <time>2012-11-24T10:56:42Z</time>
      </trkpt>
      <trkpt lat="42.308228000" lon="-2.533931000">
        <ele>690.40</ele>
        <time>2012-11-24T10:56:43Z</time>
      </trkpt>
      <trkpt lat="42.308228000" lon="-2.533928000">
        <ele>690.40</ele>
        <time>2012-11-24T10:56:47Z</time>
      </trkpt>
      <trkpt lat="42.308230000" lon="-2.533928000">
        <ele>690.40</ele>
        <time>2012-11-24T10:56:48Z</time>
      </trkpt>
      <trkpt lat="42.308231000" lon="-2.533928000">
        <ele>690.30</ele>
        <time>2012-11-24T10:56:50Z</time>
      </trkpt>
      <trkpt lat="42.308233000" lon="-2.533921000">
        <ele>690.30</ele>
        <time>2012-11-24T10:56:54Z</time>
      </trkpt>
      <trkpt lat="42.308235000" lon="-2.533919000">
        <ele>690.30</ele>
        <time>2012-11-24T10:56:57Z</time>
      </trkpt>
      <trkpt lat="42.308236000" lon="-2.533908000">
        <ele>690.30</ele>
        <time>2012-11-24T10:57:08Z</time>
      </trkpt>
      <trkpt lat="42.308235000" lon="-2.533909000">
        <ele>690.30</ele>
        <time>2012-11-24T10:57:11Z</time>
      </trkpt>
      <trkpt lat="42.308230000" lon="-2.533908000">
        <ele>690.30</ele>
        <time>2012-11-24T10:57:23Z</time>
      </trkpt>
      <trkpt lat="42.308230000" lon="-2.533906000">
        <ele>690.30</ele>
        <time>2012-11-24T10:57:25Z</time>
      </trkpt>
      <trkpt lat="42.308228000" lon="-2.533904000">
        <ele>690.30</ele>
        <time>2012-11-24T10:57:25Z</time>
      </trkpt>
      <trkpt lat="42.308226000" lon="-2.533903000">
        <ele>690.40</ele>
        <time>2012-11-24T10:57:27Z</time>
      </trkpt>
      <trkpt lat="42.308225000" lon="-2.533891000">
        <ele>690.40</ele>
        <time>2012-11-24T10:57:34Z</time>
      </trkpt>
      <trkpt lat="42.308223000" lon="-2.533888000">
        <ele>690.40</ele>
        <time>2012-11-24T10:57:34Z</time>
      </trkpt>
      <trkpt lat="42.308223000" lon="-2.533881000">
        <ele>690.40</ele>
        <time>2012-11-24T10:57:37Z</time>
      </trkpt>
      <trkpt lat="42.308225000" lon="-2.533881000">
        <ele>690.40</ele>
        <time>2012-11-24T10:57:39Z</time>
      </trkpt>
      <trkpt lat="42.308223000" lon="-2.533879000">
        <ele>690.40</ele>
        <time>2012-11-24T10:57:41Z</time>
      </trkpt>
      <trkpt lat="42.308220000" lon="-2.533859000">
        <ele>690.40</ele>
        <time>2012-11-24T10:57:48Z</time>
      </trkpt>
      <trkpt lat="42.308218000" lon="-2.533856000">
        <ele>690.40</ele>
        <time>2012-11-24T10:57:48Z</time>
      </trkpt>
      <trkpt lat="42.308218000" lon="-2.533854000">
        <ele>690.40</ele>
        <time>2012-11-24T10:57:49Z</time>
      </trkpt>
      <trkpt lat="42.308218000" lon="-2.533851000">
        <ele>690.50</ele>
        <time>2012-11-24T10:57:51Z</time>
      </trkpt>
      <trkpt lat="42.308218000" lon="-2.533844000">
        <ele>690.50</ele>
        <time>2012-11-24T10:57:55Z</time>
      </trkpt>
      <trkpt lat="42.308216000" lon="-2.533843000">
        <ele>690.50</ele>
        <time>2012-11-24T10:57:56Z</time>
      </trkpt>
      <trkpt lat="42.308215000" lon="-2.533836000">
        <ele>690.50</ele>
        <time>2012-11-24T10:58:00Z</time>
      </trkpt>
      <trkpt lat="42.308213000" lon="-2.533834000">
        <ele>690.50</ele>
        <time>2012-11-24T10:58:00Z</time>
      </trkpt>
      <trkpt lat="42.308213000" lon="-2.533829000">
        <ele>690.50</ele>
        <time>2012-11-24T10:58:03Z</time>
      </trkpt>
      <trkpt lat="42.308206000" lon="-2.533816000">
        <ele>690.50</ele>
        <time>2012-11-24T10:58:10Z</time>
      </trkpt>
      <trkpt lat="42.308206000" lon="-2.533813000">
        <ele>690.50</ele>
        <time>2012-11-24T10:58:10Z</time>
      </trkpt>
      <trkpt lat="42.308205000" lon="-2.533813000">
        <ele>690.60</ele>
        <time>2012-11-24T10:58:12Z</time>
      </trkpt>
      <trkpt lat="42.308206000" lon="-2.533811000">
        <ele>690.60</ele>
        <time>2012-11-24T10:58:16Z</time>
      </trkpt>
      <trkpt lat="42.308200000" lon="-2.533804000">
        <ele>690.60</ele>
        <time>2012-11-24T10:58:21Z</time>
      </trkpt>
      <trkpt lat="42.308202000" lon="-2.533792000">
        <ele>690.00</ele>
        <time>2012-11-24T10:58:24Z</time>
      </trkpt>
      <trkpt lat="42.308231000" lon="-2.533775000">
        <ele>690.00</ele>
        <time>2012-11-24T10:58:28Z</time>
      </trkpt>
      <trkpt lat="42.308231000" lon="-2.533773000">
        <ele>690.30</ele>
        <time>2012-11-24T10:58:30Z</time>
      </trkpt>
      <trkpt lat="42.308161000" lon="-2.533814000">
        <ele>691.00</ele>
        <time>2012-11-24T10:58:47Z</time>
      </trkpt>
      <trkpt lat="42.308161000" lon="-2.533809000">
        <ele>691.00</ele>
        <time>2012-11-24T10:58:49Z</time>
      </trkpt>
      <trkpt lat="42.308158000" lon="-2.533808000">
        <ele>691.00</ele>
        <time>2012-11-24T10:58:50Z</time>
      </trkpt>
      <trkpt lat="42.308155000" lon="-2.533799000">
        <ele>691.00</ele>
        <time>2012-11-24T10:58:54Z</time>
      </trkpt>
      <trkpt lat="42.308153000" lon="-2.533796000">
        <ele>691.00</ele>
        <time>2012-11-24T10:58:56Z</time>
      </trkpt>
      <trkpt lat="42.308151000" lon="-2.533796000">
        <ele>691.00</ele>
        <time>2012-11-24T10:58:57Z</time>
      </trkpt>
      <trkpt lat="42.308150000" lon="-2.533791000">
        <ele>691.00</ele>
        <time>2012-11-24T10:58:59Z</time>
      </trkpt>
      <trkpt lat="42.308148000" lon="-2.533788000">
        <ele>691.10</ele>
        <time>2012-11-24T10:58:59Z</time>
      </trkpt>
      <trkpt lat="42.308146000" lon="-2.533784000">
        <ele>691.10</ele>
        <time>2012-11-24T10:59:01Z</time>
      </trkpt>
      <trkpt lat="42.308146000" lon="-2.533776000">
        <ele>691.10</ele>
        <time>2012-11-24T10:59:03Z</time>
      </trkpt>
      <trkpt lat="42.308143000" lon="-2.533786000">
        <ele>691.10</ele>
        <time>2012-11-24T10:59:06Z</time>
      </trkpt>
      <trkpt lat="42.308143000" lon="-2.533793000">
        <ele>691.10</ele>
        <time>2012-11-24T10:59:06Z</time>
      </trkpt>
      <trkpt lat="42.308145000" lon="-2.533796000">
        <ele>691.10</ele>
        <time>2012-11-24T10:59:08Z</time>
      </trkpt>
      <trkpt lat="42.308141000" lon="-2.533801000">
        <ele>691.10</ele>
        <time>2012-11-24T10:59:11Z</time>
      </trkpt>
      <trkpt lat="42.308141000" lon="-2.533804000">
        <ele>691.10</ele>
        <time>2012-11-24T10:59:11Z</time>
      </trkpt>
      <trkpt lat="42.308141000" lon="-2.533809000">
        <ele>691.20</ele>
        <time>2012-11-24T10:59:13Z</time>
      </trkpt>
      <trkpt lat="42.308146000" lon="-2.533824000">
        <ele>691.20</ele>
        <time>2012-11-24T10:59:15Z</time>
      </trkpt>
      <trkpt lat="42.308146000" lon="-2.533826000">
        <ele>691.10</ele>
        <time>2012-11-24T10:59:17Z</time>
      </trkpt>
      <trkpt lat="42.308145000" lon="-2.533829000">
        <ele>691.20</ele>
        <time>2012-11-24T10:59:18Z</time>
      </trkpt>
      <trkpt lat="42.308146000" lon="-2.533833000">
        <ele>691.20</ele>
        <time>2012-11-24T10:59:20Z</time>
      </trkpt>
      <trkpt lat="42.308146000" lon="-2.533826000">
        <ele>691.20</ele>
        <time>2012-11-24T10:59:29Z</time>
      </trkpt>
      <trkpt lat="42.308146000" lon="-2.533821000">
        <ele>691.10</ele>
        <time>2012-11-24T10:59:30Z</time>
      </trkpt>
      <trkpt lat="42.308146000" lon="-2.533819000">
        <ele>691.10</ele>
        <time>2012-11-24T10:59:32Z</time>
      </trkpt>
      <trkpt lat="42.308148000" lon="-2.533816000">
        <ele>691.10</ele>
        <time>2012-11-24T10:59:32Z</time>
      </trkpt>
      <trkpt lat="42.308148000" lon="-2.533814000">
        <ele>691.10</ele>
        <time>2012-11-24T10:59:34Z</time>
      </trkpt>
      <trkpt lat="42.308146000" lon="-2.533813000">
        <ele>691.10</ele>
        <time>2012-11-24T10:59:34Z</time>
      </trkpt>
      <trkpt lat="42.308146000" lon="-2.533801000">
        <ele>691.10</ele>
        <time>2012-11-24T10:59:46Z</time>
      </trkpt>
      <trkpt lat="42.308146000" lon="-2.533803000">
        <ele>691.10</ele>
        <time>2012-11-24T10:59:51Z</time>
      </trkpt>
      <trkpt lat="42.308148000" lon="-2.533801000">
        <ele>691.10</ele>
        <time>2012-11-24T10:59:53Z</time>
      </trkpt>
      <trkpt lat="42.308148000" lon="-2.533808000">
        <ele>691.10</ele>
        <time>2012-11-24T10:59:55Z</time>
      </trkpt>
      <trkpt lat="42.308146000" lon="-2.533809000">
        <ele>691.10</ele>
        <time>2012-11-24T10:59:57Z</time>
      </trkpt>
      <trkpt lat="42.308145000" lon="-2.533799000">
        <ele>691.10</ele>
        <time>2012-11-24T11:00:00Z</time>
      </trkpt>
      <trkpt lat="42.308143000" lon="-2.533799000">
        <ele>691.10</ele>
        <time>2012-11-24T11:00:00Z</time>
      </trkpt>
      <trkpt lat="42.308141000" lon="-2.533804000">
        <ele>691.10</ele>
        <time>2012-11-24T11:00:02Z</time>
      </trkpt>
      <trkpt lat="42.308140000" lon="-2.533811000">
        <ele>691.20</ele>
        <time>2012-11-24T11:00:02Z</time>
      </trkpt>
      <trkpt lat="42.308136000" lon="-2.533828000">
        <ele>691.20</ele>
        <time>2012-11-24T11:00:05Z</time>
      </trkpt>
      <trkpt lat="42.308136000" lon="-2.533831000">
        <ele>691.20</ele>
        <time>2012-11-24T11:00:05Z</time>
      </trkpt>
      <trkpt lat="42.308141000" lon="-2.533834000">
        <ele>691.20</ele>
        <time>2012-11-24T11:00:07Z</time>
      </trkpt>
      <trkpt lat="42.308140000" lon="-2.533836000">
        <ele>691.20</ele>
        <time>2012-11-24T11:00:09Z</time>
      </trkpt>
      <trkpt lat="42.308140000" lon="-2.533833000">
        <ele>691.20</ele>
        <time>2012-11-24T11:00:09Z</time>
      </trkpt>
      <trkpt lat="42.308136000" lon="-2.533831000">
        <ele>691.20</ele>
        <time>2012-11-24T11:00:11Z</time>
      </trkpt>
      <trkpt lat="42.308106000" lon="-2.533821000">
        <ele>691.40</ele>
        <time>2012-11-24T11:00:14Z</time>
      </trkpt>
      <trkpt lat="42.308096000" lon="-2.533809000">
        <ele>691.50</ele>
        <time>2012-11-24T11:00:14Z</time>
      </trkpt>
      <trkpt lat="42.308088000" lon="-2.533796000">
        <ele>691.60</ele>
        <time>2012-11-24T11:00:16Z</time>
      </trkpt>
      <trkpt lat="42.308076000" lon="-2.533784000">
        <ele>691.60</ele>
        <time>2012-11-24T11:00:16Z</time>
      </trkpt>
      <trkpt lat="42.308050000" lon="-2.533774000">
        <ele>691.80</ele>
        <time>2012-11-24T11:00:19Z</time>
      </trkpt>
      <trkpt lat="42.308043000" lon="-2.533774000">
        <ele>691.80</ele>
        <time>2012-11-24T11:00:19Z</time>
      </trkpt>
      <trkpt lat="42.308041000" lon="-2.533776000">
        <ele>691.90</ele>
        <time>2012-11-24T11:00:21Z</time>
      </trkpt>
      <trkpt lat="42.308040000" lon="-2.533778000">
        <ele>692.00</ele>
        <time>2012-11-24T11:00:21Z</time>
      </trkpt>
      <trkpt lat="42.308040000" lon="-2.533788000">
        <ele>692.00</ele>
        <time>2012-11-24T11:00:28Z</time>
      </trkpt>
      <trkpt lat="42.308036000" lon="-2.533791000">
        <ele>692.10</ele>
        <time>2012-11-24T11:00:28Z</time>
      </trkpt>
      <trkpt lat="42.308031000" lon="-2.533801000">
        <ele>692.10</ele>
        <time>2012-11-24T11:00:31Z</time>
      </trkpt>
      <trkpt lat="42.308026000" lon="-2.533803000">
        <ele>692.20</ele>
        <time>2012-11-24T11:00:33Z</time>
      </trkpt>
      <trkpt lat="42.308016000" lon="-2.533803000">
        <ele>692.30</ele>
        <time>2012-11-24T11:00:33Z</time>
      </trkpt>
      <trkpt lat="42.307993000" lon="-2.533796000">
        <ele>692.40</ele>
        <time>2012-11-24T11:00:35Z</time>
      </trkpt>
      <trkpt lat="42.307971000" lon="-2.533783000">
        <ele>692.60</ele>
        <time>2012-11-24T11:00:37Z</time>
      </trkpt>
      <trkpt lat="42.307906000" lon="-2.533764000">
        <ele>692.90</ele>
        <time>2012-11-24T11:00:42Z</time>
      </trkpt>
      <trkpt lat="42.307848000" lon="-2.533754000">
        <ele>693.00</ele>
        <time>2012-11-24T11:00:45Z</time>
      </trkpt>
      <trkpt lat="42.307748000" lon="-2.533709000">
        <ele>692.40</ele>
        <time>2012-11-24T11:00:47Z</time>
      </trkpt>
      <trkpt lat="42.307566000" lon="-2.533691000">
        <ele>691.80</ele>
        <time>2012-11-24T11:00:51Z</time>
      </trkpt>
      <trkpt lat="42.307355000" lon="-2.533579000">
        <ele>689.70</ele>
        <time>2012-11-24T11:00:54Z</time>
      </trkpt>
      <trkpt lat="42.307175000" lon="-2.533534000">
        <ele>688.00</ele>
        <time>2012-11-24T11:00:56Z</time>
      </trkpt>
      <trkpt lat="42.305787000" lon="-2.533422000">
        <ele>684.00</ele>
        <time>2012-11-24T11:01:08Z</time>
      </trkpt>
      <trkpt lat="42.304621000" lon="-2.532861000">
        <ele>675.10</ele>
        <time>2012-11-24T11:01:22Z</time>
      </trkpt>
      <trkpt lat="42.304535000" lon="-2.532838000">
        <ele>674.90</ele>
        <time>2012-11-24T11:01:24Z</time>
      </trkpt>
      <trkpt lat="42.303130000" lon="-2.532666000">
        <ele>680.90</ele>
        <time>2012-11-24T11:02:11Z</time>
      </trkpt>
      <trkpt lat="42.302918000" lon="-2.532659000">
        <ele>682.00</ele>
        <time>2012-11-24T11:02:21Z</time>
      </trkpt>
      <trkpt lat="42.302881000" lon="-2.532651000">
        <ele>682.30</ele>
        <time>2012-11-24T11:02:23Z</time>
      </trkpt>
      <trkpt lat="42.302863000" lon="-2.532651000">
        <ele>682.40</ele>
        <time>2012-11-24T11:02:25Z</time>
      </trkpt>
      <trkpt lat="42.302355000" lon="-2.532644000">
        <ele>687.40</ele>
        <time>2012-11-24T11:02:53Z</time>
      </trkpt>
      <trkpt lat="42.302283000" lon="-2.532611000">
        <ele>688.10</ele>
        <time>2012-11-24T11:02:56Z</time>
      </trkpt>
      <trkpt lat="42.301916000" lon="-2.532461000">
        <ele>691.50</ele>
        <time>2012-11-24T11:03:17Z</time>
      </trkpt>
      <trkpt lat="42.301805000" lon="-2.532354000">
        <ele>692.10</ele>
        <time>2012-11-24T11:03:26Z</time>
      </trkpt>
      <trkpt lat="42.301790000" lon="-2.532344000">
        <ele>692.10</ele>
        <time>2012-11-24T11:03:26Z</time>
      </trkpt>
      <trkpt lat="42.301558000" lon="-2.532198000">
        <ele>692.70</ele>
        <time>2012-11-24T11:03:41Z</time>
      </trkpt>
      <trkpt lat="42.301528000" lon="-2.532179000">
        <ele>692.70</ele>
        <time>2012-11-24T11:03:43Z</time>
      </trkpt>
      <trkpt lat="42.301511000" lon="-2.532173000">
        <ele>692.70</ele>
        <time>2012-11-24T11:03:45Z</time>
      </trkpt>
      <trkpt lat="42.301443000" lon="-2.532168000">
        <ele>693.00</ele>
        <time>2012-11-24T11:03:48Z</time>
      </trkpt>
      <trkpt lat="42.301426000" lon="-2.532163000">
        <ele>693.00</ele>
        <time>2012-11-24T11:03:50Z</time>
      </trkpt>
      <trkpt lat="42.301375000" lon="-2.532136000">
        <ele>693.10</ele>
        <time>2012-11-24T11:03:52Z</time>
      </trkpt>
      <trkpt lat="42.301223000" lon="-2.532071000">
        <ele>693.30</ele>
        <time>2012-11-24T11:04:02Z</time>
      </trkpt>
      <trkpt lat="42.301208000" lon="-2.532059000">
        <ele>693.60</ele>
        <time>2012-11-24T11:04:02Z</time>
      </trkpt>
      <trkpt lat="42.301191000" lon="-2.532051000">
        <ele>693.90</ele>
        <time>2012-11-24T11:04:04Z</time>
      </trkpt>
      <trkpt lat="42.300970000" lon="-2.531991000">
        <ele>697.40</ele>
        <time>2012-11-24T11:04:16Z</time>
      </trkpt>
      <trkpt lat="42.300915000" lon="-2.531981000">
        <ele>698.10</ele>
        <time>2012-11-24T11:04:18Z</time>
      </trkpt>
      <trkpt lat="42.300826000" lon="-2.531939000">
        <ele>699.50</ele>
        <time>2012-11-24T11:04:23Z</time>
      </trkpt>
      <trkpt lat="42.300808000" lon="-2.531938000">
        <ele>699.70</ele>
        <time>2012-11-24T11:04:25Z</time>
      </trkpt>
      <trkpt lat="42.300511000" lon="-2.531838000">
        <ele>703.00</ele>
        <time>2012-11-24T11:04:42Z</time>
      </trkpt>
      <trkpt lat="42.300495000" lon="-2.531828000">
        <ele>703.10</ele>
        <time>2012-11-24T11:04:42Z</time>
      </trkpt>
      <trkpt lat="42.300415000" lon="-2.531793000">
        <ele>703.90</ele>
        <time>2012-11-24T11:04:47Z</time>
      </trkpt>
      <trkpt lat="42.300398000" lon="-2.531794000">
        <ele>704.10</ele>
        <time>2012-11-24T11:04:49Z</time>
      </trkpt>
      <trkpt lat="42.300383000" lon="-2.531799000">
        <ele>704.30</ele>
        <time>2012-11-24T11:04:49Z</time>
      </trkpt>
      <trkpt lat="42.300336000" lon="-2.531796000">
        <ele>705.00</ele>
        <time>2012-11-24T11:04:53Z</time>
      </trkpt>
      <trkpt lat="42.300091000" lon="-2.531726000">
        <ele>709.00</ele>
        <time>2012-11-24T11:05:07Z</time>
      </trkpt>
      <trkpt lat="42.300075000" lon="-2.531724000">
        <ele>709.20</ele>
        <time>2012-11-24T11:05:08Z</time>
      </trkpt>
      <trkpt lat="42.299953000" lon="-2.531679000">
        <ele>710.80</ele>
        <time>2012-11-24T11:05:15Z</time>
      </trkpt>
      <trkpt lat="42.299933000" lon="-2.531676000">
        <ele>711.00</ele>
        <time>2012-11-24T11:05:17Z</time>
      </trkpt>
      <trkpt lat="42.299631000" lon="-2.531528000">
        <ele>713.20</ele>
        <time>2012-11-24T11:05:33Z</time>
      </trkpt>
      <trkpt lat="42.299433000" lon="-2.531351000">
        <ele>713.90</ele>
        <time>2012-11-24T11:05:45Z</time>
      </trkpt>
      <trkpt lat="42.299418000" lon="-2.531333000">
        <ele>713.90</ele>
        <time>2012-11-24T11:05:45Z</time>
      </trkpt>
      <trkpt lat="42.299010000" lon="-2.530871000">
        <ele>717.80</ele>
        <time>2012-11-24T11:06:11Z</time>
      </trkpt>
      <trkpt lat="42.298660000" lon="-2.530681000">
        <ele>718.00</ele>
        <time>2012-11-24T11:06:27Z</time>
      </trkpt>
      <trkpt lat="42.297736000" lon="-2.530388000">
        <ele>719.50</ele>
        <time>2012-11-24T11:07:03Z</time>
      </trkpt>
      <trkpt lat="42.297715000" lon="-2.530376000">
        <ele>719.70</ele>
        <time>2012-11-24T11:07:05Z</time>
      </trkpt>
      <trkpt lat="42.297143000" lon="-2.529958000">
        <ele>723.60</ele>
        <time>2012-11-24T11:07:31Z</time>
      </trkpt>
      <trkpt lat="42.296771000" lon="-2.529658000">
        <ele>726.20</ele>
        <time>2012-11-24T11:07:49Z</time>
      </trkpt>
      <trkpt lat="42.295786000" lon="-2.528618000">
        <ele>728.40</ele>
        <time>2012-11-24T11:08:39Z</time>
      </trkpt>
      <trkpt lat="42.295765000" lon="-2.528601000">
        <ele>728.50</ele>
        <time>2012-11-24T11:08:41Z</time>
      </trkpt>
      <trkpt lat="42.295356000" lon="-2.528341000">
        <ele>731.70</ele>
        <time>2012-11-24T11:09:00Z</time>
      </trkpt>
      <trkpt lat="42.295170000" lon="-2.528329000">
        <ele>733.80</ele>
        <time>2012-11-24T11:09:07Z</time>
      </trkpt>
      <trkpt lat="42.294983000" lon="-2.528349000">
        <ele>735.80</ele>
        <time>2012-11-24T11:09:16Z</time>
      </trkpt>
      <trkpt lat="42.294696000" lon="-2.528323000">
        <ele>738.90</ele>
        <time>2012-11-24T11:09:28Z</time>
      </trkpt>
      <trkpt lat="42.294525000" lon="-2.528273000">
        <ele>740.60</ele>
        <time>2012-11-24T11:09:35Z</time>
      </trkpt>
      <trkpt lat="42.294503000" lon="-2.528254000">
        <ele>740.70</ele>
        <time>2012-11-24T11:09:35Z</time>
      </trkpt>
      <trkpt lat="42.294353000" lon="-2.528218000">
        <ele>741.70</ele>
        <time>2012-11-24T11:09:42Z</time>
      </trkpt>
      <trkpt lat="42.294330000" lon="-2.528218000">
        <ele>741.80</ele>
        <time>2012-11-24T11:09:42Z</time>
      </trkpt>
      <trkpt lat="42.293140000" lon="-2.528436000">
        <ele>747.20</ele>
        <time>2012-11-24T11:10:38Z</time>
      </trkpt>
      <trkpt lat="42.292898000" lon="-2.528421000">
        <ele>747.50</ele>
        <time>2012-11-24T11:10:50Z</time>
      </trkpt>
      <trkpt lat="42.292880000" lon="-2.528416000">
        <ele>747.60</ele>
        <time>2012-11-24T11:10:50Z</time>
      </trkpt>
      <trkpt lat="42.292745000" lon="-2.528393000">
        <ele>748.60</ele>
        <time>2012-11-24T11:10:57Z</time>
      </trkpt>
      <trkpt lat="42.292668000" lon="-2.528371000">
        <ele>749.20</ele>
        <time>2012-11-24T11:11:02Z</time>
      </trkpt>
      <trkpt lat="42.292035000" lon="-2.528188000">
        <ele>753.00</ele>
        <time>2012-11-24T11:11:35Z</time>
      </trkpt>
      <trkpt lat="42.291871000" lon="-2.528086000">
        <ele>754.30</ele>
        <time>2012-11-24T11:11:46Z</time>
      </trkpt>
      <trkpt lat="42.291766000" lon="-2.528029000">
        <ele>754.80</ele>
        <time>2012-11-24T11:11:51Z</time>
      </trkpt>
      <trkpt lat="42.291750000" lon="-2.528014000">
        <ele>754.80</ele>
        <time>2012-11-24T11:11:53Z</time>
      </trkpt>
      <trkpt lat="42.291576000" lon="-2.527774000">
        <ele>755.20</ele>
        <time>2012-11-24T11:12:05Z</time>
      </trkpt>
      <trkpt lat="42.291323000" lon="-2.527378000">
        <ele>755.40</ele>
        <time>2012-11-24T11:12:26Z</time>
      </trkpt>
      <trkpt lat="42.291248000" lon="-2.527298000">
        <ele>754.90</ele>
        <time>2012-11-24T11:12:31Z</time>
      </trkpt>
      <trkpt lat="42.290910000" lon="-2.527038000">
        <ele>756.40</ele>
        <time>2012-11-24T11:12:50Z</time>
      </trkpt>
      <trkpt lat="42.290683000" lon="-2.526929000">
        <ele>759.60</ele>
        <time>2012-11-24T11:13:02Z</time>
      </trkpt>
      <trkpt lat="42.290663000" lon="-2.526924000">
        <ele>759.70</ele>
        <time>2012-11-24T11:13:04Z</time>
      </trkpt>
      <trkpt lat="42.289175000" lon="-2.526609000">
        <ele>772.70</ele>
        <time>2012-11-24T11:14:10Z</time>
      </trkpt>
      <trkpt lat="42.289148000" lon="-2.526604000">
        <ele>772.70</ele>
        <time>2012-11-24T11:14:12Z</time>
      </trkpt>
      <trkpt lat="42.288940000" lon="-2.526616000">
        <ele>773.70</ele>
        <time>2012-11-24T11:14:19Z</time>
      </trkpt>
      <trkpt lat="42.288453000" lon="-2.526923000">
        <ele>775.10</ele>
        <time>2012-11-24T11:14:41Z</time>
      </trkpt>
      <trkpt lat="42.287880000" lon="-2.527361000">
        <ele>777.30</ele>
        <time>2012-11-24T11:15:11Z</time>
      </trkpt>
      <trkpt lat="42.287861000" lon="-2.527371000">
        <ele>777.50</ele>
        <time>2012-11-24T11:15:13Z</time>
      </trkpt>
      <trkpt lat="42.287846000" lon="-2.527383000">
        <ele>777.60</ele>
        <time>2012-11-24T11:15:13Z</time>
      </trkpt>
      <trkpt lat="42.287708000" lon="-2.527494000">
        <ele>779.50</ele>
        <time>2012-11-24T11:15:23Z</time>
      </trkpt>
      <trkpt lat="42.287663000" lon="-2.527568000">
        <ele>780.30</ele>
        <time>2012-11-24T11:15:29Z</time>
      </trkpt>
      <trkpt lat="42.287636000" lon="-2.527646000">
        <ele>781.10</ele>
        <time>2012-11-24T11:15:34Z</time>
      </trkpt>
      <trkpt lat="42.287630000" lon="-2.527651000">
        <ele>781.20</ele>
        <time>2012-11-24T11:15:34Z</time>
      </trkpt>
      <trkpt lat="42.287626000" lon="-2.527653000">
        <ele>781.30</ele>
        <time>2012-11-24T11:15:35Z</time>
      </trkpt>
      <trkpt lat="42.287625000" lon="-2.527653000">
        <ele>781.40</ele>
        <time>2012-11-24T11:15:39Z</time>
      </trkpt>
      <trkpt lat="42.287625000" lon="-2.527654000">
        <ele>781.40</ele>
        <time>2012-11-24T11:15:39Z</time>
      </trkpt>
      <trkpt lat="42.287625000" lon="-2.527651000">
        <ele>781.40</ele>
        <time>2012-11-24T11:15:44Z</time>
      </trkpt>
      <trkpt lat="42.287623000" lon="-2.527653000">
        <ele>781.40</ele>
        <time>2012-11-24T11:15:46Z</time>
      </trkpt>
      <trkpt lat="42.287623000" lon="-2.527651000">
        <ele>781.40</ele>
        <time>2012-11-24T11:15:48Z</time>
      </trkpt>
      <trkpt lat="42.287616000" lon="-2.527666000">
        <ele>781.50</ele>
        <time>2012-11-24T11:15:51Z</time>
      </trkpt>
      <trkpt lat="42.287610000" lon="-2.527676000">
        <ele>781.60</ele>
        <time>2012-11-24T11:15:51Z</time>
      </trkpt>
      <trkpt lat="42.287600000" lon="-2.527703000">
        <ele>781.80</ele>
        <time>2012-11-24T11:15:53Z</time>
      </trkpt>
      <trkpt lat="42.287596000" lon="-2.527733000">
        <ele>782.00</ele>
        <time>2012-11-24T11:15:55Z</time>
      </trkpt>
      <trkpt lat="42.287576000" lon="-2.527803000">
        <ele>782.70</ele>
        <time>2012-11-24T11:16:00Z</time>
      </trkpt>
      <trkpt lat="42.287571000" lon="-2.527813000">
        <ele>782.80</ele>
        <time>2012-11-24T11:16:02Z</time>
      </trkpt>
      <trkpt lat="42.287570000" lon="-2.527818000">
        <ele>783.00</ele>
        <time>2012-11-24T11:16:07Z</time>
      </trkpt>
      <trkpt lat="42.287573000" lon="-2.527818000">
        <ele>783.00</ele>
        <time>2012-11-24T11:16:19Z</time>
      </trkpt>
      <trkpt lat="42.287573000" lon="-2.527816000">
        <ele>783.00</ele>
        <time>2012-11-24T11:16:21Z</time>
      </trkpt>
      <trkpt lat="42.287573000" lon="-2.527818000">
        <ele>783.00</ele>
        <time>2012-11-24T11:16:26Z</time>
      </trkpt>
      <trkpt lat="42.287571000" lon="-2.527818000">
        <ele>783.00</ele>
        <time>2012-11-24T11:16:26Z</time>
      </trkpt>
      <trkpt lat="42.287571000" lon="-2.527821000">
        <ele>783.00</ele>
        <time>2012-11-24T11:16:31Z</time>
      </trkpt>
      <trkpt lat="42.287571000" lon="-2.527819000">
        <ele>783.00</ele>
        <time>2012-11-24T11:16:33Z</time>
      </trkpt>
      <trkpt lat="42.287575000" lon="-2.527818000">
        <ele>783.00</ele>
        <time>2012-11-24T11:16:38Z</time>
      </trkpt>
      <trkpt lat="42.287575000" lon="-2.527816000">
        <ele>783.00</ele>
        <time>2012-11-24T11:16:40Z</time>
      </trkpt>
      <trkpt lat="42.287576000" lon="-2.527816000">
        <ele>783.00</ele>
        <time>2012-11-24T11:16:40Z</time>
      </trkpt>
      <trkpt lat="42.287578000" lon="-2.527814000">
        <ele>782.90</ele>
        <time>2012-11-24T11:16:42Z</time>
      </trkpt>
      <trkpt lat="42.287581000" lon="-2.527813000">
        <ele>782.90</ele>
        <time>2012-11-24T11:16:52Z</time>
      </trkpt>
      <trkpt lat="42.287583000" lon="-2.527813000">
        <ele>782.90</ele>
        <time>2012-11-24T11:16:57Z</time>
      </trkpt>
      <trkpt lat="42.287585000" lon="-2.527813000">
        <ele>782.80</ele>
        <time>2012-11-24T11:17:01Z</time>
      </trkpt>
      <trkpt lat="42.287586000" lon="-2.527809000">
        <ele>782.80</ele>
        <time>2012-11-24T11:17:11Z</time>
      </trkpt>
      <trkpt lat="42.287588000" lon="-2.527809000">
        <ele>782.80</ele>
        <time>2012-11-24T11:17:13Z</time>
      </trkpt>
      <trkpt lat="42.287588000" lon="-2.527811000">
        <ele>782.80</ele>
        <time>2012-11-24T11:17:18Z</time>
      </trkpt>
      <trkpt lat="42.287585000" lon="-2.527811000">
        <ele>782.80</ele>
        <time>2012-11-24T11:17:34Z</time>
      </trkpt>
      <trkpt lat="42.287585000" lon="-2.527813000">
        <ele>782.80</ele>
        <time>2012-11-24T11:17:34Z</time>
      </trkpt>
      <trkpt lat="42.287583000" lon="-2.527813000">
        <ele>782.80</ele>
        <time>2012-11-24T11:17:37Z</time>
      </trkpt>
      <trkpt lat="42.287583000" lon="-2.527814000">
        <ele>782.90</ele>
        <time>2012-11-24T11:17:39Z</time>
      </trkpt>
      <trkpt lat="42.287581000" lon="-2.527814000">
        <ele>782.90</ele>
        <time>2012-11-24T11:17:41Z</time>
      </trkpt>
      <trkpt lat="42.287581000" lon="-2.527816000">
        <ele>782.90</ele>
        <time>2012-11-24T11:17:43Z</time>
      </trkpt>
      <trkpt lat="42.287580000" lon="-2.527814000">
        <ele>782.90</ele>
        <time>2012-11-24T11:17:48Z</time>
      </trkpt>
      <trkpt lat="42.287580000" lon="-2.527816000">
        <ele>782.90</ele>
        <time>2012-11-24T11:17:50Z</time>
      </trkpt>
      <trkpt lat="42.287581000" lon="-2.527811000">
        <ele>782.90</ele>
        <time>2012-11-24T11:17:53Z</time>
      </trkpt>
      <trkpt lat="42.287583000" lon="-2.527811000">
        <ele>782.90</ele>
        <time>2012-11-24T11:17:55Z</time>
      </trkpt>
      <trkpt lat="42.287585000" lon="-2.527814000">
        <ele>782.90</ele>
        <time>2012-11-24T11:17:55Z</time>
      </trkpt>
      <trkpt lat="42.287588000" lon="-2.527833000">
        <ele>782.90</ele>
        <time>2012-11-24T11:17:58Z</time>
      </trkpt>
      <trkpt lat="42.287586000" lon="-2.527834000">
        <ele>782.90</ele>
        <time>2012-11-24T11:17:58Z</time>
      </trkpt>
      <trkpt lat="42.287585000" lon="-2.527836000">
        <ele>783.00</ele>
        <time>2012-11-24T11:18:00Z</time>
      </trkpt>
      <trkpt lat="42.287581000" lon="-2.527839000">
        <ele>783.00</ele>
        <time>2012-11-24T11:18:05Z</time>
      </trkpt>
      <trkpt lat="42.287580000" lon="-2.527841000">
        <ele>783.10</ele>
        <time>2012-11-24T11:18:05Z</time>
      </trkpt>
      <trkpt lat="42.287575000" lon="-2.527841000">
        <ele>783.10</ele>
        <time>2012-11-24T11:18:16Z</time>
      </trkpt>
      <trkpt lat="42.287575000" lon="-2.527843000">
        <ele>783.10</ele>
        <time>2012-11-24T11:18:23Z</time>
      </trkpt>
      <trkpt lat="42.287575000" lon="-2.527844000">
        <ele>783.10</ele>
        <time>2012-11-24T11:18:24Z</time>
      </trkpt>
      <trkpt lat="42.287601000" lon="-2.528033000">
        <ele>785.20</ele>
        <time>2012-11-24T11:18:35Z</time>
      </trkpt>
      <trkpt lat="42.287598000" lon="-2.528078000">
        <ele>786.00</ele>
        <time>2012-11-24T11:18:37Z</time>
      </trkpt>
      <trkpt lat="42.287603000" lon="-2.528121000">
        <ele>786.90</ele>
        <time>2012-11-24T11:18:38Z</time>
      </trkpt>
      <trkpt lat="42.287603000" lon="-2.528141000">
        <ele>787.30</ele>
        <time>2012-11-24T11:18:40Z</time>
      </trkpt>
      <trkpt lat="42.287578000" lon="-2.528254000">
        <ele>789.70</ele>
        <time>2012-11-24T11:18:45Z</time>
      </trkpt>
      <trkpt lat="42.287540000" lon="-2.528339000">
        <ele>791.70</ele>
        <time>2012-11-24T11:18:51Z</time>
      </trkpt>
      <trkpt lat="42.287528000" lon="-2.528354000">
        <ele>792.00</ele>
        <time>2012-11-24T11:18:52Z</time>
      </trkpt>
      <trkpt lat="42.287466000" lon="-2.528411000">
        <ele>793.40</ele>
        <time>2012-11-24T11:18:56Z</time>
      </trkpt>
      <trkpt lat="42.287453000" lon="-2.528419000">
        <ele>793.70</ele>
        <time>2012-11-24T11:18:58Z</time>
      </trkpt>
      <trkpt lat="42.287423000" lon="-2.528429000">
        <ele>794.10</ele>
        <time>2012-11-24T11:18:59Z</time>
      </trkpt>
      <trkpt lat="42.287293000" lon="-2.528443000">
        <ele>795.00</ele>
        <time>2012-11-24T11:19:08Z</time>
      </trkpt>
      <trkpt lat="42.287263000" lon="-2.528439000">
        <ele>795.10</ele>
        <time>2012-11-24T11:19:10Z</time>
      </trkpt>
      <trkpt lat="42.287220000" lon="-2.528444000">
        <ele>795.30</ele>
        <time>2012-11-24T11:19:13Z</time>
      </trkpt>
      <trkpt lat="42.287191000" lon="-2.528443000">
        <ele>795.40</ele>
        <time>2012-11-24T11:19:15Z</time>
      </trkpt>
      <trkpt lat="42.287161000" lon="-2.528448000">
        <ele>795.60</ele>
        <time>2012-11-24T11:19:17Z</time>
      </trkpt>
      <trkpt lat="42.287148000" lon="-2.528446000">
        <ele>795.60</ele>
        <time>2012-11-24T11:19:18Z</time>
      </trkpt>
      <trkpt lat="42.287133000" lon="-2.528441000">
        <ele>795.60</ele>
        <time>2012-11-24T11:19:20Z</time>
      </trkpt>
      <trkpt lat="42.287091000" lon="-2.528436000">
        <ele>795.70</ele>
        <time>2012-11-24T11:19:22Z</time>
      </trkpt>
      <trkpt lat="42.287048000" lon="-2.528423000">
        <ele>796.30</ele>
        <time>2012-11-24T11:19:25Z</time>
      </trkpt>
      <trkpt lat="42.286973000" lon="-2.528416000">
        <ele>798.00</ele>
        <time>2012-11-24T11:19:31Z</time>
      </trkpt>
      <trkpt lat="42.286931000" lon="-2.528421000">
        <ele>799.20</ele>
        <time>2012-11-24T11:19:34Z</time>
      </trkpt>
      <trkpt lat="42.286918000" lon="-2.528419000">
        <ele>799.60</ele>
        <time>2012-11-24T11:19:34Z</time>
      </trkpt>
      <trkpt lat="42.286905000" lon="-2.528423000">
        <ele>800.00</ele>
        <time>2012-11-24T11:19:36Z</time>
      </trkpt>
      <trkpt lat="42.286891000" lon="-2.528423000">
        <ele>800.40</ele>
        <time>2012-11-24T11:19:36Z</time>
      </trkpt>
      <trkpt lat="42.286866000" lon="-2.528409000">
        <ele>801.00</ele>
        <time>2012-11-24T11:19:38Z</time>
      </trkpt>
      <trkpt lat="42.286841000" lon="-2.528386000">
        <ele>801.40</ele>
        <time>2012-11-24T11:19:41Z</time>
      </trkpt>
      <trkpt lat="42.286710000" lon="-2.528216000">
        <ele>802.70</ele>
        <time>2012-11-24T11:19:48Z</time>
      </trkpt>
      <trkpt lat="42.286693000" lon="-2.528188000">
        <ele>802.80</ele>
        <time>2012-11-24T11:19:50Z</time>
      </trkpt>
      <trkpt lat="42.286670000" lon="-2.528101000">
        <ele>802.60</ele>
        <time>2012-11-24T11:19:53Z</time>
      </trkpt>
      <trkpt lat="42.286600000" lon="-2.527981000">
        <ele>802.60</ele>
        <time>2012-11-24T11:20:00Z</time>
      </trkpt>
      <trkpt lat="42.286531000" lon="-2.527903000">
        <ele>803.20</ele>
        <time>2012-11-24T11:20:06Z</time>
      </trkpt>
      <trkpt lat="42.286511000" lon="-2.527873000">
        <ele>803.40</ele>
        <time>2012-11-24T11:20:07Z</time>
      </trkpt>
      <trkpt lat="42.286475000" lon="-2.527833000">
        <ele>803.70</ele>
        <time>2012-11-24T11:20:11Z</time>
      </trkpt>
      <trkpt lat="42.286448000" lon="-2.527813000">
        <ele>804.00</ele>
        <time>2012-11-24T11:20:12Z</time>
      </trkpt>
      <trkpt lat="42.286438000" lon="-2.527799000">
        <ele>804.20</ele>
        <time>2012-11-24T11:20:14Z</time>
      </trkpt>
      <trkpt lat="42.286200000" lon="-2.527548000">
        <ele>806.60</ele>
        <time>2012-11-24T11:20:33Z</time>
      </trkpt>
      <trkpt lat="42.286185000" lon="-2.527538000">
        <ele>806.70</ele>
        <time>2012-11-24T11:20:33Z</time>
      </trkpt>
      <trkpt lat="42.286151000" lon="-2.527514000">
        <ele>807.50</ele>
        <time>2012-11-24T11:20:35Z</time>
      </trkpt>
      <trkpt lat="42.286026000" lon="-2.527386000">
        <ele>809.40</ele>
        <time>2012-11-24T11:20:44Z</time>
      </trkpt>
      <trkpt lat="42.285953000" lon="-2.527326000">
        <ele>810.50</ele>
        <time>2012-11-24T11:20:47Z</time>
      </trkpt>
      <trkpt lat="42.285865000" lon="-2.527241000">
        <ele>811.70</ele>
        <time>2012-11-24T11:20:53Z</time>
      </trkpt>
      <trkpt lat="42.285845000" lon="-2.527228000">
        <ele>812.00</ele>
        <time>2012-11-24T11:20:54Z</time>
      </trkpt>
      <trkpt lat="42.285756000" lon="-2.527154000">
        <ele>813.20</ele>
        <time>2012-11-24T11:20:58Z</time>
      </trkpt>
      <trkpt lat="42.285698000" lon="-2.527113000">
        <ele>814.10</ele>
        <time>2012-11-24T11:21:01Z</time>
      </trkpt>
      <trkpt lat="42.285350000" lon="-2.526863000">
        <ele>816.30</ele>
        <time>2012-11-24T11:21:19Z</time>
      </trkpt>
      <trkpt lat="42.284893000" lon="-2.526678000">
        <ele>816.00</ele>
        <time>2012-11-24T11:21:41Z</time>
      </trkpt>
      <trkpt lat="42.284870000" lon="-2.526673000">
        <ele>816.10</ele>
        <time>2012-11-24T11:21:41Z</time>
      </trkpt>
      <trkpt lat="42.284695000" lon="-2.526624000">
        <ele>816.80</ele>
        <time>2012-11-24T11:21:50Z</time>
      </trkpt>
      <trkpt lat="42.284585000" lon="-2.526591000">
        <ele>817.00</ele>
        <time>2012-11-24T11:21:55Z</time>
      </trkpt>
      <trkpt lat="42.284523000" lon="-2.526556000">
        <ele>816.40</ele>
        <time>2012-11-24T11:21:57Z</time>
      </trkpt>
      <trkpt lat="42.284488000" lon="-2.526524000">
        <ele>815.70</ele>
        <time>2012-11-24T11:21:59Z</time>
      </trkpt>
      <trkpt lat="42.284426000" lon="-2.526439000">
        <ele>813.50</ele>
        <time>2012-11-24T11:22:04Z</time>
      </trkpt>
      <trkpt lat="42.284393000" lon="-2.526364000">
        <ele>811.30</ele>
        <time>2012-11-24T11:22:06Z</time>
      </trkpt>
      <trkpt lat="42.284381000" lon="-2.526313000">
        <ele>809.60</ele>
        <time>2012-11-24T11:22:09Z</time>
      </trkpt>
      <trkpt lat="42.284376000" lon="-2.526259000">
        <ele>807.90</ele>
        <time>2012-11-24T11:22:11Z</time>
      </trkpt>
      <trkpt lat="42.284385000" lon="-2.526153000">
        <ele>806.30</ele>
        <time>2012-11-24T11:22:14Z</time>
      </trkpt>
      <trkpt lat="42.284390000" lon="-2.526128000">
        <ele>806.20</ele>
        <time>2012-11-24T11:22:16Z</time>
      </trkpt>
      <trkpt lat="42.284398000" lon="-2.526103000">
        <ele>806.00</ele>
        <time>2012-11-24T11:22:16Z</time>
      </trkpt>
      <trkpt lat="42.284403000" lon="-2.526078000">
        <ele>805.90</ele>
        <time>2012-11-24T11:22:18Z</time>
      </trkpt>
      <trkpt lat="42.284428000" lon="-2.526008000">
        <ele>805.60</ele>
        <time>2012-11-24T11:22:21Z</time>
      </trkpt>
      <trkpt lat="42.284470000" lon="-2.525949000">
        <ele>805.30</ele>
        <time>2012-11-24T11:22:23Z</time>
      </trkpt>
      <trkpt lat="42.284536000" lon="-2.525896000">
        <ele>804.90</ele>
        <time>2012-11-24T11:22:28Z</time>
      </trkpt>
      <trkpt lat="42.284615000" lon="-2.525866000">
        <ele>804.50</ele>
        <time>2012-11-24T11:22:32Z</time>
      </trkpt>
      <trkpt lat="42.284768000" lon="-2.525854000">
        <ele>803.70</ele>
        <time>2012-11-24T11:22:39Z</time>
      </trkpt>
      <trkpt lat="42.284786000" lon="-2.525856000">
        <ele>803.60</ele>
        <time>2012-11-24T11:22:41Z</time>
      </trkpt>
      <trkpt lat="42.284843000" lon="-2.525854000">
        <ele>803.30</ele>
        <time>2012-11-24T11:22:44Z</time>
      </trkpt>
      <trkpt lat="42.284861000" lon="-2.525849000">
        <ele>803.30</ele>
        <time>2012-11-24T11:22:44Z</time>
      </trkpt>
      <trkpt lat="42.284970000" lon="-2.525811000">
        <ele>802.70</ele>
        <time>2012-11-24T11:22:51Z</time>
      </trkpt>
      <trkpt lat="42.285023000" lon="-2.525793000">
        <ele>802.50</ele>
        <time>2012-11-24T11:22:53Z</time>
      </trkpt>
      <trkpt lat="42.285231000" lon="-2.525663000">
        <ele>802.30</ele>
        <time>2012-11-24T11:23:08Z</time>
      </trkpt>
      <trkpt lat="42.285243000" lon="-2.525653000">
        <ele>802.30</ele>
        <time>2012-11-24T11:23:10Z</time>
      </trkpt>
      <trkpt lat="42.285308000" lon="-2.525614000">
        <ele>802.40</ele>
        <time>2012-11-24T11:23:14Z</time>
      </trkpt>
      <trkpt lat="42.285418000" lon="-2.525513000">
        <ele>803.00</ele>
        <time>2012-11-24T11:23:24Z</time>
      </trkpt>
      <trkpt lat="42.285483000" lon="-2.525426000">
        <ele>804.10</ele>
        <time>2012-11-24T11:23:29Z</time>
      </trkpt>
      <trkpt lat="42.285550000" lon="-2.525319000">
        <ele>807.10</ele>
        <time>2012-11-24T11:23:36Z</time>
      </trkpt>
      <trkpt lat="42.285563000" lon="-2.525283000">
        <ele>808.20</ele>
        <time>2012-11-24T11:23:38Z</time>
      </trkpt>
      <trkpt lat="42.285583000" lon="-2.525256000">
        <ele>809.20</ele>
        <time>2012-11-24T11:23:40Z</time>
      </trkpt>
      <trkpt lat="42.285670000" lon="-2.525166000">
        <ele>812.20</ele>
        <time>2012-11-24T11:23:48Z</time>
      </trkpt>
      <trkpt lat="42.285681000" lon="-2.525158000">
        <ele>812.40</ele>
        <time>2012-11-24T11:23:50Z</time>
      </trkpt>
      <trkpt lat="42.285888000" lon="-2.525074000">
        <ele>815.60</ele>
        <time>2012-11-24T11:24:04Z</time>
      </trkpt>
      <trkpt lat="42.286110000" lon="-2.525029000">
        <ele>817.00</ele>
        <time>2012-11-24T11:24:20Z</time>
      </trkpt>
      <trkpt lat="42.286193000" lon="-2.524999000">
        <ele>817.70</ele>
        <time>2012-11-24T11:24:25Z</time>
      </trkpt>
      <trkpt lat="42.286220000" lon="-2.524994000">
        <ele>817.90</ele>
        <time>2012-11-24T11:24:27Z</time>
      </trkpt>
      <trkpt lat="42.286336000" lon="-2.524939000">
        <ele>819.70</ele>
        <time>2012-11-24T11:24:37Z</time>
      </trkpt>
      <trkpt lat="42.286350000" lon="-2.524936000">
        <ele>819.90</ele>
        <time>2012-11-24T11:24:37Z</time>
      </trkpt>
      <trkpt lat="42.286428000" lon="-2.524896000">
        <ele>821.40</ele>
        <time>2012-11-24T11:24:44Z</time>
      </trkpt>
      <trkpt lat="42.286481000" lon="-2.524838000">
        <ele>822.90</ele>
        <time>2012-11-24T11:24:48Z</time>
      </trkpt>
      <trkpt lat="42.286511000" lon="-2.524793000">
        <ele>824.00</ele>
        <time>2012-11-24T11:24:51Z</time>
      </trkpt>
      <trkpt lat="42.286523000" lon="-2.524779000">
        <ele>824.20</ele>
        <time>2012-11-24T11:24:53Z</time>
      </trkpt>
      <trkpt lat="42.286570000" lon="-2.524706000">
        <ele>826.10</ele>
        <time>2012-11-24T11:24:58Z</time>
      </trkpt>
      <trkpt lat="42.286601000" lon="-2.524624000">
        <ele>827.80</ele>
        <time>2012-11-24T11:25:02Z</time>
      </trkpt>
      <trkpt lat="42.286618000" lon="-2.524596000">
        <ele>828.40</ele>
        <time>2012-11-24T11:25:05Z</time>
      </trkpt>
      <trkpt lat="42.286625000" lon="-2.524579000">
        <ele>828.70</ele>
        <time>2012-11-24T11:25:05Z</time>
      </trkpt>
      <trkpt lat="42.286641000" lon="-2.524548000">
        <ele>829.60</ele>
        <time>2012-11-24T11:25:07Z</time>
      </trkpt>
      <trkpt lat="42.286678000" lon="-2.524446000">
        <ele>832.40</ele>
        <time>2012-11-24T11:25:14Z</time>
      </trkpt>
      <trkpt lat="42.286845000" lon="-2.524208000">
        <ele>838.20</ele>
        <time>2012-11-24T11:25:31Z</time>
      </trkpt>
      <trkpt lat="42.287038000" lon="-2.523973000">
        <ele>841.30</ele>
        <time>2012-11-24T11:25:49Z</time>
      </trkpt>
      <trkpt lat="42.287063000" lon="-2.523951000">
        <ele>841.40</ele>
        <time>2012-11-24T11:25:50Z</time>
      </trkpt>
      <trkpt lat="42.287081000" lon="-2.523924000">
        <ele>841.60</ele>
        <time>2012-11-24T11:25:52Z</time>
      </trkpt>
      <trkpt lat="42.287135000" lon="-2.523868000">
        <ele>842.00</ele>
        <time>2012-11-24T11:25:57Z</time>
      </trkpt>
      <trkpt lat="42.287148000" lon="-2.523858000">
        <ele>842.10</ele>
        <time>2012-11-24T11:25:59Z</time>
      </trkpt>
      <trkpt lat="42.287415000" lon="-2.523666000">
        <ele>842.50</ele>
        <time>2012-11-24T11:26:18Z</time>
      </trkpt>
      <trkpt lat="42.287438000" lon="-2.523646000">
        <ele>842.50</ele>
        <time>2012-11-24T11:26:20Z</time>
      </trkpt>
      <trkpt lat="42.287463000" lon="-2.523633000">
        <ele>842.40</ele>
        <time>2012-11-24T11:26:22Z</time>
      </trkpt>
      <trkpt lat="42.287485000" lon="-2.523609000">
        <ele>842.40</ele>
        <time>2012-11-24T11:26:25Z</time>
      </trkpt>
      <trkpt lat="42.287498000" lon="-2.523603000">
        <ele>842.40</ele>
        <time>2012-11-24T11:26:25Z</time>
      </trkpt>
      <trkpt lat="42.287526000" lon="-2.523601000">
        <ele>842.20</ele>
        <time>2012-11-24T11:26:27Z</time>
      </trkpt>
      <trkpt lat="42.287610000" lon="-2.523569000">
        <ele>841.70</ele>
        <time>2012-11-24T11:26:34Z</time>
      </trkpt>
      <trkpt lat="42.287975000" lon="-2.523409000">
        <ele>838.90</ele>
        <time>2012-11-24T11:26:58Z</time>
      </trkpt>
      <trkpt lat="42.288018000" lon="-2.523396000">
        <ele>839.10</ele>
        <time>2012-11-24T11:27:02Z</time>
      </trkpt>
      <trkpt lat="42.288033000" lon="-2.523388000">
        <ele>839.20</ele>
        <time>2012-11-24T11:27:02Z</time>
      </trkpt>
      <trkpt lat="42.288328000" lon="-2.523273000">
        <ele>840.70</ele>
        <time>2012-11-24T11:27:24Z</time>
      </trkpt>
      <trkpt lat="42.288721000" lon="-2.523111000">
        <ele>842.50</ele>
        <time>2012-11-24T11:27:54Z</time>
      </trkpt>
      <trkpt lat="42.288735000" lon="-2.523109000">
        <ele>842.60</ele>
        <time>2012-11-24T11:27:56Z</time>
      </trkpt>
      <trkpt lat="42.288831000" lon="-2.523081000">
        <ele>843.20</ele>
        <time>2012-11-24T11:28:03Z</time>
      </trkpt>
      <trkpt lat="42.288976000" lon="-2.523066000">
        <ele>844.40</ele>
        <time>2012-11-24T11:28:13Z</time>
      </trkpt>
      <trkpt lat="42.288991000" lon="-2.523068000">
        <ele>844.40</ele>
        <time>2012-11-24T11:28:13Z</time>
      </trkpt>
      <trkpt lat="42.289026000" lon="-2.523066000">
        <ele>844.70</ele>
        <time>2012-11-24T11:28:15Z</time>
      </trkpt>
      <trkpt lat="42.289060000" lon="-2.523074000">
        <ele>845.00</ele>
        <time>2012-11-24T11:28:17Z</time>
      </trkpt>
      <trkpt lat="42.289075000" lon="-2.523083000">
        <ele>845.10</ele>
        <time>2012-11-24T11:28:18Z</time>
      </trkpt>
      <trkpt lat="42.289165000" lon="-2.523101000">
        <ele>845.70</ele>
        <time>2012-11-24T11:28:24Z</time>
      </trkpt>
      <trkpt lat="42.289205000" lon="-2.523116000">
        <ele>846.00</ele>
        <time>2012-11-24T11:28:25Z</time>
      </trkpt>
      <trkpt lat="42.289241000" lon="-2.523119000">
        <ele>846.20</ele>
        <time>2012-11-24T11:28:27Z</time>
      </trkpt>
      <trkpt lat="42.289261000" lon="-2.523119000">
        <ele>846.40</ele>
        <time>2012-11-24T11:28:29Z</time>
      </trkpt>
      <trkpt lat="42.289280000" lon="-2.523121000">
        <ele>846.50</ele>
        <time>2012-11-24T11:28:29Z</time>
      </trkpt>
      <trkpt lat="42.289340000" lon="-2.523121000">
        <ele>846.90</ele>
        <time>2012-11-24T11:28:32Z</time>
      </trkpt>
      <trkpt lat="42.289406000" lon="-2.523128000">
        <ele>847.40</ele>
        <time>2012-11-24T11:28:36Z</time>
      </trkpt>
      <trkpt lat="42.289520000" lon="-2.523108000">
        <ele>848.30</ele>
        <time>2012-11-24T11:28:41Z</time>
      </trkpt>
      <trkpt lat="42.289628000" lon="-2.523061000">
        <ele>848.80</ele>
        <time>2012-11-24T11:28:46Z</time>
      </trkpt>
      <trkpt lat="42.289676000" lon="-2.523018000">
        <ele>848.40</ele>
        <time>2012-11-24T11:28:48Z</time>
      </trkpt>
      <trkpt lat="42.289756000" lon="-2.522916000">
        <ele>848.00</ele>
        <time>2012-11-24T11:28:50Z</time>
      </trkpt>
      <trkpt lat="42.290271000" lon="-2.522384000">
        <ele>846.80</ele>
        <time>2012-11-24T11:29:02Z</time>
      </trkpt>
      <trkpt lat="42.290318000" lon="-2.522309000">
        <ele>847.00</ele>
        <time>2012-11-24T11:29:02Z</time>
      </trkpt>
      <trkpt lat="42.290356000" lon="-2.522228000">
        <ele>847.30</ele>
        <time>2012-11-24T11:29:04Z</time>
      </trkpt>
      <trkpt lat="42.290446000" lon="-2.521876000">
        <ele>849.50</ele>
        <time>2012-11-24T11:29:07Z</time>
      </trkpt>
      <trkpt lat="42.290523000" lon="-2.521724000">
        <ele>849.70</ele>
        <time>2012-11-24T11:29:09Z</time>
      </trkpt>
      <trkpt lat="42.290573000" lon="-2.521654000">
        <ele>849.50</ele>
        <time>2012-11-24T11:29:11Z</time>
      </trkpt>
      <trkpt lat="42.290778000" lon="-2.521474000">
        <ele>847.40</ele>
        <time>2012-11-24T11:29:14Z</time>
      </trkpt>
      <trkpt lat="42.290858000" lon="-2.521434000">
        <ele>846.70</ele>
        <time>2012-11-24T11:29:14Z</time>
      </trkpt>
      <trkpt lat="42.291470000" lon="-2.521308000">
        <ele>839.30</ele>
        <time>2012-11-24T11:29:28Z</time>
      </trkpt>
      <trkpt lat="42.291600000" lon="-2.521336000">
        <ele>840.30</ele>
        <time>2012-11-24T11:29:35Z</time>
      </trkpt>
      <trkpt lat="42.291703000" lon="-2.521381000">
        <ele>840.50</ele>
        <time>2012-11-24T11:29:42Z</time>
      </trkpt>
      <trkpt lat="42.291718000" lon="-2.521391000">
        <ele>840.50</ele>
        <time>2012-11-24T11:29:42Z</time>
      </trkpt>
      <trkpt lat="42.291965000" lon="-2.521498000">
        <ele>840.10</ele>
        <time>2012-11-24T11:29:58Z</time>
      </trkpt>
      <trkpt lat="42.291980000" lon="-2.521501000">
        <ele>840.00</ele>
        <time>2012-11-24T11:30:00Z</time>
      </trkpt>
      <trkpt lat="42.292040000" lon="-2.521519000">
        <ele>839.90</ele>
        <time>2012-11-24T11:30:03Z</time>
      </trkpt>
      <trkpt lat="42.292140000" lon="-2.521541000">
        <ele>840.10</ele>
        <time>2012-11-24T11:30:10Z</time>
      </trkpt>
      <trkpt lat="42.292163000" lon="-2.521549000">
        <ele>840.20</ele>
        <time>2012-11-24T11:30:12Z</time>
      </trkpt>
      <trkpt lat="42.292176000" lon="-2.521549000">
        <ele>840.30</ele>
        <time>2012-11-24T11:30:13Z</time>
      </trkpt>
      <trkpt lat="42.292210000" lon="-2.521554000">
        <ele>840.50</ele>
        <time>2012-11-24T11:30:17Z</time>
      </trkpt>
      <trkpt lat="42.292221000" lon="-2.521554000">
        <ele>840.50</ele>
        <time>2012-11-24T11:30:17Z</time>
      </trkpt>
      <trkpt lat="42.292281000" lon="-2.521553000">
        <ele>841.20</ele>
        <time>2012-11-24T11:30:22Z</time>
      </trkpt>
      <trkpt lat="42.292306000" lon="-2.521548000">
        <ele>841.50</ele>
        <time>2012-11-24T11:30:24Z</time>
      </trkpt>
      <trkpt lat="42.292320000" lon="-2.521549000">
        <ele>841.70</ele>
        <time>2012-11-24T11:30:26Z</time>
      </trkpt>
      <trkpt lat="42.292386000" lon="-2.521544000">
        <ele>842.50</ele>
        <time>2012-11-24T11:30:31Z</time>
      </trkpt>
      <trkpt lat="42.292413000" lon="-2.521546000">
        <ele>842.70</ele>
        <time>2012-11-24T11:30:33Z</time>
      </trkpt>
      <trkpt lat="42.292426000" lon="-2.521548000">
        <ele>842.90</ele>
        <time>2012-11-24T11:30:34Z</time>
      </trkpt>
      <trkpt lat="42.292506000" lon="-2.521529000">
        <ele>844.00</ele>
        <time>2012-11-24T11:30:40Z</time>
      </trkpt>
      <trkpt lat="42.292615000" lon="-2.521491000">
        <ele>846.00</ele>
        <time>2012-11-24T11:30:48Z</time>
      </trkpt>
      <trkpt lat="42.292685000" lon="-2.521474000">
        <ele>847.10</ele>
        <time>2012-11-24T11:30:52Z</time>
      </trkpt>
      <trkpt lat="42.292711000" lon="-2.521461000">
        <ele>847.70</ele>
        <time>2012-11-24T11:30:55Z</time>
      </trkpt>
      <trkpt lat="42.292740000" lon="-2.521453000">
        <ele>848.20</ele>
        <time>2012-11-24T11:30:57Z</time>
      </trkpt>
      <trkpt lat="42.292836000" lon="-2.521398000">
        <ele>850.40</ele>
        <time>2012-11-24T11:31:04Z</time>
      </trkpt>
      <trkpt lat="42.292865000" lon="-2.521389000">
        <ele>850.90</ele>
        <time>2012-11-24T11:31:06Z</time>
      </trkpt>
      <trkpt lat="42.292888000" lon="-2.521374000">
        <ele>851.50</ele>
        <time>2012-11-24T11:31:09Z</time>
      </trkpt>
      <trkpt lat="42.292938000" lon="-2.521356000">
        <ele>852.40</ele>
        <time>2012-11-24T11:31:13Z</time>
      </trkpt>
      <trkpt lat="42.292948000" lon="-2.521354000">
        <ele>852.60</ele>
        <time>2012-11-24T11:31:13Z</time>
      </trkpt>
      <trkpt lat="42.293051000" lon="-2.521291000">
        <ele>854.70</ele>
        <time>2012-11-24T11:31:23Z</time>
      </trkpt>
      <trkpt lat="42.293065000" lon="-2.521288000">
        <ele>854.80</ele>
        <time>2012-11-24T11:31:23Z</time>
      </trkpt>
      <trkpt lat="42.293806000" lon="-2.521038000">
        <ele>867.30</ele>
        <time>2012-11-24T11:32:07Z</time>
      </trkpt>
      <trkpt lat="42.293975000" lon="-2.520933000">
        <ele>871.70</ele>
        <time>2012-11-24T11:32:17Z</time>
      </trkpt>
      <trkpt lat="42.294148000" lon="-2.520816000">
        <ele>876.10</ele>
        <time>2012-11-24T11:32:31Z</time>
      </trkpt>
      <trkpt lat="42.294161000" lon="-2.520811000">
        <ele>876.30</ele>
        <time>2012-11-24T11:32:31Z</time>
      </trkpt>
      <trkpt lat="42.294200000" lon="-2.520788000">
        <ele>877.20</ele>
        <time>2012-11-24T11:32:35Z</time>
      </trkpt>
      <trkpt lat="42.294223000" lon="-2.520769000">
        <ele>877.80</ele>
        <time>2012-11-24T11:32:36Z</time>
      </trkpt>
      <trkpt lat="42.294385000" lon="-2.520673000">
        <ele>881.10</ele>
        <time>2012-11-24T11:32:50Z</time>
      </trkpt>
      <trkpt lat="42.294421000" lon="-2.520661000">
        <ele>881.70</ele>
        <time>2012-11-24T11:32:52Z</time>
      </trkpt>
      <trkpt lat="42.294433000" lon="-2.520654000">
        <ele>881.80</ele>
        <time>2012-11-24T11:32:54Z</time>
      </trkpt>
      <trkpt lat="42.294463000" lon="-2.520631000">
        <ele>882.50</ele>
        <time>2012-11-24T11:32:57Z</time>
      </trkpt>
      <trkpt lat="42.294493000" lon="-2.520598000">
        <ele>883.30</ele>
        <time>2012-11-24T11:32:59Z</time>
      </trkpt>
      <trkpt lat="42.294653000" lon="-2.520488000">
        <ele>886.50</ele>
        <time>2012-11-24T11:33:13Z</time>
      </trkpt>
      <trkpt lat="42.294665000" lon="-2.520483000">
        <ele>886.80</ele>
        <time>2012-11-24T11:33:15Z</time>
      </trkpt>
      <trkpt lat="42.294675000" lon="-2.520476000">
        <ele>887.00</ele>
        <time>2012-11-24T11:33:16Z</time>
      </trkpt>
      <trkpt lat="42.294696000" lon="-2.520454000">
        <ele>887.50</ele>
        <time>2012-11-24T11:33:18Z</time>
      </trkpt>
      <trkpt lat="42.294741000" lon="-2.520421000">
        <ele>888.50</ele>
        <time>2012-11-24T11:33:22Z</time>
      </trkpt>
      <trkpt lat="42.294765000" lon="-2.520408000">
        <ele>889.00</ele>
        <time>2012-11-24T11:33:23Z</time>
      </trkpt>
      <trkpt lat="42.294861000" lon="-2.520331000">
        <ele>891.60</ele>
        <time>2012-11-24T11:33:32Z</time>
      </trkpt>
      <trkpt lat="42.294875000" lon="-2.520324000">
        <ele>891.70</ele>
        <time>2012-11-24T11:33:34Z</time>
      </trkpt>
      <trkpt lat="42.295033000" lon="-2.520226000">
        <ele>894.70</ele>
        <time>2012-11-24T11:33:46Z</time>
      </trkpt>
      <trkpt lat="42.295321000" lon="-2.520111000">
        <ele>896.70</ele>
        <time>2012-11-24T11:34:07Z</time>
      </trkpt>
      <trkpt lat="42.295346000" lon="-2.520091000">
        <ele>896.90</ele>
        <time>2012-11-24T11:34:09Z</time>
      </trkpt>
      <trkpt lat="42.295370000" lon="-2.520063000">
        <ele>897.20</ele>
        <time>2012-11-24T11:34:10Z</time>
      </trkpt>
      <trkpt lat="42.295378000" lon="-2.520048000">
        <ele>897.30</ele>
        <time>2012-11-24T11:34:12Z</time>
      </trkpt>
      <trkpt lat="42.295396000" lon="-2.519996000">
        <ele>897.90</ele>
        <time>2012-11-24T11:34:14Z</time>
      </trkpt>
      <trkpt lat="42.295411000" lon="-2.519931000">
        <ele>898.60</ele>
        <time>2012-11-24T11:34:19Z</time>
      </trkpt>
      <trkpt lat="42.295416000" lon="-2.519884000">
        <ele>899.10</ele>
        <time>2012-11-24T11:34:21Z</time>
      </trkpt>
      <trkpt lat="42.295401000" lon="-2.519641000">
        <ele>902.20</ele>
        <time>2012-11-24T11:34:36Z</time>
      </trkpt>
      <trkpt lat="42.295398000" lon="-2.519626000">
        <ele>902.30</ele>
        <time>2012-11-24T11:34:38Z</time>
      </trkpt>
      <trkpt lat="42.295400000" lon="-2.519609000">
        <ele>902.60</ele>
        <time>2012-11-24T11:34:38Z</time>
      </trkpt>
      <trkpt lat="42.295365000" lon="-2.519389000">
        <ele>904.50</ele>
        <time>2012-11-24T11:34:52Z</time>
      </trkpt>
      <trkpt lat="42.295355000" lon="-2.519359000">
        <ele>904.80</ele>
        <time>2012-11-24T11:34:54Z</time>
      </trkpt>
      <trkpt lat="42.295351000" lon="-2.519343000">
        <ele>905.00</ele>
        <time>2012-11-24T11:34:56Z</time>
      </trkpt>
      <trkpt lat="42.295350000" lon="-2.519326000">
        <ele>905.10</ele>
        <time>2012-11-24T11:34:57Z</time>
      </trkpt>
      <trkpt lat="42.295346000" lon="-2.519309000">
        <ele>905.30</ele>
        <time>2012-11-24T11:34:57Z</time>
      </trkpt>
      <trkpt lat="42.295330000" lon="-2.519248000">
        <ele>905.90</ele>
        <time>2012-11-24T11:35:01Z</time>
      </trkpt>
      <trkpt lat="42.295328000" lon="-2.519234000">
        <ele>906.10</ele>
        <time>2012-11-24T11:35:03Z</time>
      </trkpt>
      <trkpt lat="42.295321000" lon="-2.519208000">
        <ele>906.40</ele>
        <time>2012-11-24T11:35:04Z</time>
      </trkpt>
      <trkpt lat="42.295321000" lon="-2.519179000">
        <ele>906.60</ele>
        <time>2012-11-24T11:35:06Z</time>
      </trkpt>
      <trkpt lat="42.295318000" lon="-2.519144000">
        <ele>906.80</ele>
        <time>2012-11-24T11:35:08Z</time>
      </trkpt>
      <trkpt lat="42.295336000" lon="-2.518939000">
        <ele>907.40</ele>
        <time>2012-11-24T11:35:15Z</time>
      </trkpt>
      <trkpt lat="42.295333000" lon="-2.518898000">
        <ele>907.60</ele>
        <time>2012-11-24T11:35:15Z</time>
      </trkpt>
      <trkpt lat="42.295326000" lon="-2.518851000">
        <ele>908.10</ele>
        <time>2012-11-24T11:35:18Z</time>
      </trkpt>
      <trkpt lat="42.295315000" lon="-2.518818000">
        <ele>908.60</ele>
        <time>2012-11-24T11:35:20Z</time>
      </trkpt>
      <trkpt lat="42.295306000" lon="-2.518803000">
        <ele>908.80</ele>
        <time>2012-11-24T11:35:20Z</time>
      </trkpt>
      <trkpt lat="42.295285000" lon="-2.518753000">
        <ele>909.80</ele>
        <time>2012-11-24T11:35:24Z</time>
      </trkpt>
      <trkpt lat="42.295275000" lon="-2.518736000">
        <ele>910.10</ele>
        <time>2012-11-24T11:35:25Z</time>
      </trkpt>
      <trkpt lat="42.295263000" lon="-2.518703000">
        <ele>910.70</ele>
        <time>2012-11-24T11:35:27Z</time>
      </trkpt>
      <trkpt lat="42.295255000" lon="-2.518686000">
        <ele>911.00</ele>
        <time>2012-11-24T11:35:27Z</time>
      </trkpt>
      <trkpt lat="42.295250000" lon="-2.518668000">
        <ele>911.30</ele>
        <time>2012-11-24T11:35:29Z</time>
      </trkpt>
      <trkpt lat="42.295168000" lon="-2.518461000">
        <ele>914.90</ele>
        <time>2012-11-24T11:35:41Z</time>
      </trkpt>
      <trkpt lat="42.295165000" lon="-2.518446000">
        <ele>915.00</ele>
        <time>2012-11-24T11:35:43Z</time>
      </trkpt>
      <trkpt lat="42.295133000" lon="-2.518361000">
        <ele>916.50</ele>
        <time>2012-11-24T11:35:48Z</time>
      </trkpt>
      <trkpt lat="42.295128000" lon="-2.518343000">
        <ele>916.80</ele>
        <time>2012-11-24T11:35:48Z</time>
      </trkpt>
      <trkpt lat="42.295086000" lon="-2.518226000">
        <ele>918.80</ele>
        <time>2012-11-24T11:35:55Z</time>
      </trkpt>
      <trkpt lat="42.295061000" lon="-2.518124000">
        <ele>920.20</ele>
        <time>2012-11-24T11:36:02Z</time>
      </trkpt>
      <trkpt lat="42.295060000" lon="-2.518106000">
        <ele>920.40</ele>
        <time>2012-11-24T11:36:02Z</time>
      </trkpt>
      <trkpt lat="42.295055000" lon="-2.518089000">
        <ele>920.70</ele>
        <time>2012-11-24T11:36:04Z</time>
      </trkpt>
      <trkpt lat="42.295045000" lon="-2.518016000">
        <ele>921.50</ele>
        <time>2012-11-24T11:36:07Z</time>
      </trkpt>
      <trkpt lat="42.295040000" lon="-2.517999000">
        <ele>921.70</ele>
        <time>2012-11-24T11:36:09Z</time>
      </trkpt>
      <trkpt lat="42.295030000" lon="-2.517911000">
        <ele>922.60</ele>
        <time>2012-11-24T11:36:14Z</time>
      </trkpt>
      <trkpt lat="42.295025000" lon="-2.517889000">
        <ele>922.90</ele>
        <time>2012-11-24T11:36:14Z</time>
      </trkpt>
      <trkpt lat="42.295011000" lon="-2.517638000">
        <ele>926.60</ele>
        <time>2012-11-24T11:36:28Z</time>
      </trkpt>
      <trkpt lat="42.295006000" lon="-2.517601000">
        <ele>927.30</ele>
        <time>2012-11-24T11:36:30Z</time>
      </trkpt>
      <trkpt lat="42.295006000" lon="-2.517583000">
        <ele>927.50</ele>
        <time>2012-11-24T11:36:31Z</time>
      </trkpt>
      <trkpt lat="42.294998000" lon="-2.517363000">
        <ele>930.70</ele>
        <time>2012-11-24T11:36:45Z</time>
      </trkpt>
      <trkpt lat="42.295000000" lon="-2.517348000">
        <ele>930.80</ele>
        <time>2012-11-24T11:36:45Z</time>
      </trkpt>
      <trkpt lat="42.295000000" lon="-2.517314000">
        <ele>931.30</ele>
        <time>2012-11-24T11:36:47Z</time>
      </trkpt>
      <trkpt lat="42.294998000" lon="-2.517298000">
        <ele>931.50</ele>
        <time>2012-11-24T11:36:49Z</time>
      </trkpt>
      <trkpt lat="42.295000000" lon="-2.517264000">
        <ele>931.90</ele>
        <time>2012-11-24T11:36:51Z</time>
      </trkpt>
      <trkpt lat="42.294995000" lon="-2.517216000">
        <ele>932.70</ele>
        <time>2012-11-24T11:36:54Z</time>
      </trkpt>
      <trkpt lat="42.294995000" lon="-2.517133000">
        <ele>933.80</ele>
        <time>2012-11-24T11:36:59Z</time>
      </trkpt>
      <trkpt lat="42.294993000" lon="-2.517116000">
        <ele>934.00</ele>
        <time>2012-11-24T11:36:59Z</time>
      </trkpt>
      <trkpt lat="42.294990000" lon="-2.517099000">
        <ele>934.30</ele>
        <time>2012-11-24T11:37:01Z</time>
      </trkpt>
      <trkpt lat="42.294990000" lon="-2.517066000">
        <ele>934.80</ele>
        <time>2012-11-24T11:37:03Z</time>
      </trkpt>
      <trkpt lat="42.294991000" lon="-2.517049000">
        <ele>935.00</ele>
        <time>2012-11-24T11:37:03Z</time>
      </trkpt>
      <trkpt lat="42.294991000" lon="-2.517033000">
        <ele>935.30</ele>
        <time>2012-11-24T11:37:05Z</time>
      </trkpt>
      <trkpt lat="42.294998000" lon="-2.516968000">
        <ele>936.10</ele>
        <time>2012-11-24T11:37:08Z</time>
      </trkpt>
      <trkpt lat="42.294998000" lon="-2.516949000">
        <ele>936.30</ele>
        <time>2012-11-24T11:37:10Z</time>
      </trkpt>
      <trkpt lat="42.294988000" lon="-2.516843000">
        <ele>938.30</ele>
        <time>2012-11-24T11:37:15Z</time>
      </trkpt>
      <trkpt lat="42.294985000" lon="-2.516826000">
        <ele>938.60</ele>
        <time>2012-11-24T11:37:17Z</time>
      </trkpt>
      <trkpt lat="42.294980000" lon="-2.516719000">
        <ele>940.60</ele>
        <time>2012-11-24T11:37:22Z</time>
      </trkpt>
      <trkpt lat="42.294976000" lon="-2.516703000">
        <ele>941.00</ele>
        <time>2012-11-24T11:37:24Z</time>
      </trkpt>
      <trkpt lat="42.294963000" lon="-2.516479000">
        <ele>945.30</ele>
        <time>2012-11-24T11:37:36Z</time>
      </trkpt>
      <trkpt lat="42.294965000" lon="-2.516463000">
        <ele>945.50</ele>
        <time>2012-11-24T11:37:38Z</time>
      </trkpt>
      <trkpt lat="42.294965000" lon="-2.516429000">
        <ele>946.00</ele>
        <time>2012-11-24T11:37:39Z</time>
      </trkpt>
      <trkpt lat="42.294970000" lon="-2.516381000">
        <ele>946.70</ele>
        <time>2012-11-24T11:37:43Z</time>
      </trkpt>
      <trkpt lat="42.294970000" lon="-2.516366000">
        <ele>946.90</ele>
        <time>2012-11-24T11:37:43Z</time>
      </trkpt>
      <trkpt lat="42.294973000" lon="-2.516351000">
        <ele>947.00</ele>
        <time>2012-11-24T11:37:45Z</time>
      </trkpt>
      <trkpt lat="42.294975000" lon="-2.516334000">
        <ele>947.20</ele>
        <time>2012-11-24T11:37:46Z</time>
      </trkpt>
      <trkpt lat="42.294980000" lon="-2.516319000">
        <ele>947.30</ele>
        <time>2012-11-24T11:37:46Z</time>
      </trkpt>
      <trkpt lat="42.294981000" lon="-2.516304000">
        <ele>947.30</ele>
        <time>2012-11-24T11:37:48Z</time>
      </trkpt>
      <trkpt lat="42.294983000" lon="-2.516271000">
        <ele>947.70</ele>
        <time>2012-11-24T11:37:50Z</time>
      </trkpt>
      <trkpt lat="42.294976000" lon="-2.516239000">
        <ele>948.40</ele>
        <time>2012-11-24T11:37:52Z</time>
      </trkpt>
      <trkpt lat="42.294968000" lon="-2.516226000">
        <ele>948.90</ele>
        <time>2012-11-24T11:37:53Z</time>
      </trkpt>
      <trkpt lat="42.294958000" lon="-2.516214000">
        <ele>949.50</ele>
        <time>2012-11-24T11:37:53Z</time>
      </trkpt>
      <trkpt lat="42.294948000" lon="-2.516208000">
        <ele>950.10</ele>
        <time>2012-11-24T11:37:55Z</time>
      </trkpt>
      <trkpt lat="42.294936000" lon="-2.516206000">
        <ele>950.70</ele>
        <time>2012-11-24T11:37:55Z</time>
      </trkpt>
      <trkpt lat="42.294925000" lon="-2.516211000">
        <ele>951.30</ele>
        <time>2012-11-24T11:37:57Z</time>
      </trkpt>
      <trkpt lat="42.294915000" lon="-2.516219000">
        <ele>951.70</ele>
        <time>2012-11-24T11:37:57Z</time>
      </trkpt>
      <trkpt lat="42.294898000" lon="-2.516241000">
        <ele>952.40</ele>
        <time>2012-11-24T11:38:00Z</time>
      </trkpt>
      <trkpt lat="42.294880000" lon="-2.516286000">
        <ele>952.90</ele>
        <time>2012-11-24T11:38:02Z</time>
      </trkpt>
      <trkpt lat="42.294863000" lon="-2.516404000">
        <ele>952.10</ele>
        <time>2012-11-24T11:38:09Z</time>
      </trkpt>
      <trkpt lat="42.294835000" lon="-2.516733000">
        <ele>947.80</ele>
        <time>2012-11-24T11:38:28Z</time>
      </trkpt>
      <trkpt lat="42.294823000" lon="-2.516778000">
        <ele>947.40</ele>
        <time>2012-11-24T11:38:32Z</time>
      </trkpt>
      <trkpt lat="42.294770000" lon="-2.516923000">
        <ele>947.10</ele>
        <time>2012-11-24T11:38:42Z</time>
      </trkpt>
      <trkpt lat="42.294763000" lon="-2.516936000">
        <ele>947.10</ele>
        <time>2012-11-24T11:38:42Z</time>
      </trkpt>
      <trkpt lat="42.294746000" lon="-2.516959000">
        <ele>947.20</ele>
        <time>2012-11-24T11:38:44Z</time>
      </trkpt>
      <trkpt lat="42.294740000" lon="-2.516973000">
        <ele>947.30</ele>
        <time>2012-11-24T11:38:46Z</time>
      </trkpt>
      <trkpt lat="42.294675000" lon="-2.517061000">
        <ele>948.30</ele>
        <time>2012-11-24T11:38:54Z</time>
      </trkpt>
      <trkpt lat="42.294665000" lon="-2.517071000">
        <ele>948.40</ele>
        <time>2012-11-24T11:38:54Z</time>
      </trkpt>
      <trkpt lat="42.294631000" lon="-2.517111000">
        <ele>949.30</ele>
        <time>2012-11-24T11:38:58Z</time>
      </trkpt>
      <trkpt lat="42.294623000" lon="-2.517121000">
        <ele>949.50</ele>
        <time>2012-11-24T11:38:59Z</time>
      </trkpt>
      <trkpt lat="42.294616000" lon="-2.517133000">
        <ele>949.60</ele>
        <time>2012-11-24T11:39:01Z</time>
      </trkpt>
      <trkpt lat="42.294600000" lon="-2.517151000">
        <ele>950.00</ele>
        <time>2012-11-24T11:39:03Z</time>
      </trkpt>
      <trkpt lat="42.294590000" lon="-2.517159000">
        <ele>950.30</ele>
        <time>2012-11-24T11:39:03Z</time>
      </trkpt>
      <trkpt lat="42.294581000" lon="-2.517169000">
        <ele>950.50</ele>
        <time>2012-11-24T11:39:05Z</time>
      </trkpt>
      <trkpt lat="42.294576000" lon="-2.517181000">
        <ele>950.60</ele>
        <time>2012-11-24T11:39:05Z</time>
      </trkpt>
      <trkpt lat="42.294570000" lon="-2.517191000">
        <ele>950.80</ele>
        <time>2012-11-24T11:39:06Z</time>
      </trkpt>
      <trkpt lat="42.294553000" lon="-2.517209000">
        <ele>951.20</ele>
        <time>2012-11-24T11:39:08Z</time>
      </trkpt>
      <trkpt lat="42.294538000" lon="-2.517231000">
        <ele>951.50</ele>
        <time>2012-11-24T11:39:10Z</time>
      </trkpt>
      <trkpt lat="42.294521000" lon="-2.517249000">
        <ele>952.00</ele>
        <time>2012-11-24T11:39:12Z</time>
      </trkpt>
      <trkpt lat="42.294515000" lon="-2.517261000">
        <ele>952.10</ele>
        <time>2012-11-24T11:39:13Z</time>
      </trkpt>
      <trkpt lat="42.294506000" lon="-2.517271000">
        <ele>952.30</ele>
        <time>2012-11-24T11:39:15Z</time>
      </trkpt>
      <trkpt lat="42.294481000" lon="-2.517316000">
        <ele>952.90</ele>
        <time>2012-11-24T11:39:19Z</time>
      </trkpt>
      <trkpt lat="42.294465000" lon="-2.517334000">
        <ele>953.30</ele>
        <time>2012-11-24T11:39:20Z</time>
      </trkpt>
      <trkpt lat="42.294435000" lon="-2.517379000">
        <ele>954.10</ele>
        <time>2012-11-24T11:39:24Z</time>
      </trkpt>
      <trkpt lat="42.294428000" lon="-2.517393000">
        <ele>954.30</ele>
        <time>2012-11-24T11:39:26Z</time>
      </trkpt>
      <trkpt lat="42.294378000" lon="-2.517456000">
        <ele>955.60</ele>
        <time>2012-11-24T11:39:31Z</time>
      </trkpt>
      <trkpt lat="42.294365000" lon="-2.517479000">
        <ele>956.00</ele>
        <time>2012-11-24T11:39:34Z</time>
      </trkpt>
      <trkpt lat="42.294296000" lon="-2.517554000">
        <ele>958.20</ele>
        <time>2012-11-24T11:39:41Z</time>
      </trkpt>
      <trkpt lat="42.294276000" lon="-2.517588000">
        <ele>958.90</ele>
        <time>2012-11-24T11:39:45Z</time>
      </trkpt>
      <trkpt lat="42.294243000" lon="-2.517628000">
        <ele>959.90</ele>
        <time>2012-11-24T11:39:48Z</time>
      </trkpt>
      <trkpt lat="42.294236000" lon="-2.517639000">
        <ele>960.10</ele>
        <time>2012-11-24T11:39:50Z</time>
      </trkpt>
      <trkpt lat="42.294196000" lon="-2.517753000">
        <ele>961.00</ele>
        <time>2012-11-24T11:39:57Z</time>
      </trkpt>
      <trkpt lat="42.294188000" lon="-2.517783000">
        <ele>961.20</ele>
        <time>2012-11-24T11:39:59Z</time>
      </trkpt>
      <trkpt lat="42.294181000" lon="-2.517814000">
        <ele>961.20</ele>
        <time>2012-11-24T11:40:02Z</time>
      </trkpt>
      <trkpt lat="42.294121000" lon="-2.517971000">
        <ele>962.10</ele>
        <time>2012-11-24T11:40:13Z</time>
      </trkpt>
      <trkpt lat="42.294101000" lon="-2.518009000">
        <ele>962.30</ele>
        <time>2012-11-24T11:40:16Z</time>
      </trkpt>
      <trkpt lat="42.294061000" lon="-2.518068000">
        <ele>963.00</ele>
        <time>2012-11-24T11:40:21Z</time>
      </trkpt>
      <trkpt lat="42.294055000" lon="-2.518081000">
        <ele>963.10</ele>
        <time>2012-11-24T11:40:21Z</time>
      </trkpt>
      <trkpt lat="42.294045000" lon="-2.518093000">
        <ele>963.20</ele>
        <time>2012-11-24T11:40:23Z</time>
      </trkpt>
      <trkpt lat="42.294008000" lon="-2.518159000">
        <ele>963.60</ele>
        <time>2012-11-24T11:40:28Z</time>
      </trkpt>
      <trkpt lat="42.293966000" lon="-2.518266000">
        <ele>963.20</ele>
        <time>2012-11-24T11:40:35Z</time>
      </trkpt>
      <trkpt lat="42.293960000" lon="-2.518293000">
        <ele>963.00</ele>
        <time>2012-11-24T11:40:37Z</time>
      </trkpt>
      <trkpt lat="42.293938000" lon="-2.518391000">
        <ele>961.70</ele>
        <time>2012-11-24T11:40:44Z</time>
      </trkpt>
      <trkpt lat="42.293845000" lon="-2.518658000">
        <ele>958.50</ele>
        <time>2012-11-24T11:41:05Z</time>
      </trkpt>
      <trkpt lat="42.293838000" lon="-2.518671000">
        <ele>958.40</ele>
        <time>2012-11-24T11:41:05Z</time>
      </trkpt>
      <trkpt lat="42.293791000" lon="-2.518828000">
        <ele>955.20</ele>
        <time>2012-11-24T11:41:17Z</time>
      </trkpt>
      <trkpt lat="42.293788000" lon="-2.518858000">
        <ele>954.10</ele>
        <time>2012-11-24T11:41:19Z</time>
      </trkpt>
      <trkpt lat="42.293778000" lon="-2.518903000">
        <ele>952.60</ele>
        <time>2012-11-24T11:41:22Z</time>
      </trkpt>
      <trkpt lat="42.293775000" lon="-2.518934000">
        <ele>951.50</ele>
        <time>2012-11-24T11:41:24Z</time>
      </trkpt>
      <trkpt lat="42.293775000" lon="-2.518964000">
        <ele>950.30</ele>
        <time>2012-11-24T11:41:26Z</time>
      </trkpt>
      <trkpt lat="42.293771000" lon="-2.518978000">
        <ele>949.80</ele>
        <time>2012-11-24T11:41:26Z</time>
      </trkpt>
      <trkpt lat="42.293770000" lon="-2.518993000">
        <ele>949.20</ele>
        <time>2012-11-24T11:41:28Z</time>
      </trkpt>
      <trkpt lat="42.293760000" lon="-2.519036000">
        <ele>947.70</ele>
        <time>2012-11-24T11:41:31Z</time>
      </trkpt>
      <trkpt lat="42.293746000" lon="-2.519063000">
        <ele>946.70</ele>
        <time>2012-11-24T11:41:33Z</time>
      </trkpt>
      <trkpt lat="42.293723000" lon="-2.519096000">
        <ele>945.20</ele>
        <time>2012-11-24T11:41:36Z</time>
      </trkpt>
      <trkpt lat="42.293713000" lon="-2.519104000">
        <ele>944.70</ele>
        <time>2012-11-24T11:41:36Z</time>
      </trkpt>
      <trkpt lat="42.293690000" lon="-2.519106000">
        <ele>944.10</ele>
        <time>2012-11-24T11:41:38Z</time>
      </trkpt>
      <trkpt lat="42.293655000" lon="-2.519094000">
        <ele>943.80</ele>
        <time>2012-11-24T11:41:42Z</time>
      </trkpt>
      <trkpt lat="42.293640000" lon="-2.519074000">
        <ele>944.20</ele>
        <time>2012-11-24T11:41:43Z</time>
      </trkpt>
      <trkpt lat="42.293626000" lon="-2.519019000">
        <ele>946.00</ele>
        <time>2012-11-24T11:41:47Z</time>
      </trkpt>
      <trkpt lat="42.293625000" lon="-2.519006000">
        <ele>946.50</ele>
        <time>2012-11-24T11:41:48Z</time>
      </trkpt>
      <trkpt lat="42.293626000" lon="-2.518991000">
        <ele>947.00</ele>
        <time>2012-11-24T11:41:50Z</time>
      </trkpt>
      <trkpt lat="42.293626000" lon="-2.518978000">
        <ele>947.60</ele>
        <time>2012-11-24T11:41:50Z</time>
      </trkpt>
      <trkpt lat="42.293630000" lon="-2.518949000">
        <ele>948.80</ele>
        <time>2012-11-24T11:41:52Z</time>
      </trkpt>
      <trkpt lat="42.293633000" lon="-2.518889000">
        <ele>951.20</ele>
        <time>2012-11-24T11:41:57Z</time>
      </trkpt>
      <trkpt lat="42.293636000" lon="-2.518858000">
        <ele>952.50</ele>
        <time>2012-11-24T11:41:59Z</time>
      </trkpt>
      <trkpt lat="42.293636000" lon="-2.518843000">
        <ele>953.20</ele>
        <time>2012-11-24T11:41:59Z</time>
      </trkpt>
      <trkpt lat="42.293640000" lon="-2.518809000">
        <ele>954.50</ele>
        <time>2012-11-24T11:42:01Z</time>
      </trkpt>
      <trkpt lat="42.293640000" lon="-2.518793000">
        <ele>955.20</ele>
        <time>2012-11-24T11:42:02Z</time>
      </trkpt>
      <trkpt lat="42.293641000" lon="-2.518776000">
        <ele>955.90</ele>
        <time>2012-11-24T11:42:04Z</time>
      </trkpt>
      <trkpt lat="42.293641000" lon="-2.518761000">
        <ele>956.60</ele>
        <time>2012-11-24T11:42:04Z</time>
      </trkpt>
      <trkpt lat="42.293645000" lon="-2.518748000">
        <ele>957.20</ele>
        <time>2012-11-24T11:42:06Z</time>
      </trkpt>
      <trkpt lat="42.293645000" lon="-2.518731000">
        <ele>957.50</ele>
        <time>2012-11-24T11:42:06Z</time>
      </trkpt>
      <trkpt lat="42.293646000" lon="-2.518716000">
        <ele>958.30</ele>
        <time>2012-11-24T11:42:08Z</time>
      </trkpt>
      <trkpt lat="42.293646000" lon="-2.518669000">
        <ele>959.60</ele>
        <time>2012-11-24T11:42:11Z</time>
      </trkpt>
      <trkpt lat="42.293650000" lon="-2.518654000">
        <ele>960.10</ele>
        <time>2012-11-24T11:42:11Z</time>
      </trkpt>
      <trkpt lat="42.293650000" lon="-2.518638000">
        <ele>960.60</ele>
        <time>2012-11-24T11:42:13Z</time>
      </trkpt>
      <trkpt lat="42.293651000" lon="-2.518621000">
        <ele>961.10</ele>
        <time>2012-11-24T11:42:13Z</time>
      </trkpt>
      <trkpt lat="42.293651000" lon="-2.518606000">
        <ele>961.50</ele>
        <time>2012-11-24T11:42:15Z</time>
      </trkpt>
      <trkpt lat="42.293653000" lon="-2.518589000">
        <ele>962.00</ele>
        <time>2012-11-24T11:42:16Z</time>
      </trkpt>
      <trkpt lat="42.293651000" lon="-2.518574000">
        <ele>962.40</ele>
        <time>2012-11-24T11:42:16Z</time>
      </trkpt>
      <trkpt lat="42.293653000" lon="-2.518559000">
        <ele>962.90</ele>
        <time>2012-11-24T11:42:18Z</time>
      </trkpt>
      <trkpt lat="42.293653000" lon="-2.518499000">
        <ele>964.60</ele>
        <time>2012-11-24T11:42:22Z</time>
      </trkpt>
      <trkpt lat="42.293655000" lon="-2.518483000">
        <ele>965.10</ele>
        <time>2012-11-24T11:42:23Z</time>
      </trkpt>
      <trkpt lat="42.293653000" lon="-2.518468000">
        <ele>965.50</ele>
        <time>2012-11-24T11:42:23Z</time>
      </trkpt>
      <trkpt lat="42.293653000" lon="-2.518421000">
        <ele>966.80</ele>
        <time>2012-11-24T11:42:27Z</time>
      </trkpt>
      <trkpt lat="42.293645000" lon="-2.518348000">
        <ele>968.90</ele>
        <time>2012-11-24T11:42:32Z</time>
      </trkpt>
      <trkpt lat="42.293641000" lon="-2.518334000">
        <ele>969.30</ele>
        <time>2012-11-24T11:42:32Z</time>
      </trkpt>
      <trkpt lat="42.293638000" lon="-2.518304000">
        <ele>970.10</ele>
        <time>2012-11-24T11:42:34Z</time>
      </trkpt>
      <trkpt lat="42.293635000" lon="-2.518291000">
        <ele>970.50</ele>
        <time>2012-11-24T11:42:36Z</time>
      </trkpt>
      <trkpt lat="42.293635000" lon="-2.518278000">
        <ele>970.90</ele>
        <time>2012-11-24T11:42:37Z</time>
      </trkpt>
      <trkpt lat="42.293626000" lon="-2.518219000">
        <ele>972.50</ele>
        <time>2012-11-24T11:42:41Z</time>
      </trkpt>
      <trkpt lat="42.293626000" lon="-2.518204000">
        <ele>972.90</ele>
        <time>2012-11-24T11:42:41Z</time>
      </trkpt>
      <trkpt lat="42.293618000" lon="-2.518148000">
        <ele>974.60</ele>
        <time>2012-11-24T11:42:46Z</time>
      </trkpt>
      <trkpt lat="42.293618000" lon="-2.518104000">
        <ele>975.80</ele>
        <time>2012-11-24T11:42:48Z</time>
      </trkpt>
      <trkpt lat="42.293616000" lon="-2.518089000">
        <ele>976.20</ele>
        <time>2012-11-24T11:42:49Z</time>
      </trkpt>
      <trkpt lat="42.293616000" lon="-2.518074000">
        <ele>976.70</ele>
        <time>2012-11-24T11:42:51Z</time>
      </trkpt>
      <trkpt lat="42.293615000" lon="-2.518059000">
        <ele>977.10</ele>
        <time>2012-11-24T11:42:51Z</time>
      </trkpt>
      <trkpt lat="42.293615000" lon="-2.518046000">
        <ele>977.50</ele>
        <time>2012-11-24T11:42:53Z</time>
      </trkpt>
      <trkpt lat="42.293613000" lon="-2.518033000">
        <ele>977.90</ele>
        <time>2012-11-24T11:42:53Z</time>
      </trkpt>
      <trkpt lat="42.293613000" lon="-2.518018000">
        <ele>978.30</ele>
        <time>2012-11-24T11:42:55Z</time>
      </trkpt>
      <trkpt lat="42.293608000" lon="-2.517978000">
        <ele>979.50</ele>
        <time>2012-11-24T11:42:58Z</time>
      </trkpt>
      <trkpt lat="42.293608000" lon="-2.517963000">
        <ele>979.90</ele>
        <time>2012-11-24T11:42:58Z</time>
      </trkpt>
      <trkpt lat="42.293613000" lon="-2.517934000">
        <ele>980.70</ele>
        <time>2012-11-24T11:43:00Z</time>
      </trkpt>
      <trkpt lat="42.293615000" lon="-2.517918000">
        <ele>981.20</ele>
        <time>2012-11-24T11:43:02Z</time>
      </trkpt>
      <trkpt lat="42.293613000" lon="-2.517903000">
        <ele>981.50</ele>
        <time>2012-11-24T11:43:02Z</time>
      </trkpt>
      <trkpt lat="42.293613000" lon="-2.517873000">
        <ele>981.90</ele>
        <time>2012-11-24T11:43:05Z</time>
      </trkpt>
      <trkpt lat="42.293611000" lon="-2.517856000">
        <ele>982.00</ele>
        <time>2012-11-24T11:43:05Z</time>
      </trkpt>
      <trkpt lat="42.293611000" lon="-2.517794000">
        <ele>982.40</ele>
        <time>2012-11-24T11:43:10Z</time>
      </trkpt>
      <trkpt lat="42.293611000" lon="-2.517718000">
        <ele>982.90</ele>
        <time>2012-11-24T11:43:14Z</time>
      </trkpt>
      <trkpt lat="42.293600000" lon="-2.517599000">
        <ele>983.70</ele>
        <time>2012-11-24T11:43:23Z</time>
      </trkpt>
      <trkpt lat="42.293603000" lon="-2.517569000">
        <ele>983.90</ele>
        <time>2012-11-24T11:43:24Z</time>
      </trkpt>
      <trkpt lat="42.293603000" lon="-2.517494000">
        <ele>984.40</ele>
        <time>2012-11-24T11:43:30Z</time>
      </trkpt>
      <trkpt lat="42.293601000" lon="-2.517479000">
        <ele>984.50</ele>
        <time>2012-11-24T11:43:31Z</time>
      </trkpt>
      <trkpt lat="42.293603000" lon="-2.517463000">
        <ele>984.60</ele>
        <time>2012-11-24T11:43:31Z</time>
      </trkpt>
      <trkpt lat="42.293603000" lon="-2.517433000">
        <ele>984.80</ele>
        <time>2012-11-24T11:43:33Z</time>
      </trkpt>
      <trkpt lat="42.293605000" lon="-2.517419000">
        <ele>984.80</ele>
        <time>2012-11-24T11:43:35Z</time>
      </trkpt>
      <trkpt lat="42.293606000" lon="-2.517359000">
        <ele>985.20</ele>
        <time>2012-11-24T11:43:38Z</time>
      </trkpt>
      <trkpt lat="42.293603000" lon="-2.517329000">
        <ele>985.40</ele>
        <time>2012-11-24T11:43:40Z</time>
      </trkpt>
      <trkpt lat="42.293605000" lon="-2.517299000">
        <ele>985.60</ele>
        <time>2012-11-24T11:43:42Z</time>
      </trkpt>
      <trkpt lat="42.293606000" lon="-2.517286000">
        <ele>985.70</ele>
        <time>2012-11-24T11:43:43Z</time>
      </trkpt>
      <trkpt lat="42.293613000" lon="-2.517258000">
        <ele>985.90</ele>
        <time>2012-11-24T11:43:45Z</time>
      </trkpt>
      <trkpt lat="42.293616000" lon="-2.517229000">
        <ele>986.10</ele>
        <time>2012-11-24T11:43:47Z</time>
      </trkpt>
      <trkpt lat="42.293616000" lon="-2.517214000">
        <ele>986.20</ele>
        <time>2012-11-24T11:43:49Z</time>
      </trkpt>
      <trkpt lat="42.293618000" lon="-2.517199000">
        <ele>986.20</ele>
        <time>2012-11-24T11:43:49Z</time>
      </trkpt>
      <trkpt lat="42.293618000" lon="-2.517184000">
        <ele>986.30</ele>
        <time>2012-11-24T11:43:50Z</time>
      </trkpt>
      <trkpt lat="42.293625000" lon="-2.517154000">
        <ele>986.50</ele>
        <time>2012-11-24T11:43:52Z</time>
      </trkpt>
      <trkpt lat="42.293625000" lon="-2.517141000">
        <ele>986.60</ele>
        <time>2012-11-24T11:43:54Z</time>
      </trkpt>
      <trkpt lat="42.293633000" lon="-2.517068000">
        <ele>987.10</ele>
        <time>2012-11-24T11:43:59Z</time>
      </trkpt>
      <trkpt lat="42.293636000" lon="-2.517054000">
        <ele>987.30</ele>
        <time>2012-11-24T11:43:59Z</time>
      </trkpt>
      <trkpt lat="42.293643000" lon="-2.517039000">
        <ele>987.50</ele>
        <time>2012-11-24T11:44:01Z</time>
      </trkpt>
      <trkpt lat="42.293653000" lon="-2.516994000">
        <ele>988.20</ele>
        <time>2012-11-24T11:44:04Z</time>
      </trkpt>
      <trkpt lat="42.293655000" lon="-2.516979000">
        <ele>988.40</ele>
        <time>2012-11-24T11:44:04Z</time>
      </trkpt>
      <trkpt lat="42.293658000" lon="-2.516966000">
        <ele>988.60</ele>
        <time>2012-11-24T11:44:06Z</time>
      </trkpt>
      <trkpt lat="42.293665000" lon="-2.516921000">
        <ele>989.40</ele>
        <time>2012-11-24T11:44:08Z</time>
      </trkpt>
      <trkpt lat="42.293675000" lon="-2.516878000">
        <ele>990.10</ele>
        <time>2012-11-24T11:44:11Z</time>
      </trkpt>
      <trkpt lat="42.293676000" lon="-2.516863000">
        <ele>990.20</ele>
        <time>2012-11-24T11:44:13Z</time>
      </trkpt>
      <trkpt lat="42.293691000" lon="-2.516821000">
        <ele>991.10</ele>
        <time>2012-11-24T11:44:15Z</time>
      </trkpt>
      <trkpt lat="42.293693000" lon="-2.516806000">
        <ele>991.40</ele>
        <time>2012-11-24T11:44:17Z</time>
      </trkpt>
      <trkpt lat="42.293696000" lon="-2.516793000">
        <ele>991.60</ele>
        <time>2012-11-24T11:44:18Z</time>
      </trkpt>
      <trkpt lat="42.293696000" lon="-2.516778000">
        <ele>991.90</ele>
        <time>2012-11-24T11:44:18Z</time>
      </trkpt>
      <trkpt lat="42.293698000" lon="-2.516764000">
        <ele>992.10</ele>
        <time>2012-11-24T11:44:20Z</time>
      </trkpt>
      <trkpt lat="42.293701000" lon="-2.516751000">
        <ele>992.30</ele>
        <time>2012-11-24T11:44:20Z</time>
      </trkpt>
      <trkpt lat="42.293703000" lon="-2.516736000">
        <ele>992.60</ele>
        <time>2012-11-24T11:44:22Z</time>
      </trkpt>
      <trkpt lat="42.293706000" lon="-2.516723000">
        <ele>992.80</ele>
        <time>2012-11-24T11:44:22Z</time>
      </trkpt>
      <trkpt lat="42.293711000" lon="-2.516693000">
        <ele>993.40</ele>
        <time>2012-11-24T11:44:25Z</time>
      </trkpt>
      <trkpt lat="42.293718000" lon="-2.516636000">
        <ele>994.40</ele>
        <time>2012-11-24T11:44:29Z</time>
      </trkpt>
      <trkpt lat="42.293725000" lon="-2.516609000">
        <ele>994.90</ele>
        <time>2012-11-24T11:44:30Z</time>
      </trkpt>
      <trkpt lat="42.293733000" lon="-2.516541000">
        <ele>996.20</ele>
        <time>2012-11-24T11:44:36Z</time>
      </trkpt>
      <trkpt lat="42.293731000" lon="-2.516529000">
        <ele>996.40</ele>
        <time>2012-11-24T11:44:36Z</time>
      </trkpt>
      <trkpt lat="42.293731000" lon="-2.516518000">
        <ele>996.70</ele>
        <time>2012-11-24T11:44:37Z</time>
      </trkpt>
      <trkpt lat="42.293735000" lon="-2.516514000">
        <ele>996.80</ele>
        <time>2012-11-24T11:44:39Z</time>
      </trkpt>
      <trkpt lat="42.293735000" lon="-2.516513000">
        <ele>996.90</ele>
        <time>2012-11-24T11:44:39Z</time>
      </trkpt>
      <trkpt lat="42.293735000" lon="-2.516511000">
        <ele>997.00</ele>
        <time>2012-11-24T11:44:41Z</time>
      </trkpt>
      <trkpt lat="42.293736000" lon="-2.516508000">
        <ele>997.10</ele>
        <time>2012-11-24T11:44:43Z</time>
      </trkpt>
      <trkpt lat="42.293746000" lon="-2.516443000">
        <ele>998.20</ele>
        <time>2012-11-24T11:44:50Z</time>
      </trkpt>
      <trkpt lat="42.293748000" lon="-2.516426000">
        <ele>998.50</ele>
        <time>2012-11-24T11:44:51Z</time>
      </trkpt>
      <trkpt lat="42.293748000" lon="-2.516399000">
        <ele>999.00</ele>
        <time>2012-11-24T11:44:55Z</time>
      </trkpt>
      <trkpt lat="42.293750000" lon="-2.516391000">
        <ele>999.20</ele>
        <time>2012-11-24T11:44:55Z</time>
      </trkpt>
      <trkpt lat="42.293756000" lon="-2.516321000">
        <ele>1000.30</ele>
        <time>2012-11-24T11:45:05Z</time>
      </trkpt>
      <trkpt lat="42.293756000" lon="-2.516306000">
        <ele>1000.50</ele>
        <time>2012-11-24T11:45:07Z</time>
      </trkpt>
      <trkpt lat="42.293758000" lon="-2.516268000">
        <ele>1001.20</ele>
        <time>2012-11-24T11:45:12Z</time>
      </trkpt>
      <trkpt lat="42.293760000" lon="-2.516251000">
        <ele>1001.40</ele>
        <time>2012-11-24T11:45:14Z</time>
      </trkpt>
      <trkpt lat="42.293760000" lon="-2.516243000">
        <ele>1001.40</ele>
        <time>2012-11-24T11:45:14Z</time>
      </trkpt>
      <trkpt lat="42.293760000" lon="-2.516214000">
        <ele>1001.90</ele>
        <time>2012-11-24T11:45:19Z</time>
      </trkpt>
      <trkpt lat="42.293760000" lon="-2.516196000">
        <ele>1002.00</ele>
        <time>2012-11-24T11:45:21Z</time>
      </trkpt>
      <trkpt lat="42.293760000" lon="-2.516174000">
        <ele>1002.30</ele>
        <time>2012-11-24T11:45:23Z</time>
      </trkpt>
      <trkpt lat="42.293760000" lon="-2.516166000">
        <ele>1002.30</ele>
        <time>2012-11-24T11:45:24Z</time>
      </trkpt>
      <trkpt lat="42.293763000" lon="-2.516149000">
        <ele>1002.50</ele>
        <time>2012-11-24T11:45:26Z</time>
      </trkpt>
      <trkpt lat="42.293763000" lon="-2.516141000">
        <ele>1002.50</ele>
        <time>2012-11-24T11:45:28Z</time>
      </trkpt>
      <trkpt lat="42.293766000" lon="-2.516078000">
        <ele>1003.10</ele>
        <time>2012-11-24T11:45:35Z</time>
      </trkpt>
      <trkpt lat="42.293768000" lon="-2.516069000">
        <ele>1003.10</ele>
        <time>2012-11-24T11:45:35Z</time>
      </trkpt>
      <trkpt lat="42.293768000" lon="-2.516034000">
        <ele>1003.50</ele>
        <time>2012-11-24T11:45:40Z</time>
      </trkpt>
      <trkpt lat="42.293771000" lon="-2.516026000">
        <ele>1003.50</ele>
        <time>2012-11-24T11:45:40Z</time>
      </trkpt>
      <trkpt lat="42.293775000" lon="-2.516006000">
        <ele>1003.60</ele>
        <time>2012-11-24T11:45:42Z</time>
      </trkpt>
      <trkpt lat="42.293775000" lon="-2.515978000">
        <ele>1003.80</ele>
        <time>2012-11-24T11:45:45Z</time>
      </trkpt>
      <trkpt lat="42.293788000" lon="-2.515891000">
        <ele>1004.30</ele>
        <time>2012-11-24T11:45:54Z</time>
      </trkpt>
      <trkpt lat="42.293790000" lon="-2.515881000">
        <ele>1004.40</ele>
        <time>2012-11-24T11:45:56Z</time>
      </trkpt>
      <trkpt lat="42.293803000" lon="-2.515799000">
        <ele>1004.80</ele>
        <time>2012-11-24T11:46:05Z</time>
      </trkpt>
      <trkpt lat="42.293805000" lon="-2.515793000">
        <ele>1004.90</ele>
        <time>2012-11-24T11:46:06Z</time>
      </trkpt>
      <trkpt lat="42.293808000" lon="-2.515788000">
        <ele>1004.90</ele>
        <time>2012-11-24T11:46:06Z</time>
      </trkpt>
      <trkpt lat="42.293810000" lon="-2.515786000">
        <ele>1004.80</ele>
        <time>2012-11-24T11:46:08Z</time>
      </trkpt>
      <trkpt lat="42.293810000" lon="-2.515784000">
        <ele>1004.80</ele>
        <time>2012-11-24T11:46:10Z</time>
      </trkpt>
      <trkpt lat="42.293810000" lon="-2.515781000">
        <ele>1004.90</ele>
        <time>2012-11-24T11:46:12Z</time>
      </trkpt>
      <trkpt lat="42.293810000" lon="-2.515773000">
        <ele>1004.90</ele>
        <time>2012-11-24T11:46:13Z</time>
      </trkpt>
      <trkpt lat="42.293813000" lon="-2.515764000">
        <ele>1004.90</ele>
        <time>2012-11-24T11:46:13Z</time>
      </trkpt>
      <trkpt lat="42.293813000" lon="-2.515754000">
        <ele>1005.00</ele>
        <time>2012-11-24T11:46:15Z</time>
      </trkpt>
      <trkpt lat="42.293828000" lon="-2.515709000">
        <ele>1005.00</ele>
        <time>2012-11-24T11:46:18Z</time>
      </trkpt>
      <trkpt lat="42.293830000" lon="-2.515696000">
        <ele>1005.10</ele>
        <time>2012-11-24T11:46:20Z</time>
      </trkpt>
      <trkpt lat="42.293846000" lon="-2.515636000">
        <ele>1005.20</ele>
        <time>2012-11-24T11:46:24Z</time>
      </trkpt>
      <trkpt lat="42.293850000" lon="-2.515613000">
        <ele>1005.30</ele>
        <time>2012-11-24T11:46:27Z</time>
      </trkpt>
      <trkpt lat="42.293853000" lon="-2.515601000">
        <ele>1005.40</ele>
        <time>2012-11-24T11:46:27Z</time>
      </trkpt>
      <trkpt lat="42.293863000" lon="-2.515566000">
        <ele>1005.50</ele>
        <time>2012-11-24T11:46:31Z</time>
      </trkpt>
      <trkpt lat="42.293865000" lon="-2.515554000">
        <ele>1005.50</ele>
        <time>2012-11-24T11:46:31Z</time>
      </trkpt>
      <trkpt lat="42.293871000" lon="-2.515531000">
        <ele>1005.60</ele>
        <time>2012-11-24T11:46:34Z</time>
      </trkpt>
      <trkpt lat="42.293873000" lon="-2.515518000">
        <ele>1005.70</ele>
        <time>2012-11-24T11:46:34Z</time>
      </trkpt>
      <trkpt lat="42.293878000" lon="-2.515508000">
        <ele>1005.70</ele>
        <time>2012-11-24T11:46:36Z</time>
      </trkpt>
      <trkpt lat="42.293881000" lon="-2.515496000">
        <ele>1005.70</ele>
        <time>2012-11-24T11:46:36Z</time>
      </trkpt>
      <trkpt lat="42.293890000" lon="-2.515446000">
        <ele>1005.90</ele>
        <time>2012-11-24T11:46:41Z</time>
      </trkpt>
      <trkpt lat="42.293906000" lon="-2.515389000">
        <ele>1006.00</ele>
        <time>2012-11-24T11:46:46Z</time>
      </trkpt>
      <trkpt lat="42.293908000" lon="-2.515378000">
        <ele>1006.00</ele>
        <time>2012-11-24T11:46:46Z</time>
      </trkpt>
      <trkpt lat="42.293911000" lon="-2.515366000">
        <ele>1005.90</ele>
        <time>2012-11-24T11:46:48Z</time>
      </trkpt>
      <trkpt lat="42.293915000" lon="-2.515344000">
        <ele>1005.90</ele>
        <time>2012-11-24T11:46:50Z</time>
      </trkpt>
      <trkpt lat="42.293928000" lon="-2.515296000">
        <ele>1005.70</ele>
        <time>2012-11-24T11:46:53Z</time>
      </trkpt>
      <trkpt lat="42.293928000" lon="-2.515284000">
        <ele>1005.70</ele>
        <time>2012-11-24T11:46:55Z</time>
      </trkpt>
      <trkpt lat="42.293935000" lon="-2.515249000">
        <ele>1005.70</ele>
        <time>2012-11-24T11:46:57Z</time>
      </trkpt>
      <trkpt lat="42.293950000" lon="-2.515204000">
        <ele>1005.50</ele>
        <time>2012-11-24T11:47:02Z</time>
      </trkpt>
      <trkpt lat="42.293953000" lon="-2.515183000">
        <ele>1005.50</ele>
        <time>2012-11-24T11:47:04Z</time>
      </trkpt>
      <trkpt lat="42.293956000" lon="-2.515171000">
        <ele>1005.40</ele>
        <time>2012-11-24T11:47:04Z</time>
      </trkpt>
      <trkpt lat="42.293963000" lon="-2.515134000">
        <ele>1005.40</ele>
        <time>2012-11-24T11:47:07Z</time>
      </trkpt>
      <trkpt lat="42.293973000" lon="-2.515101000">
        <ele>1005.40</ele>
        <time>2012-11-24T11:47:11Z</time>
      </trkpt>
      <trkpt lat="42.293980000" lon="-2.515064000">
        <ele>1005.40</ele>
        <time>2012-11-24T11:47:14Z</time>
      </trkpt>
      <trkpt lat="42.293996000" lon="-2.515003000">
        <ele>1005.40</ele>
        <time>2012-11-24T11:47:18Z</time>
      </trkpt>
      <trkpt lat="42.294001000" lon="-2.514991000">
        <ele>1005.40</ele>
        <time>2012-11-24T11:47:19Z</time>
      </trkpt>
      <trkpt lat="42.294016000" lon="-2.514941000">
        <ele>1005.40</ele>
        <time>2012-11-24T11:47:23Z</time>
      </trkpt>
      <trkpt lat="42.294018000" lon="-2.514929000">
        <ele>1005.40</ele>
        <time>2012-11-24T11:47:25Z</time>
      </trkpt>
      <trkpt lat="42.294028000" lon="-2.514893000">
        <ele>1005.50</ele>
        <time>2012-11-24T11:47:28Z</time>
      </trkpt>
      <trkpt lat="42.294033000" lon="-2.514868000">
        <ele>1005.50</ele>
        <time>2012-11-24T11:47:30Z</time>
      </trkpt>
      <trkpt lat="42.294035000" lon="-2.514854000">
        <ele>1005.60</ele>
        <time>2012-11-24T11:47:30Z</time>
      </trkpt>
      <trkpt lat="42.294045000" lon="-2.514816000">
        <ele>1005.70</ele>
        <time>2012-11-24T11:47:33Z</time>
      </trkpt>
      <trkpt lat="42.294046000" lon="-2.514788000">
        <ele>1005.90</ele>
        <time>2012-11-24T11:47:35Z</time>
      </trkpt>
      <trkpt lat="42.294050000" lon="-2.514758000">
        <ele>1006.00</ele>
        <time>2012-11-24T11:47:37Z</time>
      </trkpt>
      <trkpt lat="42.294051000" lon="-2.514693000">
        <ele>1006.40</ele>
        <time>2012-11-24T11:47:42Z</time>
      </trkpt>
      <trkpt lat="42.294048000" lon="-2.514664000">
        <ele>1006.70</ele>
        <time>2012-11-24T11:47:44Z</time>
      </trkpt>
      <trkpt lat="42.294041000" lon="-2.514636000">
        <ele>1006.90</ele>
        <time>2012-11-24T11:47:46Z</time>
      </trkpt>
      <trkpt lat="42.294041000" lon="-2.514623000">
        <ele>1007.10</ele>
        <time>2012-11-24T11:47:47Z</time>
      </trkpt>
      <trkpt lat="42.294040000" lon="-2.514593000">
        <ele>1007.30</ele>
        <time>2012-11-24T11:47:49Z</time>
      </trkpt>
      <trkpt lat="42.294035000" lon="-2.514566000">
        <ele>1007.50</ele>
        <time>2012-11-24T11:47:51Z</time>
      </trkpt>
      <trkpt lat="42.294036000" lon="-2.514549000">
        <ele>1007.60</ele>
        <time>2012-11-24T11:47:51Z</time>
      </trkpt>
      <trkpt lat="42.294035000" lon="-2.514536000">
        <ele>1007.70</ele>
        <time>2012-11-24T11:47:53Z</time>
      </trkpt>
      <trkpt lat="42.294035000" lon="-2.514478000">
        <ele>1008.00</ele>
        <time>2012-11-24T11:47:56Z</time>
      </trkpt>
      <trkpt lat="42.294035000" lon="-2.514449000">
        <ele>1008.20</ele>
        <time>2012-11-24T11:47:58Z</time>
      </trkpt>
      <trkpt lat="42.294035000" lon="-2.514436000">
        <ele>1008.20</ele>
        <time>2012-11-24T11:47:59Z</time>
      </trkpt>
      <trkpt lat="42.294036000" lon="-2.514408000">
        <ele>1008.40</ele>
        <time>2012-11-24T11:48:01Z</time>
      </trkpt>
      <trkpt lat="42.294038000" lon="-2.514394000">
        <ele>1008.40</ele>
        <time>2012-11-24T11:48:03Z</time>
      </trkpt>
      <trkpt lat="42.294041000" lon="-2.514383000">
        <ele>1008.50</ele>
        <time>2012-11-24T11:48:03Z</time>
      </trkpt>
      <trkpt lat="42.294043000" lon="-2.514368000">
        <ele>1008.60</ele>
        <time>2012-11-24T11:48:05Z</time>
      </trkpt>
      <trkpt lat="42.294043000" lon="-2.514353000">
        <ele>1008.60</ele>
        <time>2012-11-24T11:48:05Z</time>
      </trkpt>
      <trkpt lat="42.294050000" lon="-2.514289000">
        <ele>1008.90</ele>
        <time>2012-11-24T11:48:10Z</time>
      </trkpt>
      <trkpt lat="42.294048000" lon="-2.514274000">
        <ele>1009.00</ele>
        <time>2012-11-24T11:48:10Z</time>
      </trkpt>
      <trkpt lat="42.294048000" lon="-2.514218000">
        <ele>1009.30</ele>
        <time>2012-11-24T11:48:15Z</time>
      </trkpt>
      <trkpt lat="42.294046000" lon="-2.514203000">
        <ele>1009.40</ele>
        <time>2012-11-24T11:48:15Z</time>
      </trkpt>
      <trkpt lat="42.294045000" lon="-2.514159000">
        <ele>1009.70</ele>
        <time>2012-11-24T11:48:19Z</time>
      </trkpt>
      <trkpt lat="42.294041000" lon="-2.514146000">
        <ele>1009.80</ele>
        <time>2012-11-24T11:48:19Z</time>
      </trkpt>
      <trkpt lat="42.294041000" lon="-2.514134000">
        <ele>1009.80</ele>
        <time>2012-11-24T11:48:20Z</time>
      </trkpt>
      <trkpt lat="42.294040000" lon="-2.514096000">
        <ele>1010.00</ele>
        <time>2012-11-24T11:48:24Z</time>
      </trkpt>
      <trkpt lat="42.294038000" lon="-2.514084000">
        <ele>1010.10</ele>
        <time>2012-11-24T11:48:24Z</time>
      </trkpt>
      <trkpt lat="42.294040000" lon="-2.514078000">
        <ele>1010.20</ele>
        <time>2012-11-24T11:48:26Z</time>
      </trkpt>
      <trkpt lat="42.294043000" lon="-2.514073000">
        <ele>1010.20</ele>
        <time>2012-11-24T11:48:31Z</time>
      </trkpt>
      <trkpt lat="42.294041000" lon="-2.514073000">
        <ele>1010.30</ele>
        <time>2012-11-24T11:48:34Z</time>
      </trkpt>
      <trkpt lat="42.294043000" lon="-2.514069000">
        <ele>1010.30</ele>
        <time>2012-11-24T11:48:38Z</time>
      </trkpt>
      <trkpt lat="42.294043000" lon="-2.514061000">
        <ele>1010.30</ele>
        <time>2012-11-24T11:48:50Z</time>
      </trkpt>
      <trkpt lat="42.294045000" lon="-2.514061000">
        <ele>1010.30</ele>
        <time>2012-11-24T11:48:52Z</time>
      </trkpt>
      <trkpt lat="42.294048000" lon="-2.514054000">
        <ele>1010.30</ele>
        <time>2012-11-24T11:49:09Z</time>
      </trkpt>
      <trkpt lat="42.294050000" lon="-2.514053000">
        <ele>1010.40</ele>
        <time>2012-11-24T11:49:30Z</time>
      </trkpt>
      <trkpt lat="42.294050000" lon="-2.514054000">
        <ele>1010.30</ele>
        <time>2012-11-24T11:50:00Z</time>
      </trkpt>
      <trkpt lat="42.294046000" lon="-2.514054000">
        <ele>1010.30</ele>
        <time>2012-11-24T11:50:12Z</time>
      </trkpt>
      <trkpt lat="42.294045000" lon="-2.514058000">
        <ele>1010.30</ele>
        <time>2012-11-24T11:50:24Z</time>
      </trkpt>
      <trkpt lat="42.294043000" lon="-2.514058000">
        <ele>1010.30</ele>
        <time>2012-11-24T11:50:31Z</time>
      </trkpt>
      <trkpt lat="42.294043000" lon="-2.514059000">
        <ele>1010.30</ele>
        <time>2012-11-24T11:50:33Z</time>
      </trkpt>
      <trkpt lat="42.294045000" lon="-2.514058000">
        <ele>1010.30</ele>
        <time>2012-11-24T11:50:52Z</time>
      </trkpt>
      <trkpt lat="42.294046000" lon="-2.514054000">
        <ele>1010.30</ele>
        <time>2012-11-24T11:50:59Z</time>
      </trkpt>
      <trkpt lat="42.294048000" lon="-2.514058000">
        <ele>1010.30</ele>
        <time>2012-11-24T11:50:59Z</time>
      </trkpt>
      <trkpt lat="42.294051000" lon="-2.514049000">
        <ele>1010.30</ele>
        <time>2012-11-24T11:51:02Z</time>
      </trkpt>
      <trkpt lat="42.294053000" lon="-2.514049000">
        <ele>1010.40</ele>
        <time>2012-11-24T11:51:04Z</time>
      </trkpt>
      <trkpt lat="42.294051000" lon="-2.514044000">
        <ele>1010.40</ele>
        <time>2012-11-24T11:51:25Z</time>
      </trkpt>
      <trkpt lat="42.294053000" lon="-2.514043000">
        <ele>1010.40</ele>
        <time>2012-11-24T11:51:30Z</time>
      </trkpt>
      <trkpt lat="42.294051000" lon="-2.514043000">
        <ele>1010.40</ele>
        <time>2012-11-24T11:51:32Z</time>
      </trkpt>
      <trkpt lat="42.294050000" lon="-2.514036000">
        <ele>1010.40</ele>
        <time>2012-11-24T11:51:39Z</time>
      </trkpt>
      <trkpt lat="42.294051000" lon="-2.514041000">
        <ele>1010.40</ele>
        <time>2012-11-24T11:51:44Z</time>
      </trkpt>
      <trkpt lat="42.294050000" lon="-2.514038000">
        <ele>1010.40</ele>
        <time>2012-11-24T11:52:02Z</time>
      </trkpt>
      <trkpt lat="42.294050000" lon="-2.514041000">
        <ele>1010.40</ele>
        <time>2012-11-24T11:52:09Z</time>
      </trkpt>
      <trkpt lat="42.294048000" lon="-2.514041000">
        <ele>1010.40</ele>
        <time>2012-11-24T11:52:17Z</time>
      </trkpt>
      <trkpt lat="42.294048000" lon="-2.514043000">
        <ele>1010.40</ele>
        <time>2012-11-24T11:52:19Z</time>
      </trkpt>
      <trkpt lat="42.294050000" lon="-2.514043000">
        <ele>1010.40</ele>
        <time>2012-11-24T11:52:23Z</time>
      </trkpt>
      <trkpt lat="42.294048000" lon="-2.514044000">
        <ele>1010.40</ele>
        <time>2012-11-24T11:52:28Z</time>
      </trkpt>
      <trkpt lat="42.294048000" lon="-2.514051000">
        <ele>1010.40</ele>
        <time>2012-11-24T11:52:40Z</time>
      </trkpt>
      <trkpt lat="42.294046000" lon="-2.514051000">
        <ele>1010.40</ele>
        <time>2012-11-24T11:52:45Z</time>
      </trkpt>
      <trkpt lat="42.294046000" lon="-2.514053000">
        <ele>1010.40</ele>
        <time>2012-11-24T11:52:47Z</time>
      </trkpt>
      <trkpt lat="42.294048000" lon="-2.514053000">
        <ele>1010.40</ele>
        <time>2012-11-24T11:52:47Z</time>
      </trkpt>
      <trkpt lat="42.294046000" lon="-2.514053000">
        <ele>1010.40</ele>
        <time>2012-11-24T11:52:49Z</time>
      </trkpt>
      <trkpt lat="42.294048000" lon="-2.514053000">
        <ele>1010.40</ele>
        <time>2012-11-24T11:52:50Z</time>
      </trkpt>
      <trkpt lat="42.294048000" lon="-2.514054000">
        <ele>1010.40</ele>
        <time>2012-11-24T11:52:52Z</time>
      </trkpt>
      <trkpt lat="42.294048000" lon="-2.514054000">
        <ele>1010.40</ele>
        <time>2012-11-24T11:52:54Z</time>
      </trkpt>
      <trkpt lat="42.294046000" lon="-2.514054000">
        <ele>1010.30</ele>
        <time>2012-11-24T11:52:56Z</time>
      </trkpt>
      <trkpt lat="42.294046000" lon="-2.514056000">
        <ele>1010.30</ele>
        <time>2012-11-24T11:52:57Z</time>
      </trkpt>
      <trkpt lat="42.294048000" lon="-2.514056000">
        <ele>1010.30</ele>
        <time>2012-11-24T11:52:59Z</time>
      </trkpt>
      <trkpt lat="42.294046000" lon="-2.514056000">
        <ele>1010.30</ele>
        <time>2012-11-24T11:52:59Z</time>
      </trkpt>
      <trkpt lat="42.294046000" lon="-2.514058000">
        <ele>1010.30</ele>
        <time>2012-11-24T11:53:01Z</time>
      </trkpt>
      <trkpt lat="42.294048000" lon="-2.514058000">
        <ele>1010.30</ele>
        <time>2012-11-24T11:53:01Z</time>
      </trkpt>
      <trkpt lat="42.294046000" lon="-2.514058000">
        <ele>1010.30</ele>
        <time>2012-11-24T11:53:04Z</time>
      </trkpt>
      <trkpt lat="42.294046000" lon="-2.514073000">
        <ele>1010.30</ele>
        <time>2012-11-24T11:54:21Z</time>
      </trkpt>
      <trkpt lat="42.294046000" lon="-2.514074000">
        <ele>1010.20</ele>
        <time>2012-11-24T11:54:28Z</time>
      </trkpt>
      <trkpt lat="42.294048000" lon="-2.514076000">
        <ele>1010.20</ele>
        <time>2012-11-24T11:54:38Z</time>
      </trkpt>
      <trkpt lat="42.294050000" lon="-2.514084000">
        <ele>1010.20</ele>
        <time>2012-11-24T11:55:03Z</time>
      </trkpt>
      <trkpt lat="42.294045000" lon="-2.514083000">
        <ele>1010.20</ele>
        <time>2012-11-24T11:55:10Z</time>
      </trkpt>
      <trkpt lat="42.294045000" lon="-2.514081000">
        <ele>1010.20</ele>
        <time>2012-11-24T11:55:10Z</time>
      </trkpt>
      <trkpt lat="42.294038000" lon="-2.514081000">
        <ele>1010.20</ele>
        <time>2012-11-24T11:55:17Z</time>
      </trkpt>
      <trkpt lat="42.294038000" lon="-2.514071000">
        <ele>1010.20</ele>
        <time>2012-11-24T11:55:20Z</time>
      </trkpt>
      <trkpt lat="42.294038000" lon="-2.514064000">
        <ele>1010.30</ele>
        <time>2012-11-24T11:55:22Z</time>
      </trkpt>
      <trkpt lat="42.294040000" lon="-2.514054000">
        <ele>1010.30</ele>
        <time>2012-11-24T11:55:22Z</time>
      </trkpt>
      <trkpt lat="42.294050000" lon="-2.514003000">
        <ele>1010.50</ele>
        <time>2012-11-24T11:55:27Z</time>
      </trkpt>
      <trkpt lat="42.294051000" lon="-2.513978000">
        <ele>1010.70</ele>
        <time>2012-11-24T11:55:29Z</time>
      </trkpt>
      <trkpt lat="42.294056000" lon="-2.513938000">
        <ele>1010.90</ele>
        <time>2012-11-24T11:55:31Z</time>
      </trkpt>
      <trkpt lat="42.294061000" lon="-2.513926000">
        <ele>1011.00</ele>
        <time>2012-11-24T11:55:32Z</time>
      </trkpt>
      <trkpt lat="42.294068000" lon="-2.513898000">
        <ele>1011.10</ele>
        <time>2012-11-24T11:55:34Z</time>
      </trkpt>
      <trkpt lat="42.294073000" lon="-2.513869000">
        <ele>1011.30</ele>
        <time>2012-11-24T11:55:36Z</time>
      </trkpt>
      <trkpt lat="42.294078000" lon="-2.513858000">
        <ele>1011.30</ele>
        <time>2012-11-24T11:55:38Z</time>
      </trkpt>
      <trkpt lat="42.294126000" lon="-2.513768000">
        <ele>1012.00</ele>
        <time>2012-11-24T11:55:45Z</time>
      </trkpt>
      <trkpt lat="42.294148000" lon="-2.513724000">
        <ele>1012.60</ele>
        <time>2012-11-24T11:55:48Z</time>
      </trkpt>
      <trkpt lat="42.294200000" lon="-2.513663000">
        <ele>1014.20</ele>
        <time>2012-11-24T11:55:53Z</time>
      </trkpt>
      <trkpt lat="42.294208000" lon="-2.513649000">
        <ele>1014.60</ele>
        <time>2012-11-24T11:55:53Z</time>
      </trkpt>
      <trkpt lat="42.294283000" lon="-2.513578000">
        <ele>1016.60</ele>
        <time>2012-11-24T11:56:00Z</time>
      </trkpt>
      <trkpt lat="42.294305000" lon="-2.513553000">
        <ele>1017.30</ele>
        <time>2012-11-24T11:56:02Z</time>
      </trkpt>
      <trkpt lat="42.294315000" lon="-2.513544000">
        <ele>1017.50</ele>
        <time>2012-11-24T11:56:04Z</time>
      </trkpt>
      <trkpt lat="42.294428000" lon="-2.513411000">
        <ele>1021.10</ele>
        <time>2012-11-24T11:56:16Z</time>
      </trkpt>
      <trkpt lat="42.294443000" lon="-2.513388000">
        <ele>1021.70</ele>
        <time>2012-11-24T11:56:18Z</time>
      </trkpt>
      <trkpt lat="42.294460000" lon="-2.513366000">
        <ele>1022.30</ele>
        <time>2012-11-24T11:56:19Z</time>
      </trkpt>
      <trkpt lat="42.294466000" lon="-2.513354000">
        <ele>1022.60</ele>
        <time>2012-11-24T11:56:21Z</time>
      </trkpt>
      <trkpt lat="42.294515000" lon="-2.513289000">
        <ele>1024.40</ele>
        <time>2012-11-24T11:56:26Z</time>
      </trkpt>
      <trkpt lat="42.294526000" lon="-2.513264000">
        <ele>1025.00</ele>
        <time>2012-11-24T11:56:28Z</time>
      </trkpt>
      <trkpt lat="42.294535000" lon="-2.513254000">
        <ele>1025.30</ele>
        <time>2012-11-24T11:56:30Z</time>
      </trkpt>
      <trkpt lat="42.294546000" lon="-2.513231000">
        <ele>1025.90</ele>
        <time>2012-11-24T11:56:32Z</time>
      </trkpt>
      <trkpt lat="42.294566000" lon="-2.513194000">
        <ele>1026.80</ele>
        <time>2012-11-24T11:56:35Z</time>
      </trkpt>
      <trkpt lat="42.294596000" lon="-2.513154000">
        <ele>1027.80</ele>
        <time>2012-11-24T11:56:39Z</time>
      </trkpt>
      <trkpt lat="42.294603000" lon="-2.513143000">
        <ele>1027.90</ele>
        <time>2012-11-24T11:56:40Z</time>
      </trkpt>
      <trkpt lat="42.294615000" lon="-2.513121000">
        <ele>1028.30</ele>
        <time>2012-11-24T11:56:42Z</time>
      </trkpt>
      <trkpt lat="42.294621000" lon="-2.513109000">
        <ele>1028.40</ele>
        <time>2012-11-24T11:56:42Z</time>
      </trkpt>
      <trkpt lat="42.294650000" lon="-2.513069000">
        <ele>1029.00</ele>
        <time>2012-11-24T11:56:47Z</time>
      </trkpt>
      <trkpt lat="42.294660000" lon="-2.513048000">
        <ele>1029.30</ele>
        <time>2012-11-24T11:56:49Z</time>
      </trkpt>
      <trkpt lat="42.294673000" lon="-2.513026000">
        <ele>1029.60</ele>
        <time>2012-11-24T11:56:51Z</time>
      </trkpt>
      <trkpt lat="42.294681000" lon="-2.513016000">
        <ele>1029.80</ele>
        <time>2012-11-24T11:56:51Z</time>
      </trkpt>
      <trkpt lat="42.294686000" lon="-2.513006000">
        <ele>1030.00</ele>
        <time>2012-11-24T11:56:53Z</time>
      </trkpt>
      <trkpt lat="42.294713000" lon="-2.512964000">
        <ele>1030.60</ele>
        <time>2012-11-24T11:56:56Z</time>
      </trkpt>
      <trkpt lat="42.294718000" lon="-2.512953000">
        <ele>1030.80</ele>
        <time>2012-11-24T11:56:58Z</time>
      </trkpt>
      <trkpt lat="42.294731000" lon="-2.512933000">
        <ele>1031.10</ele>
        <time>2012-11-24T11:57:00Z</time>
      </trkpt>
      <trkpt lat="42.294736000" lon="-2.512921000">
        <ele>1031.40</ele>
        <time>2012-11-24T11:57:01Z</time>
      </trkpt>
      <trkpt lat="42.294768000" lon="-2.512868000">
        <ele>1032.40</ele>
        <time>2012-11-24T11:57:05Z</time>
      </trkpt>
      <trkpt lat="42.294776000" lon="-2.512859000">
        <ele>1032.50</ele>
        <time>2012-11-24T11:57:06Z</time>
      </trkpt>
      <trkpt lat="42.294791000" lon="-2.512838000">
        <ele>1032.90</ele>
        <time>2012-11-24T11:57:08Z</time>
      </trkpt>
      <trkpt lat="42.294796000" lon="-2.512828000">
        <ele>1033.10</ele>
        <time>2012-11-24T11:57:10Z</time>
      </trkpt>
      <trkpt lat="42.294825000" lon="-2.512786000">
        <ele>1033.80</ele>
        <time>2012-11-24T11:57:13Z</time>
      </trkpt>
      <trkpt lat="42.294830000" lon="-2.512774000">
        <ele>1034.00</ele>
        <time>2012-11-24T11:57:15Z</time>
      </trkpt>
      <trkpt lat="42.294856000" lon="-2.512733000">
        <ele>1034.80</ele>
        <time>2012-11-24T11:57:19Z</time>
      </trkpt>
      <trkpt lat="42.294865000" lon="-2.512724000">
        <ele>1034.90</ele>
        <time>2012-11-24T11:57:19Z</time>
      </trkpt>
      <trkpt lat="42.294870000" lon="-2.512714000">
        <ele>1035.10</ele>
        <time>2012-11-24T11:57:20Z</time>
      </trkpt>
      <trkpt lat="42.294915000" lon="-2.512639000">
        <ele>1036.40</ele>
        <time>2012-11-24T11:57:27Z</time>
      </trkpt>
      <trkpt lat="42.294925000" lon="-2.512616000">
        <ele>1036.80</ele>
        <time>2012-11-24T11:57:29Z</time>
      </trkpt>
      <trkpt lat="42.294931000" lon="-2.512591000">
        <ele>1037.30</ele>
        <time>2012-11-24T11:57:31Z</time>
      </trkpt>
      <trkpt lat="42.294933000" lon="-2.512578000">
        <ele>1037.60</ele>
        <time>2012-11-24T11:57:33Z</time>
      </trkpt>
      <trkpt lat="42.294953000" lon="-2.512526000">
        <ele>1038.70</ele>
        <time>2012-11-24T11:57:36Z</time>
      </trkpt>
      <trkpt lat="42.294956000" lon="-2.512513000">
        <ele>1039.00</ele>
        <time>2012-11-24T11:57:38Z</time>
      </trkpt>
      <trkpt lat="42.294961000" lon="-2.512501000">
        <ele>1039.20</ele>
        <time>2012-11-24T11:57:38Z</time>
      </trkpt>
      <trkpt lat="42.294963000" lon="-2.512488000">
        <ele>1039.50</ele>
        <time>2012-11-24T11:57:40Z</time>
      </trkpt>
      <trkpt lat="42.294961000" lon="-2.512474000">
        <ele>1039.70</ele>
        <time>2012-11-24T11:57:41Z</time>
      </trkpt>
      <trkpt lat="42.294963000" lon="-2.512448000">
        <ele>1040.50</ele>
        <time>2012-11-24T11:57:43Z</time>
      </trkpt>
      <trkpt lat="42.294965000" lon="-2.512434000">
        <ele>1040.90</ele>
        <time>2012-11-24T11:57:43Z</time>
      </trkpt>
      <trkpt lat="42.294965000" lon="-2.512371000">
        <ele>1042.50</ele>
        <time>2012-11-24T11:57:48Z</time>
      </trkpt>
      <trkpt lat="42.294961000" lon="-2.512361000">
        <ele>1042.90</ele>
        <time>2012-11-24T11:57:50Z</time>
      </trkpt>
      <trkpt lat="42.294950000" lon="-2.512341000">
        <ele>1043.60</ele>
        <time>2012-11-24T11:57:52Z</time>
      </trkpt>
      <trkpt lat="42.294928000" lon="-2.512311000">
        <ele>1044.70</ele>
        <time>2012-11-24T11:57:55Z</time>
      </trkpt>
      <trkpt lat="42.294876000" lon="-2.512273000">
        <ele>1046.80</ele>
        <time>2012-11-24T11:58:00Z</time>
      </trkpt>
      <trkpt lat="42.294856000" lon="-2.512264000">
        <ele>1047.40</ele>
        <time>2012-11-24T11:58:02Z</time>
      </trkpt>
      <trkpt lat="42.294846000" lon="-2.512263000">
        <ele>1047.60</ele>
        <time>2012-11-24T11:58:04Z</time>
      </trkpt>
      <trkpt lat="42.294828000" lon="-2.512256000">
        <ele>1048.20</ele>
        <time>2012-11-24T11:58:06Z</time>
      </trkpt>
      <trkpt lat="42.294741000" lon="-2.512233000">
        <ele>1050.40</ele>
        <time>2012-11-24T11:58:14Z</time>
      </trkpt>
      <trkpt lat="42.294721000" lon="-2.512231000">
        <ele>1050.90</ele>
        <time>2012-11-24T11:58:16Z</time>
      </trkpt>
      <trkpt lat="42.294691000" lon="-2.512224000">
        <ele>1051.60</ele>
        <time>2012-11-24T11:58:20Z</time>
      </trkpt>
      <trkpt lat="42.294653000" lon="-2.512219000">
        <ele>1052.40</ele>
        <time>2012-11-24T11:58:23Z</time>
      </trkpt>
      <trkpt lat="42.294643000" lon="-2.512216000">
        <ele>1052.70</ele>
        <time>2012-11-24T11:58:25Z</time>
      </trkpt>
      <trkpt lat="42.294631000" lon="-2.512216000">
        <ele>1052.90</ele>
        <time>2012-11-24T11:58:25Z</time>
      </trkpt>
      <trkpt lat="42.294593000" lon="-2.512201000">
        <ele>1054.00</ele>
        <time>2012-11-24T11:58:30Z</time>
      </trkpt>
      <trkpt lat="42.294571000" lon="-2.512203000">
        <ele>1054.30</ele>
        <time>2012-11-24T11:58:32Z</time>
      </trkpt>
      <trkpt lat="42.294563000" lon="-2.512201000">
        <ele>1054.40</ele>
        <time>2012-11-24T11:58:32Z</time>
      </trkpt>
      <trkpt lat="42.294541000" lon="-2.512201000">
        <ele>1054.40</ele>
        <time>2012-11-24T11:58:35Z</time>
      </trkpt>
      <trkpt lat="42.294533000" lon="-2.512196000">
        <ele>1054.40</ele>
        <time>2012-11-24T11:58:35Z</time>
      </trkpt>
      <trkpt lat="42.294493000" lon="-2.512193000">
        <ele>1054.50</ele>
        <time>2012-11-24T11:58:39Z</time>
      </trkpt>
      <trkpt lat="42.294435000" lon="-2.512183000">
        <ele>1054.50</ele>
        <time>2012-11-24T11:58:46Z</time>
      </trkpt>
      <trkpt lat="42.294408000" lon="-2.512183000">
        <ele>1054.50</ele>
        <time>2012-11-24T11:58:49Z</time>
      </trkpt>
      <trkpt lat="42.294385000" lon="-2.512168000">
        <ele>1054.70</ele>
        <time>2012-11-24T11:58:51Z</time>
      </trkpt>
      <trkpt lat="42.294376000" lon="-2.512164000">
        <ele>1054.70</ele>
        <time>2012-11-24T11:58:53Z</time>
      </trkpt>
      <trkpt lat="42.294340000" lon="-2.512156000">
        <ele>1054.90</ele>
        <time>2012-11-24T11:58:56Z</time>
      </trkpt>
      <trkpt lat="42.294305000" lon="-2.512141000">
        <ele>1055.20</ele>
        <time>2012-11-24T11:59:00Z</time>
      </trkpt>
      <trkpt lat="42.294296000" lon="-2.512136000">
        <ele>1055.30</ele>
        <time>2012-11-24T11:59:01Z</time>
      </trkpt>
      <trkpt lat="42.294251000" lon="-2.512124000">
        <ele>1055.50</ele>
        <time>2012-11-24T11:59:07Z</time>
      </trkpt>
      <trkpt lat="42.294225000" lon="-2.512111000">
        <ele>1055.70</ele>
        <time>2012-11-24T11:59:10Z</time>
      </trkpt>
      <trkpt lat="42.294191000" lon="-2.512089000">
        <ele>1056.20</ele>
        <time>2012-11-24T11:59:14Z</time>
      </trkpt>
      <trkpt lat="42.294171000" lon="-2.512081000">
        <ele>1056.40</ele>
        <time>2012-11-24T11:59:15Z</time>
      </trkpt>
      <trkpt lat="42.294151000" lon="-2.512076000">
        <ele>1056.50</ele>
        <time>2012-11-24T11:59:17Z</time>
      </trkpt>
      <trkpt lat="42.294088000" lon="-2.512036000">
        <ele>1057.00</ele>
        <time>2012-11-24T11:59:24Z</time>
      </trkpt>
      <trkpt lat="42.294080000" lon="-2.512034000">
        <ele>1057.00</ele>
        <time>2012-11-24T11:59:26Z</time>
      </trkpt>
      <trkpt lat="42.294063000" lon="-2.512021000">
        <ele>1057.10</ele>
        <time>2012-11-24T11:59:28Z</time>
      </trkpt>
      <trkpt lat="42.294056000" lon="-2.512009000">
        <ele>1057.30</ele>
        <time>2012-11-24T11:59:29Z</time>
      </trkpt>
      <trkpt lat="42.294048000" lon="-2.512001000">
        <ele>1057.40</ele>
        <time>2012-11-24T11:59:29Z</time>
      </trkpt>
      <trkpt lat="42.294043000" lon="-2.511993000">
        <ele>1057.60</ele>
        <time>2012-11-24T11:59:31Z</time>
      </trkpt>
      <trkpt lat="42.294035000" lon="-2.511983000">
        <ele>1057.70</ele>
        <time>2012-11-24T11:59:31Z</time>
      </trkpt>
      <trkpt lat="42.294003000" lon="-2.511911000">
        <ele>1058.90</ele>
        <time>2012-11-24T11:59:38Z</time>
      </trkpt>
      <trkpt lat="42.294000000" lon="-2.511898000">
        <ele>1059.10</ele>
        <time>2012-11-24T11:59:38Z</time>
      </trkpt>
      <trkpt lat="42.293990000" lon="-2.511873000">
        <ele>1059.60</ele>
        <time>2012-11-24T11:59:40Z</time>
      </trkpt>
      <trkpt lat="42.293983000" lon="-2.511846000">
        <ele>1060.10</ele>
        <time>2012-11-24T11:59:43Z</time>
      </trkpt>
      <trkpt lat="42.293980000" lon="-2.511819000">
        <ele>1060.60</ele>
        <time>2012-11-24T11:59:45Z</time>
      </trkpt>
      <trkpt lat="42.293973000" lon="-2.511793000">
        <ele>1061.10</ele>
        <time>2012-11-24T11:59:47Z</time>
      </trkpt>
      <trkpt lat="42.293973000" lon="-2.511778000">
        <ele>1061.20</ele>
        <time>2012-11-24T11:59:47Z</time>
      </trkpt>
      <trkpt lat="42.293965000" lon="-2.511736000">
        <ele>1062.10</ele>
        <time>2012-11-24T11:59:50Z</time>
      </trkpt>
      <trkpt lat="42.293953000" lon="-2.511694000">
        <ele>1062.90</ele>
        <time>2012-11-24T11:59:54Z</time>
      </trkpt>
      <trkpt lat="42.293950000" lon="-2.511666000">
        <ele>1063.50</ele>
        <time>2012-11-24T11:59:55Z</time>
      </trkpt>
      <trkpt lat="42.293950000" lon="-2.511653000">
        <ele>1063.70</ele>
        <time>2012-11-24T11:59:57Z</time>
      </trkpt>
      <trkpt lat="42.293946000" lon="-2.511639000">
        <ele>1064.00</ele>
        <time>2012-11-24T11:59:57Z</time>
      </trkpt>
      <trkpt lat="42.293941000" lon="-2.511599000">
        <ele>1064.80</ele>
        <time>2012-11-24T12:00:01Z</time>
      </trkpt>
      <trkpt lat="42.293941000" lon="-2.511586000">
        <ele>1065.00</ele>
        <time>2012-11-24T12:00:01Z</time>
      </trkpt>
      <trkpt lat="42.293938000" lon="-2.511561000">
        <ele>1065.50</ele>
        <time>2012-11-24T12:00:04Z</time>
      </trkpt>
      <trkpt lat="42.293938000" lon="-2.511536000">
        <ele>1066.00</ele>
        <time>2012-11-24T12:00:06Z</time>
      </trkpt>
      <trkpt lat="42.293936000" lon="-2.511524000">
        <ele>1066.30</ele>
        <time>2012-11-24T12:00:06Z</time>
      </trkpt>
      <trkpt lat="42.293930000" lon="-2.511503000">
        <ele>1066.70</ele>
        <time>2012-11-24T12:00:09Z</time>
      </trkpt>
      <trkpt lat="42.293918000" lon="-2.511479000">
        <ele>1067.10</ele>
        <time>2012-11-24T12:00:11Z</time>
      </trkpt>
      <trkpt lat="42.293913000" lon="-2.511456000">
        <ele>1067.60</ele>
        <time>2012-11-24T12:00:13Z</time>
      </trkpt>
      <trkpt lat="42.293903000" lon="-2.511424000">
        <ele>1068.20</ele>
        <time>2012-11-24T12:00:16Z</time>
      </trkpt>
      <trkpt lat="42.293900000" lon="-2.511414000">
        <ele>1068.40</ele>
        <time>2012-11-24T12:00:16Z</time>
      </trkpt>
      <trkpt lat="42.293895000" lon="-2.511406000">
        <ele>1068.60</ele>
        <time>2012-11-24T12:00:18Z</time>
      </trkpt>
      <trkpt lat="42.293883000" lon="-2.511391000">
        <ele>1068.90</ele>
        <time>2012-11-24T12:00:20Z</time>
      </trkpt>
      <trkpt lat="42.293880000" lon="-2.511383000">
        <ele>1069.10</ele>
        <time>2012-11-24T12:00:20Z</time>
      </trkpt>
      <trkpt lat="42.293875000" lon="-2.511363000">
        <ele>1069.50</ele>
        <time>2012-11-24T12:00:23Z</time>
      </trkpt>
      <trkpt lat="42.293871000" lon="-2.511351000">
        <ele>1069.70</ele>
        <time>2012-11-24T12:00:23Z</time>
      </trkpt>
      <trkpt lat="42.293866000" lon="-2.511343000">
        <ele>1069.80</ele>
        <time>2012-11-24T12:00:25Z</time>
      </trkpt>
      <trkpt lat="42.293818000" lon="-2.511323000">
        <ele>1070.40</ele>
        <time>2012-11-24T12:00:30Z</time>
      </trkpt>
      <trkpt lat="42.293805000" lon="-2.511309000">
        <ele>1070.60</ele>
        <time>2012-11-24T12:00:32Z</time>
      </trkpt>
      <trkpt lat="42.293798000" lon="-2.511304000">
        <ele>1070.70</ele>
        <time>2012-11-24T12:00:34Z</time>
      </trkpt>
      <trkpt lat="42.293788000" lon="-2.511284000">
        <ele>1071.00</ele>
        <time>2012-11-24T12:00:35Z</time>
      </trkpt>
      <trkpt lat="42.293781000" lon="-2.511276000">
        <ele>1071.20</ele>
        <time>2012-11-24T12:00:37Z</time>
      </trkpt>
      <trkpt lat="42.293766000" lon="-2.511263000">
        <ele>1071.50</ele>
        <time>2012-11-24T12:00:39Z</time>
      </trkpt>
      <trkpt lat="42.293751000" lon="-2.511254000">
        <ele>1071.70</ele>
        <time>2012-11-24T12:00:41Z</time>
      </trkpt>
      <trkpt lat="42.293743000" lon="-2.511253000">
        <ele>1071.80</ele>
        <time>2012-11-24T12:00:41Z</time>
      </trkpt>
      <trkpt lat="42.293706000" lon="-2.511249000">
        <ele>1072.00</ele>
        <time>2012-11-24T12:00:46Z</time>
      </trkpt>
      <trkpt lat="42.293698000" lon="-2.511246000">
        <ele>1072.10</ele>
        <time>2012-11-24T12:00:48Z</time>
      </trkpt>
      <trkpt lat="42.293690000" lon="-2.511239000">
        <ele>1072.10</ele>
        <time>2012-11-24T12:00:48Z</time>
      </trkpt>
      <trkpt lat="42.293683000" lon="-2.511234000">
        <ele>1072.20</ele>
        <time>2012-11-24T12:00:49Z</time>
      </trkpt>
      <trkpt lat="42.293673000" lon="-2.511229000">
        <ele>1072.20</ele>
        <time>2012-11-24T12:00:51Z</time>
      </trkpt>
      <trkpt lat="42.293665000" lon="-2.511228000">
        <ele>1072.30</ele>
        <time>2012-11-24T12:00:51Z</time>
      </trkpt>
      <trkpt lat="42.293656000" lon="-2.511228000">
        <ele>1072.30</ele>
        <time>2012-11-24T12:00:53Z</time>
      </trkpt>
      <trkpt lat="42.293646000" lon="-2.511229000">
        <ele>1072.40</ele>
        <time>2012-11-24T12:00:53Z</time>
      </trkpt>
      <trkpt lat="42.293628000" lon="-2.511243000">
        <ele>1072.30</ele>
        <time>2012-11-24T12:00:55Z</time>
      </trkpt>
      <trkpt lat="42.293620000" lon="-2.511253000">
        <ele>1072.30</ele>
        <time>2012-11-24T12:00:58Z</time>
      </trkpt>
      <trkpt lat="42.293620000" lon="-2.511253000">
        <ele>1072.30</ele>
        <time>2012-11-24T12:00:58Z</time>
      </trkpt>
      <trkpt lat="42.293620000" lon="-2.511254000">
        <ele>1072.20</ele>
        <time>2012-11-24T12:01:00Z</time>
      </trkpt>
      <trkpt lat="42.293618000" lon="-2.511253000">
        <ele>1072.20</ele>
        <time>2012-11-24T12:01:07Z</time>
      </trkpt>
      <trkpt lat="42.293618000" lon="-2.511254000">
        <ele>1072.20</ele>
        <time>2012-11-24T12:01:09Z</time>
      </trkpt>
      <trkpt lat="42.293616000" lon="-2.511256000">
        <ele>1072.10</ele>
        <time>2012-11-24T12:01:10Z</time>
      </trkpt>
      <trkpt lat="42.293616000" lon="-2.511259000">
        <ele>1072.10</ele>
        <time>2012-11-24T12:01:10Z</time>
      </trkpt>
      <trkpt lat="42.293615000" lon="-2.511263000">
        <ele>1072.00</ele>
        <time>2012-11-24T12:01:12Z</time>
      </trkpt>
      <trkpt lat="42.293613000" lon="-2.511264000">
        <ele>1072.00</ele>
        <time>2012-11-24T12:01:12Z</time>
      </trkpt>
      <trkpt lat="42.293613000" lon="-2.511264000">
        <ele>1072.00</ele>
        <time>2012-11-24T12:01:14Z</time>
      </trkpt>
      <trkpt lat="42.293613000" lon="-2.511263000">
        <ele>1072.00</ele>
        <time>2012-11-24T12:01:19Z</time>
      </trkpt>
      <trkpt lat="42.293615000" lon="-2.511259000">
        <ele>1072.00</ele>
        <time>2012-11-24T12:01:21Z</time>
      </trkpt>
      <trkpt lat="42.293615000" lon="-2.511258000">
        <ele>1072.10</ele>
        <time>2012-11-24T12:01:24Z</time>
      </trkpt>
      <trkpt lat="42.293616000" lon="-2.511258000">
        <ele>1072.10</ele>
        <time>2012-11-24T12:01:26Z</time>
      </trkpt>
      <trkpt lat="42.293616000" lon="-2.511254000">
        <ele>1072.10</ele>
        <time>2012-11-24T12:01:31Z</time>
      </trkpt>
      <trkpt lat="42.293618000" lon="-2.511254000">
        <ele>1072.10</ele>
        <time>2012-11-24T12:01:31Z</time>
      </trkpt>
      <trkpt lat="42.293618000" lon="-2.511254000">
        <ele>1072.10</ele>
        <time>2012-11-24T12:01:33Z</time>
      </trkpt>
      <trkpt lat="42.293620000" lon="-2.511253000">
        <ele>1072.20</ele>
        <time>2012-11-24T12:01:40Z</time>
      </trkpt>
      <trkpt lat="42.293620000" lon="-2.511254000">
        <ele>1072.20</ele>
        <time>2012-11-24T12:01:49Z</time>
      </trkpt>
      <trkpt lat="42.293618000" lon="-2.511256000">
        <ele>1072.10</ele>
        <time>2012-11-24T12:01:49Z</time>
      </trkpt>
      <trkpt lat="42.293616000" lon="-2.511259000">
        <ele>1072.10</ele>
        <time>2012-11-24T12:01:50Z</time>
      </trkpt>
      <trkpt lat="42.293608000" lon="-2.511258000">
        <ele>1072.10</ele>
        <time>2012-11-24T12:01:52Z</time>
      </trkpt>
      <trkpt lat="42.293605000" lon="-2.511264000">
        <ele>1072.00</ele>
        <time>2012-11-24T12:01:54Z</time>
      </trkpt>
      <trkpt lat="42.293598000" lon="-2.511258000">
        <ele>1072.10</ele>
        <time>2012-11-24T12:01:54Z</time>
      </trkpt>
      <trkpt lat="42.293591000" lon="-2.511248000">
        <ele>1072.20</ele>
        <time>2012-11-24T12:01:56Z</time>
      </trkpt>
      <trkpt lat="42.293565000" lon="-2.511186000">
        <ele>1072.90</ele>
        <time>2012-11-24T12:01:59Z</time>
      </trkpt>
      <trkpt lat="42.293545000" lon="-2.511154000">
        <ele>1073.40</ele>
        <time>2012-11-24T12:02:01Z</time>
      </trkpt>
      <trkpt lat="42.293538000" lon="-2.511138000">
        <ele>1073.70</ele>
        <time>2012-11-24T12:02:03Z</time>
      </trkpt>
      <trkpt lat="42.293526000" lon="-2.511096000">
        <ele>1074.30</ele>
        <time>2012-11-24T12:02:04Z</time>
      </trkpt>
      <trkpt lat="42.293466000" lon="-2.510493000">
        <ele>1083.40</ele>
        <time>2012-11-24T12:02:15Z</time>
      </trkpt>
      <trkpt lat="42.293466000" lon="-2.510443000">
        <ele>1084.40</ele>
        <time>2012-11-24T12:02:17Z</time>
      </trkpt>
      <trkpt lat="42.293488000" lon="-2.510286000">
        <ele>1086.60</ele>
        <time>2012-11-24T12:02:20Z</time>
      </trkpt>
      <trkpt lat="42.293566000" lon="-2.510038000">
        <ele>1088.10</ele>
        <time>2012-11-24T12:02:25Z</time>
      </trkpt>
      <trkpt lat="42.293648000" lon="-2.509646000">
        <ele>1089.80</ele>
        <time>2012-11-24T12:02:36Z</time>
      </trkpt>
      <trkpt lat="42.293756000" lon="-2.509286000">
        <ele>1091.20</ele>
        <time>2012-11-24T12:02:44Z</time>
      </trkpt>
      <trkpt lat="42.293818000" lon="-2.508591000">
        <ele>1099.10</ele>
        <time>2012-11-24T12:03:05Z</time>
      </trkpt>
      <trkpt lat="42.293816000" lon="-2.508546000">
        <ele>1099.10</ele>
        <time>2012-11-24T12:03:07Z</time>
      </trkpt>
      <trkpt lat="42.293726000" lon="-2.508148000">
        <ele>1103.40</ele>
        <time>2012-11-24T12:03:16Z</time>
      </trkpt>
      <trkpt lat="42.293720000" lon="-2.508106000">
        <ele>1104.00</ele>
        <time>2012-11-24T12:03:16Z</time>
      </trkpt>
      <trkpt lat="42.293735000" lon="-2.507456000">
        <ele>1102.50</ele>
        <time>2012-11-24T12:03:30Z</time>
      </trkpt>
      <trkpt lat="42.293676000" lon="-2.507084000">
        <ele>1104.30</ele>
        <time>2012-11-24T12:03:37Z</time>
      </trkpt>
      <trkpt lat="42.293676000" lon="-2.507043000">
        <ele>1104.50</ele>
        <time>2012-11-24T12:03:38Z</time>
      </trkpt>
      <trkpt lat="42.293686000" lon="-2.507003000">
        <ele>1104.50</ele>
        <time>2012-11-24T12:03:40Z</time>
      </trkpt>
      <trkpt lat="42.293705000" lon="-2.506966000">
        <ele>1104.00</ele>
        <time>2012-11-24T12:03:40Z</time>
      </trkpt>
      <trkpt lat="42.293730000" lon="-2.506939000">
        <ele>1103.20</ele>
        <time>2012-11-24T12:03:42Z</time>
      </trkpt>
      <trkpt lat="42.293760000" lon="-2.506919000">
        <ele>1102.00</ele>
        <time>2012-11-24T12:03:42Z</time>
      </trkpt>
      <trkpt lat="42.294476000" lon="-2.506739000">
        <ele>1077.00</ele>
        <time>2012-11-24T12:04:12Z</time>
      </trkpt>
      <trkpt lat="42.294495000" lon="-2.506739000">
        <ele>1076.70</ele>
        <time>2012-11-24T12:04:13Z</time>
      </trkpt>
      <trkpt lat="42.294533000" lon="-2.506741000">
        <ele>1075.10</ele>
        <time>2012-11-24T12:04:15Z</time>
      </trkpt>
      <trkpt lat="42.294605000" lon="-2.506741000">
        <ele>1072.80</ele>
        <time>2012-11-24T12:04:18Z</time>
      </trkpt>
      <trkpt lat="42.294641000" lon="-2.506744000">
        <ele>1072.40</ele>
        <time>2012-11-24T12:04:20Z</time>
      </trkpt>
      <trkpt lat="42.294660000" lon="-2.506744000">
        <ele>1072.30</ele>
        <time>2012-11-24T12:04:22Z</time>
      </trkpt>
      <trkpt lat="42.294746000" lon="-2.506718000">
        <ele>1072.70</ele>
        <time>2012-11-24T12:04:27Z</time>
      </trkpt>
      <trkpt lat="42.294955000" lon="-2.506574000">
        <ele>1077.10</ele>
        <time>2012-11-24T12:04:41Z</time>
      </trkpt>
      <trkpt lat="42.294971000" lon="-2.506568000">
        <ele>1077.30</ele>
        <time>2012-11-24T12:04:41Z</time>
      </trkpt>
      <trkpt lat="42.294985000" lon="-2.506559000">
        <ele>1077.60</ele>
        <time>2012-11-24T12:04:43Z</time>
      </trkpt>
      <trkpt lat="42.295046000" lon="-2.506546000">
        <ele>1078.20</ele>
        <time>2012-11-24T12:04:46Z</time>
      </trkpt>
      <trkpt lat="42.295061000" lon="-2.506546000">
        <ele>1078.30</ele>
        <time>2012-11-24T12:04:48Z</time>
      </trkpt>
      <trkpt lat="42.295165000" lon="-2.506571000">
        <ele>1077.60</ele>
        <time>2012-11-24T12:04:55Z</time>
      </trkpt>
      <trkpt lat="42.295176000" lon="-2.506578000">
        <ele>1077.30</ele>
        <time>2012-11-24T12:04:55Z</time>
      </trkpt>
      <trkpt lat="42.295205000" lon="-2.506589000">
        <ele>1076.90</ele>
        <time>2012-11-24T12:04:57Z</time>
      </trkpt>
      <trkpt lat="42.295320000" lon="-2.506653000">
        <ele>1074.50</ele>
        <time>2012-11-24T12:05:06Z</time>
      </trkpt>
      <trkpt lat="42.295380000" lon="-2.506673000">
        <ele>1073.60</ele>
        <time>2012-11-24T12:05:09Z</time>
      </trkpt>
      <trkpt lat="42.295396000" lon="-2.506673000">
        <ele>1073.40</ele>
        <time>2012-11-24T12:05:11Z</time>
      </trkpt>
      <trkpt lat="42.295411000" lon="-2.506674000">
        <ele>1073.30</ele>
        <time>2012-11-24T12:05:11Z</time>
      </trkpt>
      <trkpt lat="42.295426000" lon="-2.506673000">
        <ele>1073.30</ele>
        <time>2012-11-24T12:05:12Z</time>
      </trkpt>
      <trkpt lat="42.295441000" lon="-2.506668000">
        <ele>1073.40</ele>
        <time>2012-11-24T12:05:14Z</time>
      </trkpt>
      <trkpt lat="42.295481000" lon="-2.506643000">
        <ele>1074.30</ele>
        <time>2012-11-24T12:05:16Z</time>
      </trkpt>
      <trkpt lat="42.295491000" lon="-2.506629000">
        <ele>1074.80</ele>
        <time>2012-11-24T12:05:18Z</time>
      </trkpt>
      <trkpt lat="42.295513000" lon="-2.506584000">
        <ele>1076.30</ele>
        <time>2012-11-24T12:05:21Z</time>
      </trkpt>
      <trkpt lat="42.295520000" lon="-2.506554000">
        <ele>1077.40</ele>
        <time>2012-11-24T12:05:23Z</time>
      </trkpt>
      <trkpt lat="42.295523000" lon="-2.506524000">
        <ele>1078.40</ele>
        <time>2012-11-24T12:05:25Z</time>
      </trkpt>
      <trkpt lat="42.295521000" lon="-2.506474000">
        <ele>1080.10</ele>
        <time>2012-11-24T12:05:28Z</time>
      </trkpt>
      <trkpt lat="42.295515000" lon="-2.506448000">
        <ele>1081.10</ele>
        <time>2012-11-24T12:05:30Z</time>
      </trkpt>
      <trkpt lat="42.295513000" lon="-2.506433000">
        <ele>1081.60</ele>
        <time>2012-11-24T12:05:30Z</time>
      </trkpt>
      <trkpt lat="42.295455000" lon="-2.506293000">
        <ele>1086.60</ele>
        <time>2012-11-24T12:05:42Z</time>
      </trkpt>
      <trkpt lat="42.295451000" lon="-2.506279000">
        <ele>1087.10</ele>
        <time>2012-11-24T12:05:42Z</time>
      </trkpt>
      <trkpt lat="42.295438000" lon="-2.506254000">
        <ele>1088.00</ele>
        <time>2012-11-24T12:05:44Z</time>
      </trkpt>
      <trkpt lat="42.295415000" lon="-2.506168000">
        <ele>1090.70</ele>
        <time>2012-11-24T12:05:51Z</time>
      </trkpt>
      <trkpt lat="42.295410000" lon="-2.506141000">
        <ele>1091.50</ele>
        <time>2012-11-24T12:05:54Z</time>
      </trkpt>
      <trkpt lat="42.295405000" lon="-2.506081000">
        <ele>1093.10</ele>
        <time>2012-11-24T12:05:58Z</time>
      </trkpt>
      <trkpt lat="42.295401000" lon="-2.506068000">
        <ele>1093.50</ele>
        <time>2012-11-24T12:05:58Z</time>
      </trkpt>
      <trkpt lat="42.295396000" lon="-2.506026000">
        <ele>1094.70</ele>
        <time>2012-11-24T12:06:01Z</time>
      </trkpt>
      <trkpt lat="42.295396000" lon="-2.506011000">
        <ele>1095.20</ele>
        <time>2012-11-24T12:06:03Z</time>
      </trkpt>
      <trkpt lat="42.295395000" lon="-2.505981000">
        <ele>1096.00</ele>
        <time>2012-11-24T12:06:05Z</time>
      </trkpt>
      <trkpt lat="42.295390000" lon="-2.505953000">
        <ele>1096.90</ele>
        <time>2012-11-24T12:06:06Z</time>
      </trkpt>
      <trkpt lat="42.295388000" lon="-2.505923000">
        <ele>1097.70</ele>
        <time>2012-11-24T12:06:08Z</time>
      </trkpt>
      <trkpt lat="42.295390000" lon="-2.505906000">
        <ele>1098.20</ele>
        <time>2012-11-24T12:06:10Z</time>
      </trkpt>
      <trkpt lat="42.295385000" lon="-2.505861000">
        <ele>1099.50</ele>
        <time>2012-11-24T12:06:12Z</time>
      </trkpt>
      <trkpt lat="42.295385000" lon="-2.505813000">
        <ele>1100.90</ele>
        <time>2012-11-24T12:06:15Z</time>
      </trkpt>
      <trkpt lat="42.295383000" lon="-2.505798000">
        <ele>1101.20</ele>
        <time>2012-11-24T12:06:17Z</time>
      </trkpt>
      <trkpt lat="42.295383000" lon="-2.505766000">
        <ele>1102.30</ele>
        <time>2012-11-24T12:06:19Z</time>
      </trkpt>
      <trkpt lat="42.295378000" lon="-2.505721000">
        <ele>1103.70</ele>
        <time>2012-11-24T12:06:22Z</time>
      </trkpt>
      <trkpt lat="42.295380000" lon="-2.505704000">
        <ele>1104.10</ele>
        <time>2012-11-24T12:06:22Z</time>
      </trkpt>
      <trkpt lat="42.295380000" lon="-2.505689000">
        <ele>1104.60</ele>
        <time>2012-11-24T12:06:24Z</time>
      </trkpt>
      <trkpt lat="42.295381000" lon="-2.505674000">
        <ele>1105.00</ele>
        <time>2012-11-24T12:06:24Z</time>
      </trkpt>
      <trkpt lat="42.295380000" lon="-2.505659000">
        <ele>1105.40</ele>
        <time>2012-11-24T12:06:26Z</time>
      </trkpt>
      <trkpt lat="42.295380000" lon="-2.505618000">
        <ele>1106.70</ele>
        <time>2012-11-24T12:06:29Z</time>
      </trkpt>
      <trkpt lat="42.295378000" lon="-2.505604000">
        <ele>1107.10</ele>
        <time>2012-11-24T12:06:29Z</time>
      </trkpt>
      <trkpt lat="42.295378000" lon="-2.505591000">
        <ele>1107.50</ele>
        <time>2012-11-24T12:06:31Z</time>
      </trkpt>
      <trkpt lat="42.295380000" lon="-2.505576000">
        <ele>1107.90</ele>
        <time>2012-11-24T12:06:31Z</time>
      </trkpt>
      <trkpt lat="42.295378000" lon="-2.505563000">
        <ele>1108.30</ele>
        <time>2012-11-24T12:06:33Z</time>
      </trkpt>
      <trkpt lat="42.295378000" lon="-2.505534000">
        <ele>1109.10</ele>
        <time>2012-11-24T12:06:34Z</time>
      </trkpt>
      <trkpt lat="42.295380000" lon="-2.505521000">
        <ele>1109.50</ele>
        <time>2012-11-24T12:06:36Z</time>
      </trkpt>
      <trkpt lat="42.295380000" lon="-2.505506000">
        <ele>1109.90</ele>
        <time>2012-11-24T12:06:36Z</time>
      </trkpt>
      <trkpt lat="42.295376000" lon="-2.505494000">
        <ele>1110.30</ele>
        <time>2012-11-24T12:06:38Z</time>
      </trkpt>
      <trkpt lat="42.295376000" lon="-2.505464000">
        <ele>1111.20</ele>
        <time>2012-11-24T12:06:40Z</time>
      </trkpt>
      <trkpt lat="42.295381000" lon="-2.505419000">
        <ele>1112.40</ele>
        <time>2012-11-24T12:06:43Z</time>
      </trkpt>
      <trkpt lat="42.295381000" lon="-2.505391000">
        <ele>1113.10</ele>
        <time>2012-11-24T12:06:45Z</time>
      </trkpt>
      <trkpt lat="42.295383000" lon="-2.505376000">
        <ele>1113.40</ele>
        <time>2012-11-24T12:06:45Z</time>
      </trkpt>
      <trkpt lat="42.295383000" lon="-2.505303000">
        <ele>1115.00</ele>
        <time>2012-11-24T12:06:50Z</time>
      </trkpt>
      <trkpt lat="42.295385000" lon="-2.505288000">
        <ele>1115.30</ele>
        <time>2012-11-24T12:06:52Z</time>
      </trkpt>
      <trkpt lat="42.295386000" lon="-2.505261000">
        <ele>1115.90</ele>
        <time>2012-11-24T12:06:54Z</time>
      </trkpt>
      <trkpt lat="42.295386000" lon="-2.505219000">
        <ele>1116.80</ele>
        <time>2012-11-24T12:06:57Z</time>
      </trkpt>
      <trkpt lat="42.295391000" lon="-2.505179000">
        <ele>1117.60</ele>
        <time>2012-11-24T12:06:59Z</time>
      </trkpt>
      <trkpt lat="42.295390000" lon="-2.505153000">
        <ele>1118.20</ele>
        <time>2012-11-24T12:07:02Z</time>
      </trkpt>
      <trkpt lat="42.295388000" lon="-2.505139000">
        <ele>1118.50</ele>
        <time>2012-11-24T12:07:02Z</time>
      </trkpt>
      <trkpt lat="42.295398000" lon="-2.505059000">
        <ele>1120.00</ele>
        <time>2012-11-24T12:07:09Z</time>
      </trkpt>
      <trkpt lat="42.295398000" lon="-2.505031000">
        <ele>1120.60</ele>
        <time>2012-11-24T12:07:11Z</time>
      </trkpt>
      <trkpt lat="42.295403000" lon="-2.505004000">
        <ele>1121.00</ele>
        <time>2012-11-24T12:07:13Z</time>
      </trkpt>
      <trkpt lat="42.295403000" lon="-2.504991000">
        <ele>1121.30</ele>
        <time>2012-11-24T12:07:13Z</time>
      </trkpt>
      <trkpt lat="42.295406000" lon="-2.504966000">
        <ele>1121.70</ele>
        <time>2012-11-24T12:07:16Z</time>
      </trkpt>
      <trkpt lat="42.295406000" lon="-2.504928000">
        <ele>1122.50</ele>
        <time>2012-11-24T12:07:18Z</time>
      </trkpt>
      <trkpt lat="42.295410000" lon="-2.504916000">
        <ele>1122.60</ele>
        <time>2012-11-24T12:07:20Z</time>
      </trkpt>
      <trkpt lat="42.295425000" lon="-2.504799000">
        <ele>1124.70</ele>
        <time>2012-11-24T12:07:28Z</time>
      </trkpt>
      <trkpt lat="42.295431000" lon="-2.504748000">
        <ele>1125.70</ele>
        <time>2012-11-24T12:07:32Z</time>
      </trkpt>
      <trkpt lat="42.295431000" lon="-2.504719000">
        <ele>1126.20</ele>
        <time>2012-11-24T12:07:35Z</time>
      </trkpt>
      <trkpt lat="42.295433000" lon="-2.504706000">
        <ele>1126.40</ele>
        <time>2012-11-24T12:07:35Z</time>
      </trkpt>
      <trkpt lat="42.295433000" lon="-2.504678000">
        <ele>1127.00</ele>
        <time>2012-11-24T12:07:37Z</time>
      </trkpt>
      <trkpt lat="42.295436000" lon="-2.504651000">
        <ele>1127.50</ele>
        <time>2012-11-24T12:07:39Z</time>
      </trkpt>
      <trkpt lat="42.295436000" lon="-2.504609000">
        <ele>1128.40</ele>
        <time>2012-11-24T12:07:42Z</time>
      </trkpt>
      <trkpt lat="42.295445000" lon="-2.504556000">
        <ele>1129.40</ele>
        <time>2012-11-24T12:07:46Z</time>
      </trkpt>
      <trkpt lat="42.295445000" lon="-2.504543000">
        <ele>1129.60</ele>
        <time>2012-11-24T12:07:48Z</time>
      </trkpt>
      <trkpt lat="42.295453000" lon="-2.504474000">
        <ele>1130.90</ele>
        <time>2012-11-24T12:07:53Z</time>
      </trkpt>
      <trkpt lat="42.295453000" lon="-2.504463000">
        <ele>1131.20</ele>
        <time>2012-11-24T12:07:53Z</time>
      </trkpt>
      <trkpt lat="42.295463000" lon="-2.504381000">
        <ele>1132.70</ele>
        <time>2012-11-24T12:08:00Z</time>
      </trkpt>
      <trkpt lat="42.295470000" lon="-2.504356000">
        <ele>1133.10</ele>
        <time>2012-11-24T12:08:01Z</time>
      </trkpt>
      <trkpt lat="42.295480000" lon="-2.504288000">
        <ele>1134.30</ele>
        <time>2012-11-24T12:08:07Z</time>
      </trkpt>
      <trkpt lat="42.295480000" lon="-2.504274000">
        <ele>1134.50</ele>
        <time>2012-11-24T12:08:07Z</time>
      </trkpt>
      <trkpt lat="42.295483000" lon="-2.504251000">
        <ele>1135.00</ele>
        <time>2012-11-24T12:08:10Z</time>
      </trkpt>
      <trkpt lat="42.295488000" lon="-2.504238000">
        <ele>1135.20</ele>
        <time>2012-11-24T12:08:10Z</time>
      </trkpt>
      <trkpt lat="42.295490000" lon="-2.504224000">
        <ele>1135.40</ele>
        <time>2012-11-24T12:08:12Z</time>
      </trkpt>
      <trkpt lat="42.295496000" lon="-2.504188000">
        <ele>1136.00</ele>
        <time>2012-11-24T12:08:14Z</time>
      </trkpt>
      <trkpt lat="42.295500000" lon="-2.504176000">
        <ele>1136.10</ele>
        <time>2012-11-24T12:08:15Z</time>
      </trkpt>
      <trkpt lat="42.295500000" lon="-2.504163000">
        <ele>1136.40</ele>
        <time>2012-11-24T12:08:17Z</time>
      </trkpt>
      <trkpt lat="42.295505000" lon="-2.504138000">
        <ele>1136.80</ele>
        <time>2012-11-24T12:08:19Z</time>
      </trkpt>
      <trkpt lat="42.295510000" lon="-2.504128000">
        <ele>1136.90</ele>
        <time>2012-11-24T12:08:19Z</time>
      </trkpt>
      <trkpt lat="42.295513000" lon="-2.504114000">
        <ele>1137.00</ele>
        <time>2012-11-24T12:08:21Z</time>
      </trkpt>
      <trkpt lat="42.295516000" lon="-2.504089000">
        <ele>1137.50</ele>
        <time>2012-11-24T12:08:22Z</time>
      </trkpt>
      <trkpt lat="42.295520000" lon="-2.504078000">
        <ele>1137.60</ele>
        <time>2012-11-24T12:08:24Z</time>
      </trkpt>
      <trkpt lat="42.295523000" lon="-2.504051000">
        <ele>1138.10</ele>
        <time>2012-11-24T12:08:26Z</time>
      </trkpt>
      <trkpt lat="42.295526000" lon="-2.504039000">
        <ele>1138.20</ele>
        <time>2012-11-24T12:08:26Z</time>
      </trkpt>
      <trkpt lat="42.295528000" lon="-2.504028000">
        <ele>1138.40</ele>
        <time>2012-11-24T12:08:28Z</time>
      </trkpt>
      <trkpt lat="42.295540000" lon="-2.503989000">
        <ele>1138.90</ele>
        <time>2012-11-24T12:08:31Z</time>
      </trkpt>
      <trkpt lat="42.295541000" lon="-2.503978000">
        <ele>1139.10</ele>
        <time>2012-11-24T12:08:31Z</time>
      </trkpt>
      <trkpt lat="42.295546000" lon="-2.503966000">
        <ele>1139.20</ele>
        <time>2012-11-24T12:08:33Z</time>
      </trkpt>
      <trkpt lat="42.295556000" lon="-2.503929000">
        <ele>1139.60</ele>
        <time>2012-11-24T12:08:36Z</time>
      </trkpt>
      <trkpt lat="42.295566000" lon="-2.503904000">
        <ele>1139.90</ele>
        <time>2012-11-24T12:08:38Z</time>
      </trkpt>
      <trkpt lat="42.295573000" lon="-2.503879000">
        <ele>1140.10</ele>
        <time>2012-11-24T12:08:40Z</time>
      </trkpt>
      <trkpt lat="42.295578000" lon="-2.503851000">
        <ele>1140.50</ele>
        <time>2012-11-24T12:08:42Z</time>
      </trkpt>
      <trkpt lat="42.295583000" lon="-2.503839000">
        <ele>1140.60</ele>
        <time>2012-11-24T12:08:43Z</time>
      </trkpt>
      <trkpt lat="42.295585000" lon="-2.503826000">
        <ele>1140.80</ele>
        <time>2012-11-24T12:08:43Z</time>
      </trkpt>
      <trkpt lat="42.295591000" lon="-2.503799000">
        <ele>1141.10</ele>
        <time>2012-11-24T12:08:45Z</time>
      </trkpt>
      <trkpt lat="42.295618000" lon="-2.503738000">
        <ele>1141.60</ele>
        <time>2012-11-24T12:08:50Z</time>
      </trkpt>
      <trkpt lat="42.295625000" lon="-2.503726000">
        <ele>1141.60</ele>
        <time>2012-11-24T12:08:52Z</time>
      </trkpt>
      <trkpt lat="42.295626000" lon="-2.503713000">
        <ele>1141.80</ele>
        <time>2012-11-24T12:08:52Z</time>
      </trkpt>
      <trkpt lat="42.295631000" lon="-2.503701000">
        <ele>1141.80</ele>
        <time>2012-11-24T12:08:54Z</time>
      </trkpt>
      <trkpt lat="42.295635000" lon="-2.503689000">
        <ele>1141.90</ele>
        <time>2012-11-24T12:08:54Z</time>
      </trkpt>
      <trkpt lat="42.295661000" lon="-2.503626000">
        <ele>1142.30</ele>
        <time>2012-11-24T12:08:59Z</time>
      </trkpt>
      <trkpt lat="42.295663000" lon="-2.503613000">
        <ele>1142.40</ele>
        <time>2012-11-24T12:09:01Z</time>
      </trkpt>
      <trkpt lat="42.295670000" lon="-2.503586000">
        <ele>1142.70</ele>
        <time>2012-11-24T12:09:02Z</time>
      </trkpt>
      <trkpt lat="42.295671000" lon="-2.503574000">
        <ele>1142.80</ele>
        <time>2012-11-24T12:09:04Z</time>
      </trkpt>
      <trkpt lat="42.295680000" lon="-2.503548000">
        <ele>1143.10</ele>
        <time>2012-11-24T12:09:06Z</time>
      </trkpt>
      <trkpt lat="42.295691000" lon="-2.503523000">
        <ele>1143.30</ele>
        <time>2012-11-24T12:09:08Z</time>
      </trkpt>
      <trkpt lat="42.295733000" lon="-2.503449000">
        <ele>1143.30</ele>
        <time>2012-11-24T12:09:13Z</time>
      </trkpt>
      <trkpt lat="42.295743000" lon="-2.503421000">
        <ele>1143.40</ele>
        <time>2012-11-24T12:09:16Z</time>
      </trkpt>
      <trkpt lat="42.295750000" lon="-2.503408000">
        <ele>1143.40</ele>
        <time>2012-11-24T12:09:16Z</time>
      </trkpt>
      <trkpt lat="42.295841000" lon="-2.503176000">
        <ele>1144.40</ele>
        <time>2012-11-24T12:09:32Z</time>
      </trkpt>
      <trkpt lat="42.295850000" lon="-2.503161000">
        <ele>1144.40</ele>
        <time>2012-11-24T12:09:34Z</time>
      </trkpt>
      <trkpt lat="42.295855000" lon="-2.503144000">
        <ele>1144.50</ele>
        <time>2012-11-24T12:09:34Z</time>
      </trkpt>
      <trkpt lat="42.295861000" lon="-2.503129000">
        <ele>1144.50</ele>
        <time>2012-11-24T12:09:35Z</time>
      </trkpt>
      <trkpt lat="42.295866000" lon="-2.503113000">
        <ele>1144.60</ele>
        <time>2012-11-24T12:09:37Z</time>
      </trkpt>
      <trkpt lat="42.296001000" lon="-2.502786000">
        <ele>1145.30</ele>
        <time>2012-11-24T12:09:55Z</time>
      </trkpt>
      <trkpt lat="42.296028000" lon="-2.502701000">
        <ele>1145.80</ele>
        <time>2012-11-24T12:09:58Z</time>
      </trkpt>
      <trkpt lat="42.296073000" lon="-2.502606000">
        <ele>1145.80</ele>
        <time>2012-11-24T12:10:02Z</time>
      </trkpt>
      <trkpt lat="42.296250000" lon="-2.502161000">
        <ele>1146.40</ele>
        <time>2012-11-24T12:10:21Z</time>
      </trkpt>
      <trkpt lat="42.296256000" lon="-2.502134000">
        <ele>1146.60</ele>
        <time>2012-11-24T12:10:23Z</time>
      </trkpt>
      <trkpt lat="42.296266000" lon="-2.502109000">
        <ele>1146.70</ele>
        <time>2012-11-24T12:10:24Z</time>
      </trkpt>
      <trkpt lat="42.296388000" lon="-2.501708000">
        <ele>1149.60</ele>
        <time>2012-11-24T12:10:40Z</time>
      </trkpt>
      <trkpt lat="42.296400000" lon="-2.501683000">
        <ele>1149.70</ele>
        <time>2012-11-24T12:10:40Z</time>
      </trkpt>
      <trkpt lat="42.296488000" lon="-2.501553000">
        <ele>1149.60</ele>
        <time>2012-11-24T12:10:45Z</time>
      </trkpt>
      <trkpt lat="42.296508000" lon="-2.501538000">
        <ele>1149.30</ele>
        <time>2012-11-24T12:10:47Z</time>
      </trkpt>
      <trkpt lat="42.296686000" lon="-2.501494000">
        <ele>1144.70</ele>
        <time>2012-11-24T12:10:56Z</time>
      </trkpt>
      <trkpt lat="42.296695000" lon="-2.501494000">
        <ele>1144.10</ele>
        <time>2012-11-24T12:10:57Z</time>
      </trkpt>
      <trkpt lat="42.296698000" lon="-2.501491000">
        <ele>1143.90</ele>
        <time>2012-11-24T12:10:59Z</time>
      </trkpt>
      <trkpt lat="42.296700000" lon="-2.501491000">
        <ele>1143.80</ele>
        <time>2012-11-24T12:10:59Z</time>
      </trkpt>
      <trkpt lat="42.296700000" lon="-2.501491000">
        <ele>1143.80</ele>
        <time>2012-11-24T12:11:01Z</time>
      </trkpt>
      <trkpt lat="42.296700000" lon="-2.501489000">
        <ele>1143.70</ele>
        <time>2012-11-24T12:11:01Z</time>
      </trkpt>
      <trkpt lat="42.296703000" lon="-2.501489000">
        <ele>1143.70</ele>
        <time>2012-11-24T12:11:06Z</time>
      </trkpt>
      <trkpt lat="42.296703000" lon="-2.501491000">
        <ele>1143.60</ele>
        <time>2012-11-24T12:11:06Z</time>
      </trkpt>
      <trkpt lat="42.296705000" lon="-2.501491000">
        <ele>1143.60</ele>
        <time>2012-11-24T12:11:10Z</time>
      </trkpt>
      <trkpt lat="42.296706000" lon="-2.501491000">
        <ele>1143.50</ele>
        <time>2012-11-24T12:11:11Z</time>
      </trkpt>
      <trkpt lat="42.296706000" lon="-2.501493000">
        <ele>1143.50</ele>
        <time>2012-11-24T12:11:13Z</time>
      </trkpt>
      <trkpt lat="42.296708000" lon="-2.501493000">
        <ele>1143.40</ele>
        <time>2012-11-24T12:11:13Z</time>
      </trkpt>
      <trkpt lat="42.296710000" lon="-2.501493000">
        <ele>1143.40</ele>
        <time>2012-11-24T12:11:15Z</time>
      </trkpt>
      <trkpt lat="42.296711000" lon="-2.501494000">
        <ele>1143.30</ele>
        <time>2012-11-24T12:11:18Z</time>
      </trkpt>
      <trkpt lat="42.296715000" lon="-2.501496000">
        <ele>1143.20</ele>
        <time>2012-11-24T12:11:23Z</time>
      </trkpt>
      <trkpt lat="42.296715000" lon="-2.501496000">
        <ele>1143.20</ele>
        <time>2012-11-24T12:11:27Z</time>
      </trkpt>
      <trkpt lat="42.296716000" lon="-2.501496000">
        <ele>1143.10</ele>
        <time>2012-11-24T12:11:29Z</time>
      </trkpt>
      <trkpt lat="42.296716000" lon="-2.501498000">
        <ele>1143.10</ele>
        <time>2012-11-24T12:11:32Z</time>
      </trkpt>
      <trkpt lat="42.296718000" lon="-2.501498000">
        <ele>1143.00</ele>
        <time>2012-11-24T12:11:36Z</time>
      </trkpt>
      <trkpt lat="42.296716000" lon="-2.501499000">
        <ele>1143.00</ele>
        <time>2012-11-24T12:11:46Z</time>
      </trkpt>
      <trkpt lat="42.296720000" lon="-2.501499000">
        <ele>1143.00</ele>
        <time>2012-11-24T12:11:53Z</time>
      </trkpt>
      <trkpt lat="42.296720000" lon="-2.501499000">
        <ele>1143.00</ele>
        <time>2012-11-24T12:11:53Z</time>
      </trkpt>
      <trkpt lat="42.296723000" lon="-2.501499000">
        <ele>1142.90</ele>
        <time>2012-11-24T12:11:58Z</time>
      </trkpt>
      <trkpt lat="42.296723000" lon="-2.501499000">
        <ele>1142.90</ele>
        <time>2012-11-24T12:12:00Z</time>
      </trkpt>
      <trkpt lat="42.296725000" lon="-2.501499000">
        <ele>1142.80</ele>
        <time>2012-11-24T12:12:02Z</time>
      </trkpt>
      <trkpt lat="42.296726000" lon="-2.501499000">
        <ele>1142.70</ele>
        <time>2012-11-24T12:12:04Z</time>
      </trkpt>
      <trkpt lat="42.296726000" lon="-2.501501000">
        <ele>1142.70</ele>
        <time>2012-11-24T12:12:05Z</time>
      </trkpt>
      <trkpt lat="42.296728000" lon="-2.501501000">
        <ele>1142.70</ele>
        <time>2012-11-24T12:12:07Z</time>
      </trkpt>
      <trkpt lat="42.296728000" lon="-2.501501000">
        <ele>1142.70</ele>
        <time>2012-11-24T12:12:09Z</time>
      </trkpt>
      <trkpt lat="42.296730000" lon="-2.501501000">
        <ele>1142.60</ele>
        <time>2012-11-24T12:12:09Z</time>
      </trkpt>
      <trkpt lat="42.296731000" lon="-2.501499000">
        <ele>1142.60</ele>
        <time>2012-11-24T12:12:12Z</time>
      </trkpt>
      <trkpt lat="42.296731000" lon="-2.501501000">
        <ele>1142.60</ele>
        <time>2012-11-24T12:12:12Z</time>
      </trkpt>
      <trkpt lat="42.296731000" lon="-2.501499000">
        <ele>1142.60</ele>
        <time>2012-11-24T12:12:14Z</time>
      </trkpt>
      <trkpt lat="42.296733000" lon="-2.501501000">
        <ele>1142.50</ele>
        <time>2012-11-24T12:12:14Z</time>
      </trkpt>
      <trkpt lat="42.296735000" lon="-2.501501000">
        <ele>1142.50</ele>
        <time>2012-11-24T12:12:16Z</time>
      </trkpt>
      <trkpt lat="42.296735000" lon="-2.501499000">
        <ele>1142.50</ele>
        <time>2012-11-24T12:12:17Z</time>
      </trkpt>
      <trkpt lat="42.296736000" lon="-2.501499000">
        <ele>1142.40</ele>
        <time>2012-11-24T12:12:19Z</time>
      </trkpt>
      <trkpt lat="42.296738000" lon="-2.501499000">
        <ele>1142.40</ele>
        <time>2012-11-24T12:12:21Z</time>
      </trkpt>
      <trkpt lat="42.296743000" lon="-2.501499000">
        <ele>1142.20</ele>
        <time>2012-11-24T12:12:28Z</time>
      </trkpt>
      <trkpt lat="42.296745000" lon="-2.501499000">
        <ele>1142.20</ele>
        <time>2012-11-24T12:12:30Z</time>
      </trkpt>
      <trkpt lat="42.296745000" lon="-2.501499000">
        <ele>1142.20</ele>
        <time>2012-11-24T12:12:33Z</time>
      </trkpt>
      <trkpt lat="42.296748000" lon="-2.501499000">
        <ele>1142.10</ele>
        <time>2012-11-24T12:12:37Z</time>
      </trkpt>
      <trkpt lat="42.296748000" lon="-2.501499000">
        <ele>1142.10</ele>
        <time>2012-11-24T12:12:37Z</time>
      </trkpt>
      <trkpt lat="42.296751000" lon="-2.501499000">
        <ele>1142.00</ele>
        <time>2012-11-24T12:12:42Z</time>
      </trkpt>
      <trkpt lat="42.296751000" lon="-2.501499000">
        <ele>1142.00</ele>
        <time>2012-11-24T12:12:44Z</time>
      </trkpt>
      <trkpt lat="42.296753000" lon="-2.501499000">
        <ele>1141.90</ele>
        <time>2012-11-24T12:12:45Z</time>
      </trkpt>
      <trkpt lat="42.296755000" lon="-2.501499000">
        <ele>1141.80</ele>
        <time>2012-11-24T12:12:49Z</time>
      </trkpt>
      <trkpt lat="42.296756000" lon="-2.501499000">
        <ele>1141.80</ele>
        <time>2012-11-24T12:12:52Z</time>
      </trkpt>
      <trkpt lat="42.296758000" lon="-2.501499000">
        <ele>1141.70</ele>
        <time>2012-11-24T12:12:56Z</time>
      </trkpt>
      <trkpt lat="42.296760000" lon="-2.501499000">
        <ele>1141.70</ele>
        <time>2012-11-24T12:13:01Z</time>
      </trkpt>
      <trkpt lat="42.296761000" lon="-2.501499000">
        <ele>1141.60</ele>
        <time>2012-11-24T12:13:06Z</time>
      </trkpt>
      <trkpt lat="42.296763000" lon="-2.501499000">
        <ele>1141.60</ele>
        <time>2012-11-24T12:13:10Z</time>
      </trkpt>
      <trkpt lat="42.296765000" lon="-2.501499000">
        <ele>1141.50</ele>
        <time>2012-11-24T12:13:13Z</time>
      </trkpt>
      <trkpt lat="42.296766000" lon="-2.501499000">
        <ele>1141.50</ele>
        <time>2012-11-24T12:13:18Z</time>
      </trkpt>
      <trkpt lat="42.296766000" lon="-2.501501000">
        <ele>1141.40</ele>
        <time>2012-11-24T12:13:20Z</time>
      </trkpt>
      <trkpt lat="42.296768000" lon="-2.501503000">
        <ele>1141.40</ele>
        <time>2012-11-24T12:13:29Z</time>
      </trkpt>
      <trkpt lat="42.296768000" lon="-2.501503000">
        <ele>1141.40</ele>
        <time>2012-11-24T12:13:29Z</time>
      </trkpt>
      <trkpt lat="42.296770000" lon="-2.501504000">
        <ele>1141.30</ele>
        <time>2012-11-24T12:13:36Z</time>
      </trkpt>
      <trkpt lat="42.296770000" lon="-2.501506000">
        <ele>1141.20</ele>
        <time>2012-11-24T12:13:41Z</time>
      </trkpt>
      <trkpt lat="42.296773000" lon="-2.501504000">
        <ele>1141.20</ele>
        <time>2012-11-24T12:13:45Z</time>
      </trkpt>
      <trkpt lat="42.296778000" lon="-2.501506000">
        <ele>1141.10</ele>
        <time>2012-11-24T12:13:46Z</time>
      </trkpt>
      <trkpt lat="42.297060000" lon="-2.501403000">
        <ele>1134.90</ele>
        <time>2012-11-24T12:14:00Z</time>
      </trkpt>
      <trkpt lat="42.297123000" lon="-2.501363000">
        <ele>1133.80</ele>
        <time>2012-11-24T12:14:02Z</time>
      </trkpt>
      <trkpt lat="42.297336000" lon="-2.501108000">
        <ele>1133.80</ele>
        <time>2012-11-24T12:14:07Z</time>
      </trkpt>
      <trkpt lat="42.297366000" lon="-2.501051000">
        <ele>1134.00</ele>
        <time>2012-11-24T12:14:09Z</time>
      </trkpt>
      <trkpt lat="42.297456000" lon="-2.500779000">
        <ele>1135.80</ele>
        <time>2012-11-24T12:14:12Z</time>
      </trkpt>
      <trkpt lat="42.297486000" lon="-2.500714000">
        <ele>1136.10</ele>
        <time>2012-11-24T12:14:14Z</time>
      </trkpt>
      <trkpt lat="42.297518000" lon="-2.500673000">
        <ele>1136.30</ele>
        <time>2012-11-24T12:14:14Z</time>
      </trkpt>
      <trkpt lat="42.297558000" lon="-2.500653000">
        <ele>1136.10</ele>
        <time>2012-11-24T12:14:16Z</time>
      </trkpt>
      <trkpt lat="42.297735000" lon="-2.500633000">
        <ele>1133.20</ele>
        <time>2012-11-24T12:14:18Z</time>
      </trkpt>
      <trkpt lat="42.298506000" lon="-2.500741000">
        <ele>1116.70</ele>
        <time>2012-11-24T12:14:33Z</time>
      </trkpt>
      <trkpt lat="42.298551000" lon="-2.500738000">
        <ele>1115.80</ele>
        <time>2012-11-24T12:14:33Z</time>
      </trkpt>
      <trkpt lat="42.298596000" lon="-2.500726000">
        <ele>1115.00</ele>
        <time>2012-11-24T12:14:35Z</time>
      </trkpt>
      <trkpt lat="42.298703000" lon="-2.500671000">
        <ele>1113.30</ele>
        <time>2012-11-24T12:14:37Z</time>
      </trkpt>
      <trkpt lat="42.298730000" lon="-2.500643000">
        <ele>1113.00</ele>
        <time>2012-11-24T12:14:39Z</time>
      </trkpt>
      <trkpt lat="42.298753000" lon="-2.500608000">
        <ele>1112.80</ele>
        <time>2012-11-24T12:14:40Z</time>
      </trkpt>
      <trkpt lat="42.298773000" lon="-2.500561000">
        <ele>1112.80</ele>
        <time>2012-11-24T12:14:40Z</time>
      </trkpt>
      <trkpt lat="42.298830000" lon="-2.500364000">
        <ele>1113.40</ele>
        <time>2012-11-24T12:14:44Z</time>
      </trkpt>
      <trkpt lat="42.298871000" lon="-2.500306000">
        <ele>1113.40</ele>
        <time>2012-11-24T12:14:44Z</time>
      </trkpt>
      <trkpt lat="42.298923000" lon="-2.500266000">
        <ele>1113.10</ele>
        <time>2012-11-24T12:14:46Z</time>
      </trkpt>
      <trkpt lat="42.298973000" lon="-2.500249000">
        <ele>1112.50</ele>
        <time>2012-11-24T12:14:47Z</time>
      </trkpt>
      <trkpt lat="42.299020000" lon="-2.500253000">
        <ele>1112.00</ele>
        <time>2012-11-24T12:14:47Z</time>
      </trkpt>
      <trkpt lat="42.299051000" lon="-2.500276000">
        <ele>1110.80</ele>
        <time>2012-11-24T12:14:49Z</time>
      </trkpt>
      <trkpt lat="42.299071000" lon="-2.500319000">
        <ele>1109.90</ele>
        <time>2012-11-24T12:14:49Z</time>
      </trkpt>
      <trkpt lat="42.299078000" lon="-2.500373000">
        <ele>1109.20</ele>
        <time>2012-11-24T12:14:51Z</time>
      </trkpt>
      <trkpt lat="42.299066000" lon="-2.500553000">
        <ele>1107.50</ele>
        <time>2012-11-24T12:14:54Z</time>
      </trkpt>
      <trkpt lat="42.299076000" lon="-2.500624000">
        <ele>1106.90</ele>
        <time>2012-11-24T12:14:54Z</time>
      </trkpt>
      <trkpt lat="42.299096000" lon="-2.500699000">
        <ele>1106.00</ele>
        <time>2012-11-24T12:14:56Z</time>
      </trkpt>
      <trkpt lat="42.299305000" lon="-2.501099000">
        <ele>1099.80</ele>
        <time>2012-11-24T12:15:01Z</time>
      </trkpt>
      <trkpt lat="42.299360000" lon="-2.501164000">
        <ele>1098.40</ele>
        <time>2012-11-24T12:15:01Z</time>
      </trkpt>
      <trkpt lat="42.299421000" lon="-2.501214000">
        <ele>1097.10</ele>
        <time>2012-11-24T12:15:03Z</time>
      </trkpt>
      <trkpt lat="42.299623000" lon="-2.501298000">
        <ele>1093.60</ele>
        <time>2012-11-24T12:15:05Z</time>
      </trkpt>
      <trkpt lat="42.299983000" lon="-2.501351000">
        <ele>1090.40</ele>
        <time>2012-11-24T12:15:10Z</time>
      </trkpt>
      <trkpt lat="42.300113000" lon="-2.501406000">
        <ele>1089.50</ele>
        <time>2012-11-24T12:15:12Z</time>
      </trkpt>
      <trkpt lat="42.300220000" lon="-2.501501000">
        <ele>1088.80</ele>
        <time>2012-11-24T12:15:15Z</time>
      </trkpt>
      <trkpt lat="42.300281000" lon="-2.501536000">
        <ele>1088.50</ele>
        <time>2012-11-24T12:15:15Z</time>
      </trkpt>
      <trkpt lat="42.300348000" lon="-2.501558000">
        <ele>1088.20</ele>
        <time>2012-11-24T12:15:17Z</time>
      </trkpt>
      <trkpt lat="42.300413000" lon="-2.501564000">
        <ele>1088.00</ele>
        <time>2012-11-24T12:15:17Z</time>
      </trkpt>
      <trkpt lat="42.300548000" lon="-2.501559000">
        <ele>1087.10</ele>
        <time>2012-11-24T12:15:19Z</time>
      </trkpt>
      <trkpt lat="42.300670000" lon="-2.501571000">
        <ele>1086.10</ele>
        <time>2012-11-24T12:15:22Z</time>
      </trkpt>
      <trkpt lat="42.300723000" lon="-2.501593000">
        <ele>1085.70</ele>
        <time>2012-11-24T12:15:22Z</time>
      </trkpt>
      <trkpt lat="42.300771000" lon="-2.501629000">
        <ele>1085.40</ele>
        <time>2012-11-24T12:15:24Z</time>
      </trkpt>
      <trkpt lat="42.300813000" lon="-2.501683000">
        <ele>1085.20</ele>
        <time>2012-11-24T12:15:24Z</time>
      </trkpt>
      <trkpt lat="42.300888000" lon="-2.501886000">
        <ele>1085.60</ele>
        <time>2012-11-24T12:15:27Z</time>
      </trkpt>
      <trkpt lat="42.300923000" lon="-2.501944000">
        <ele>1085.80</ele>
        <time>2012-11-24T12:15:29Z</time>
      </trkpt>
      <trkpt lat="42.300968000" lon="-2.501984000">
        <ele>1086.00</ele>
        <time>2012-11-24T12:15:29Z</time>
      </trkpt>
      <trkpt lat="42.301025000" lon="-2.502004000">
        <ele>1086.00</ele>
        <time>2012-11-24T12:15:31Z</time>
      </trkpt>
      <trkpt lat="42.301083000" lon="-2.501999000">
        <ele>1085.90</ele>
        <time>2012-11-24T12:15:31Z</time>
      </trkpt>
      <trkpt lat="42.301313000" lon="-2.501843000">
        <ele>1083.40</ele>
        <time>2012-11-24T12:15:38Z</time>
      </trkpt>
      <trkpt lat="42.301326000" lon="-2.501841000">
        <ele>1083.10</ele>
        <time>2012-11-24T12:15:38Z</time>
      </trkpt>
      <trkpt lat="42.301356000" lon="-2.501844000">
        <ele>1082.60</ele>
        <time>2012-11-24T12:16:25Z</time>
      </trkpt>
      <trkpt lat="42.301358000" lon="-2.501844000">
        <ele>1082.60</ele>
        <time>2012-11-24T12:16:25Z</time>
      </trkpt>
      <trkpt lat="42.301368000" lon="-2.501851000">
        <ele>1082.60</ele>
        <time>2012-11-24T12:16:28Z</time>
      </trkpt>
      <trkpt lat="42.301388000" lon="-2.501871000">
        <ele>1082.70</ele>
        <time>2012-11-24T12:16:30Z</time>
      </trkpt>
      <trkpt lat="42.301395000" lon="-2.501879000">
        <ele>1082.70</ele>
        <time>2012-11-24T12:16:32Z</time>
      </trkpt>
      <trkpt lat="42.301510000" lon="-2.501923000">
        <ele>1082.60</ele>
        <time>2012-11-24T12:16:37Z</time>
      </trkpt>
      <trkpt lat="42.301548000" lon="-2.501929000">
        <ele>1082.50</ele>
        <time>2012-11-24T12:16:39Z</time>
      </trkpt>
      <trkpt lat="42.302026000" lon="-2.501894000">
        <ele>1079.40</ele>
        <time>2012-11-24T12:16:46Z</time>
      </trkpt>
      <trkpt lat="42.302093000" lon="-2.501908000">
        <ele>1079.00</ele>
        <time>2012-11-24T12:16:48Z</time>
      </trkpt>
      <trkpt lat="42.302161000" lon="-2.501939000">
        <ele>1078.50</ele>
        <time>2012-11-24T12:16:49Z</time>
      </trkpt>
      <trkpt lat="42.302496000" lon="-2.502204000">
        <ele>1076.30</ele>
        <time>2012-11-24T12:16:53Z</time>
      </trkpt>
      <trkpt lat="42.302686000" lon="-2.502439000">
        <ele>1075.20</ele>
        <time>2012-11-24T12:16:56Z</time>
      </trkpt>
      <trkpt lat="42.303003000" lon="-2.502704000">
        <ele>1071.40</ele>
        <time>2012-11-24T12:17:00Z</time>
      </trkpt>
      <trkpt lat="42.303090000" lon="-2.502734000">
        <ele>1070.60</ele>
        <time>2012-11-24T12:17:01Z</time>
      </trkpt>
      <trkpt lat="42.303238000" lon="-2.502734000">
        <ele>1069.10</ele>
        <time>2012-11-24T12:17:03Z</time>
      </trkpt>
      <trkpt lat="42.303280000" lon="-2.502758000">
        <ele>1068.50</ele>
        <time>2012-11-24T12:17:05Z</time>
      </trkpt>
      <trkpt lat="42.303361000" lon="-2.502881000">
        <ele>1067.90</ele>
        <time>2012-11-24T12:17:08Z</time>
      </trkpt>
      <trkpt lat="42.303405000" lon="-2.502971000">
        <ele>1068.00</ele>
        <time>2012-11-24T12:17:12Z</time>
      </trkpt>
      <trkpt lat="42.303443000" lon="-2.503091000">
        <ele>1068.20</ele>
        <time>2012-11-24T12:17:15Z</time>
      </trkpt>
      <trkpt lat="42.303458000" lon="-2.503109000">
        <ele>1068.20</ele>
        <time>2012-11-24T12:17:17Z</time>
      </trkpt>
      <trkpt lat="42.303476000" lon="-2.503113000">
        <ele>1068.20</ele>
        <time>2012-11-24T12:17:17Z</time>
      </trkpt>
      <trkpt lat="42.303496000" lon="-2.503104000">
        <ele>1068.00</ele>
        <time>2012-11-24T12:17:19Z</time>
      </trkpt>
      <trkpt lat="42.303558000" lon="-2.503048000">
        <ele>1067.20</ele>
        <time>2012-11-24T12:17:22Z</time>
      </trkpt>
      <trkpt lat="42.303686000" lon="-2.502964000">
        <ele>1065.30</ele>
        <time>2012-11-24T12:17:28Z</time>
      </trkpt>
      <trkpt lat="42.303703000" lon="-2.502948000">
        <ele>1065.10</ele>
        <time>2012-11-24T12:17:29Z</time>
      </trkpt>
      <trkpt lat="42.303821000" lon="-2.502876000">
        <ele>1064.40</ele>
        <time>2012-11-24T12:17:35Z</time>
      </trkpt>
      <trkpt lat="42.303853000" lon="-2.502871000">
        <ele>1064.70</ele>
        <time>2012-11-24T12:17:36Z</time>
      </trkpt>
      <trkpt lat="42.303883000" lon="-2.502874000">
        <ele>1065.10</ele>
        <time>2012-11-24T12:17:38Z</time>
      </trkpt>
      <trkpt lat="42.303900000" lon="-2.502881000">
        <ele>1065.30</ele>
        <time>2012-11-24T12:17:40Z</time>
      </trkpt>
      <trkpt lat="42.303950000" lon="-2.502891000">
        <ele>1065.90</ele>
        <time>2012-11-24T12:17:43Z</time>
      </trkpt>
      <trkpt lat="42.303978000" lon="-2.502891000">
        <ele>1066.30</ele>
        <time>2012-11-24T12:17:45Z</time>
      </trkpt>
      <trkpt lat="42.304003000" lon="-2.502896000">
        <ele>1066.60</ele>
        <time>2012-11-24T12:17:47Z</time>
      </trkpt>
      <trkpt lat="42.304026000" lon="-2.502894000">
        <ele>1066.90</ele>
        <time>2012-11-24T12:17:48Z</time>
      </trkpt>
      <trkpt lat="42.304038000" lon="-2.502891000">
        <ele>1067.10</ele>
        <time>2012-11-24T12:17:50Z</time>
      </trkpt>
      <trkpt lat="42.304050000" lon="-2.502884000">
        <ele>1067.20</ele>
        <time>2012-11-24T12:17:50Z</time>
      </trkpt>
      <trkpt lat="42.304063000" lon="-2.502879000">
        <ele>1067.30</ele>
        <time>2012-11-24T12:17:52Z</time>
      </trkpt>
      <trkpt lat="42.304078000" lon="-2.502878000">
        <ele>1067.50</ele>
        <time>2012-11-24T12:17:52Z</time>
      </trkpt>
      <trkpt lat="42.304103000" lon="-2.502881000">
        <ele>1067.80</ele>
        <time>2012-11-24T12:17:54Z</time>
      </trkpt>
      <trkpt lat="42.304118000" lon="-2.502878000">
        <ele>1067.90</ele>
        <time>2012-11-24T12:17:55Z</time>
      </trkpt>
      <trkpt lat="42.304151000" lon="-2.502878000">
        <ele>1068.30</ele>
        <time>2012-11-24T12:17:59Z</time>
      </trkpt>
      <trkpt lat="42.304163000" lon="-2.502874000">
        <ele>1068.50</ele>
        <time>2012-11-24T12:17:59Z</time>
      </trkpt>
      <trkpt lat="42.304173000" lon="-2.502866000">
        <ele>1068.60</ele>
        <time>2012-11-24T12:18:01Z</time>
      </trkpt>
      <trkpt lat="42.304190000" lon="-2.502836000">
        <ele>1068.70</ele>
        <time>2012-11-24T12:18:02Z</time>
      </trkpt>
      <trkpt lat="42.304216000" lon="-2.502769000">
        <ele>1068.60</ele>
        <time>2012-11-24T12:18:06Z</time>
      </trkpt>
      <trkpt lat="42.304223000" lon="-2.502739000">
        <ele>1068.50</ele>
        <time>2012-11-24T12:18:06Z</time>
      </trkpt>
      <trkpt lat="42.304261000" lon="-2.502644000">
        <ele>1068.30</ele>
        <time>2012-11-24T12:18:09Z</time>
      </trkpt>
      <trkpt lat="42.304328000" lon="-2.502533000">
        <ele>1068.30</ele>
        <time>2012-11-24T12:18:13Z</time>
      </trkpt>
      <trkpt lat="42.304356000" lon="-2.502393000">
        <ele>1067.80</ele>
        <time>2012-11-24T12:18:18Z</time>
      </trkpt>
      <trkpt lat="42.304401000" lon="-2.502286000">
        <ele>1067.50</ele>
        <time>2012-11-24T12:18:20Z</time>
      </trkpt>
      <trkpt lat="42.304521000" lon="-2.502104000">
        <ele>1067.40</ele>
        <time>2012-11-24T12:18:27Z</time>
      </trkpt>
      <trkpt lat="42.304545000" lon="-2.502084000">
        <ele>1067.50</ele>
        <time>2012-11-24T12:18:29Z</time>
      </trkpt>
      <trkpt lat="42.304671000" lon="-2.502019000">
        <ele>1067.30</ele>
        <time>2012-11-24T12:18:34Z</time>
      </trkpt>
      <trkpt lat="42.304695000" lon="-2.501998000">
        <ele>1067.20</ele>
        <time>2012-11-24T12:18:34Z</time>
      </trkpt>
      <trkpt lat="42.305201000" lon="-2.501849000">
        <ele>1065.60</ele>
        <time>2012-11-24T12:18:46Z</time>
      </trkpt>
      <trkpt lat="42.305411000" lon="-2.501826000">
        <ele>1065.60</ele>
        <time>2012-11-24T12:18:51Z</time>
      </trkpt>
      <trkpt lat="42.305446000" lon="-2.501828000">
        <ele>1065.40</ele>
        <time>2012-11-24T12:18:53Z</time>
      </trkpt>
      <trkpt lat="42.305476000" lon="-2.501839000">
        <ele>1065.30</ele>
        <time>2012-11-24T12:18:53Z</time>
      </trkpt>
      <trkpt lat="42.305575000" lon="-2.501913000">
        <ele>1065.00</ele>
        <time>2012-11-24T12:18:58Z</time>
      </trkpt>
      <trkpt lat="42.305605000" lon="-2.501928000">
        <ele>1064.90</ele>
        <time>2012-11-24T12:18:58Z</time>
      </trkpt>
      <trkpt lat="42.305635000" lon="-2.501933000">
        <ele>1064.80</ele>
        <time>2012-11-24T12:19:00Z</time>
      </trkpt>
      <trkpt lat="42.305708000" lon="-2.501916000">
        <ele>1064.10</ele>
        <time>2012-11-24T12:19:02Z</time>
      </trkpt>
      <trkpt lat="42.305746000" lon="-2.501916000">
        <ele>1063.60</ele>
        <time>2012-11-24T12:19:02Z</time>
      </trkpt>
      <trkpt lat="42.305781000" lon="-2.501909000">
        <ele>1063.20</ele>
        <time>2012-11-24T12:19:03Z</time>
      </trkpt>
      <trkpt lat="42.305853000" lon="-2.501881000">
        <ele>1062.20</ele>
        <time>2012-11-24T12:19:05Z</time>
      </trkpt>
      <trkpt lat="42.306068000" lon="-2.501924000">
        <ele>1060.10</ele>
        <time>2012-11-24T12:19:12Z</time>
      </trkpt>
      <trkpt lat="42.306270000" lon="-2.501899000">
        <ele>1057.80</ele>
        <time>2012-11-24T12:19:17Z</time>
      </trkpt>
      <trkpt lat="42.306298000" lon="-2.501906000">
        <ele>1057.50</ele>
        <time>2012-11-24T12:19:17Z</time>
      </trkpt>
      <trkpt lat="42.306320000" lon="-2.501921000">
        <ele>1057.40</ele>
        <time>2012-11-24T12:19:19Z</time>
      </trkpt>
      <trkpt lat="42.306375000" lon="-2.501998000">
        <ele>1057.30</ele>
        <time>2012-11-24T12:19:24Z</time>
      </trkpt>
      <trkpt lat="42.306388000" lon="-2.502028000">
        <ele>1057.40</ele>
        <time>2012-11-24T12:19:26Z</time>
      </trkpt>
      <trkpt lat="42.306395000" lon="-2.502043000">
        <ele>1057.40</ele>
        <time>2012-11-24T12:19:28Z</time>
      </trkpt>
      <trkpt lat="42.306396000" lon="-2.502048000">
        <ele>1057.50</ele>
        <time>2012-11-24T12:19:28Z</time>
      </trkpt>
      <trkpt lat="42.306403000" lon="-2.502054000">
        <ele>1057.50</ele>
        <time>2012-11-24T12:19:31Z</time>
      </trkpt>
      <trkpt lat="42.306411000" lon="-2.502069000">
        <ele>1057.50</ele>
        <time>2012-11-24T12:19:33Z</time>
      </trkpt>
      <trkpt lat="42.306423000" lon="-2.502108000">
        <ele>1057.50</ele>
        <time>2012-11-24T12:19:36Z</time>
      </trkpt>
      <trkpt lat="42.306426000" lon="-2.502123000">
        <ele>1057.40</ele>
        <time>2012-11-24T12:19:38Z</time>
      </trkpt>
      <trkpt lat="42.306421000" lon="-2.502231000">
        <ele>1057.10</ele>
        <time>2012-11-24T12:19:42Z</time>
      </trkpt>
      <trkpt lat="42.306428000" lon="-2.502261000">
        <ele>1057.00</ele>
        <time>2012-11-24T12:19:43Z</time>
      </trkpt>
      <trkpt lat="42.306443000" lon="-2.502284000">
        <ele>1056.80</ele>
        <time>2012-11-24T12:19:45Z</time>
      </trkpt>
      <trkpt lat="42.306505000" lon="-2.502346000">
        <ele>1056.10</ele>
        <time>2012-11-24T12:19:47Z</time>
      </trkpt>
      <trkpt lat="42.306555000" lon="-2.502384000">
        <ele>1055.50</ele>
        <time>2012-11-24T12:19:49Z</time>
      </trkpt>
      <trkpt lat="42.306573000" lon="-2.502411000">
        <ele>1055.20</ele>
        <time>2012-11-24T12:19:50Z</time>
      </trkpt>
      <trkpt lat="42.306616000" lon="-2.502486000">
        <ele>1054.50</ele>
        <time>2012-11-24T12:19:52Z</time>
      </trkpt>
      <trkpt lat="42.306671000" lon="-2.502531000">
        <ele>1053.70</ele>
        <time>2012-11-24T12:19:54Z</time>
      </trkpt>
      <trkpt lat="42.306790000" lon="-2.502596000">
        <ele>1052.10</ele>
        <time>2012-11-24T12:19:59Z</time>
      </trkpt>
      <trkpt lat="42.306898000" lon="-2.502671000">
        <ele>1050.60</ele>
        <time>2012-11-24T12:20:01Z</time>
      </trkpt>
      <trkpt lat="42.307020000" lon="-2.502826000">
        <ele>1048.20</ele>
        <time>2012-11-24T12:20:06Z</time>
      </trkpt>
      <trkpt lat="42.307051000" lon="-2.502856000">
        <ele>1047.60</ele>
        <time>2012-11-24T12:20:06Z</time>
      </trkpt>
      <trkpt lat="42.307153000" lon="-2.502919000">
        <ele>1046.40</ele>
        <time>2012-11-24T12:20:10Z</time>
      </trkpt>
      <trkpt lat="42.307216000" lon="-2.502944000">
        <ele>1046.30</ele>
        <time>2012-11-24T12:20:11Z</time>
      </trkpt>
      <trkpt lat="42.307390000" lon="-2.502969000">
        <ele>1046.70</ele>
        <time>2012-11-24T12:20:18Z</time>
      </trkpt>
      <trkpt lat="42.307466000" lon="-2.502969000">
        <ele>1046.90</ele>
        <time>2012-11-24T12:20:20Z</time>
      </trkpt>
      <trkpt lat="42.307511000" lon="-2.502974000">
        <ele>1047.00</ele>
        <time>2012-11-24T12:20:22Z</time>
      </trkpt>
      <trkpt lat="42.307651000" lon="-2.503011000">
        <ele>1047.40</ele>
        <time>2012-11-24T12:20:29Z</time>
      </trkpt>
      <trkpt lat="42.307675000" lon="-2.503011000">
        <ele>1047.50</ele>
        <time>2012-11-24T12:20:29Z</time>
      </trkpt>
      <trkpt lat="42.307726000" lon="-2.503016000">
        <ele>1047.60</ele>
        <time>2012-11-24T12:20:32Z</time>
      </trkpt>
      <trkpt lat="42.307730000" lon="-2.503019000">
        <ele>1047.70</ele>
        <time>2012-11-24T12:20:34Z</time>
      </trkpt>
      <trkpt lat="42.307733000" lon="-2.503021000">
        <ele>1047.70</ele>
        <time>2012-11-24T12:20:36Z</time>
      </trkpt>
      <trkpt lat="42.307741000" lon="-2.503018000">
        <ele>1047.70</ele>
        <time>2012-11-24T12:20:39Z</time>
      </trkpt>
      <trkpt lat="42.307746000" lon="-2.503023000">
        <ele>1047.70</ele>
        <time>2012-11-24T12:20:41Z</time>
      </trkpt>
      <trkpt lat="42.307746000" lon="-2.503021000">
        <ele>1047.70</ele>
        <time>2012-11-24T12:20:43Z</time>
      </trkpt>
      <trkpt lat="42.307736000" lon="-2.503014000">
        <ele>1047.70</ele>
        <time>2012-11-24T12:20:46Z</time>
      </trkpt>
      <trkpt lat="42.307740000" lon="-2.503016000">
        <ele>1047.70</ele>
        <time>2012-11-24T12:20:48Z</time>
      </trkpt>
      <trkpt lat="42.307740000" lon="-2.503009000">
        <ele>1047.70</ele>
        <time>2012-11-24T12:20:50Z</time>
      </trkpt>
      <trkpt lat="42.307743000" lon="-2.503013000">
        <ele>1047.70</ele>
        <time>2012-11-24T12:20:50Z</time>
      </trkpt>
      <trkpt lat="42.307745000" lon="-2.503009000">
        <ele>1047.70</ele>
        <time>2012-11-24T12:20:53Z</time>
      </trkpt>
      <trkpt lat="42.307745000" lon="-2.503009000">
        <ele>1047.70</ele>
        <time>2012-11-24T12:20:53Z</time>
      </trkpt>
      <trkpt lat="42.307746000" lon="-2.503011000">
        <ele>1047.70</ele>
        <time>2012-11-24T12:20:55Z</time>
      </trkpt>
      <trkpt lat="42.307746000" lon="-2.503016000">
        <ele>1047.70</ele>
        <time>2012-11-24T12:20:57Z</time>
      </trkpt>
      <trkpt lat="42.307746000" lon="-2.503014000">
        <ele>1047.70</ele>
        <time>2012-11-24T12:20:58Z</time>
      </trkpt>
      <trkpt lat="42.307751000" lon="-2.503011000">
        <ele>1047.70</ele>
        <time>2012-11-24T12:21:00Z</time>
      </trkpt>
      <trkpt lat="42.307763000" lon="-2.503009000">
        <ele>1047.70</ele>
        <time>2012-11-24T12:21:00Z</time>
      </trkpt>
      <trkpt lat="42.307816000" lon="-2.503014000">
        <ele>1047.70</ele>
        <time>2012-11-24T12:21:04Z</time>
      </trkpt>
      <trkpt lat="42.307836000" lon="-2.503016000">
        <ele>1047.80</ele>
        <time>2012-11-24T12:21:07Z</time>
      </trkpt>
      <trkpt lat="42.307843000" lon="-2.503016000">
        <ele>1047.80</ele>
        <time>2012-11-24T12:21:12Z</time>
      </trkpt>
      <trkpt lat="42.307845000" lon="-2.503014000">
        <ele>1047.80</ele>
        <time>2012-11-24T12:21:14Z</time>
      </trkpt>
      <trkpt lat="42.307855000" lon="-2.503014000">
        <ele>1047.80</ele>
        <time>2012-11-24T12:21:14Z</time>
      </trkpt>
      <trkpt lat="42.307868000" lon="-2.503016000">
        <ele>1047.80</ele>
        <time>2012-11-24T12:21:16Z</time>
      </trkpt>
      <trkpt lat="42.307883000" lon="-2.503024000">
        <ele>1047.90</ele>
        <time>2012-11-24T12:21:16Z</time>
      </trkpt>
      <trkpt lat="42.307886000" lon="-2.503026000">
        <ele>1047.90</ele>
        <time>2012-11-24T12:21:19Z</time>
      </trkpt>
      <trkpt lat="42.307886000" lon="-2.503026000">
        <ele>1047.90</ele>
        <time>2012-11-24T12:21:19Z</time>
      </trkpt>
      <trkpt lat="42.307910000" lon="-2.503029000">
        <ele>1048.00</ele>
        <time>2012-11-24T12:21:26Z</time>
      </trkpt>
      <trkpt lat="42.307923000" lon="-2.503039000">
        <ele>1048.00</ele>
        <time>2012-11-24T12:21:28Z</time>
      </trkpt>
      <trkpt lat="42.307926000" lon="-2.503046000">
        <ele>1048.00</ele>
        <time>2012-11-24T12:21:28Z</time>
      </trkpt>
      <trkpt lat="42.307926000" lon="-2.503046000">
        <ele>1048.00</ele>
        <time>2012-11-24T12:21:30Z</time>
      </trkpt>
      <trkpt lat="42.307931000" lon="-2.503046000">
        <ele>1047.90</ele>
        <time>2012-11-24T12:21:30Z</time>
      </trkpt>
      <trkpt lat="42.307931000" lon="-2.503049000">
        <ele>1047.90</ele>
        <time>2012-11-24T12:21:33Z</time>
      </trkpt>
      <trkpt lat="42.307936000" lon="-2.503053000">
        <ele>1047.90</ele>
        <time>2012-11-24T12:21:33Z</time>
      </trkpt>
      <trkpt lat="42.307951000" lon="-2.503064000">
        <ele>1047.70</ele>
        <time>2012-11-24T12:21:35Z</time>
      </trkpt>
      <trkpt lat="42.307958000" lon="-2.503073000">
        <ele>1047.60</ele>
        <time>2012-11-24T12:21:37Z</time>
      </trkpt>
      <trkpt lat="42.307968000" lon="-2.503086000">
        <ele>1047.50</ele>
        <time>2012-11-24T12:21:38Z</time>
      </trkpt>
      <trkpt lat="42.307973000" lon="-2.503091000">
        <ele>1047.40</ele>
        <time>2012-11-24T12:21:40Z</time>
      </trkpt>
      <trkpt lat="42.307976000" lon="-2.503096000">
        <ele>1047.40</ele>
        <time>2012-11-24T12:21:40Z</time>
      </trkpt>
      <trkpt lat="42.307988000" lon="-2.503108000">
        <ele>1047.20</ele>
        <time>2012-11-24T12:21:42Z</time>
      </trkpt>
      <trkpt lat="42.307995000" lon="-2.503111000">
        <ele>1047.10</ele>
        <time>2012-11-24T12:21:44Z</time>
      </trkpt>
      <trkpt lat="42.308000000" lon="-2.503116000">
        <ele>1047.00</ele>
        <time>2012-11-24T12:21:45Z</time>
      </trkpt>
      <trkpt lat="42.308005000" lon="-2.503121000">
        <ele>1047.00</ele>
        <time>2012-11-24T12:21:45Z</time>
      </trkpt>
      <trkpt lat="42.308020000" lon="-2.503138000">
        <ele>1046.70</ele>
        <time>2012-11-24T12:21:49Z</time>
      </trkpt>
      <trkpt lat="42.308020000" lon="-2.503141000">
        <ele>1046.70</ele>
        <time>2012-11-24T12:21:51Z</time>
      </trkpt>
      <trkpt lat="42.308018000" lon="-2.503143000">
        <ele>1046.70</ele>
        <time>2012-11-24T12:21:52Z</time>
      </trkpt>
      <trkpt lat="42.308020000" lon="-2.503143000">
        <ele>1046.70</ele>
        <time>2012-11-24T12:21:52Z</time>
      </trkpt>
      <trkpt lat="42.308026000" lon="-2.503149000">
        <ele>1046.70</ele>
        <time>2012-11-24T12:21:56Z</time>
      </trkpt>
      <trkpt lat="42.308041000" lon="-2.503156000">
        <ele>1046.40</ele>
        <time>2012-11-24T12:21:59Z</time>
      </trkpt>
      <trkpt lat="42.308050000" lon="-2.503161000">
        <ele>1046.30</ele>
        <time>2012-11-24T12:21:59Z</time>
      </trkpt>
      <trkpt lat="42.308056000" lon="-2.503166000">
        <ele>1046.20</ele>
        <time>2012-11-24T12:22:01Z</time>
      </trkpt>
      <trkpt lat="42.308065000" lon="-2.503174000">
        <ele>1046.00</ele>
        <time>2012-11-24T12:22:03Z</time>
      </trkpt>
      <trkpt lat="42.308070000" lon="-2.503178000">
        <ele>1046.00</ele>
        <time>2012-11-24T12:22:03Z</time>
      </trkpt>
      <trkpt lat="42.308073000" lon="-2.503179000">
        <ele>1045.90</ele>
        <time>2012-11-24T12:22:05Z</time>
      </trkpt>
      <trkpt lat="42.308080000" lon="-2.503189000">
        <ele>1045.80</ele>
        <time>2012-11-24T12:22:08Z</time>
      </trkpt>
      <trkpt lat="42.308083000" lon="-2.503189000">
        <ele>1045.70</ele>
        <time>2012-11-24T12:22:08Z</time>
      </trkpt>
      <trkpt lat="42.308088000" lon="-2.503194000">
        <ele>1045.60</ele>
        <time>2012-11-24T12:22:10Z</time>
      </trkpt>
      <trkpt lat="42.308115000" lon="-2.503211000">
        <ele>1045.30</ele>
        <time>2012-11-24T12:22:13Z</time>
      </trkpt>
      <trkpt lat="42.308140000" lon="-2.503236000">
        <ele>1044.80</ele>
        <time>2012-11-24T12:22:17Z</time>
      </trkpt>
      <trkpt lat="42.308146000" lon="-2.503243000">
        <ele>1044.70</ele>
        <time>2012-11-24T12:22:18Z</time>
      </trkpt>
      <trkpt lat="42.308151000" lon="-2.503253000">
        <ele>1044.70</ele>
        <time>2012-11-24T12:22:20Z</time>
      </trkpt>
      <trkpt lat="42.308160000" lon="-2.503263000">
        <ele>1044.60</ele>
        <time>2012-11-24T12:22:20Z</time>
      </trkpt>
      <trkpt lat="42.308165000" lon="-2.503274000">
        <ele>1044.50</ele>
        <time>2012-11-24T12:22:22Z</time>
      </trkpt>
      <trkpt lat="42.308171000" lon="-2.503284000">
        <ele>1044.50</ele>
        <time>2012-11-24T12:22:22Z</time>
      </trkpt>
      <trkpt lat="42.308180000" lon="-2.503293000">
        <ele>1044.40</ele>
        <time>2012-11-24T12:22:24Z</time>
      </trkpt>
      <trkpt lat="42.308190000" lon="-2.503299000">
        <ele>1044.30</ele>
        <time>2012-11-24T12:22:24Z</time>
      </trkpt>
      <trkpt lat="42.308201000" lon="-2.503304000">
        <ele>1044.10</ele>
        <time>2012-11-24T12:22:25Z</time>
      </trkpt>
      <trkpt lat="42.308218000" lon="-2.503319000">
        <ele>1043.80</ele>
        <time>2012-11-24T12:22:27Z</time>
      </trkpt>
      <trkpt lat="42.308221000" lon="-2.503329000">
        <ele>1043.70</ele>
        <time>2012-11-24T12:22:29Z</time>
      </trkpt>
      <trkpt lat="42.308225000" lon="-2.503339000">
        <ele>1043.70</ele>
        <time>2012-11-24T12:22:29Z</time>
      </trkpt>
      <trkpt lat="42.308226000" lon="-2.503361000">
        <ele>1043.70</ele>
        <time>2012-11-24T12:22:32Z</time>
      </trkpt>
      <trkpt lat="42.308228000" lon="-2.503373000">
        <ele>1043.80</ele>
        <time>2012-11-24T12:22:34Z</time>
      </trkpt>
      <trkpt lat="42.308228000" lon="-2.503393000">
        <ele>1043.90</ele>
        <time>2012-11-24T12:22:36Z</time>
      </trkpt>
      <trkpt lat="42.308236000" lon="-2.503411000">
        <ele>1043.90</ele>
        <time>2012-11-24T12:22:38Z</time>
      </trkpt>
      <trkpt lat="42.308241000" lon="-2.503418000">
        <ele>1043.90</ele>
        <time>2012-11-24T12:22:38Z</time>
      </trkpt>
      <trkpt lat="42.308250000" lon="-2.503424000">
        <ele>1043.80</ele>
        <time>2012-11-24T12:22:39Z</time>
      </trkpt>
      <trkpt lat="42.308270000" lon="-2.503421000">
        <ele>1043.40</ele>
        <time>2012-11-24T12:22:43Z</time>
      </trkpt>
      <trkpt lat="42.308275000" lon="-2.503424000">
        <ele>1043.40</ele>
        <time>2012-11-24T12:22:43Z</time>
      </trkpt>
      <trkpt lat="42.308283000" lon="-2.503428000">
        <ele>1043.10</ele>
        <time>2012-11-24T12:22:46Z</time>
      </trkpt>
      <trkpt lat="42.308295000" lon="-2.503441000">
        <ele>1042.90</ele>
        <time>2012-11-24T12:22:48Z</time>
      </trkpt>
      <trkpt lat="42.308298000" lon="-2.503449000">
        <ele>1042.80</ele>
        <time>2012-11-24T12:22:50Z</time>
      </trkpt>
      <trkpt lat="42.308310000" lon="-2.503483000">
        <ele>1042.80</ele>
        <time>2012-11-24T12:22:53Z</time>
      </trkpt>
      <trkpt lat="42.308313000" lon="-2.503486000">
        <ele>1042.80</ele>
        <time>2012-11-24T12:22:55Z</time>
      </trkpt>
      <trkpt lat="42.308311000" lon="-2.503489000">
        <ele>1042.80</ele>
        <time>2012-11-24T12:22:57Z</time>
      </trkpt>
      <trkpt lat="42.308313000" lon="-2.503491000">
        <ele>1042.80</ele>
        <time>2012-11-24T12:22:57Z</time>
      </trkpt>
      <trkpt lat="42.308316000" lon="-2.503493000">
        <ele>1042.70</ele>
        <time>2012-11-24T12:23:00Z</time>
      </trkpt>
      <trkpt lat="42.308341000" lon="-2.503549000">
        <ele>1042.60</ele>
        <time>2012-11-24T12:23:04Z</time>
      </trkpt>
      <trkpt lat="42.308368000" lon="-2.503624000">
        <ele>1042.60</ele>
        <time>2012-11-24T12:23:09Z</time>
      </trkpt>
      <trkpt lat="42.308371000" lon="-2.503629000">
        <ele>1042.50</ele>
        <time>2012-11-24T12:23:11Z</time>
      </trkpt>
      <trkpt lat="42.308395000" lon="-2.503651000">
        <ele>1042.30</ele>
        <time>2012-11-24T12:23:12Z</time>
      </trkpt>
      <trkpt lat="42.308401000" lon="-2.503661000">
        <ele>1042.20</ele>
        <time>2012-11-24T12:23:14Z</time>
      </trkpt>
      <trkpt lat="42.308406000" lon="-2.503673000">
        <ele>1042.10</ele>
        <time>2012-11-24T12:23:14Z</time>
      </trkpt>
      <trkpt lat="42.308473000" lon="-2.503808000">
        <ele>1041.70</ele>
        <time>2012-11-24T12:23:25Z</time>
      </trkpt>
      <trkpt lat="42.308500000" lon="-2.503851000">
        <ele>1041.60</ele>
        <time>2012-11-24T12:23:28Z</time>
      </trkpt>
      <trkpt lat="42.308505000" lon="-2.503859000">
        <ele>1041.60</ele>
        <time>2012-11-24T12:23:30Z</time>
      </trkpt>
      <trkpt lat="42.308508000" lon="-2.503864000">
        <ele>1041.50</ele>
        <time>2012-11-24T12:23:30Z</time>
      </trkpt>
      <trkpt lat="42.308520000" lon="-2.503879000">
        <ele>1041.50</ele>
        <time>2012-11-24T12:23:33Z</time>
      </trkpt>
      <trkpt lat="42.308535000" lon="-2.503904000">
        <ele>1041.40</ele>
        <time>2012-11-24T12:23:33Z</time>
      </trkpt>
      <trkpt lat="42.308570000" lon="-2.503971000">
        <ele>1041.30</ele>
        <time>2012-11-24T12:23:37Z</time>
      </trkpt>
      <trkpt lat="42.308590000" lon="-2.504029000">
        <ele>1041.30</ele>
        <time>2012-11-24T12:23:39Z</time>
      </trkpt>
      <trkpt lat="42.308653000" lon="-2.504204000">
        <ele>1041.60</ele>
        <time>2012-11-24T12:23:44Z</time>
      </trkpt>
      <trkpt lat="42.308673000" lon="-2.504249000">
        <ele>1041.60</ele>
        <time>2012-11-24T12:23:46Z</time>
      </trkpt>
      <trkpt lat="42.308686000" lon="-2.504268000">
        <ele>1041.60</ele>
        <time>2012-11-24T12:23:47Z</time>
      </trkpt>
      <trkpt lat="42.308701000" lon="-2.504283000">
        <ele>1041.40</ele>
        <time>2012-11-24T12:23:47Z</time>
      </trkpt>
      <trkpt lat="42.308713000" lon="-2.504299000">
        <ele>1041.20</ele>
        <time>2012-11-24T12:23:49Z</time>
      </trkpt>
      <trkpt lat="42.308736000" lon="-2.504359000">
        <ele>1041.00</ele>
        <time>2012-11-24T12:23:51Z</time>
      </trkpt>
      <trkpt lat="42.308768000" lon="-2.504408000">
        <ele>1040.40</ele>
        <time>2012-11-24T12:23:54Z</time>
      </trkpt>
      <trkpt lat="42.308786000" lon="-2.504449000">
        <ele>1039.80</ele>
        <time>2012-11-24T12:23:56Z</time>
      </trkpt>
      <trkpt lat="42.308793000" lon="-2.504471000">
        <ele>1039.60</ele>
        <time>2012-11-24T12:23:58Z</time>
      </trkpt>
      <trkpt lat="42.308806000" lon="-2.504489000">
        <ele>1039.20</ele>
        <time>2012-11-24T12:23:58Z</time>
      </trkpt>
      <trkpt lat="42.308856000" lon="-2.504604000">
        <ele>1037.50</ele>
        <time>2012-11-24T12:24:03Z</time>
      </trkpt>
      <trkpt lat="42.308868000" lon="-2.504624000">
        <ele>1037.10</ele>
        <time>2012-11-24T12:24:05Z</time>
      </trkpt>
      <trkpt lat="42.308908000" lon="-2.504669000">
        <ele>1035.50</ele>
        <time>2012-11-24T12:24:08Z</time>
      </trkpt>
      <trkpt lat="42.308918000" lon="-2.504689000">
        <ele>1035.00</ele>
        <time>2012-11-24T12:24:08Z</time>
      </trkpt>
      <trkpt lat="42.308928000" lon="-2.504719000">
        <ele>1034.60</ele>
        <time>2012-11-24T12:24:10Z</time>
      </trkpt>
      <trkpt lat="42.308965000" lon="-2.504791000">
        <ele>1033.50</ele>
        <time>2012-11-24T12:24:12Z</time>
      </trkpt>
      <trkpt lat="42.309021000" lon="-2.504949000">
        <ele>1031.60</ele>
        <time>2012-11-24T12:24:15Z</time>
      </trkpt>
      <trkpt lat="42.309035000" lon="-2.504974000">
        <ele>1031.20</ele>
        <time>2012-11-24T12:24:17Z</time>
      </trkpt>
      <trkpt lat="42.309055000" lon="-2.504996000">
        <ele>1030.30</ele>
        <time>2012-11-24T12:24:19Z</time>
      </trkpt>
      <trkpt lat="42.309056000" lon="-2.504999000">
        <ele>1030.10</ele>
        <time>2012-11-24T12:24:19Z</time>
      </trkpt>
      <trkpt lat="42.309063000" lon="-2.505001000">
        <ele>1029.80</ele>
        <time>2012-11-24T12:24:20Z</time>
      </trkpt>
      <trkpt lat="42.309075000" lon="-2.505003000">
        <ele>1029.40</ele>
        <time>2012-11-24T12:24:22Z</time>
      </trkpt>
      <trkpt lat="42.309086000" lon="-2.505008000">
        <ele>1028.90</ele>
        <time>2012-11-24T12:24:22Z</time>
      </trkpt>
      <trkpt lat="42.309110000" lon="-2.505026000">
        <ele>1027.70</ele>
        <time>2012-11-24T12:24:26Z</time>
      </trkpt>
      <trkpt lat="42.309118000" lon="-2.505033000">
        <ele>1027.30</ele>
        <time>2012-11-24T12:24:26Z</time>
      </trkpt>
      <trkpt lat="42.309126000" lon="-2.505036000">
        <ele>1026.90</ele>
        <time>2012-11-24T12:24:27Z</time>
      </trkpt>
      <trkpt lat="42.309161000" lon="-2.505061000">
        <ele>1025.40</ele>
        <time>2012-11-24T12:24:31Z</time>
      </trkpt>
      <trkpt lat="42.309170000" lon="-2.505064000">
        <ele>1025.00</ele>
        <time>2012-11-24T12:24:33Z</time>
      </trkpt>
      <trkpt lat="42.309178000" lon="-2.505066000">
        <ele>1024.60</ele>
        <time>2012-11-24T12:24:34Z</time>
      </trkpt>
      <trkpt lat="42.309195000" lon="-2.505071000">
        <ele>1023.80</ele>
        <time>2012-11-24T12:24:36Z</time>
      </trkpt>
      <trkpt lat="42.309213000" lon="-2.505078000">
        <ele>1022.90</ele>
        <time>2012-11-24T12:24:38Z</time>
      </trkpt>
      <trkpt lat="42.309245000" lon="-2.505101000">
        <ele>1021.30</ele>
        <time>2012-11-24T12:24:41Z</time>
      </trkpt>
      <trkpt lat="42.309246000" lon="-2.505109000">
        <ele>1021.20</ele>
        <time>2012-11-24T12:24:43Z</time>
      </trkpt>
      <trkpt lat="42.309250000" lon="-2.505118000">
        <ele>1021.00</ele>
        <time>2012-11-24T12:24:45Z</time>
      </trkpt>
      <trkpt lat="42.309250000" lon="-2.505121000">
        <ele>1021.00</ele>
        <time>2012-11-24T12:24:47Z</time>
      </trkpt>
      <trkpt lat="42.309251000" lon="-2.505121000">
        <ele>1020.90</ele>
        <time>2012-11-24T12:24:48Z</time>
      </trkpt>
      <trkpt lat="42.309251000" lon="-2.505119000">
        <ele>1020.90</ele>
        <time>2012-11-24T12:24:50Z</time>
      </trkpt>
      <trkpt lat="42.309265000" lon="-2.505114000">
        <ele>1020.50</ele>
        <time>2012-11-24T12:24:52Z</time>
      </trkpt>
      <trkpt lat="42.309371000" lon="-2.505108000">
        <ele>1016.30</ele>
        <time>2012-11-24T12:24:55Z</time>
      </trkpt>
      <trkpt lat="42.309421000" lon="-2.505114000">
        <ele>1013.60</ele>
        <time>2012-11-24T12:24:57Z</time>
      </trkpt>
      <trkpt lat="42.309506000" lon="-2.505149000">
        <ele>1009.20</ele>
        <time>2012-11-24T12:25:02Z</time>
      </trkpt>
      <trkpt lat="42.309518000" lon="-2.505149000">
        <ele>1008.50</ele>
        <time>2012-11-24T12:25:02Z</time>
      </trkpt>
      <trkpt lat="42.309530000" lon="-2.505153000">
        <ele>1007.80</ele>
        <time>2012-11-24T12:25:04Z</time>
      </trkpt>
      <trkpt lat="42.309538000" lon="-2.505158000">
        <ele>1007.20</ele>
        <time>2012-11-24T12:25:04Z</time>
      </trkpt>
      <trkpt lat="42.309541000" lon="-2.505161000">
        <ele>1006.90</ele>
        <time>2012-11-24T12:25:06Z</time>
      </trkpt>
      <trkpt lat="42.309541000" lon="-2.505163000">
        <ele>1006.70</ele>
        <time>2012-11-24T12:25:06Z</time>
      </trkpt>
      <trkpt lat="42.309545000" lon="-2.505163000">
        <ele>1006.50</ele>
        <time>2012-11-24T12:25:07Z</time>
      </trkpt>
      <trkpt lat="42.309548000" lon="-2.505159000">
        <ele>1006.30</ele>
        <time>2012-11-24T12:25:09Z</time>
      </trkpt>
      <trkpt lat="42.309553000" lon="-2.505159000">
        <ele>1006.10</ele>
        <time>2012-11-24T12:25:09Z</time>
      </trkpt>
      <trkpt lat="42.309570000" lon="-2.505163000">
        <ele>1005.50</ele>
        <time>2012-11-24T12:25:11Z</time>
      </trkpt>
      <trkpt lat="42.309583000" lon="-2.505163000">
        <ele>1005.00</ele>
        <time>2012-11-24T12:25:13Z</time>
      </trkpt>
      <trkpt lat="42.309593000" lon="-2.505159000">
        <ele>1004.50</ele>
        <time>2012-11-24T12:25:13Z</time>
      </trkpt>
      <trkpt lat="42.309613000" lon="-2.505158000">
        <ele>1003.50</ele>
        <time>2012-11-24T12:25:16Z</time>
      </trkpt>
      <trkpt lat="42.309650000" lon="-2.505126000">
        <ele>1001.40</ele>
        <time>2012-11-24T12:25:20Z</time>
      </trkpt>
      <trkpt lat="42.309661000" lon="-2.505118000">
        <ele>1000.90</ele>
        <time>2012-11-24T12:25:21Z</time>
      </trkpt>
      <trkpt lat="42.309671000" lon="-2.505116000">
        <ele>1000.30</ele>
        <time>2012-11-24T12:25:21Z</time>
      </trkpt>
      <trkpt lat="42.309693000" lon="-2.505124000">
        <ele>999.40</ele>
        <time>2012-11-24T12:25:23Z</time>
      </trkpt>
      <trkpt lat="42.309706000" lon="-2.505118000">
        <ele>998.70</ele>
        <time>2012-11-24T12:25:25Z</time>
      </trkpt>
      <trkpt lat="42.309725000" lon="-2.505104000">
        <ele>997.70</ele>
        <time>2012-11-24T12:25:28Z</time>
      </trkpt>
      <trkpt lat="42.309748000" lon="-2.505098000">
        <ele>996.70</ele>
        <time>2012-11-24T12:25:30Z</time>
      </trkpt>
      <trkpt lat="42.309758000" lon="-2.505098000">
        <ele>996.20</ele>
        <time>2012-11-24T12:25:30Z</time>
      </trkpt>
      <trkpt lat="42.309775000" lon="-2.505098000">
        <ele>995.40</ele>
        <time>2012-11-24T12:25:32Z</time>
      </trkpt>
      <trkpt lat="42.309811000" lon="-2.505068000">
        <ele>993.40</ele>
        <time>2012-11-24T12:25:37Z</time>
      </trkpt>
      <trkpt lat="42.309821000" lon="-2.505064000">
        <ele>992.90</ele>
        <time>2012-11-24T12:25:39Z</time>
      </trkpt>
      <trkpt lat="42.309830000" lon="-2.505059000">
        <ele>992.50</ele>
        <time>2012-11-24T12:25:39Z</time>
      </trkpt>
      <trkpt lat="42.309838000" lon="-2.505054000">
        <ele>992.00</ele>
        <time>2012-11-24T12:25:41Z</time>
      </trkpt>
      <trkpt lat="42.309846000" lon="-2.505053000">
        <ele>991.60</ele>
        <time>2012-11-24T12:25:42Z</time>
      </trkpt>
      <trkpt lat="42.309856000" lon="-2.505051000">
        <ele>991.20</ele>
        <time>2012-11-24T12:25:42Z</time>
      </trkpt>
      <trkpt lat="42.309871000" lon="-2.505058000">
        <ele>990.50</ele>
        <time>2012-11-24T12:25:44Z</time>
      </trkpt>
      <trkpt lat="42.309878000" lon="-2.505054000">
        <ele>990.10</ele>
        <time>2012-11-24T12:25:46Z</time>
      </trkpt>
      <trkpt lat="42.309885000" lon="-2.505051000">
        <ele>989.80</ele>
        <time>2012-11-24T12:25:46Z</time>
      </trkpt>
      <trkpt lat="42.309891000" lon="-2.505046000">
        <ele>989.50</ele>
        <time>2012-11-24T12:25:48Z</time>
      </trkpt>
      <trkpt lat="42.309900000" lon="-2.505043000">
        <ele>989.10</ele>
        <time>2012-11-24T12:25:49Z</time>
      </trkpt>
      <trkpt lat="42.309906000" lon="-2.505043000">
        <ele>988.90</ele>
        <time>2012-11-24T12:25:49Z</time>
      </trkpt>
      <trkpt lat="42.309913000" lon="-2.505044000">
        <ele>988.40</ele>
        <time>2012-11-24T12:25:51Z</time>
      </trkpt>
      <trkpt lat="42.309931000" lon="-2.505044000">
        <ele>987.60</ele>
        <time>2012-11-24T12:25:53Z</time>
      </trkpt>
      <trkpt lat="42.309938000" lon="-2.505046000">
        <ele>987.30</ele>
        <time>2012-11-24T12:25:54Z</time>
      </trkpt>
      <trkpt lat="42.309948000" lon="-2.505048000">
        <ele>987.00</ele>
        <time>2012-11-24T12:25:56Z</time>
      </trkpt>
      <trkpt lat="42.309978000" lon="-2.505051000">
        <ele>985.80</ele>
        <time>2012-11-24T12:25:58Z</time>
      </trkpt>
      <trkpt lat="42.309998000" lon="-2.505048000">
        <ele>984.90</ele>
        <time>2012-11-24T12:26:00Z</time>
      </trkpt>
      <trkpt lat="42.310008000" lon="-2.505049000">
        <ele>984.50</ele>
        <time>2012-11-24T12:26:01Z</time>
      </trkpt>
      <trkpt lat="42.310026000" lon="-2.505049000">
        <ele>983.60</ele>
        <time>2012-11-24T12:26:03Z</time>
      </trkpt>
      <trkpt lat="42.310035000" lon="-2.505048000">
        <ele>983.20</ele>
        <time>2012-11-24T12:26:05Z</time>
      </trkpt>
      <trkpt lat="42.310075000" lon="-2.505044000">
        <ele>981.50</ele>
        <time>2012-11-24T12:26:08Z</time>
      </trkpt>
      <trkpt lat="42.310096000" lon="-2.505039000">
        <ele>980.50</ele>
        <time>2012-11-24T12:26:10Z</time>
      </trkpt>
      <trkpt lat="42.310115000" lon="-2.505039000">
        <ele>979.60</ele>
        <time>2012-11-24T12:26:12Z</time>
      </trkpt>
      <trkpt lat="42.310123000" lon="-2.505038000">
        <ele>979.20</ele>
        <time>2012-11-24T12:26:14Z</time>
      </trkpt>
      <trkpt lat="42.310166000" lon="-2.505038000">
        <ele>977.40</ele>
        <time>2012-11-24T12:26:17Z</time>
      </trkpt>
      <trkpt lat="42.310205000" lon="-2.505054000">
        <ele>975.80</ele>
        <time>2012-11-24T12:26:22Z</time>
      </trkpt>
      <trkpt lat="42.310213000" lon="-2.505061000">
        <ele>975.40</ele>
        <time>2012-11-24T12:26:22Z</time>
      </trkpt>
      <trkpt lat="42.310236000" lon="-2.505068000">
        <ele>974.50</ele>
        <time>2012-11-24T12:26:26Z</time>
      </trkpt>
      <trkpt lat="42.310253000" lon="-2.505071000">
        <ele>973.70</ele>
        <time>2012-11-24T12:26:28Z</time>
      </trkpt>
      <trkpt lat="42.310291000" lon="-2.505074000">
        <ele>972.20</ele>
        <time>2012-11-24T12:26:31Z</time>
      </trkpt>
      <trkpt lat="42.310301000" lon="-2.505074000">
        <ele>971.70</ele>
        <time>2012-11-24T12:26:33Z</time>
      </trkpt>
      <trkpt lat="42.310320000" lon="-2.505073000">
        <ele>970.90</ele>
        <time>2012-11-24T12:26:35Z</time>
      </trkpt>
      <trkpt lat="42.310336000" lon="-2.505066000">
        <ele>970.10</ele>
        <time>2012-11-24T12:26:36Z</time>
      </trkpt>
      <trkpt lat="42.310345000" lon="-2.505063000">
        <ele>969.70</ele>
        <time>2012-11-24T12:26:38Z</time>
      </trkpt>
      <trkpt lat="42.310355000" lon="-2.505061000">
        <ele>969.20</ele>
        <time>2012-11-24T12:26:38Z</time>
      </trkpt>
      <trkpt lat="42.310381000" lon="-2.505064000">
        <ele>968.10</ele>
        <time>2012-11-24T12:26:42Z</time>
      </trkpt>
      <trkpt lat="42.310401000" lon="-2.505059000">
        <ele>967.20</ele>
        <time>2012-11-24T12:26:43Z</time>
      </trkpt>
      <trkpt lat="42.310425000" lon="-2.505046000">
        <ele>966.00</ele>
        <time>2012-11-24T12:26:47Z</time>
      </trkpt>
      <trkpt lat="42.310435000" lon="-2.505041000">
        <ele>965.60</ele>
        <time>2012-11-24T12:26:47Z</time>
      </trkpt>
      <trkpt lat="42.310481000" lon="-2.505028000">
        <ele>964.10</ele>
        <time>2012-11-24T12:26:52Z</time>
      </trkpt>
      <trkpt lat="42.310491000" lon="-2.505021000">
        <ele>963.80</ele>
        <time>2012-11-24T12:26:52Z</time>
      </trkpt>
      <trkpt lat="42.310500000" lon="-2.505018000">
        <ele>963.30</ele>
        <time>2012-11-24T12:26:54Z</time>
      </trkpt>
      <trkpt lat="42.310506000" lon="-2.505014000">
        <ele>963.00</ele>
        <time>2012-11-24T12:26:54Z</time>
      </trkpt>
      <trkpt lat="42.310511000" lon="-2.505014000">
        <ele>962.70</ele>
        <time>2012-11-24T12:26:55Z</time>
      </trkpt>
      <trkpt lat="42.310515000" lon="-2.505013000">
        <ele>962.60</ele>
        <time>2012-11-24T12:26:57Z</time>
      </trkpt>
      <trkpt lat="42.310521000" lon="-2.505014000">
        <ele>962.40</ele>
        <time>2012-11-24T12:26:57Z</time>
      </trkpt>
      <trkpt lat="42.310548000" lon="-2.505041000">
        <ele>961.70</ele>
        <time>2012-11-24T12:27:01Z</time>
      </trkpt>
      <trkpt lat="42.310565000" lon="-2.505051000">
        <ele>961.20</ele>
        <time>2012-11-24T12:27:02Z</time>
      </trkpt>
      <trkpt lat="42.310571000" lon="-2.505053000">
        <ele>961.00</ele>
        <time>2012-11-24T12:27:04Z</time>
      </trkpt>
      <trkpt lat="42.310580000" lon="-2.505053000">
        <ele>960.70</ele>
        <time>2012-11-24T12:27:04Z</time>
      </trkpt>
      <trkpt lat="42.310585000" lon="-2.505051000">
        <ele>960.50</ele>
        <time>2012-11-24T12:27:06Z</time>
      </trkpt>
      <trkpt lat="42.310590000" lon="-2.505051000">
        <ele>960.30</ele>
        <time>2012-11-24T12:27:06Z</time>
      </trkpt>
      <trkpt lat="42.310591000" lon="-2.505053000">
        <ele>960.20</ele>
        <time>2012-11-24T12:27:08Z</time>
      </trkpt>
      <trkpt lat="42.310600000" lon="-2.505053000">
        <ele>960.00</ele>
        <time>2012-11-24T12:27:09Z</time>
      </trkpt>
      <trkpt lat="42.310636000" lon="-2.505041000">
        <ele>958.60</ele>
        <time>2012-11-24T12:27:15Z</time>
      </trkpt>
      <trkpt lat="42.310640000" lon="-2.505041000">
        <ele>958.50</ele>
        <time>2012-11-24T12:27:16Z</time>
      </trkpt>
      <trkpt lat="42.310643000" lon="-2.505041000">
        <ele>958.40</ele>
        <time>2012-11-24T12:27:16Z</time>
      </trkpt>
      <trkpt lat="42.310648000" lon="-2.505041000">
        <ele>958.20</ele>
        <time>2012-11-24T12:27:18Z</time>
      </trkpt>
      <trkpt lat="42.310653000" lon="-2.505041000">
        <ele>958.10</ele>
        <time>2012-11-24T12:27:18Z</time>
      </trkpt>
      <trkpt lat="42.310665000" lon="-2.505041000">
        <ele>957.70</ele>
        <time>2012-11-24T12:27:20Z</time>
      </trkpt>
      <trkpt lat="42.310691000" lon="-2.505049000">
        <ele>957.10</ele>
        <time>2012-11-24T12:27:23Z</time>
      </trkpt>
      <trkpt lat="42.310700000" lon="-2.505054000">
        <ele>956.80</ele>
        <time>2012-11-24T12:27:23Z</time>
      </trkpt>
      <trkpt lat="42.310706000" lon="-2.505059000">
        <ele>956.50</ele>
        <time>2012-11-24T12:27:25Z</time>
      </trkpt>
      <trkpt lat="42.310713000" lon="-2.505068000">
        <ele>956.20</ele>
        <time>2012-11-24T12:27:27Z</time>
      </trkpt>
      <trkpt lat="42.310713000" lon="-2.505068000">
        <ele>956.20</ele>
        <time>2012-11-24T12:27:27Z</time>
      </trkpt>
      <trkpt lat="42.310713000" lon="-2.505066000">
        <ele>956.10</ele>
        <time>2012-11-24T12:27:30Z</time>
      </trkpt>
      <trkpt lat="42.310718000" lon="-2.505066000">
        <ele>956.00</ele>
        <time>2012-11-24T12:27:30Z</time>
      </trkpt>
      <trkpt lat="42.310775000" lon="-2.505073000">
        <ele>954.70</ele>
        <time>2012-11-24T12:27:34Z</time>
      </trkpt>
      <trkpt lat="42.310870000" lon="-2.505069000">
        <ele>952.00</ele>
        <time>2012-11-24T12:27:37Z</time>
      </trkpt>
      <trkpt lat="42.310911000" lon="-2.505074000">
        <ele>950.40</ele>
        <time>2012-11-24T12:27:39Z</time>
      </trkpt>
      <trkpt lat="42.310975000" lon="-2.505063000">
        <ele>948.50</ele>
        <time>2012-11-24T12:27:41Z</time>
      </trkpt>
      <trkpt lat="42.311050000" lon="-2.505066000">
        <ele>946.20</ele>
        <time>2012-11-24T12:27:42Z</time>
      </trkpt>
      <trkpt lat="42.311088000" lon="-2.505066000">
        <ele>945.00</ele>
        <time>2012-11-24T12:27:44Z</time>
      </trkpt>
      <trkpt lat="42.311200000" lon="-2.505019000">
        <ele>940.70</ele>
        <time>2012-11-24T12:27:48Z</time>
      </trkpt>
      <trkpt lat="42.311210000" lon="-2.505023000">
        <ele>940.10</ele>
        <time>2012-11-24T12:27:48Z</time>
      </trkpt>
      <trkpt lat="42.311213000" lon="-2.505029000">
        <ele>939.70</ele>
        <time>2012-11-24T12:27:49Z</time>
      </trkpt>
      <trkpt lat="42.311215000" lon="-2.505029000">
        <ele>939.40</ele>
        <time>2012-11-24T12:27:51Z</time>
      </trkpt>
      <trkpt lat="42.311216000" lon="-2.505024000">
        <ele>939.30</ele>
        <time>2012-11-24T12:27:51Z</time>
      </trkpt>
      <trkpt lat="42.311225000" lon="-2.505021000">
        <ele>939.10</ele>
        <time>2012-11-24T12:27:53Z</time>
      </trkpt>
      <trkpt lat="42.311255000" lon="-2.505021000">
        <ele>938.30</ele>
        <time>2012-11-24T12:27:55Z</time>
      </trkpt>
      <trkpt lat="42.311270000" lon="-2.505016000">
        <ele>938.10</ele>
        <time>2012-11-24T12:27:55Z</time>
      </trkpt>
      <trkpt lat="42.311300000" lon="-2.504994000">
        <ele>937.00</ele>
        <time>2012-11-24T12:27:58Z</time>
      </trkpt>
      <trkpt lat="42.311305000" lon="-2.504983000">
        <ele>936.80</ele>
        <time>2012-11-24T12:28:00Z</time>
      </trkpt>
      <trkpt lat="42.311311000" lon="-2.504971000">
        <ele>936.60</ele>
        <time>2012-11-24T12:28:00Z</time>
      </trkpt>
      <trkpt lat="42.311321000" lon="-2.504963000">
        <ele>936.40</ele>
        <time>2012-11-24T12:28:02Z</time>
      </trkpt>
      <trkpt lat="42.311345000" lon="-2.504961000">
        <ele>935.90</ele>
        <time>2012-11-24T12:28:03Z</time>
      </trkpt>
      <trkpt lat="42.311368000" lon="-2.504956000">
        <ele>935.30</ele>
        <time>2012-11-24T12:28:05Z</time>
      </trkpt>
      <trkpt lat="42.311380000" lon="-2.504956000">
        <ele>935.00</ele>
        <time>2012-11-24T12:28:07Z</time>
      </trkpt>
      <trkpt lat="42.311390000" lon="-2.504958000">
        <ele>934.70</ele>
        <time>2012-11-24T12:28:07Z</time>
      </trkpt>
      <trkpt lat="42.311395000" lon="-2.504958000">
        <ele>934.50</ele>
        <time>2012-11-24T12:28:09Z</time>
      </trkpt>
      <trkpt lat="42.311396000" lon="-2.504959000">
        <ele>934.40</ele>
        <time>2012-11-24T12:28:10Z</time>
      </trkpt>
      <trkpt lat="42.311396000" lon="-2.504959000">
        <ele>934.40</ele>
        <time>2012-11-24T12:28:10Z</time>
      </trkpt>
      <trkpt lat="42.311395000" lon="-2.504959000">
        <ele>934.30</ele>
        <time>2012-11-24T12:28:12Z</time>
      </trkpt>
      <trkpt lat="42.311400000" lon="-2.504956000">
        <ele>934.20</ele>
        <time>2012-11-24T12:28:14Z</time>
      </trkpt>
      <trkpt lat="42.311440000" lon="-2.504943000">
        <ele>933.40</ele>
        <time>2012-11-24T12:28:19Z</time>
      </trkpt>
      <trkpt lat="42.311441000" lon="-2.504946000">
        <ele>933.20</ele>
        <time>2012-11-24T12:28:19Z</time>
      </trkpt>
      <trkpt lat="42.311441000" lon="-2.504943000">
        <ele>933.10</ele>
        <time>2012-11-24T12:28:21Z</time>
      </trkpt>
      <trkpt lat="42.311448000" lon="-2.504934000">
        <ele>933.00</ele>
        <time>2012-11-24T12:28:21Z</time>
      </trkpt>
      <trkpt lat="42.311458000" lon="-2.504924000">
        <ele>932.90</ele>
        <time>2012-11-24T12:28:23Z</time>
      </trkpt>
      <trkpt lat="42.311470000" lon="-2.504916000">
        <ele>932.60</ele>
        <time>2012-11-24T12:28:24Z</time>
      </trkpt>
      <trkpt lat="42.311503000" lon="-2.504898000">
        <ele>931.90</ele>
        <time>2012-11-24T12:28:26Z</time>
      </trkpt>
      <trkpt lat="42.311545000" lon="-2.504846000">
        <ele>930.80</ele>
        <time>2012-11-24T12:28:31Z</time>
      </trkpt>
      <trkpt lat="42.311551000" lon="-2.504846000">
        <ele>930.60</ele>
        <time>2012-11-24T12:28:33Z</time>
      </trkpt>
      <trkpt lat="42.311555000" lon="-2.504849000">
        <ele>930.50</ele>
        <time>2012-11-24T12:28:33Z</time>
      </trkpt>
      <trkpt lat="42.311555000" lon="-2.504848000">
        <ele>930.40</ele>
        <time>2012-11-24T12:28:35Z</time>
      </trkpt>
      <trkpt lat="42.311553000" lon="-2.504846000">
        <ele>930.40</ele>
        <time>2012-11-24T12:28:35Z</time>
      </trkpt>
      <trkpt lat="42.311553000" lon="-2.504843000">
        <ele>930.30</ele>
        <time>2012-11-24T12:28:36Z</time>
      </trkpt>
      <trkpt lat="42.311791000" lon="-2.504696000">
        <ele>925.50</ele>
        <time>2012-11-24T12:28:47Z</time>
      </trkpt>
      <trkpt lat="42.311865000" lon="-2.504626000">
        <ele>923.80</ele>
        <time>2012-11-24T12:28:49Z</time>
      </trkpt>
      <trkpt lat="42.311940000" lon="-2.504593000">
        <ele>922.10</ele>
        <time>2012-11-24T12:28:52Z</time>
      </trkpt>
      <trkpt lat="42.311966000" lon="-2.504574000">
        <ele>921.50</ele>
        <time>2012-11-24T12:28:54Z</time>
      </trkpt>
      <trkpt lat="42.311990000" lon="-2.504551000">
        <ele>920.80</ele>
        <time>2012-11-24T12:28:54Z</time>
      </trkpt>
      <trkpt lat="42.312123000" lon="-2.504486000">
        <ele>917.20</ele>
        <time>2012-11-24T12:28:59Z</time>
      </trkpt>
      <trkpt lat="42.312141000" lon="-2.504473000">
        <ele>916.90</ele>
        <time>2012-11-24T12:29:01Z</time>
      </trkpt>
      <trkpt lat="42.312151000" lon="-2.504468000">
        <ele>916.20</ele>
        <time>2012-11-24T12:29:03Z</time>
      </trkpt>
      <trkpt lat="42.312155000" lon="-2.504464000">
        <ele>916.00</ele>
        <time>2012-11-24T12:29:04Z</time>
      </trkpt>
      <trkpt lat="42.312156000" lon="-2.504463000">
        <ele>915.90</ele>
        <time>2012-11-24T12:29:06Z</time>
      </trkpt>
      <trkpt lat="42.312158000" lon="-2.504463000">
        <ele>915.90</ele>
        <time>2012-11-24T12:29:10Z</time>
      </trkpt>
      <trkpt lat="42.312158000" lon="-2.504461000">
        <ele>915.80</ele>
        <time>2012-11-24T12:29:11Z</time>
      </trkpt>
      <trkpt lat="42.312161000" lon="-2.504459000">
        <ele>915.80</ele>
        <time>2012-11-24T12:29:18Z</time>
      </trkpt>
      <trkpt lat="42.312161000" lon="-2.504458000">
        <ele>915.80</ele>
        <time>2012-11-24T12:29:22Z</time>
      </trkpt>
      <trkpt lat="42.312163000" lon="-2.504458000">
        <ele>915.70</ele>
        <time>2012-11-24T12:29:22Z</time>
      </trkpt>
      <trkpt lat="42.312163000" lon="-2.504461000">
        <ele>915.80</ele>
        <time>2012-11-24T12:29:24Z</time>
      </trkpt>
      <trkpt lat="42.312161000" lon="-2.504459000">
        <ele>915.80</ele>
        <time>2012-11-24T12:29:25Z</time>
      </trkpt>
      <trkpt lat="42.312165000" lon="-2.504466000">
        <ele>915.80</ele>
        <time>2012-11-24T12:29:27Z</time>
      </trkpt>
      <trkpt lat="42.312166000" lon="-2.504466000">
        <ele>915.80</ele>
        <time>2012-11-24T12:29:34Z</time>
      </trkpt>
      <trkpt lat="42.312168000" lon="-2.504464000">
        <ele>915.70</ele>
        <time>2012-11-24T12:29:36Z</time>
      </trkpt>
      <trkpt lat="42.312175000" lon="-2.504464000">
        <ele>915.70</ele>
        <time>2012-11-24T12:29:44Z</time>
      </trkpt>
      <trkpt lat="42.312175000" lon="-2.504464000">
        <ele>915.70</ele>
        <time>2012-11-24T12:29:46Z</time>
      </trkpt>
      <trkpt lat="42.312178000" lon="-2.504464000">
        <ele>915.60</ele>
        <time>2012-11-24T12:29:48Z</time>
      </trkpt>
      <trkpt lat="42.312180000" lon="-2.504466000">
        <ele>915.60</ele>
        <time>2012-11-24T12:29:50Z</time>
      </trkpt>
      <trkpt lat="42.312183000" lon="-2.504466000">
        <ele>915.60</ele>
        <time>2012-11-24T12:29:55Z</time>
      </trkpt>
      <trkpt lat="42.312185000" lon="-2.504466000">
        <ele>915.50</ele>
        <time>2012-11-24T12:29:57Z</time>
      </trkpt>
      <trkpt lat="42.312186000" lon="-2.504466000">
        <ele>915.50</ele>
        <time>2012-11-24T12:29:58Z</time>
      </trkpt>
      <trkpt lat="42.312191000" lon="-2.504469000">
        <ele>915.50</ele>
        <time>2012-11-24T12:30:07Z</time>
      </trkpt>
      <trkpt lat="42.312193000" lon="-2.504469000">
        <ele>915.50</ele>
        <time>2012-11-24T12:30:09Z</time>
      </trkpt>
      <trkpt lat="42.312193000" lon="-2.504469000">
        <ele>915.50</ele>
        <time>2012-11-24T12:30:09Z</time>
      </trkpt>
      <trkpt lat="42.312191000" lon="-2.504469000">
        <ele>915.50</ele>
        <time>2012-11-24T12:30:12Z</time>
      </trkpt>
      <trkpt lat="42.312193000" lon="-2.504469000">
        <ele>915.50</ele>
        <time>2012-11-24T12:30:19Z</time>
      </trkpt>
      <trkpt lat="42.312193000" lon="-2.504469000">
        <ele>915.50</ele>
        <time>2012-11-24T12:30:21Z</time>
      </trkpt>
      <trkpt lat="42.312195000" lon="-2.504469000">
        <ele>915.40</ele>
        <time>2012-11-24T12:30:23Z</time>
      </trkpt>
      <trkpt lat="42.312195000" lon="-2.504471000">
        <ele>915.40</ele>
        <time>2012-11-24T12:30:24Z</time>
      </trkpt>
      <trkpt lat="42.312198000" lon="-2.504471000">
        <ele>915.40</ele>
        <time>2012-11-24T12:30:28Z</time>
      </trkpt>
      <trkpt lat="42.312198000" lon="-2.504469000">
        <ele>915.40</ele>
        <time>2012-11-24T12:30:30Z</time>
      </trkpt>
      <trkpt lat="42.312201000" lon="-2.504469000">
        <ele>915.40</ele>
        <time>2012-11-24T12:30:31Z</time>
      </trkpt>
      <trkpt lat="42.312201000" lon="-2.504469000">
        <ele>915.40</ele>
        <time>2012-11-24T12:30:33Z</time>
      </trkpt>
      <trkpt lat="42.312200000" lon="-2.504469000">
        <ele>915.30</ele>
        <time>2012-11-24T12:30:40Z</time>
      </trkpt>
      <trkpt lat="42.312200000" lon="-2.504469000">
        <ele>915.30</ele>
        <time>2012-11-24T12:30:42Z</time>
      </trkpt>
      <trkpt lat="42.312198000" lon="-2.504469000">
        <ele>915.40</ele>
        <time>2012-11-24T12:30:44Z</time>
      </trkpt>
      <trkpt lat="42.312198000" lon="-2.504466000">
        <ele>915.40</ele>
        <time>2012-11-24T12:30:49Z</time>
      </trkpt>
      <trkpt lat="42.312198000" lon="-2.504464000">
        <ele>915.30</ele>
        <time>2012-11-24T12:30:52Z</time>
      </trkpt>
      <trkpt lat="42.312196000" lon="-2.504464000">
        <ele>915.30</ele>
        <time>2012-11-24T12:30:56Z</time>
      </trkpt>
      <trkpt lat="42.312196000" lon="-2.504461000">
        <ele>915.30</ele>
        <time>2012-11-24T12:31:01Z</time>
      </trkpt>
      <trkpt lat="42.312195000" lon="-2.504461000">
        <ele>915.30</ele>
        <time>2012-11-24T12:31:03Z</time>
      </trkpt>
      <trkpt lat="42.312193000" lon="-2.504459000">
        <ele>915.40</ele>
        <time>2012-11-24T12:31:05Z</time>
      </trkpt>
      <trkpt lat="42.312193000" lon="-2.504458000">
        <ele>915.40</ele>
        <time>2012-11-24T12:31:08Z</time>
      </trkpt>
      <trkpt lat="42.312191000" lon="-2.504458000">
        <ele>915.40</ele>
        <time>2012-11-24T12:31:10Z</time>
      </trkpt>
      <trkpt lat="42.312190000" lon="-2.504453000">
        <ele>915.40</ele>
        <time>2012-11-24T12:31:20Z</time>
      </trkpt>
      <trkpt lat="42.312190000" lon="-2.504453000">
        <ele>915.40</ele>
        <time>2012-11-24T12:31:22Z</time>
      </trkpt>
      <trkpt lat="42.312191000" lon="-2.504451000">
        <ele>915.30</ele>
        <time>2012-11-24T12:31:27Z</time>
      </trkpt>
      <trkpt lat="42.312196000" lon="-2.504451000">
        <ele>915.30</ele>
        <time>2012-11-24T12:31:48Z</time>
      </trkpt>
      <trkpt lat="42.312198000" lon="-2.504451000">
        <ele>915.20</ele>
        <time>2012-11-24T12:31:50Z</time>
      </trkpt>
      <trkpt lat="42.312206000" lon="-2.504453000">
        <ele>915.20</ele>
        <time>2012-11-24T12:31:59Z</time>
      </trkpt>
      <trkpt lat="42.312206000" lon="-2.504453000">
        <ele>915.20</ele>
        <time>2012-11-24T12:32:00Z</time>
      </trkpt>
      <trkpt lat="42.312215000" lon="-2.504454000">
        <ele>915.10</ele>
        <time>2012-11-24T12:32:09Z</time>
      </trkpt>
      <trkpt lat="42.312216000" lon="-2.504454000">
        <ele>915.00</ele>
        <time>2012-11-24T12:32:09Z</time>
      </trkpt>
      <trkpt lat="42.312218000" lon="-2.504454000">
        <ele>915.00</ele>
        <time>2012-11-24T12:32:11Z</time>
      </trkpt>
      <trkpt lat="42.312220000" lon="-2.504456000">
        <ele>915.00</ele>
        <time>2012-11-24T12:32:12Z</time>
      </trkpt>
      <trkpt lat="42.312223000" lon="-2.504456000">
        <ele>915.00</ele>
        <time>2012-11-24T12:32:16Z</time>
      </trkpt>
      <trkpt lat="42.312225000" lon="-2.504456000">
        <ele>914.90</ele>
        <time>2012-11-24T12:32:18Z</time>
      </trkpt>
      <trkpt lat="42.312230000" lon="-2.504456000">
        <ele>914.90</ele>
        <time>2012-11-24T12:32:23Z</time>
      </trkpt>
      <trkpt lat="42.312231000" lon="-2.504458000">
        <ele>914.90</ele>
        <time>2012-11-24T12:32:25Z</time>
      </trkpt>
      <trkpt lat="42.312231000" lon="-2.504458000">
        <ele>914.90</ele>
        <time>2012-11-24T12:32:30Z</time>
      </trkpt>
      <trkpt lat="42.312233000" lon="-2.504458000">
        <ele>914.80</ele>
        <time>2012-11-24T12:32:30Z</time>
      </trkpt>
      <trkpt lat="42.312231000" lon="-2.504458000">
        <ele>914.80</ele>
        <time>2012-11-24T12:32:42Z</time>
      </trkpt>
      <trkpt lat="42.312230000" lon="-2.504458000">
        <ele>914.90</ele>
        <time>2012-11-24T12:32:42Z</time>
      </trkpt>
      <trkpt lat="42.312223000" lon="-2.504458000">
        <ele>914.90</ele>
        <time>2012-11-24T12:32:49Z</time>
      </trkpt>
      <trkpt lat="42.312221000" lon="-2.504458000">
        <ele>915.00</ele>
        <time>2012-11-24T12:32:51Z</time>
      </trkpt>
      <trkpt lat="42.312221000" lon="-2.504456000">
        <ele>915.00</ele>
        <time>2012-11-24T12:32:53Z</time>
      </trkpt>
      <trkpt lat="42.312218000" lon="-2.504456000">
        <ele>915.00</ele>
        <time>2012-11-24T12:32:54Z</time>
      </trkpt>
      <trkpt lat="42.312218000" lon="-2.504454000">
        <ele>915.00</ele>
        <time>2012-11-24T12:32:56Z</time>
      </trkpt>
      <trkpt lat="42.312216000" lon="-2.504453000">
        <ele>915.00</ele>
        <time>2012-11-24T12:32:56Z</time>
      </trkpt>
      <trkpt lat="42.312218000" lon="-2.504451000">
        <ele>915.00</ele>
        <time>2012-11-24T12:32:58Z</time>
      </trkpt>
      <trkpt lat="42.312216000" lon="-2.504451000">
        <ele>915.00</ele>
        <time>2012-11-24T12:32:58Z</time>
      </trkpt>
      <trkpt lat="42.312215000" lon="-2.504453000">
        <ele>915.00</ele>
        <time>2012-11-24T12:33:03Z</time>
      </trkpt>
      <trkpt lat="42.312213000" lon="-2.504451000">
        <ele>915.00</ele>
        <time>2012-11-24T12:33:03Z</time>
      </trkpt>
      <trkpt lat="42.312211000" lon="-2.504451000">
        <ele>915.00</ele>
        <time>2012-11-24T12:33:05Z</time>
      </trkpt>
      <trkpt lat="42.312210000" lon="-2.504451000">
        <ele>915.10</ele>
        <time>2012-11-24T12:33:08Z</time>
      </trkpt>
      <trkpt lat="42.312208000" lon="-2.504453000">
        <ele>915.10</ele>
        <time>2012-11-24T12:33:08Z</time>
      </trkpt>
      <trkpt lat="42.312208000" lon="-2.504449000">
        <ele>915.10</ele>
        <time>2012-11-24T12:33:10Z</time>
      </trkpt>
      <trkpt lat="42.312206000" lon="-2.504449000">
        <ele>915.10</ele>
        <time>2012-11-24T12:33:10Z</time>
      </trkpt>
      <trkpt lat="42.312205000" lon="-2.504453000">
        <ele>915.10</ele>
        <time>2012-11-24T12:33:17Z</time>
      </trkpt>
      <trkpt lat="42.312203000" lon="-2.504453000">
        <ele>915.20</ele>
        <time>2012-11-24T12:33:19Z</time>
      </trkpt>
      <trkpt lat="42.312200000" lon="-2.504454000">
        <ele>915.20</ele>
        <time>2012-11-24T12:33:24Z</time>
      </trkpt>
      <trkpt lat="42.312200000" lon="-2.504458000">
        <ele>915.20</ele>
        <time>2012-11-24T12:33:31Z</time>
      </trkpt>
      <trkpt lat="42.312200000" lon="-2.504459000">
        <ele>915.30</ele>
        <time>2012-11-24T12:33:33Z</time>
      </trkpt>
      <trkpt lat="42.312198000" lon="-2.504458000">
        <ele>915.30</ele>
        <time>2012-11-24T12:33:34Z</time>
      </trkpt>
      <trkpt lat="42.312196000" lon="-2.504459000">
        <ele>915.30</ele>
        <time>2012-11-24T12:33:38Z</time>
      </trkpt>
      <trkpt lat="42.312195000" lon="-2.504461000">
        <ele>915.30</ele>
        <time>2012-11-24T12:33:43Z</time>
      </trkpt>
      <trkpt lat="42.312195000" lon="-2.504463000">
        <ele>915.40</ele>
        <time>2012-11-24T12:33:45Z</time>
      </trkpt>
      <trkpt lat="42.312195000" lon="-2.504469000">
        <ele>915.40</ele>
        <time>2012-11-24T12:33:48Z</time>
      </trkpt>
      <trkpt lat="42.312196000" lon="-2.504466000">
        <ele>915.40</ele>
        <time>2012-11-24T12:33:50Z</time>
      </trkpt>
      <trkpt lat="42.312201000" lon="-2.504463000">
        <ele>915.30</ele>
        <time>2012-11-24T12:33:52Z</time>
      </trkpt>
      <trkpt lat="42.312235000" lon="-2.504461000">
        <ele>915.00</ele>
        <time>2012-11-24T12:33:55Z</time>
      </trkpt>
      <trkpt lat="42.312250000" lon="-2.504463000">
        <ele>914.90</ele>
        <time>2012-11-24T12:33:55Z</time>
      </trkpt>
      <trkpt lat="42.312268000" lon="-2.504459000">
        <ele>914.70</ele>
        <time>2012-11-24T12:33:57Z</time>
      </trkpt>
      <trkpt lat="42.312340000" lon="-2.504439000">
        <ele>913.70</ele>
        <time>2012-11-24T12:34:00Z</time>
      </trkpt>
      <trkpt lat="42.312356000" lon="-2.504431000">
        <ele>913.40</ele>
        <time>2012-11-24T12:34:02Z</time>
      </trkpt>
      <trkpt lat="42.312371000" lon="-2.504418000">
        <ele>913.20</ele>
        <time>2012-11-24T12:34:02Z</time>
      </trkpt>
      <trkpt lat="42.312446000" lon="-2.504308000">
        <ele>911.80</ele>
        <time>2012-11-24T12:34:07Z</time>
      </trkpt>
      <trkpt lat="42.312470000" lon="-2.504288000">
        <ele>911.60</ele>
        <time>2012-11-24T12:34:09Z</time>
      </trkpt>
      <trkpt lat="42.312508000" lon="-2.504276000">
        <ele>911.10</ele>
        <time>2012-11-24T12:34:09Z</time>
      </trkpt>
      <trkpt lat="42.312556000" lon="-2.504273000">
        <ele>910.60</ele>
        <time>2012-11-24T12:34:11Z</time>
      </trkpt>
      <trkpt lat="42.312601000" lon="-2.504279000">
        <ele>910.20</ele>
        <time>2012-11-24T12:34:11Z</time>
      </trkpt>
      <trkpt lat="42.312638000" lon="-2.504293000">
        <ele>909.80</ele>
        <time>2012-11-24T12:34:13Z</time>
      </trkpt>
      <trkpt lat="42.312716000" lon="-2.504348000">
        <ele>908.90</ele>
        <time>2012-11-24T12:34:16Z</time>
      </trkpt>
      <trkpt lat="42.312780000" lon="-2.504438000">
        <ele>908.10</ele>
        <time>2012-11-24T12:34:18Z</time>
      </trkpt>
      <trkpt lat="42.312796000" lon="-2.504469000">
        <ele>907.90</ele>
        <time>2012-11-24T12:34:20Z</time>
      </trkpt>
      <trkpt lat="42.312926000" lon="-2.504606000">
        <ele>906.20</ele>
        <time>2012-11-24T12:34:25Z</time>
      </trkpt>
      <trkpt lat="42.312946000" lon="-2.504621000">
        <ele>906.10</ele>
        <time>2012-11-24T12:34:27Z</time>
      </trkpt>
      <trkpt lat="42.313015000" lon="-2.504709000">
        <ele>905.70</ele>
        <time>2012-11-24T12:34:30Z</time>
      </trkpt>
      <trkpt lat="42.313055000" lon="-2.504741000">
        <ele>905.60</ele>
        <time>2012-11-24T12:34:32Z</time>
      </trkpt>
      <trkpt lat="42.313161000" lon="-2.504849000">
        <ele>905.00</ele>
        <time>2012-11-24T12:34:39Z</time>
      </trkpt>
      <trkpt lat="42.313220000" lon="-2.504859000">
        <ele>904.90</ele>
        <time>2012-11-24T12:34:42Z</time>
      </trkpt>
      <trkpt lat="42.313241000" lon="-2.504859000">
        <ele>904.90</ele>
        <time>2012-11-24T12:34:42Z</time>
      </trkpt>
      <trkpt lat="42.313260000" lon="-2.504861000">
        <ele>904.90</ele>
        <time>2012-11-24T12:34:44Z</time>
      </trkpt>
      <trkpt lat="42.313301000" lon="-2.504856000">
        <ele>904.90</ele>
        <time>2012-11-24T12:34:46Z</time>
      </trkpt>
      <trkpt lat="42.313340000" lon="-2.504859000">
        <ele>905.00</ele>
        <time>2012-11-24T12:34:47Z</time>
      </trkpt>
      <trkpt lat="42.313513000" lon="-2.504923000">
        <ele>904.40</ele>
        <time>2012-11-24T12:34:56Z</time>
      </trkpt>
      <trkpt lat="42.313525000" lon="-2.504931000">
        <ele>904.30</ele>
        <time>2012-11-24T12:34:58Z</time>
      </trkpt>
      <trkpt lat="42.313561000" lon="-2.504984000">
        <ele>903.70</ele>
        <time>2012-11-24T12:35:00Z</time>
      </trkpt>
      <trkpt lat="42.313576000" lon="-2.504998000">
        <ele>903.50</ele>
        <time>2012-11-24T12:35:01Z</time>
      </trkpt>
      <trkpt lat="42.313588000" lon="-2.504999000">
        <ele>903.30</ele>
        <time>2012-11-24T12:35:03Z</time>
      </trkpt>
      <trkpt lat="42.313591000" lon="-2.505003000">
        <ele>903.20</ele>
        <time>2012-11-24T12:35:03Z</time>
      </trkpt>
      <trkpt lat="42.313600000" lon="-2.505003000">
        <ele>903.20</ele>
        <time>2012-11-24T12:35:05Z</time>
      </trkpt>
      <trkpt lat="42.313615000" lon="-2.504999000">
        <ele>903.10</ele>
        <time>2012-11-24T12:35:05Z</time>
      </trkpt>
      <trkpt lat="42.313705000" lon="-2.504966000">
        <ele>903.50</ele>
        <time>2012-11-24T12:35:10Z</time>
      </trkpt>
      <trkpt lat="42.313726000" lon="-2.504964000">
        <ele>903.50</ele>
        <time>2012-11-24T12:35:12Z</time>
      </trkpt>
      <trkpt lat="42.313763000" lon="-2.504971000">
        <ele>903.50</ele>
        <time>2012-11-24T12:35:14Z</time>
      </trkpt>
      <trkpt lat="42.313773000" lon="-2.504969000">
        <ele>903.60</ele>
        <time>2012-11-24T12:35:15Z</time>
      </trkpt>
      <trkpt lat="42.313791000" lon="-2.504969000">
        <ele>903.80</ele>
        <time>2012-11-24T12:35:17Z</time>
      </trkpt>
      <trkpt lat="42.313841000" lon="-2.504979000">
        <ele>904.20</ele>
        <time>2012-11-24T12:35:22Z</time>
      </trkpt>
      <trkpt lat="42.313856000" lon="-2.504988000">
        <ele>904.30</ele>
        <time>2012-11-24T12:35:22Z</time>
      </trkpt>
      <trkpt lat="42.313893000" lon="-2.504999000">
        <ele>904.50</ele>
        <time>2012-11-24T12:35:24Z</time>
      </trkpt>
      <trkpt lat="42.313913000" lon="-2.505011000">
        <ele>904.60</ele>
        <time>2012-11-24T12:35:26Z</time>
      </trkpt>
      <trkpt lat="42.313945000" lon="-2.505048000">
        <ele>904.60</ele>
        <time>2012-11-24T12:35:28Z</time>
      </trkpt>
      <trkpt lat="42.313963000" lon="-2.505091000">
        <ele>904.40</ele>
        <time>2012-11-24T12:35:29Z</time>
      </trkpt>
      <trkpt lat="42.313983000" lon="-2.505156000">
        <ele>903.80</ele>
        <time>2012-11-24T12:35:33Z</time>
      </trkpt>
      <trkpt lat="42.313988000" lon="-2.505183000">
        <ele>903.60</ele>
        <time>2012-11-24T12:35:33Z</time>
      </trkpt>
      <trkpt lat="42.314006000" lon="-2.505236000">
        <ele>903.10</ele>
        <time>2012-11-24T12:35:36Z</time>
      </trkpt>
      <trkpt lat="42.314011000" lon="-2.505261000">
        <ele>902.80</ele>
        <time>2012-11-24T12:35:36Z</time>
      </trkpt>
      <trkpt lat="42.314021000" lon="-2.505341000">
        <ele>901.90</ele>
        <time>2012-11-24T12:35:40Z</time>
      </trkpt>
      <trkpt lat="42.314028000" lon="-2.505361000">
        <ele>901.70</ele>
        <time>2012-11-24T12:35:40Z</time>
      </trkpt>
      <trkpt lat="42.314036000" lon="-2.505376000">
        <ele>901.50</ele>
        <time>2012-11-24T12:35:42Z</time>
      </trkpt>
      <trkpt lat="42.314046000" lon="-2.505389000">
        <ele>901.40</ele>
        <time>2012-11-24T12:35:43Z</time>
      </trkpt>
      <trkpt lat="42.314058000" lon="-2.505401000">
        <ele>901.40</ele>
        <time>2012-11-24T12:35:43Z</time>
      </trkpt>
      <trkpt lat="42.314071000" lon="-2.505406000">
        <ele>901.40</ele>
        <time>2012-11-24T12:35:45Z</time>
      </trkpt>
      <trkpt lat="42.314098000" lon="-2.505409000">
        <ele>901.70</ele>
        <time>2012-11-24T12:35:47Z</time>
      </trkpt>
      <trkpt lat="42.314130000" lon="-2.505401000">
        <ele>902.20</ele>
        <time>2012-11-24T12:35:48Z</time>
      </trkpt>
      <trkpt lat="42.314168000" lon="-2.505381000">
        <ele>902.90</ele>
        <time>2012-11-24T12:35:50Z</time>
      </trkpt>
      <trkpt lat="42.314193000" lon="-2.505373000">
        <ele>903.30</ele>
        <time>2012-11-24T12:35:52Z</time>
      </trkpt>
      <trkpt lat="42.314293000" lon="-2.505363000">
        <ele>905.10</ele>
        <time>2012-11-24T12:35:55Z</time>
      </trkpt>
      <trkpt lat="42.314378000" lon="-2.505378000">
        <ele>906.50</ele>
        <time>2012-11-24T12:35:59Z</time>
      </trkpt>
      <trkpt lat="42.314396000" lon="-2.505388000">
        <ele>906.70</ele>
        <time>2012-11-24T12:36:01Z</time>
      </trkpt>
      <trkpt lat="42.314446000" lon="-2.505431000">
        <ele>907.20</ele>
        <time>2012-11-24T12:36:04Z</time>
      </trkpt>
      <trkpt lat="42.314463000" lon="-2.505441000">
        <ele>907.30</ele>
        <time>2012-11-24T12:36:04Z</time>
      </trkpt>
      <trkpt lat="42.314505000" lon="-2.505491000">
        <ele>907.20</ele>
        <time>2012-11-24T12:36:08Z</time>
      </trkpt>
      <trkpt lat="42.314623000" lon="-2.505568000">
        <ele>907.20</ele>
        <time>2012-11-24T12:36:15Z</time>
      </trkpt>
      <trkpt lat="42.314643000" lon="-2.505576000">
        <ele>907.20</ele>
        <time>2012-11-24T12:36:16Z</time>
      </trkpt>
      <trkpt lat="42.314705000" lon="-2.505601000">
        <ele>907.50</ele>
        <time>2012-11-24T12:36:20Z</time>
      </trkpt>
      <trkpt lat="42.314720000" lon="-2.505618000">
        <ele>907.40</ele>
        <time>2012-11-24T12:36:20Z</time>
      </trkpt>
      <trkpt lat="42.314756000" lon="-2.505644000">
        <ele>907.40</ele>
        <time>2012-11-24T12:36:23Z</time>
      </trkpt>
      <trkpt lat="42.314796000" lon="-2.505679000">
        <ele>907.20</ele>
        <time>2012-11-24T12:36:25Z</time>
      </trkpt>
      <trkpt lat="42.314798000" lon="-2.505683000">
        <ele>907.20</ele>
        <time>2012-11-24T12:36:27Z</time>
      </trkpt>
      <trkpt lat="42.314800000" lon="-2.505683000">
        <ele>907.10</ele>
        <time>2012-11-24T12:36:27Z</time>
      </trkpt>
      <trkpt lat="42.314801000" lon="-2.505684000">
        <ele>907.10</ele>
        <time>2012-11-24T12:36:29Z</time>
      </trkpt>
      <trkpt lat="42.314801000" lon="-2.505686000">
        <ele>907.10</ele>
        <time>2012-11-24T12:36:30Z</time>
      </trkpt>
      <trkpt lat="42.314803000" lon="-2.505684000">
        <ele>907.10</ele>
        <time>2012-11-24T12:36:30Z</time>
      </trkpt>
      <trkpt lat="42.314808000" lon="-2.505684000">
        <ele>907.20</ele>
        <time>2012-11-24T12:36:32Z</time>
      </trkpt>
      <trkpt lat="42.314840000" lon="-2.505708000">
        <ele>907.20</ele>
        <time>2012-11-24T12:36:34Z</time>
      </trkpt>
      <trkpt lat="42.314860000" lon="-2.505726000">
        <ele>907.10</ele>
        <time>2012-11-24T12:36:37Z</time>
      </trkpt>
      <trkpt lat="42.314890000" lon="-2.505749000">
        <ele>907.00</ele>
        <time>2012-11-24T12:36:39Z</time>
      </trkpt>
      <trkpt lat="42.314925000" lon="-2.505783000">
        <ele>906.90</ele>
        <time>2012-11-24T12:36:44Z</time>
      </trkpt>
      <trkpt lat="42.314965000" lon="-2.505801000">
        <ele>907.00</ele>
        <time>2012-11-24T12:36:48Z</time>
      </trkpt>
      <trkpt lat="42.315013000" lon="-2.505836000">
        <ele>907.10</ele>
        <time>2012-11-24T12:36:53Z</time>
      </trkpt>
      <trkpt lat="42.315043000" lon="-2.505846000">
        <ele>907.20</ele>
        <time>2012-11-24T12:36:55Z</time>
      </trkpt>
      <trkpt lat="42.315053000" lon="-2.505846000">
        <ele>907.30</ele>
        <time>2012-11-24T12:36:56Z</time>
      </trkpt>
      <trkpt lat="42.315133000" lon="-2.505864000">
        <ele>908.10</ele>
        <time>2012-11-24T12:37:03Z</time>
      </trkpt>
      <trkpt lat="42.315156000" lon="-2.505873000">
        <ele>908.30</ele>
        <time>2012-11-24T12:37:05Z</time>
      </trkpt>
      <trkpt lat="42.315255000" lon="-2.505861000">
        <ele>909.90</ele>
        <time>2012-11-24T12:37:14Z</time>
      </trkpt>
      <trkpt lat="42.315293000" lon="-2.505866000">
        <ele>910.40</ele>
        <time>2012-11-24T12:37:17Z</time>
      </trkpt>
      <trkpt lat="42.315303000" lon="-2.505866000">
        <ele>910.50</ele>
        <time>2012-11-24T12:37:17Z</time>
      </trkpt>
      <trkpt lat="42.315360000" lon="-2.505859000">
        <ele>911.50</ele>
        <time>2012-11-24T12:37:24Z</time>
      </trkpt>
      <trkpt lat="42.315370000" lon="-2.505856000">
        <ele>911.60</ele>
        <time>2012-11-24T12:37:24Z</time>
      </trkpt>
      <trkpt lat="42.315393000" lon="-2.505834000">
        <ele>912.30</ele>
        <time>2012-11-24T12:37:28Z</time>
      </trkpt>
      <trkpt lat="42.315398000" lon="-2.505828000">
        <ele>912.50</ele>
        <time>2012-11-24T12:37:28Z</time>
      </trkpt>
      <trkpt lat="42.315405000" lon="-2.505823000">
        <ele>912.70</ele>
        <time>2012-11-24T12:37:30Z</time>
      </trkpt>
      <trkpt lat="42.315421000" lon="-2.505821000">
        <ele>913.00</ele>
        <time>2012-11-24T12:37:31Z</time>
      </trkpt>
      <trkpt lat="42.315423000" lon="-2.505823000">
        <ele>913.10</ele>
        <time>2012-11-24T12:37:33Z</time>
      </trkpt>
      <trkpt lat="42.315421000" lon="-2.505824000">
        <ele>913.10</ele>
        <time>2012-11-24T12:37:33Z</time>
      </trkpt>
      <trkpt lat="42.315423000" lon="-2.505823000">
        <ele>913.10</ele>
        <time>2012-11-24T12:37:35Z</time>
      </trkpt>
      <trkpt lat="42.315426000" lon="-2.505821000">
        <ele>913.20</ele>
        <time>2012-11-24T12:37:35Z</time>
      </trkpt>
      <trkpt lat="42.315436000" lon="-2.505821000">
        <ele>913.20</ele>
        <time>2012-11-24T12:37:36Z</time>
      </trkpt>
      <trkpt lat="42.315571000" lon="-2.505848000">
        <ele>913.80</ele>
        <time>2012-11-24T12:37:43Z</time>
      </trkpt>
      <trkpt lat="42.315585000" lon="-2.505854000">
        <ele>913.90</ele>
        <time>2012-11-24T12:37:45Z</time>
      </trkpt>
      <trkpt lat="42.315588000" lon="-2.505864000">
        <ele>913.90</ele>
        <time>2012-11-24T12:37:47Z</time>
      </trkpt>
      <trkpt lat="42.315591000" lon="-2.505873000">
        <ele>913.80</ele>
        <time>2012-11-24T12:37:47Z</time>
      </trkpt>
      <trkpt lat="42.315591000" lon="-2.505874000">
        <ele>913.80</ele>
        <time>2012-11-24T12:37:49Z</time>
      </trkpt>
      <trkpt lat="42.315603000" lon="-2.505869000">
        <ele>913.80</ele>
        <time>2012-11-24T12:37:50Z</time>
      </trkpt>
      <trkpt lat="42.315613000" lon="-2.505873000">
        <ele>913.90</ele>
        <time>2012-11-24T12:37:52Z</time>
      </trkpt>
      <trkpt lat="42.315626000" lon="-2.505884000">
        <ele>913.90</ele>
        <time>2012-11-24T12:37:54Z</time>
      </trkpt>
      <trkpt lat="42.315655000" lon="-2.505891000">
        <ele>914.00</ele>
        <time>2012-11-24T12:37:57Z</time>
      </trkpt>
      <trkpt lat="42.315663000" lon="-2.505896000">
        <ele>914.00</ele>
        <time>2012-11-24T12:37:57Z</time>
      </trkpt>
      <trkpt lat="42.315673000" lon="-2.505908000">
        <ele>914.00</ele>
        <time>2012-11-24T12:37:59Z</time>
      </trkpt>
      <trkpt lat="42.315685000" lon="-2.505914000">
        <ele>914.00</ele>
        <time>2012-11-24T12:38:04Z</time>
      </trkpt>
      <trkpt lat="42.315688000" lon="-2.505918000">
        <ele>914.00</ele>
        <time>2012-11-24T12:38:04Z</time>
      </trkpt>
      <trkpt lat="42.315686000" lon="-2.505918000">
        <ele>914.00</ele>
        <time>2012-11-24T12:38:06Z</time>
      </trkpt>
      <trkpt lat="42.315690000" lon="-2.505914000">
        <ele>914.00</ele>
        <time>2012-11-24T12:38:08Z</time>
      </trkpt>
      <trkpt lat="42.315690000" lon="-2.505916000">
        <ele>914.00</ele>
        <time>2012-11-24T12:38:10Z</time>
      </trkpt>
      <trkpt lat="42.315698000" lon="-2.505918000">
        <ele>914.10</ele>
        <time>2012-11-24T12:38:11Z</time>
      </trkpt>
      <trkpt lat="42.315725000" lon="-2.505928000">
        <ele>914.20</ele>
        <time>2012-11-24T12:38:13Z</time>
      </trkpt>
      <trkpt lat="42.315831000" lon="-2.505989000">
        <ele>914.50</ele>
        <time>2012-11-24T12:38:20Z</time>
      </trkpt>
      <trkpt lat="42.315850000" lon="-2.506006000">
        <ele>914.50</ele>
        <time>2012-11-24T12:38:20Z</time>
      </trkpt>
      <trkpt lat="42.315966000" lon="-2.506114000">
        <ele>914.90</ele>
        <time>2012-11-24T12:38:27Z</time>
      </trkpt>
      <trkpt lat="42.316016000" lon="-2.506139000">
        <ele>915.20</ele>
        <time>2012-11-24T12:38:29Z</time>
      </trkpt>
      <trkpt lat="42.316121000" lon="-2.506164000">
        <ele>916.20</ele>
        <time>2012-11-24T12:38:32Z</time>
      </trkpt>
      <trkpt lat="42.316231000" lon="-2.506216000">
        <ele>917.30</ele>
        <time>2012-11-24T12:38:36Z</time>
      </trkpt>
      <trkpt lat="42.316346000" lon="-2.506229000">
        <ele>917.70</ele>
        <time>2012-11-24T12:38:39Z</time>
      </trkpt>
      <trkpt lat="42.316381000" lon="-2.506241000">
        <ele>917.60</ele>
        <time>2012-11-24T12:38:39Z</time>
      </trkpt>
      <trkpt lat="42.316455000" lon="-2.506288000">
        <ele>916.90</ele>
        <time>2012-11-24T12:38:43Z</time>
      </trkpt>
      <trkpt lat="42.316495000" lon="-2.506301000">
        <ele>916.40</ele>
        <time>2012-11-24T12:38:44Z</time>
      </trkpt>
      <trkpt lat="42.316511000" lon="-2.506314000">
        <ele>916.20</ele>
        <time>2012-11-24T12:38:46Z</time>
      </trkpt>
      <trkpt lat="42.316528000" lon="-2.506333000">
        <ele>915.90</ele>
        <time>2012-11-24T12:38:46Z</time>
      </trkpt>
      <trkpt lat="42.316546000" lon="-2.506348000">
        <ele>915.60</ele>
        <time>2012-11-24T12:38:48Z</time>
      </trkpt>
      <trkpt lat="42.316586000" lon="-2.506366000">
        <ele>915.10</ele>
        <time>2012-11-24T12:38:50Z</time>
      </trkpt>
      <trkpt lat="42.316678000" lon="-2.506363000">
        <ele>914.70</ele>
        <time>2012-11-24T12:38:53Z</time>
      </trkpt>
      <trkpt lat="42.316701000" lon="-2.506366000">
        <ele>914.60</ele>
        <time>2012-11-24T12:38:55Z</time>
      </trkpt>
      <trkpt lat="42.316741000" lon="-2.506383000">
        <ele>914.30</ele>
        <time>2012-11-24T12:38:57Z</time>
      </trkpt>
      <trkpt lat="42.316798000" lon="-2.506381000">
        <ele>914.00</ele>
        <time>2012-11-24T12:39:00Z</time>
      </trkpt>
      <trkpt lat="42.316818000" lon="-2.506386000">
        <ele>914.00</ele>
        <time>2012-11-24T12:39:00Z</time>
      </trkpt>
      <trkpt lat="42.316866000" lon="-2.506419000">
        <ele>913.40</ele>
        <time>2012-11-24T12:39:04Z</time>
      </trkpt>
      <trkpt lat="42.316901000" lon="-2.506431000">
        <ele>913.10</ele>
        <time>2012-11-24T12:39:05Z</time>
      </trkpt>
      <trkpt lat="42.316920000" lon="-2.506428000">
        <ele>913.10</ele>
        <time>2012-11-24T12:39:07Z</time>
      </trkpt>
      <trkpt lat="42.316948000" lon="-2.506413000">
        <ele>913.10</ele>
        <time>2012-11-24T12:39:09Z</time>
      </trkpt>
      <trkpt lat="42.316966000" lon="-2.506408000">
        <ele>913.10</ele>
        <time>2012-11-24T12:39:09Z</time>
      </trkpt>
      <trkpt lat="42.316986000" lon="-2.506406000">
        <ele>913.10</ele>
        <time>2012-11-24T12:39:11Z</time>
      </trkpt>
      <trkpt lat="42.317006000" lon="-2.506411000">
        <ele>913.10</ele>
        <time>2012-11-24T12:39:12Z</time>
      </trkpt>
      <trkpt lat="42.317023000" lon="-2.506426000">
        <ele>912.90</ele>
        <time>2012-11-24T12:39:12Z</time>
      </trkpt>
      <trkpt lat="42.317048000" lon="-2.506466000">
        <ele>912.50</ele>
        <time>2012-11-24T12:39:14Z</time>
      </trkpt>
      <trkpt lat="42.317063000" lon="-2.506484000">
        <ele>912.20</ele>
        <time>2012-11-24T12:39:16Z</time>
      </trkpt>
      <trkpt lat="42.317080000" lon="-2.506499000">
        <ele>912.00</ele>
        <time>2012-11-24T12:39:16Z</time>
      </trkpt>
      <trkpt lat="42.317091000" lon="-2.506516000">
        <ele>911.70</ele>
        <time>2012-11-24T12:39:18Z</time>
      </trkpt>
      <trkpt lat="42.317113000" lon="-2.506558000">
        <ele>911.30</ele>
        <time>2012-11-24T12:39:19Z</time>
      </trkpt>
      <trkpt lat="42.317126000" lon="-2.506576000">
        <ele>911.00</ele>
        <time>2012-11-24T12:39:21Z</time>
      </trkpt>
      <trkpt lat="42.317136000" lon="-2.506596000">
        <ele>910.90</ele>
        <time>2012-11-24T12:39:21Z</time>
      </trkpt>
      <trkpt lat="42.317188000" lon="-2.506714000">
        <ele>909.50</ele>
        <time>2012-11-24T12:39:30Z</time>
      </trkpt>
      <trkpt lat="42.317193000" lon="-2.506719000">
        <ele>909.40</ele>
        <time>2012-11-24T12:39:30Z</time>
      </trkpt>
      <trkpt lat="42.317193000" lon="-2.506723000">
        <ele>909.30</ele>
        <time>2012-11-24T12:39:31Z</time>
      </trkpt>
      <trkpt lat="42.317198000" lon="-2.506723000">
        <ele>909.30</ele>
        <time>2012-11-24T12:39:33Z</time>
      </trkpt>
      <trkpt lat="42.317208000" lon="-2.506729000">
        <ele>909.30</ele>
        <time>2012-11-24T12:39:33Z</time>
      </trkpt>
      <trkpt lat="42.317211000" lon="-2.506743000">
        <ele>909.20</ele>
        <time>2012-11-24T12:39:35Z</time>
      </trkpt>
      <trkpt lat="42.317225000" lon="-2.506783000">
        <ele>908.90</ele>
        <time>2012-11-24T12:39:37Z</time>
      </trkpt>
      <trkpt lat="42.317228000" lon="-2.506793000">
        <ele>908.80</ele>
        <time>2012-11-24T12:39:38Z</time>
      </trkpt>
      <trkpt lat="42.317233000" lon="-2.506803000">
        <ele>908.70</ele>
        <time>2012-11-24T12:39:40Z</time>
      </trkpt>
      <trkpt lat="42.317241000" lon="-2.506829000">
        <ele>908.50</ele>
        <time>2012-11-24T12:39:42Z</time>
      </trkpt>
      <trkpt lat="42.317266000" lon="-2.506873000">
        <ele>908.20</ele>
        <time>2012-11-24T12:39:45Z</time>
      </trkpt>
      <trkpt lat="42.317273000" lon="-2.506881000">
        <ele>908.10</ele>
        <time>2012-11-24T12:39:47Z</time>
      </trkpt>
      <trkpt lat="42.317301000" lon="-2.506896000">
        <ele>908.10</ele>
        <time>2012-11-24T12:39:49Z</time>
      </trkpt>
      <trkpt lat="42.317341000" lon="-2.506913000">
        <ele>908.20</ele>
        <time>2012-11-24T12:39:54Z</time>
      </trkpt>
      <trkpt lat="42.317363000" lon="-2.506914000">
        <ele>908.40</ele>
        <time>2012-11-24T12:39:56Z</time>
      </trkpt>
      <trkpt lat="42.317385000" lon="-2.506919000">
        <ele>908.50</ele>
        <time>2012-11-24T12:39:58Z</time>
      </trkpt>
      <trkpt lat="42.317395000" lon="-2.506924000">
        <ele>908.60</ele>
        <time>2012-11-24T12:39:59Z</time>
      </trkpt>
      <trkpt lat="42.317421000" lon="-2.506954000">
        <ele>908.60</ele>
        <time>2012-11-24T12:40:01Z</time>
      </trkpt>
      <trkpt lat="42.317453000" lon="-2.506978000">
        <ele>908.70</ele>
        <time>2012-11-24T12:40:05Z</time>
      </trkpt>
      <trkpt lat="42.317461000" lon="-2.506989000">
        <ele>908.70</ele>
        <time>2012-11-24T12:40:06Z</time>
      </trkpt>
      <trkpt lat="42.317486000" lon="-2.507036000">
        <ele>908.60</ele>
        <time>2012-11-24T12:40:10Z</time>
      </trkpt>
      <trkpt lat="42.317498000" lon="-2.507049000">
        <ele>908.60</ele>
        <time>2012-11-24T12:40:12Z</time>
      </trkpt>
      <trkpt lat="42.317506000" lon="-2.507059000">
        <ele>908.70</ele>
        <time>2012-11-24T12:40:13Z</time>
      </trkpt>
      <trkpt lat="42.317513000" lon="-2.507073000">
        <ele>908.70</ele>
        <time>2012-11-24T12:40:13Z</time>
      </trkpt>
      <trkpt lat="42.317523000" lon="-2.507084000">
        <ele>908.70</ele>
        <time>2012-11-24T12:40:15Z</time>
      </trkpt>
      <trkpt lat="42.317530000" lon="-2.507098000">
        <ele>908.50</ele>
        <time>2012-11-24T12:40:15Z</time>
      </trkpt>
      <trkpt lat="42.317535000" lon="-2.507111000">
        <ele>908.30</ele>
        <time>2012-11-24T12:40:17Z</time>
      </trkpt>
      <trkpt lat="42.317538000" lon="-2.507124000">
        <ele>908.10</ele>
        <time>2012-11-24T12:40:17Z</time>
      </trkpt>
      <trkpt lat="42.317550000" lon="-2.507141000">
        <ele>907.60</ele>
        <time>2012-11-24T12:40:20Z</time>
      </trkpt>
      <trkpt lat="42.317558000" lon="-2.507146000">
        <ele>907.50</ele>
        <time>2012-11-24T12:40:20Z</time>
      </trkpt>
      <trkpt lat="42.317571000" lon="-2.507151000">
        <ele>907.40</ele>
        <time>2012-11-24T12:40:22Z</time>
      </trkpt>
      <trkpt lat="42.317581000" lon="-2.507159000">
        <ele>907.40</ele>
        <time>2012-11-24T12:40:22Z</time>
      </trkpt>
      <trkpt lat="42.317600000" lon="-2.507179000">
        <ele>907.10</ele>
        <time>2012-11-24T12:40:24Z</time>
      </trkpt>
      <trkpt lat="42.317608000" lon="-2.507193000">
        <ele>906.80</ele>
        <time>2012-11-24T12:40:25Z</time>
      </trkpt>
      <trkpt lat="42.317618000" lon="-2.507201000">
        <ele>906.70</ele>
        <time>2012-11-24T12:40:27Z</time>
      </trkpt>
      <trkpt lat="42.317625000" lon="-2.507209000">
        <ele>906.50</ele>
        <time>2012-11-24T12:40:27Z</time>
      </trkpt>
      <trkpt lat="42.317660000" lon="-2.507241000">
        <ele>905.90</ele>
        <time>2012-11-24T12:40:31Z</time>
      </trkpt>
      <trkpt lat="42.317666000" lon="-2.507248000">
        <ele>905.80</ele>
        <time>2012-11-24T12:40:32Z</time>
      </trkpt>
      <trkpt lat="42.317683000" lon="-2.507274000">
        <ele>905.20</ele>
        <time>2012-11-24T12:40:36Z</time>
      </trkpt>
      <trkpt lat="42.317685000" lon="-2.507286000">
        <ele>904.90</ele>
        <time>2012-11-24T12:40:38Z</time>
      </trkpt>
      <trkpt lat="42.317685000" lon="-2.507321000">
        <ele>904.00</ele>
        <time>2012-11-24T12:40:41Z</time>
      </trkpt>
      <trkpt lat="42.317691000" lon="-2.507338000">
        <ele>903.60</ele>
        <time>2012-11-24T12:40:43Z</time>
      </trkpt>
      <trkpt lat="42.317698000" lon="-2.507353000">
        <ele>903.20</ele>
        <time>2012-11-24T12:40:46Z</time>
      </trkpt>
      <trkpt lat="42.317711000" lon="-2.507381000">
        <ele>902.50</ele>
        <time>2012-11-24T12:40:48Z</time>
      </trkpt>
      <trkpt lat="42.317715000" lon="-2.507391000">
        <ele>902.30</ele>
        <time>2012-11-24T12:40:50Z</time>
      </trkpt>
      <trkpt lat="42.317718000" lon="-2.507394000">
        <ele>902.10</ele>
        <time>2012-11-24T12:40:50Z</time>
      </trkpt>
      <trkpt lat="42.317748000" lon="-2.507411000">
        <ele>901.70</ele>
        <time>2012-11-24T12:40:55Z</time>
      </trkpt>
      <trkpt lat="42.317810000" lon="-2.507428000">
        <ele>901.70</ele>
        <time>2012-11-24T12:41:00Z</time>
      </trkpt>
      <trkpt lat="42.317820000" lon="-2.507433000">
        <ele>901.70</ele>
        <time>2012-11-24T12:41:02Z</time>
      </trkpt>
      <trkpt lat="42.317831000" lon="-2.507436000">
        <ele>901.70</ele>
        <time>2012-11-24T12:41:02Z</time>
      </trkpt>
      <trkpt lat="42.317841000" lon="-2.507443000">
        <ele>901.60</ele>
        <time>2012-11-24T12:41:04Z</time>
      </trkpt>
      <trkpt lat="42.317851000" lon="-2.507444000">
        <ele>901.60</ele>
        <time>2012-11-24T12:41:04Z</time>
      </trkpt>
      <trkpt lat="42.317883000" lon="-2.507443000">
        <ele>901.80</ele>
        <time>2012-11-24T12:41:07Z</time>
      </trkpt>
      <trkpt lat="42.317893000" lon="-2.507446000">
        <ele>901.80</ele>
        <time>2012-11-24T12:41:09Z</time>
      </trkpt>
      <trkpt lat="42.317901000" lon="-2.507451000">
        <ele>901.80</ele>
        <time>2012-11-24T12:41:09Z</time>
      </trkpt>
      <trkpt lat="42.317928000" lon="-2.507471000">
        <ele>901.30</ele>
        <time>2012-11-24T12:41:12Z</time>
      </trkpt>
      <trkpt lat="42.317945000" lon="-2.507494000">
        <ele>900.50</ele>
        <time>2012-11-24T12:41:14Z</time>
      </trkpt>
      <trkpt lat="42.317961000" lon="-2.507511000">
        <ele>899.60</ele>
        <time>2012-11-24T12:41:16Z</time>
      </trkpt>
      <trkpt lat="42.317983000" lon="-2.507516000">
        <ele>898.60</ele>
        <time>2012-11-24T12:41:19Z</time>
      </trkpt>
      <trkpt lat="42.317996000" lon="-2.507513000">
        <ele>898.20</ele>
        <time>2012-11-24T12:41:23Z</time>
      </trkpt>
      <trkpt lat="42.318001000" lon="-2.507509000">
        <ele>898.20</ele>
        <time>2012-11-24T12:41:23Z</time>
      </trkpt>
      <trkpt lat="42.318010000" lon="-2.507506000">
        <ele>898.10</ele>
        <time>2012-11-24T12:41:25Z</time>
      </trkpt>
      <trkpt lat="42.318041000" lon="-2.507503000">
        <ele>897.60</ele>
        <time>2012-11-24T12:41:28Z</time>
      </trkpt>
      <trkpt lat="42.318085000" lon="-2.507501000">
        <ele>896.60</ele>
        <time>2012-11-24T12:41:32Z</time>
      </trkpt>
      <trkpt lat="42.318106000" lon="-2.507504000">
        <ele>896.00</ele>
        <time>2012-11-24T12:41:33Z</time>
      </trkpt>
      <trkpt lat="42.318150000" lon="-2.507513000">
        <ele>894.60</ele>
        <time>2012-11-24T12:41:39Z</time>
      </trkpt>
      <trkpt lat="42.318165000" lon="-2.507509000">
        <ele>894.30</ele>
        <time>2012-11-24T12:41:40Z</time>
      </trkpt>
      <trkpt lat="42.318173000" lon="-2.507509000">
        <ele>894.10</ele>
        <time>2012-11-24T12:41:42Z</time>
      </trkpt>
      <trkpt lat="42.318181000" lon="-2.507511000">
        <ele>893.90</ele>
        <time>2012-11-24T12:41:42Z</time>
      </trkpt>
      <trkpt lat="42.318188000" lon="-2.507514000">
        <ele>893.60</ele>
        <time>2012-11-24T12:41:44Z</time>
      </trkpt>
      <trkpt lat="42.318193000" lon="-2.507519000">
        <ele>893.40</ele>
        <time>2012-11-24T12:41:44Z</time>
      </trkpt>
      <trkpt lat="42.318198000" lon="-2.507526000">
        <ele>893.10</ele>
        <time>2012-11-24T12:41:46Z</time>
      </trkpt>
      <trkpt lat="42.318203000" lon="-2.507534000">
        <ele>892.80</ele>
        <time>2012-11-24T12:41:47Z</time>
      </trkpt>
      <trkpt lat="42.318230000" lon="-2.507564000">
        <ele>891.20</ele>
        <time>2012-11-24T12:41:51Z</time>
      </trkpt>
      <trkpt lat="42.318235000" lon="-2.507569000">
        <ele>890.90</ele>
        <time>2012-11-24T12:41:53Z</time>
      </trkpt>
      <trkpt lat="42.318240000" lon="-2.507573000">
        <ele>890.60</ele>
        <time>2012-11-24T12:41:54Z</time>
      </trkpt>
      <trkpt lat="42.318241000" lon="-2.507578000">
        <ele>890.30</ele>
        <time>2012-11-24T12:41:56Z</time>
      </trkpt>
      <trkpt lat="42.318241000" lon="-2.507576000">
        <ele>890.20</ele>
        <time>2012-11-24T12:41:56Z</time>
      </trkpt>
      <trkpt lat="42.318243000" lon="-2.507574000">
        <ele>890.20</ele>
        <time>2012-11-24T12:41:58Z</time>
      </trkpt>
      <trkpt lat="42.318243000" lon="-2.507576000">
        <ele>890.10</ele>
        <time>2012-11-24T12:41:58Z</time>
      </trkpt>
      <trkpt lat="42.318243000" lon="-2.507578000">
        <ele>890.10</ele>
        <time>2012-11-24T12:42:03Z</time>
      </trkpt>
      <trkpt lat="42.318243000" lon="-2.507578000">
        <ele>890.10</ele>
        <time>2012-11-24T12:42:05Z</time>
      </trkpt>
      <trkpt lat="42.318243000" lon="-2.507579000">
        <ele>890.00</ele>
        <time>2012-11-24T12:42:08Z</time>
      </trkpt>
      <trkpt lat="42.318241000" lon="-2.507581000">
        <ele>890.00</ele>
        <time>2012-11-24T12:42:10Z</time>
      </trkpt>
      <trkpt lat="42.318245000" lon="-2.507583000">
        <ele>889.90</ele>
        <time>2012-11-24T12:42:10Z</time>
      </trkpt>
      <trkpt lat="42.318250000" lon="-2.507593000">
        <ele>889.60</ele>
        <time>2012-11-24T12:42:12Z</time>
      </trkpt>
      <trkpt lat="42.318253000" lon="-2.507599000">
        <ele>889.40</ele>
        <time>2012-11-24T12:42:13Z</time>
      </trkpt>
      <trkpt lat="42.318256000" lon="-2.507608000">
        <ele>889.10</ele>
        <time>2012-11-24T12:42:15Z</time>
      </trkpt>
      <trkpt lat="42.318266000" lon="-2.507623000">
        <ele>888.50</ele>
        <time>2012-11-24T12:42:17Z</time>
      </trkpt>
      <trkpt lat="42.318270000" lon="-2.507626000">
        <ele>888.20</ele>
        <time>2012-11-24T12:42:17Z</time>
      </trkpt>
      <trkpt lat="42.318276000" lon="-2.507633000">
        <ele>887.80</ele>
        <time>2012-11-24T12:42:19Z</time>
      </trkpt>
      <trkpt lat="42.318275000" lon="-2.507633000">
        <ele>887.70</ele>
        <time>2012-11-24T12:42:20Z</time>
      </trkpt>
      <trkpt lat="42.318276000" lon="-2.507636000">
        <ele>887.60</ele>
        <time>2012-11-24T12:42:22Z</time>
      </trkpt>
      <trkpt lat="42.318291000" lon="-2.507649000">
        <ele>886.90</ele>
        <time>2012-11-24T12:42:24Z</time>
      </trkpt>
      <trkpt lat="42.318295000" lon="-2.507656000">
        <ele>886.80</ele>
        <time>2012-11-24T12:42:26Z</time>
      </trkpt>
      <trkpt lat="42.318300000" lon="-2.507659000">
        <ele>886.40</ele>
        <time>2012-11-24T12:42:26Z</time>
      </trkpt>
      <trkpt lat="42.318305000" lon="-2.507661000">
        <ele>886.20</ele>
        <time>2012-11-24T12:42:27Z</time>
      </trkpt>
      <trkpt lat="42.318318000" lon="-2.507669000">
        <ele>885.60</ele>
        <time>2012-11-24T12:42:31Z</time>
      </trkpt>
      <trkpt lat="42.318323000" lon="-2.507673000">
        <ele>885.40</ele>
        <time>2012-11-24T12:42:31Z</time>
      </trkpt>
      <trkpt lat="42.318328000" lon="-2.507678000">
        <ele>885.20</ele>
        <time>2012-11-24T12:42:33Z</time>
      </trkpt>
      <trkpt lat="42.318333000" lon="-2.507683000">
        <ele>884.90</ele>
        <time>2012-11-24T12:42:34Z</time>
      </trkpt>
      <trkpt lat="42.318336000" lon="-2.507688000">
        <ele>884.70</ele>
        <time>2012-11-24T12:42:34Z</time>
      </trkpt>
      <trkpt lat="42.318350000" lon="-2.507699000">
        <ele>884.10</ele>
        <time>2012-11-24T12:42:36Z</time>
      </trkpt>
      <trkpt lat="42.318353000" lon="-2.507704000">
        <ele>883.80</ele>
        <time>2012-11-24T12:42:38Z</time>
      </trkpt>
      <trkpt lat="42.318371000" lon="-2.507726000">
        <ele>882.60</ele>
        <time>2012-11-24T12:42:41Z</time>
      </trkpt>
      <trkpt lat="42.318388000" lon="-2.507741000">
        <ele>881.70</ele>
        <time>2012-11-24T12:42:45Z</time>
      </trkpt>
      <trkpt lat="42.318398000" lon="-2.507743000">
        <ele>881.30</ele>
        <time>2012-11-24T12:42:48Z</time>
      </trkpt>
      <trkpt lat="42.318410000" lon="-2.507748000">
        <ele>881.00</ele>
        <time>2012-11-24T12:42:50Z</time>
      </trkpt>
      <trkpt lat="42.318423000" lon="-2.507751000">
        <ele>880.50</ele>
        <time>2012-11-24T12:42:52Z</time>
      </trkpt>
      <trkpt lat="42.318426000" lon="-2.507748000">
        <ele>880.40</ele>
        <time>2012-11-24T12:42:52Z</time>
      </trkpt>
      <trkpt lat="42.318446000" lon="-2.507739000">
        <ele>880.10</ele>
        <time>2012-11-24T12:42:57Z</time>
      </trkpt>
      <trkpt lat="42.318451000" lon="-2.507739000">
        <ele>880.00</ele>
        <time>2012-11-24T12:42:57Z</time>
      </trkpt>
      <trkpt lat="42.318458000" lon="-2.507741000">
        <ele>879.90</ele>
        <time>2012-11-24T12:42:59Z</time>
      </trkpt>
      <trkpt lat="42.318465000" lon="-2.507744000">
        <ele>879.70</ele>
        <time>2012-11-24T12:42:59Z</time>
      </trkpt>
      <trkpt lat="42.318478000" lon="-2.507748000">
        <ele>879.20</ele>
        <time>2012-11-24T12:43:02Z</time>
      </trkpt>
      <trkpt lat="42.318486000" lon="-2.507749000">
        <ele>879.00</ele>
        <time>2012-11-24T12:43:02Z</time>
      </trkpt>
      <trkpt lat="42.318516000" lon="-2.507773000">
        <ele>877.70</ele>
        <time>2012-11-24T12:43:06Z</time>
      </trkpt>
      <trkpt lat="42.318523000" lon="-2.507779000">
        <ele>877.30</ele>
        <time>2012-11-24T12:43:07Z</time>
      </trkpt>
      <trkpt lat="42.318528000" lon="-2.507786000">
        <ele>877.00</ele>
        <time>2012-11-24T12:43:09Z</time>
      </trkpt>
      <trkpt lat="42.318563000" lon="-2.507814000">
        <ele>875.10</ele>
        <time>2012-11-24T12:43:14Z</time>
      </trkpt>
      <trkpt lat="42.318568000" lon="-2.507821000">
        <ele>874.80</ele>
        <time>2012-11-24T12:43:16Z</time>
      </trkpt>
      <trkpt lat="42.318575000" lon="-2.507823000">
        <ele>874.60</ele>
        <time>2012-11-24T12:43:16Z</time>
      </trkpt>
      <trkpt lat="42.318586000" lon="-2.507834000">
        <ele>874.00</ele>
        <time>2012-11-24T12:43:18Z</time>
      </trkpt>
      <trkpt lat="42.318625000" lon="-2.507866000">
        <ele>872.00</ele>
        <time>2012-11-24T12:43:25Z</time>
      </trkpt>
      <trkpt lat="42.318633000" lon="-2.507869000">
        <ele>871.70</ele>
        <time>2012-11-24T12:43:25Z</time>
      </trkpt>
      <trkpt lat="42.318640000" lon="-2.507874000">
        <ele>871.40</ele>
        <time>2012-11-24T12:43:27Z</time>
      </trkpt>
      <trkpt lat="42.318645000" lon="-2.507878000">
        <ele>871.30</ele>
        <time>2012-11-24T12:43:28Z</time>
      </trkpt>
      <trkpt lat="42.318650000" lon="-2.507883000">
        <ele>870.90</ele>
        <time>2012-11-24T12:43:28Z</time>
      </trkpt>
      <trkpt lat="42.318653000" lon="-2.507888000">
        <ele>870.60</ele>
        <time>2012-11-24T12:43:30Z</time>
      </trkpt>
      <trkpt lat="42.318656000" lon="-2.507894000">
        <ele>870.30</ele>
        <time>2012-11-24T12:43:30Z</time>
      </trkpt>
      <trkpt lat="42.318683000" lon="-2.507923000">
        <ele>868.50</ele>
        <time>2012-11-24T12:43:37Z</time>
      </trkpt>
      <trkpt lat="42.318693000" lon="-2.507929000">
        <ele>867.70</ele>
        <time>2012-11-24T12:43:39Z</time>
      </trkpt>
      <trkpt lat="42.318696000" lon="-2.507931000">
        <ele>867.30</ele>
        <time>2012-11-24T12:43:39Z</time>
      </trkpt>
      <trkpt lat="42.318706000" lon="-2.507934000">
        <ele>866.90</ele>
        <time>2012-11-24T12:43:41Z</time>
      </trkpt>
      <trkpt lat="42.318716000" lon="-2.507936000">
        <ele>866.30</ele>
        <time>2012-11-24T12:43:42Z</time>
      </trkpt>
      <trkpt lat="42.318723000" lon="-2.507938000">
        <ele>866.00</ele>
        <time>2012-11-24T12:43:44Z</time>
      </trkpt>
      <trkpt lat="42.318731000" lon="-2.507939000">
        <ele>865.60</ele>
        <time>2012-11-24T12:43:44Z</time>
      </trkpt>
      <trkpt lat="42.318738000" lon="-2.507939000">
        <ele>865.40</ele>
        <time>2012-11-24T12:43:46Z</time>
      </trkpt>
      <trkpt lat="42.318745000" lon="-2.507941000">
        <ele>865.10</ele>
        <time>2012-11-24T12:43:46Z</time>
      </trkpt>
      <trkpt lat="42.318750000" lon="-2.507943000">
        <ele>864.80</ele>
        <time>2012-11-24T12:43:47Z</time>
      </trkpt>
      <trkpt lat="42.318756000" lon="-2.507944000">
        <ele>864.10</ele>
        <time>2012-11-24T12:43:49Z</time>
      </trkpt>
      <trkpt lat="42.318763000" lon="-2.507948000">
        <ele>863.20</ele>
        <time>2012-11-24T12:43:49Z</time>
      </trkpt>
      <trkpt lat="42.318770000" lon="-2.507951000">
        <ele>862.10</ele>
        <time>2012-11-24T12:43:51Z</time>
      </trkpt>
      <trkpt lat="42.318775000" lon="-2.507958000">
        <ele>860.90</ele>
        <time>2012-11-24T12:43:51Z</time>
      </trkpt>
      <trkpt lat="42.318781000" lon="-2.507973000">
        <ele>858.50</ele>
        <time>2012-11-24T12:43:53Z</time>
      </trkpt>
      <trkpt lat="42.318788000" lon="-2.507976000">
        <ele>857.30</ele>
        <time>2012-11-24T12:43:54Z</time>
      </trkpt>
      <trkpt lat="42.318798000" lon="-2.507984000">
        <ele>854.10</ele>
        <time>2012-11-24T12:43:58Z</time>
      </trkpt>
      <trkpt lat="42.318798000" lon="-2.507984000">
        <ele>854.10</ele>
        <time>2012-11-24T12:44:01Z</time>
      </trkpt>
      <trkpt lat="42.318800000" lon="-2.507984000">
        <ele>853.50</ele>
        <time>2012-11-24T12:44:03Z</time>
      </trkpt>
      <trkpt lat="42.318800000" lon="-2.507984000">
        <ele>853.50</ele>
        <time>2012-11-24T12:44:05Z</time>
      </trkpt>
      <trkpt lat="42.318801000" lon="-2.507984000">
        <ele>853.20</ele>
        <time>2012-11-24T12:44:08Z</time>
      </trkpt>
      <trkpt lat="42.318801000" lon="-2.507983000">
        <ele>853.20</ele>
        <time>2012-11-24T12:44:10Z</time>
      </trkpt>
      <trkpt lat="42.318801000" lon="-2.507983000">
        <ele>853.20</ele>
        <time>2012-11-24T12:44:10Z</time>
      </trkpt>
      <trkpt lat="42.318803000" lon="-2.507983000">
        <ele>853.20</ele>
        <time>2012-11-24T12:44:12Z</time>
      </trkpt>
      <trkpt lat="42.318803000" lon="-2.507983000">
        <ele>853.20</ele>
        <time>2012-11-24T12:44:12Z</time>
      </trkpt>
      <trkpt lat="42.318805000" lon="-2.507983000">
        <ele>853.00</ele>
        <time>2012-11-24T12:44:15Z</time>
      </trkpt>
      <trkpt lat="42.318805000" lon="-2.507983000">
        <ele>853.00</ele>
        <time>2012-11-24T12:44:19Z</time>
      </trkpt>
      <trkpt lat="42.318806000" lon="-2.507983000">
        <ele>852.70</ele>
        <time>2012-11-24T12:44:21Z</time>
      </trkpt>
      <trkpt lat="42.318806000" lon="-2.507983000">
        <ele>852.70</ele>
        <time>2012-11-24T12:44:22Z</time>
      </trkpt>
      <trkpt lat="42.318806000" lon="-2.507981000">
        <ele>852.70</ele>
        <time>2012-11-24T12:44:26Z</time>
      </trkpt>
      <trkpt lat="42.318808000" lon="-2.507983000">
        <ele>852.50</ele>
        <time>2012-11-24T12:44:26Z</time>
      </trkpt>
      <trkpt lat="42.318808000" lon="-2.507983000">
        <ele>852.50</ele>
        <time>2012-11-24T12:44:33Z</time>
      </trkpt>
      <trkpt lat="42.318810000" lon="-2.507983000">
        <ele>852.20</ele>
        <time>2012-11-24T12:44:33Z</time>
      </trkpt>
      <trkpt lat="42.318810000" lon="-2.507984000">
        <ele>852.10</ele>
        <time>2012-11-24T12:44:36Z</time>
      </trkpt>
      <trkpt lat="42.318810000" lon="-2.507983000">
        <ele>852.10</ele>
        <time>2012-11-24T12:44:38Z</time>
      </trkpt>
      <trkpt lat="42.318811000" lon="-2.507984000">
        <ele>851.90</ele>
        <time>2012-11-24T12:44:41Z</time>
      </trkpt>
      <trkpt lat="42.318811000" lon="-2.507984000">
        <ele>851.90</ele>
        <time>2012-11-24T12:44:47Z</time>
      </trkpt>
      <trkpt lat="42.318811000" lon="-2.507983000">
        <ele>851.80</ele>
        <time>2012-11-24T12:44:48Z</time>
      </trkpt>
      <trkpt lat="42.318813000" lon="-2.507983000">
        <ele>851.80</ele>
        <time>2012-11-24T12:44:52Z</time>
      </trkpt>
      <trkpt lat="42.318813000" lon="-2.507984000">
        <ele>851.50</ele>
        <time>2012-11-24T12:44:59Z</time>
      </trkpt>
      <trkpt lat="42.318815000" lon="-2.507984000">
        <ele>851.40</ele>
        <time>2012-11-24T12:45:02Z</time>
      </trkpt>
      <trkpt lat="42.318810000" lon="-2.507991000">
        <ele>851.40</ele>
        <time>2012-11-24T12:45:04Z</time>
      </trkpt>
      <trkpt lat="42.318810000" lon="-2.507993000">
        <ele>851.30</ele>
        <time>2012-11-24T12:45:08Z</time>
      </trkpt>
      <trkpt lat="42.318810000" lon="-2.507993000">
        <ele>851.30</ele>
        <time>2012-11-24T12:45:09Z</time>
      </trkpt>
      <trkpt lat="42.318810000" lon="-2.507994000">
        <ele>851.10</ele>
        <time>2012-11-24T12:45:13Z</time>
      </trkpt>
      <trkpt lat="42.318808000" lon="-2.507994000">
        <ele>851.20</ele>
        <time>2012-11-24T12:45:39Z</time>
      </trkpt>
      <trkpt lat="42.318808000" lon="-2.507993000">
        <ele>851.30</ele>
        <time>2012-11-24T12:45:42Z</time>
      </trkpt>
      <trkpt lat="42.318808000" lon="-2.507993000">
        <ele>851.30</ele>
        <time>2012-11-24T12:45:44Z</time>
      </trkpt>
      <trkpt lat="42.318810000" lon="-2.507993000">
        <ele>851.30</ele>
        <time>2012-11-24T12:46:09Z</time>
      </trkpt>
      <trkpt lat="42.318808000" lon="-2.507993000">
        <ele>851.40</ele>
        <time>2012-11-24T12:46:10Z</time>
      </trkpt>
      <trkpt lat="42.318810000" lon="-2.507993000">
        <ele>851.30</ele>
        <time>2012-11-24T12:46:14Z</time>
      </trkpt>
      <trkpt lat="42.318810000" lon="-2.507993000">
        <ele>851.30</ele>
        <time>2012-11-24T12:46:17Z</time>
      </trkpt>
      <trkpt lat="42.318808000" lon="-2.507993000">
        <ele>851.30</ele>
        <time>2012-11-24T12:46:19Z</time>
      </trkpt>
      <trkpt lat="42.318808000" lon="-2.507993000">
        <ele>851.30</ele>
        <time>2012-11-24T12:46:21Z</time>
      </trkpt>
      <trkpt lat="42.318810000" lon="-2.507994000">
        <ele>851.30</ele>
        <time>2012-11-24T12:46:28Z</time>
      </trkpt>
      <trkpt lat="42.318810000" lon="-2.507994000">
        <ele>851.30</ele>
        <time>2012-11-24T12:46:31Z</time>
      </trkpt>
      <trkpt lat="42.318810000" lon="-2.507996000">
        <ele>851.00</ele>
        <time>2012-11-24T12:46:33Z</time>
      </trkpt>
      <trkpt lat="42.318810000" lon="-2.507996000">
        <ele>851.00</ele>
        <time>2012-11-24T12:46:35Z</time>
      </trkpt>
      <trkpt lat="42.318810000" lon="-2.507998000">
        <ele>850.90</ele>
        <time>2012-11-24T12:46:35Z</time>
      </trkpt>
      <trkpt lat="42.318810000" lon="-2.507998000">
        <ele>850.90</ele>
        <time>2012-11-24T12:46:43Z</time>
      </trkpt>
      <trkpt lat="42.318810000" lon="-2.507996000">
        <ele>850.80</ele>
        <time>2012-11-24T12:46:49Z</time>
      </trkpt>
      <trkpt lat="42.318810000" lon="-2.507996000">
        <ele>850.80</ele>
        <time>2012-11-24T12:46:49Z</time>
      </trkpt>
      <trkpt lat="42.318810000" lon="-2.507998000">
        <ele>850.80</ele>
        <time>2012-11-24T12:46:50Z</time>
      </trkpt>
      <trkpt lat="42.318810000" lon="-2.507996000">
        <ele>850.80</ele>
        <time>2012-11-24T12:46:52Z</time>
      </trkpt>
      <trkpt lat="42.318810000" lon="-2.507996000">
        <ele>850.80</ele>
        <time>2012-11-24T12:46:52Z</time>
      </trkpt>
      <trkpt lat="42.318810000" lon="-2.507998000">
        <ele>850.80</ele>
        <time>2012-11-24T12:46:54Z</time>
      </trkpt>
      <trkpt lat="42.318810000" lon="-2.507996000">
        <ele>850.80</ele>
        <time>2012-11-24T12:46:59Z</time>
      </trkpt>
      <trkpt lat="42.318810000" lon="-2.507996000">
        <ele>850.80</ele>
        <time>2012-11-24T12:47:01Z</time>
      </trkpt>
      <trkpt lat="42.318810000" lon="-2.507998000">
        <ele>850.80</ele>
        <time>2012-11-24T12:47:04Z</time>
      </trkpt>
      <trkpt lat="42.318810000" lon="-2.507994000">
        <ele>851.00</ele>
        <time>2012-11-24T12:47:13Z</time>
      </trkpt>
      <trkpt lat="42.318811000" lon="-2.507994000">
        <ele>850.90</ele>
        <time>2012-11-24T12:47:13Z</time>
      </trkpt>
      <trkpt lat="42.318811000" lon="-2.507994000">
        <ele>850.90</ele>
        <time>2012-11-24T12:47:15Z</time>
      </trkpt>
      <trkpt lat="42.318811000" lon="-2.507993000">
        <ele>851.00</ele>
        <time>2012-11-24T12:47:20Z</time>
      </trkpt>
      <trkpt lat="42.318811000" lon="-2.507991000">
        <ele>851.00</ele>
        <time>2012-11-24T12:47:27Z</time>
      </trkpt>
      <trkpt lat="42.318811000" lon="-2.507991000">
        <ele>851.00</ele>
        <time>2012-11-24T12:47:29Z</time>
      </trkpt>
      <trkpt lat="42.318811000" lon="-2.507989000">
        <ele>851.20</ele>
        <time>2012-11-24T12:47:36Z</time>
      </trkpt>
      <trkpt lat="42.318811000" lon="-2.507988000">
        <ele>851.30</ele>
        <time>2012-11-24T12:48:24Z</time>
      </trkpt>
      <trkpt lat="42.318811000" lon="-2.507988000">
        <ele>851.30</ele>
        <time>2012-11-24T12:48:26Z</time>
      </trkpt>
      <trkpt lat="42.318813000" lon="-2.507988000">
        <ele>851.30</ele>
        <time>2012-11-24T12:48:42Z</time>
      </trkpt>
      <trkpt lat="42.318813000" lon="-2.507986000">
        <ele>851.30</ele>
        <time>2012-11-24T12:48:42Z</time>
      </trkpt>
      <trkpt lat="42.318813000" lon="-2.507984000">
        <ele>851.40</ele>
        <time>2012-11-24T12:49:08Z</time>
      </trkpt>
      <trkpt lat="42.318813000" lon="-2.507984000">
        <ele>851.40</ele>
        <time>2012-11-24T12:49:10Z</time>
      </trkpt>
      <trkpt lat="42.318815000" lon="-2.507984000">
        <ele>851.40</ele>
        <time>2012-11-24T12:49:15Z</time>
      </trkpt>
      <trkpt lat="42.318815000" lon="-2.507984000">
        <ele>851.40</ele>
        <time>2012-11-24T12:49:17Z</time>
      </trkpt>
      <trkpt lat="42.318815000" lon="-2.507984000">
        <ele>851.40</ele>
        <time>2012-11-24T12:49:20Z</time>
      </trkpt>
      <trkpt lat="42.318815000" lon="-2.507984000">
        <ele>851.40</ele>
        <time>2012-11-24T12:49:22Z</time>
      </trkpt>
      <trkpt lat="42.318815000" lon="-2.507984000">
        <ele>851.40</ele>
        <time>2012-11-24T12:49:24Z</time>
      </trkpt>
      <trkpt lat="42.318815000" lon="-2.507983000">
        <ele>851.30</ele>
        <time>2012-11-24T12:49:24Z</time>
      </trkpt>
      <trkpt lat="42.318815000" lon="-2.507983000">
        <ele>851.30</ele>
        <time>2012-11-24T12:49:25Z</time>
      </trkpt>
      <trkpt lat="42.318815000" lon="-2.507983000">
        <ele>851.30</ele>
        <time>2012-11-24T12:49:27Z</time>
      </trkpt>
      <trkpt lat="42.318815000" lon="-2.507983000">
        <ele>851.30</ele>
        <time>2012-11-24T12:49:34Z</time>
      </trkpt>
      <trkpt lat="42.318815000" lon="-2.507981000">
        <ele>851.50</ele>
        <time>2012-11-24T12:49:34Z</time>
      </trkpt>
      <trkpt lat="42.318815000" lon="-2.507981000">
        <ele>851.50</ele>
        <time>2012-11-24T12:49:46Z</time>
      </trkpt>
      <trkpt lat="42.318815000" lon="-2.507979000">
        <ele>851.60</ele>
        <time>2012-11-24T12:49:48Z</time>
      </trkpt>
      <trkpt lat="42.318815000" lon="-2.507979000">
        <ele>851.60</ele>
        <time>2012-11-24T12:49:48Z</time>
      </trkpt>
      <trkpt lat="42.318815000" lon="-2.507979000">
        <ele>851.60</ele>
        <time>2012-11-24T12:49:52Z</time>
      </trkpt>
      <trkpt lat="42.318816000" lon="-2.507979000">
        <ele>851.60</ele>
        <time>2012-11-24T12:49:53Z</time>
      </trkpt>
      <trkpt lat="42.318816000" lon="-2.507979000">
        <ele>851.60</ele>
        <time>2012-11-24T12:49:53Z</time>
      </trkpt>
      <trkpt lat="42.318816000" lon="-2.507978000">
        <ele>851.60</ele>
        <time>2012-11-24T12:50:09Z</time>
      </trkpt>
      <trkpt lat="42.318818000" lon="-2.507976000">
        <ele>851.60</ele>
        <time>2012-11-24T12:50:26Z</time>
      </trkpt>
      <trkpt lat="42.318818000" lon="-2.507971000">
        <ele>851.70</ele>
        <time>2012-11-24T12:50:28Z</time>
      </trkpt>
      <trkpt lat="42.318820000" lon="-2.507963000">
        <ele>852.10</ele>
        <time>2012-11-24T12:50:28Z</time>
      </trkpt>
      <trkpt lat="42.318821000" lon="-2.507954000">
        <ele>852.50</ele>
        <time>2012-11-24T12:50:30Z</time>
      </trkpt>
      <trkpt lat="42.318821000" lon="-2.507949000">
        <ele>853.00</ele>
        <time>2012-11-24T12:50:30Z</time>
      </trkpt>
      <trkpt lat="42.318820000" lon="-2.507948000">
        <ele>853.40</ele>
        <time>2012-11-24T12:50:32Z</time>
      </trkpt>
      <trkpt lat="42.318820000" lon="-2.507944000">
        <ele>853.80</ele>
        <time>2012-11-24T12:50:33Z</time>
      </trkpt>
      <trkpt lat="42.318818000" lon="-2.507943000">
        <ele>854.10</ele>
        <time>2012-11-24T12:50:33Z</time>
      </trkpt>
      <trkpt lat="42.318816000" lon="-2.507939000">
        <ele>854.60</ele>
        <time>2012-11-24T12:50:35Z</time>
      </trkpt>
      <trkpt lat="42.318815000" lon="-2.507936000">
        <ele>855.10</ele>
        <time>2012-11-24T12:50:35Z</time>
      </trkpt>
      <trkpt lat="42.318811000" lon="-2.507931000">
        <ele>855.80</ele>
        <time>2012-11-24T12:50:37Z</time>
      </trkpt>
      <trkpt lat="42.318808000" lon="-2.507924000">
        <ele>856.30</ele>
        <time>2012-11-24T12:50:37Z</time>
      </trkpt>
      <trkpt lat="42.318805000" lon="-2.507919000">
        <ele>857.60</ele>
        <time>2012-11-24T12:50:39Z</time>
      </trkpt>
      <trkpt lat="42.318800000" lon="-2.507914000">
        <ele>858.50</ele>
        <time>2012-11-24T12:50:40Z</time>
      </trkpt>
      <trkpt lat="42.318780000" lon="-2.507908000">
        <ele>861.60</ele>
        <time>2012-11-24T12:50:42Z</time>
      </trkpt>
      <trkpt lat="42.318773000" lon="-2.507906000">
        <ele>862.60</ele>
        <time>2012-11-24T12:50:44Z</time>
      </trkpt>
      <trkpt lat="42.318766000" lon="-2.507906000">
        <ele>863.60</ele>
        <time>2012-11-24T12:50:44Z</time>
      </trkpt>
      <trkpt lat="42.318751000" lon="-2.507903000">
        <ele>865.70</ele>
        <time>2012-11-24T12:50:47Z</time>
      </trkpt>
      <trkpt lat="42.318745000" lon="-2.507901000">
        <ele>866.50</ele>
        <time>2012-11-24T12:50:47Z</time>
      </trkpt>
      <trkpt lat="42.318738000" lon="-2.507899000">
        <ele>867.00</ele>
        <time>2012-11-24T12:50:49Z</time>
      </trkpt>
      <trkpt lat="42.318723000" lon="-2.507901000">
        <ele>867.70</ele>
        <time>2012-11-24T12:50:51Z</time>
      </trkpt>
      <trkpt lat="42.318710000" lon="-2.507909000">
        <ele>868.00</ele>
        <time>2012-11-24T12:50:53Z</time>
      </trkpt>
      <trkpt lat="42.318691000" lon="-2.507918000">
        <ele>868.20</ele>
        <time>2012-11-24T12:50:54Z</time>
      </trkpt>
      <trkpt lat="42.318683000" lon="-2.507921000">
        <ele>868.20</ele>
        <time>2012-11-24T12:50:56Z</time>
      </trkpt>
      <trkpt lat="42.318676000" lon="-2.507919000">
        <ele>868.30</ele>
        <time>2012-11-24T12:50:56Z</time>
      </trkpt>
      <trkpt lat="42.318670000" lon="-2.507918000">
        <ele>868.50</ele>
        <time>2012-11-24T12:50:58Z</time>
      </trkpt>
      <trkpt lat="42.318665000" lon="-2.507913000">
        <ele>868.80</ele>
        <time>2012-11-24T12:50:58Z</time>
      </trkpt>
      <trkpt lat="42.318658000" lon="-2.507908000">
        <ele>869.80</ele>
        <time>2012-11-24T12:51:05Z</time>
      </trkpt>
      <trkpt lat="42.318658000" lon="-2.507911000">
        <ele>869.60</ele>
        <time>2012-11-24T12:51:06Z</time>
      </trkpt>
      <trkpt lat="42.318643000" lon="-2.507888000">
        <ele>870.20</ele>
        <time>2012-11-24T12:51:10Z</time>
      </trkpt>
      <trkpt lat="42.318630000" lon="-2.507871000">
        <ele>870.90</ele>
        <time>2012-11-24T12:51:12Z</time>
      </trkpt>
      <trkpt lat="42.318621000" lon="-2.507864000">
        <ele>871.30</ele>
        <time>2012-11-24T12:51:13Z</time>
      </trkpt>
      <trkpt lat="42.318601000" lon="-2.507843000">
        <ele>872.50</ele>
        <time>2012-11-24T12:51:17Z</time>
      </trkpt>
      <trkpt lat="42.318595000" lon="-2.507836000">
        <ele>872.80</ele>
        <time>2012-11-24T12:51:17Z</time>
      </trkpt>
      <trkpt lat="42.318493000" lon="-2.507748000">
        <ele>877.90</ele>
        <time>2012-11-24T12:51:27Z</time>
      </trkpt>
      <trkpt lat="42.318485000" lon="-2.507743000">
        <ele>878.30</ele>
        <time>2012-11-24T12:51:29Z</time>
      </trkpt>
      <trkpt lat="42.318475000" lon="-2.507739000">
        <ele>878.80</ele>
        <time>2012-11-24T12:51:29Z</time>
      </trkpt>
      <trkpt lat="42.318455000" lon="-2.507741000">
        <ele>879.40</ele>
        <time>2012-11-24T12:51:31Z</time>
      </trkpt>
      <trkpt lat="42.318446000" lon="-2.507746000">
        <ele>879.60</ele>
        <time>2012-11-24T12:51:33Z</time>
      </trkpt>
      <trkpt lat="42.318426000" lon="-2.507753000">
        <ele>879.90</ele>
        <time>2012-11-24T12:51:34Z</time>
      </trkpt>
      <trkpt lat="42.318420000" lon="-2.507753000">
        <ele>880.10</ele>
        <time>2012-11-24T12:51:36Z</time>
      </trkpt>
      <trkpt lat="42.318400000" lon="-2.507748000">
        <ele>880.60</ele>
        <time>2012-11-24T12:51:38Z</time>
      </trkpt>
      <trkpt lat="42.318390000" lon="-2.507744000">
        <ele>880.80</ele>
        <time>2012-11-24T12:51:38Z</time>
      </trkpt>
      <trkpt lat="42.318371000" lon="-2.507731000">
        <ele>881.70</ele>
        <time>2012-11-24T12:51:41Z</time>
      </trkpt>
      <trkpt lat="42.318363000" lon="-2.507724000">
        <ele>882.00</ele>
        <time>2012-11-24T12:51:41Z</time>
      </trkpt>
      <trkpt lat="42.318356000" lon="-2.507713000">
        <ele>882.50</ele>
        <time>2012-11-24T12:51:43Z</time>
      </trkpt>
      <trkpt lat="42.318308000" lon="-2.507658000">
        <ele>885.40</ele>
        <time>2012-11-24T12:51:48Z</time>
      </trkpt>
      <trkpt lat="42.318300000" lon="-2.507651000">
        <ele>885.80</ele>
        <time>2012-11-24T12:51:50Z</time>
      </trkpt>
      <trkpt lat="42.318285000" lon="-2.507641000">
        <ele>886.60</ele>
        <time>2012-11-24T12:51:52Z</time>
      </trkpt>
      <trkpt lat="42.318268000" lon="-2.507618000">
        <ele>887.70</ele>
        <time>2012-11-24T12:51:55Z</time>
      </trkpt>
      <trkpt lat="42.318246000" lon="-2.507596000">
        <ele>888.90</ele>
        <time>2012-11-24T12:51:57Z</time>
      </trkpt>
      <trkpt lat="42.318236000" lon="-2.507569000">
        <ele>889.80</ele>
        <time>2012-11-24T12:51:59Z</time>
      </trkpt>
      <trkpt lat="42.318233000" lon="-2.507556000">
        <ele>890.30</ele>
        <time>2012-11-24T12:52:00Z</time>
      </trkpt>
      <trkpt lat="42.318220000" lon="-2.507533000">
        <ele>891.30</ele>
        <time>2012-11-24T12:52:02Z</time>
      </trkpt>
      <trkpt lat="42.318210000" lon="-2.507523000">
        <ele>891.80</ele>
        <time>2012-11-24T12:52:04Z</time>
      </trkpt>
      <trkpt lat="42.318185000" lon="-2.507508000">
        <ele>892.90</ele>
        <time>2012-11-24T12:52:06Z</time>
      </trkpt>
      <trkpt lat="42.318170000" lon="-2.507504000">
        <ele>893.40</ele>
        <time>2012-11-24T12:52:06Z</time>
      </trkpt>
      <trkpt lat="42.318128000" lon="-2.507508000">
        <ele>894.60</ele>
        <time>2012-11-24T12:52:09Z</time>
      </trkpt>
      <trkpt lat="42.318073000" lon="-2.507494000">
        <ele>896.20</ele>
        <time>2012-11-24T12:52:13Z</time>
      </trkpt>
      <trkpt lat="42.318015000" lon="-2.507498000">
        <ele>897.70</ele>
        <time>2012-11-24T12:52:18Z</time>
      </trkpt>
      <trkpt lat="42.317993000" lon="-2.507503000">
        <ele>898.20</ele>
        <time>2012-11-24T12:52:21Z</time>
      </trkpt>
      <trkpt lat="42.317968000" lon="-2.507501000">
        <ele>898.80</ele>
        <time>2012-11-24T12:52:23Z</time>
      </trkpt>
      <trkpt lat="42.317953000" lon="-2.507493000">
        <ele>899.40</ele>
        <time>2012-11-24T12:52:25Z</time>
      </trkpt>
      <trkpt lat="42.317943000" lon="-2.507484000">
        <ele>899.80</ele>
        <time>2012-11-24T12:52:27Z</time>
      </trkpt>
      <trkpt lat="42.317923000" lon="-2.507463000">
        <ele>900.70</ele>
        <time>2012-11-24T12:52:28Z</time>
      </trkpt>
      <trkpt lat="42.317911000" lon="-2.507454000">
        <ele>901.20</ele>
        <time>2012-11-24T12:52:30Z</time>
      </trkpt>
      <trkpt lat="42.317895000" lon="-2.507439000">
        <ele>901.80</ele>
        <time>2012-11-24T12:52:32Z</time>
      </trkpt>
      <trkpt lat="42.317885000" lon="-2.507436000">
        <ele>901.90</ele>
        <time>2012-11-24T12:52:32Z</time>
      </trkpt>
      <trkpt lat="42.317858000" lon="-2.507439000">
        <ele>901.90</ele>
        <time>2012-11-24T12:52:35Z</time>
      </trkpt>
      <trkpt lat="42.317845000" lon="-2.507438000">
        <ele>901.80</ele>
        <time>2012-11-24T12:52:35Z</time>
      </trkpt>
      <trkpt lat="42.317798000" lon="-2.507419000">
        <ele>901.80</ele>
        <time>2012-11-24T12:52:39Z</time>
      </trkpt>
      <trkpt lat="42.317786000" lon="-2.507418000">
        <ele>901.80</ele>
        <time>2012-11-24T12:52:41Z</time>
      </trkpt>
      <trkpt lat="42.317728000" lon="-2.507399000">
        <ele>901.90</ele>
        <time>2012-11-24T12:52:46Z</time>
      </trkpt>
      <trkpt lat="42.317725000" lon="-2.507398000">
        <ele>901.90</ele>
        <time>2012-11-24T12:52:48Z</time>
      </trkpt>
      <trkpt lat="42.317718000" lon="-2.507391000">
        <ele>901.90</ele>
        <time>2012-11-24T12:52:49Z</time>
      </trkpt>
      <trkpt lat="42.317715000" lon="-2.507386000">
        <ele>902.00</ele>
        <time>2012-11-24T12:52:51Z</time>
      </trkpt>
      <trkpt lat="42.317700000" lon="-2.507349000">
        <ele>902.60</ele>
        <time>2012-11-24T12:52:53Z</time>
      </trkpt>
      <trkpt lat="42.317693000" lon="-2.507338000">
        <ele>902.90</ele>
        <time>2012-11-24T12:52:54Z</time>
      </trkpt>
      <trkpt lat="42.317686000" lon="-2.507311000">
        <ele>903.60</ele>
        <time>2012-11-24T12:52:56Z</time>
      </trkpt>
      <trkpt lat="42.317683000" lon="-2.507284000">
        <ele>904.30</ele>
        <time>2012-11-24T12:52:58Z</time>
      </trkpt>
      <trkpt lat="42.317686000" lon="-2.507264000">
        <ele>904.90</ele>
        <time>2012-11-24T12:53:00Z</time>
      </trkpt>
      <trkpt lat="42.317685000" lon="-2.507253000">
        <ele>905.20</ele>
        <time>2012-11-24T12:53:01Z</time>
      </trkpt>
      <trkpt lat="42.317685000" lon="-2.507229000">
        <ele>905.90</ele>
        <time>2012-11-24T12:53:03Z</time>
      </trkpt>
      <trkpt lat="42.317683000" lon="-2.507223000">
        <ele>906.40</ele>
        <time>2012-11-24T12:53:08Z</time>
      </trkpt>
      <trkpt lat="42.317681000" lon="-2.507219000">
        <ele>906.50</ele>
        <time>2012-11-24T12:53:10Z</time>
      </trkpt>
      <trkpt lat="42.317680000" lon="-2.507213000">
        <ele>906.60</ele>
        <time>2012-11-24T12:53:10Z</time>
      </trkpt>
      <trkpt lat="42.317680000" lon="-2.507191000">
        <ele>907.00</ele>
        <time>2012-11-24T12:53:12Z</time>
      </trkpt>
      <trkpt lat="42.317678000" lon="-2.507181000">
        <ele>907.50</ele>
        <time>2012-11-24T12:53:17Z</time>
      </trkpt>
      <trkpt lat="42.317680000" lon="-2.507176000">
        <ele>907.70</ele>
        <time>2012-11-24T12:53:21Z</time>
      </trkpt>
      <trkpt lat="42.317678000" lon="-2.507173000">
        <ele>907.80</ele>
        <time>2012-11-24T12:53:22Z</time>
      </trkpt>
      <trkpt lat="42.317676000" lon="-2.507169000">
        <ele>907.80</ele>
        <time>2012-11-24T12:53:24Z</time>
      </trkpt>
      <trkpt lat="42.317675000" lon="-2.507164000">
        <ele>907.90</ele>
        <time>2012-11-24T12:53:24Z</time>
      </trkpt>
      <trkpt lat="42.317676000" lon="-2.507156000">
        <ele>908.10</ele>
        <time>2012-11-24T12:53:26Z</time>
      </trkpt>
      <trkpt lat="42.317680000" lon="-2.507144000">
        <ele>908.30</ele>
        <time>2012-11-24T12:53:26Z</time>
      </trkpt>
      <trkpt lat="42.317686000" lon="-2.507129000">
        <ele>908.70</ele>
        <time>2012-11-24T12:53:28Z</time>
      </trkpt>
      <trkpt lat="42.317720000" lon="-2.507076000">
        <ele>910.40</ele>
        <time>2012-11-24T12:53:31Z</time>
      </trkpt>
      <trkpt lat="42.317731000" lon="-2.507049000">
        <ele>910.80</ele>
        <time>2012-11-24T12:53:33Z</time>
      </trkpt>
      <trkpt lat="42.317741000" lon="-2.507036000">
        <ele>911.00</ele>
        <time>2012-11-24T12:53:35Z</time>
      </trkpt>
      <trkpt lat="42.317756000" lon="-2.507006000">
        <ele>911.30</ele>
        <time>2012-11-24T12:53:36Z</time>
      </trkpt>
      <trkpt lat="42.317771000" lon="-2.506988000">
        <ele>911.50</ele>
        <time>2012-11-24T12:53:38Z</time>
      </trkpt>
      <trkpt lat="42.317775000" lon="-2.506979000">
        <ele>911.50</ele>
        <time>2012-11-24T12:53:40Z</time>
      </trkpt>
      <trkpt lat="42.317778000" lon="-2.506961000">
        <ele>911.70</ele>
        <time>2012-11-24T12:53:42Z</time>
      </trkpt>
      <trkpt lat="42.317783000" lon="-2.506946000">
        <ele>911.70</ele>
        <time>2012-11-24T12:53:43Z</time>
      </trkpt>
      <trkpt lat="42.317795000" lon="-2.506919000">
        <ele>911.90</ele>
        <time>2012-11-24T12:53:45Z</time>
      </trkpt>
      <trkpt lat="42.317808000" lon="-2.506834000">
        <ele>912.20</ele>
        <time>2012-11-24T12:53:50Z</time>
      </trkpt>
      <trkpt lat="42.317813000" lon="-2.506824000">
        <ele>912.20</ele>
        <time>2012-11-24T12:53:52Z</time>
      </trkpt>
      <trkpt lat="42.317818000" lon="-2.506819000">
        <ele>912.20</ele>
        <time>2012-11-24T12:53:52Z</time>
      </trkpt>
      <trkpt lat="42.317821000" lon="-2.506814000">
        <ele>912.30</ele>
        <time>2012-11-24T12:53:54Z</time>
      </trkpt>
      <trkpt lat="42.317825000" lon="-2.506813000">
        <ele>912.30</ele>
        <time>2012-11-24T12:53:55Z</time>
      </trkpt>
      <trkpt lat="42.317821000" lon="-2.506811000">
        <ele>912.30</ele>
        <time>2012-11-24T12:53:57Z</time>
      </trkpt>
      <trkpt lat="42.317823000" lon="-2.506808000">
        <ele>912.30</ele>
        <time>2012-11-24T12:53:59Z</time>
      </trkpt>
      <trkpt lat="42.317821000" lon="-2.506796000">
        <ele>912.30</ele>
        <time>2012-11-24T12:53:59Z</time>
      </trkpt>
      <trkpt lat="42.317823000" lon="-2.506788000">
        <ele>912.40</ele>
        <time>2012-11-24T12:54:01Z</time>
      </trkpt>
      <trkpt lat="42.317818000" lon="-2.506753000">
        <ele>912.40</ele>
        <time>2012-11-24T12:54:06Z</time>
      </trkpt>
      <trkpt lat="42.317806000" lon="-2.506719000">
        <ele>912.40</ele>
        <time>2012-11-24T12:54:09Z</time>
      </trkpt>
      <trkpt lat="42.317801000" lon="-2.506698000">
        <ele>912.40</ele>
        <time>2012-11-24T12:54:13Z</time>
      </trkpt>
      <trkpt lat="42.317793000" lon="-2.506684000">
        <ele>912.40</ele>
        <time>2012-11-24T12:54:16Z</time>
      </trkpt>
      <trkpt lat="42.317793000" lon="-2.506679000">
        <ele>912.40</ele>
        <time>2012-11-24T12:54:16Z</time>
      </trkpt>
      <trkpt lat="42.317791000" lon="-2.506678000">
        <ele>912.40</ele>
        <time>2012-11-24T12:54:18Z</time>
      </trkpt>
      <trkpt lat="42.317791000" lon="-2.506676000">
        <ele>912.40</ele>
        <time>2012-11-24T12:54:18Z</time>
      </trkpt>
      <trkpt lat="42.317766000" lon="-2.506661000">
        <ele>912.40</ele>
        <time>2012-11-24T12:54:23Z</time>
      </trkpt>
      <trkpt lat="42.317758000" lon="-2.506651000">
        <ele>912.30</ele>
        <time>2012-11-24T12:54:25Z</time>
      </trkpt>
      <trkpt lat="42.317748000" lon="-2.506643000">
        <ele>912.30</ele>
        <time>2012-11-24T12:54:25Z</time>
      </trkpt>
      <trkpt lat="42.317713000" lon="-2.506621000">
        <ele>912.30</ele>
        <time>2012-11-24T12:54:30Z</time>
      </trkpt>
      <trkpt lat="42.317703000" lon="-2.506593000">
        <ele>912.30</ele>
        <time>2012-11-24T12:54:34Z</time>
      </trkpt>
      <trkpt lat="42.317701000" lon="-2.506583000">
        <ele>912.30</ele>
        <time>2012-11-24T12:54:34Z</time>
      </trkpt>
      <trkpt lat="42.317708000" lon="-2.506508000">
        <ele>912.60</ele>
        <time>2012-11-24T12:54:41Z</time>
      </trkpt>
      <trkpt lat="42.317708000" lon="-2.506499000">
        <ele>912.60</ele>
        <time>2012-11-24T12:54:42Z</time>
      </trkpt>
      <trkpt lat="42.317705000" lon="-2.506486000">
        <ele>912.60</ele>
        <time>2012-11-24T12:54:44Z</time>
      </trkpt>
      <trkpt lat="42.317703000" lon="-2.506479000">
        <ele>912.70</ele>
        <time>2012-11-24T12:54:46Z</time>
      </trkpt>
      <trkpt lat="42.317703000" lon="-2.506473000">
        <ele>912.70</ele>
        <time>2012-11-24T12:54:46Z</time>
      </trkpt>
      <trkpt lat="42.317701000" lon="-2.506466000">
        <ele>912.70</ele>
        <time>2012-11-24T12:54:48Z</time>
      </trkpt>
      <trkpt lat="42.317698000" lon="-2.506464000">
        <ele>912.70</ele>
        <time>2012-11-24T12:54:48Z</time>
      </trkpt>
      <trkpt lat="42.317698000" lon="-2.506454000">
        <ele>912.70</ele>
        <time>2012-11-24T12:54:51Z</time>
      </trkpt>
      <trkpt lat="42.317696000" lon="-2.506448000">
        <ele>912.80</ele>
        <time>2012-11-24T12:54:53Z</time>
      </trkpt>
      <trkpt lat="42.317695000" lon="-2.506448000">
        <ele>912.80</ele>
        <time>2012-11-24T12:54:53Z</time>
      </trkpt>
      <trkpt lat="42.317696000" lon="-2.506424000">
        <ele>912.80</ele>
        <time>2012-11-24T12:54:58Z</time>
      </trkpt>
      <trkpt lat="42.317696000" lon="-2.506418000">
        <ele>912.90</ele>
        <time>2012-11-24T12:54:58Z</time>
      </trkpt>
      <trkpt lat="42.317696000" lon="-2.506411000">
        <ele>912.90</ele>
        <time>2012-11-24T12:55:00Z</time>
      </trkpt>
      <trkpt lat="42.317698000" lon="-2.506396000">
        <ele>912.90</ele>
        <time>2012-11-24T12:55:02Z</time>
      </trkpt>
      <trkpt lat="42.317710000" lon="-2.506373000">
        <ele>913.00</ele>
        <time>2012-11-24T12:55:05Z</time>
      </trkpt>
      <trkpt lat="42.317726000" lon="-2.506343000">
        <ele>913.10</ele>
        <time>2012-11-24T12:55:09Z</time>
      </trkpt>
      <trkpt lat="42.317728000" lon="-2.506336000">
        <ele>913.10</ele>
        <time>2012-11-24T12:55:10Z</time>
      </trkpt>
      <trkpt lat="42.317728000" lon="-2.506326000">
        <ele>913.10</ele>
        <time>2012-11-24T12:55:10Z</time>
      </trkpt>
      <trkpt lat="42.317721000" lon="-2.506306000">
        <ele>913.20</ele>
        <time>2012-11-24T12:55:14Z</time>
      </trkpt>
      <trkpt lat="42.317716000" lon="-2.506283000">
        <ele>913.30</ele>
        <time>2012-11-24T12:55:17Z</time>
      </trkpt>
      <trkpt lat="42.317716000" lon="-2.506274000">
        <ele>913.30</ele>
        <time>2012-11-24T12:55:19Z</time>
      </trkpt>
      <trkpt lat="42.317718000" lon="-2.506268000">
        <ele>913.30</ele>
        <time>2012-11-24T12:55:19Z</time>
      </trkpt>
      <trkpt lat="42.317718000" lon="-2.506259000">
        <ele>913.40</ele>
        <time>2012-11-24T12:55:21Z</time>
      </trkpt>
      <trkpt lat="42.317723000" lon="-2.506251000">
        <ele>913.40</ele>
        <time>2012-11-24T12:55:21Z</time>
      </trkpt>
      <trkpt lat="42.317726000" lon="-2.506243000">
        <ele>913.30</ele>
        <time>2012-11-24T12:55:23Z</time>
      </trkpt>
      <trkpt lat="42.317730000" lon="-2.506231000">
        <ele>913.20</ele>
        <time>2012-11-24T12:55:24Z</time>
      </trkpt>
      <trkpt lat="42.317733000" lon="-2.506218000">
        <ele>912.90</ele>
        <time>2012-11-24T12:55:24Z</time>
      </trkpt>
      <trkpt lat="42.317741000" lon="-2.506188000">
        <ele>912.10</ele>
        <time>2012-11-24T12:55:28Z</time>
      </trkpt>
      <trkpt lat="42.317740000" lon="-2.506181000">
        <ele>911.90</ele>
        <time>2012-11-24T12:55:28Z</time>
      </trkpt>
      <trkpt lat="42.317736000" lon="-2.506159000">
        <ele>911.50</ele>
        <time>2012-11-24T12:55:31Z</time>
      </trkpt>
      <trkpt lat="42.317736000" lon="-2.506146000">
        <ele>911.20</ele>
        <time>2012-11-24T12:55:31Z</time>
      </trkpt>
      <trkpt lat="42.317741000" lon="-2.506136000">
        <ele>910.90</ele>
        <time>2012-11-24T12:55:33Z</time>
      </trkpt>
      <trkpt lat="42.317743000" lon="-2.506106000">
        <ele>910.10</ele>
        <time>2012-11-24T12:55:35Z</time>
      </trkpt>
      <trkpt lat="42.317743000" lon="-2.506094000">
        <ele>909.90</ele>
        <time>2012-11-24T12:55:36Z</time>
      </trkpt>
      <trkpt lat="42.317743000" lon="-2.506083000">
        <ele>909.60</ele>
        <time>2012-11-24T12:55:38Z</time>
      </trkpt>
      <trkpt lat="42.317745000" lon="-2.506073000">
        <ele>909.30</ele>
        <time>2012-11-24T12:55:38Z</time>
      </trkpt>
      <trkpt lat="42.317746000" lon="-2.506061000">
        <ele>909.00</ele>
        <time>2012-11-24T12:55:40Z</time>
      </trkpt>
      <trkpt lat="42.317751000" lon="-2.506048000">
        <ele>908.70</ele>
        <time>2012-11-24T12:55:40Z</time>
      </trkpt>
      <trkpt lat="42.317755000" lon="-2.506036000">
        <ele>908.40</ele>
        <time>2012-11-24T12:55:42Z</time>
      </trkpt>
      <trkpt lat="42.317756000" lon="-2.506024000">
        <ele>908.00</ele>
        <time>2012-11-24T12:55:42Z</time>
      </trkpt>
      <trkpt lat="42.317755000" lon="-2.506009000">
        <ele>907.70</ele>
        <time>2012-11-24T12:55:43Z</time>
      </trkpt>
      <trkpt lat="42.317751000" lon="-2.505994000">
        <ele>907.40</ele>
        <time>2012-11-24T12:55:45Z</time>
      </trkpt>
      <trkpt lat="42.317751000" lon="-2.505983000">
        <ele>907.20</ele>
        <time>2012-11-24T12:55:45Z</time>
      </trkpt>
      <trkpt lat="42.317746000" lon="-2.505943000">
        <ele>906.10</ele>
        <time>2012-11-24T12:55:49Z</time>
      </trkpt>
      <trkpt lat="42.317738000" lon="-2.505898000">
        <ele>905.10</ele>
        <time>2012-11-24T12:55:52Z</time>
      </trkpt>
      <trkpt lat="42.317731000" lon="-2.505859000">
        <ele>904.00</ele>
        <time>2012-11-24T12:55:57Z</time>
      </trkpt>
      <trkpt lat="42.317733000" lon="-2.505858000">
        <ele>903.90</ele>
        <time>2012-11-24T12:55:57Z</time>
      </trkpt>
      <trkpt lat="42.317731000" lon="-2.505853000">
        <ele>903.70</ele>
        <time>2012-11-24T12:55:59Z</time>
      </trkpt>
      <trkpt lat="42.317730000" lon="-2.505846000">
        <ele>903.60</ele>
        <time>2012-11-24T12:56:01Z</time>
      </trkpt>
      <trkpt lat="42.317731000" lon="-2.505843000">
        <ele>903.50</ele>
        <time>2012-11-24T12:56:01Z</time>
      </trkpt>
      <trkpt lat="42.317733000" lon="-2.505839000">
        <ele>903.40</ele>
        <time>2012-11-24T12:56:03Z</time>
      </trkpt>
      <trkpt lat="42.317731000" lon="-2.505834000">
        <ele>903.30</ele>
        <time>2012-11-24T12:56:04Z</time>
      </trkpt>
      <trkpt lat="42.317730000" lon="-2.505821000">
        <ele>903.00</ele>
        <time>2012-11-24T12:56:06Z</time>
      </trkpt>
      <trkpt lat="42.317743000" lon="-2.505723000">
        <ele>901.00</ele>
        <time>2012-11-24T12:56:11Z</time>
      </trkpt>
      <trkpt lat="42.317743000" lon="-2.505694000">
        <ele>900.40</ele>
        <time>2012-11-24T12:56:11Z</time>
      </trkpt>
      <trkpt lat="42.317753000" lon="-2.505641000">
        <ele>898.90</ele>
        <time>2012-11-24T12:56:13Z</time>
      </trkpt>
      <trkpt lat="42.317808000" lon="-2.505441000">
        <ele>892.30</ele>
        <time>2012-11-24T12:56:23Z</time>
      </trkpt>
      <trkpt lat="42.317808000" lon="-2.505434000">
        <ele>891.90</ele>
        <time>2012-11-24T12:56:25Z</time>
      </trkpt>
      <trkpt lat="42.317810000" lon="-2.505433000">
        <ele>891.60</ele>
        <time>2012-11-24T12:56:25Z</time>
      </trkpt>
      <trkpt lat="42.317808000" lon="-2.505429000">
        <ele>891.40</ele>
        <time>2012-11-24T12:56:27Z</time>
      </trkpt>
      <trkpt lat="42.317808000" lon="-2.505428000">
        <ele>891.30</ele>
        <time>2012-11-24T12:56:27Z</time>
      </trkpt>
      <trkpt lat="42.317800000" lon="-2.505423000">
        <ele>891.30</ele>
        <time>2012-11-24T12:56:29Z</time>
      </trkpt>
      <trkpt lat="42.317796000" lon="-2.505418000">
        <ele>891.20</ele>
        <time>2012-11-24T12:56:29Z</time>
      </trkpt>
      <trkpt lat="42.317796000" lon="-2.505406000">
        <ele>891.00</ele>
        <time>2012-11-24T12:56:32Z</time>
      </trkpt>
      <trkpt lat="42.317800000" lon="-2.505401000">
        <ele>890.90</ele>
        <time>2012-11-24T12:56:32Z</time>
      </trkpt>
      <trkpt lat="42.317815000" lon="-2.505391000">
        <ele>890.40</ele>
        <time>2012-11-24T12:56:34Z</time>
      </trkpt>
      <trkpt lat="42.317821000" lon="-2.505383000">
        <ele>890.10</ele>
        <time>2012-11-24T12:56:36Z</time>
      </trkpt>
      <trkpt lat="42.317825000" lon="-2.505371000">
        <ele>889.70</ele>
        <time>2012-11-24T12:56:36Z</time>
      </trkpt>
      <trkpt lat="42.317826000" lon="-2.505363000">
        <ele>889.40</ele>
        <time>2012-11-24T12:56:37Z</time>
      </trkpt>
      <trkpt lat="42.317830000" lon="-2.505328000">
        <ele>888.50</ele>
        <time>2012-11-24T12:56:41Z</time>
      </trkpt>
      <trkpt lat="42.317830000" lon="-2.505316000">
        <ele>888.20</ele>
        <time>2012-11-24T12:56:41Z</time>
      </trkpt>
      <trkpt lat="42.317828000" lon="-2.505306000">
        <ele>887.90</ele>
        <time>2012-11-24T12:56:43Z</time>
      </trkpt>
      <trkpt lat="42.317825000" lon="-2.505294000">
        <ele>887.70</ele>
        <time>2012-11-24T12:56:43Z</time>
      </trkpt>
      <trkpt lat="42.317811000" lon="-2.505256000">
        <ele>887.00</ele>
        <time>2012-11-24T12:56:46Z</time>
      </trkpt>
      <trkpt lat="42.317810000" lon="-2.505244000">
        <ele>886.90</ele>
        <time>2012-11-24T12:56:48Z</time>
      </trkpt>
      <trkpt lat="42.317810000" lon="-2.505229000">
        <ele>886.50</ele>
        <time>2012-11-24T12:56:48Z</time>
      </trkpt>
      <trkpt lat="42.317790000" lon="-2.505179000">
        <ele>885.60</ele>
        <time>2012-11-24T12:56:53Z</time>
      </trkpt>
      <trkpt lat="42.317786000" lon="-2.505168000">
        <ele>885.50</ele>
        <time>2012-11-24T12:56:55Z</time>
      </trkpt>
      <trkpt lat="42.317783000" lon="-2.505151000">
        <ele>885.10</ele>
        <time>2012-11-24T12:56:57Z</time>
      </trkpt>
      <trkpt lat="42.317776000" lon="-2.505129000">
        <ele>884.80</ele>
        <time>2012-11-24T12:56:58Z</time>
      </trkpt>
      <trkpt lat="42.317768000" lon="-2.505111000">
        <ele>884.50</ele>
        <time>2012-11-24T12:57:00Z</time>
      </trkpt>
      <trkpt lat="42.317760000" lon="-2.505101000">
        <ele>884.40</ele>
        <time>2012-11-24T12:57:02Z</time>
      </trkpt>
      <trkpt lat="42.317758000" lon="-2.505094000">
        <ele>884.30</ele>
        <time>2012-11-24T12:57:04Z</time>
      </trkpt>
      <trkpt lat="42.317760000" lon="-2.505093000">
        <ele>884.30</ele>
        <time>2012-11-24T12:57:05Z</time>
      </trkpt>
      <trkpt lat="42.317760000" lon="-2.505089000">
        <ele>884.20</ele>
        <time>2012-11-24T12:57:05Z</time>
      </trkpt>
      <trkpt lat="42.317760000" lon="-2.505089000">
        <ele>884.20</ele>
        <time>2012-11-24T12:57:07Z</time>
      </trkpt>
      <trkpt lat="42.317758000" lon="-2.505084000">
        <ele>884.10</ele>
        <time>2012-11-24T12:57:09Z</time>
      </trkpt>
      <trkpt lat="42.317755000" lon="-2.505079000">
        <ele>884.00</ele>
        <time>2012-11-24T12:57:09Z</time>
      </trkpt>
      <trkpt lat="42.317751000" lon="-2.505073000">
        <ele>884.00</ele>
        <time>2012-11-24T12:57:11Z</time>
      </trkpt>
      <trkpt lat="42.317743000" lon="-2.505064000">
        <ele>884.00</ele>
        <time>2012-11-24T12:57:12Z</time>
      </trkpt>
      <trkpt lat="42.317723000" lon="-2.505038000">
        <ele>883.90</ele>
        <time>2012-11-24T12:57:14Z</time>
      </trkpt>
      <trkpt lat="42.317713000" lon="-2.505021000">
        <ele>883.80</ele>
        <time>2012-11-24T12:57:16Z</time>
      </trkpt>
      <trkpt lat="42.317705000" lon="-2.505003000">
        <ele>883.70</ele>
        <time>2012-11-24T12:57:17Z</time>
      </trkpt>
      <trkpt lat="42.317663000" lon="-2.504894000">
        <ele>882.50</ele>
        <time>2012-11-24T12:57:21Z</time>
      </trkpt>
      <trkpt lat="42.317651000" lon="-2.504874000">
        <ele>882.10</ele>
        <time>2012-11-24T12:57:23Z</time>
      </trkpt>
      <trkpt lat="42.317651000" lon="-2.504871000">
        <ele>882.00</ele>
        <time>2012-11-24T12:57:24Z</time>
      </trkpt>
      <trkpt lat="42.317651000" lon="-2.504866000">
        <ele>881.90</ele>
        <time>2012-11-24T12:57:26Z</time>
      </trkpt>
      <trkpt lat="42.317651000" lon="-2.504864000">
        <ele>881.80</ele>
        <time>2012-11-24T12:57:26Z</time>
      </trkpt>
      <trkpt lat="42.317650000" lon="-2.504859000">
        <ele>881.70</ele>
        <time>2012-11-24T12:57:28Z</time>
      </trkpt>
      <trkpt lat="42.317648000" lon="-2.504858000">
        <ele>881.70</ele>
        <time>2012-11-24T12:57:28Z</time>
      </trkpt>
      <trkpt lat="42.317648000" lon="-2.504851000">
        <ele>881.50</ele>
        <time>2012-11-24T12:57:30Z</time>
      </trkpt>
      <trkpt lat="42.317645000" lon="-2.504849000">
        <ele>881.50</ele>
        <time>2012-11-24T12:57:31Z</time>
      </trkpt>
      <trkpt lat="42.317646000" lon="-2.504833000">
        <ele>881.20</ele>
        <time>2012-11-24T12:57:37Z</time>
      </trkpt>
      <trkpt lat="42.317641000" lon="-2.504794000">
        <ele>880.60</ele>
        <time>2012-11-24T12:57:40Z</time>
      </trkpt>
      <trkpt lat="42.317641000" lon="-2.504766000">
        <ele>880.00</ele>
        <time>2012-11-24T12:57:42Z</time>
      </trkpt>
      <trkpt lat="42.317640000" lon="-2.504751000">
        <ele>879.70</ele>
        <time>2012-11-24T12:57:42Z</time>
      </trkpt>
      <trkpt lat="42.317640000" lon="-2.504736000">
        <ele>879.40</ele>
        <time>2012-11-24T12:57:44Z</time>
      </trkpt>
      <trkpt lat="42.317645000" lon="-2.504711000">
        <ele>878.60</ele>
        <time>2012-11-24T12:57:45Z</time>
      </trkpt>
      <trkpt lat="42.317643000" lon="-2.504701000">
        <ele>878.40</ele>
        <time>2012-11-24T12:57:47Z</time>
      </trkpt>
      <trkpt lat="42.317643000" lon="-2.504689000">
        <ele>878.10</ele>
        <time>2012-11-24T12:57:47Z</time>
      </trkpt>
      <trkpt lat="42.317643000" lon="-2.504676000">
        <ele>877.90</ele>
        <time>2012-11-24T12:57:49Z</time>
      </trkpt>
      <trkpt lat="42.317638000" lon="-2.504633000">
        <ele>876.90</ele>
        <time>2012-11-24T12:57:52Z</time>
      </trkpt>
      <trkpt lat="42.317638000" lon="-2.504576000">
        <ele>875.60</ele>
        <time>2012-11-24T12:57:56Z</time>
      </trkpt>
      <trkpt lat="42.317643000" lon="-2.504559000">
        <ele>874.90</ele>
        <time>2012-11-24T12:57:58Z</time>
      </trkpt>
      <trkpt lat="42.317645000" lon="-2.504549000">
        <ele>874.60</ele>
        <time>2012-11-24T12:57:59Z</time>
      </trkpt>
      <trkpt lat="42.317663000" lon="-2.504478000">
        <ele>872.30</ele>
        <time>2012-11-24T12:58:03Z</time>
      </trkpt>
      <trkpt lat="42.317670000" lon="-2.504423000">
        <ele>870.50</ele>
        <time>2012-11-24T12:58:08Z</time>
      </trkpt>
      <trkpt lat="42.317668000" lon="-2.504359000">
        <ele>868.70</ele>
        <time>2012-11-24T12:58:13Z</time>
      </trkpt>
      <trkpt lat="42.317665000" lon="-2.504348000">
        <ele>868.40</ele>
        <time>2012-11-24T12:58:13Z</time>
      </trkpt>
      <trkpt lat="42.317665000" lon="-2.504336000">
        <ele>868.10</ele>
        <time>2012-11-24T12:58:15Z</time>
      </trkpt>
      <trkpt lat="42.317665000" lon="-2.504294000">
        <ele>867.10</ele>
        <time>2012-11-24T12:58:17Z</time>
      </trkpt>
      <trkpt lat="42.317666000" lon="-2.504284000">
        <ele>866.70</ele>
        <time>2012-11-24T12:58:18Z</time>
      </trkpt>
      <trkpt lat="42.317668000" lon="-2.504259000">
        <ele>866.00</ele>
        <time>2012-11-24T12:58:20Z</time>
      </trkpt>
      <trkpt lat="42.317675000" lon="-2.504213000">
        <ele>864.50</ele>
        <time>2012-11-24T12:58:24Z</time>
      </trkpt>
      <trkpt lat="42.317686000" lon="-2.504161000">
        <ele>862.70</ele>
        <time>2012-11-24T12:58:29Z</time>
      </trkpt>
      <trkpt lat="42.317685000" lon="-2.504113000">
        <ele>861.30</ele>
        <time>2012-11-24T12:58:32Z</time>
      </trkpt>
      <trkpt lat="42.317683000" lon="-2.504101000">
        <ele>861.00</ele>
        <time>2012-11-24T12:58:34Z</time>
      </trkpt>
      <trkpt lat="42.317671000" lon="-2.504061000">
        <ele>860.20</ele>
        <time>2012-11-24T12:58:38Z</time>
      </trkpt>
      <trkpt lat="42.317670000" lon="-2.504049000">
        <ele>860.00</ele>
        <time>2012-11-24T12:58:38Z</time>
      </trkpt>
      <trkpt lat="42.317666000" lon="-2.504038000">
        <ele>859.80</ele>
        <time>2012-11-24T12:58:39Z</time>
      </trkpt>
      <trkpt lat="42.317653000" lon="-2.504011000">
        <ele>859.40</ele>
        <time>2012-11-24T12:58:43Z</time>
      </trkpt>
      <trkpt lat="42.317641000" lon="-2.503984000">
        <ele>859.10</ele>
        <time>2012-11-24T12:58:46Z</time>
      </trkpt>
      <trkpt lat="42.317640000" lon="-2.503971000">
        <ele>858.90</ele>
        <time>2012-11-24T12:58:46Z</time>
      </trkpt>
      <trkpt lat="42.317636000" lon="-2.503958000">
        <ele>858.60</ele>
        <time>2012-11-24T12:58:48Z</time>
      </trkpt>
      <trkpt lat="42.317633000" lon="-2.503933000">
        <ele>858.10</ele>
        <time>2012-11-24T12:58:50Z</time>
      </trkpt>
      <trkpt lat="42.317631000" lon="-2.503924000">
        <ele>858.00</ele>
        <time>2012-11-24T12:58:50Z</time>
      </trkpt>
      <trkpt lat="42.317625000" lon="-2.503909000">
        <ele>857.60</ele>
        <time>2012-11-24T12:58:53Z</time>
      </trkpt>
      <trkpt lat="42.317618000" lon="-2.503888000">
        <ele>857.30</ele>
        <time>2012-11-24T12:58:55Z</time>
      </trkpt>
      <trkpt lat="42.317615000" lon="-2.503878000">
        <ele>857.20</ele>
        <time>2012-11-24T12:58:55Z</time>
      </trkpt>
      <trkpt lat="42.317600000" lon="-2.503863000">
        <ele>857.10</ele>
        <time>2012-11-24T12:58:57Z</time>
      </trkpt>
      <trkpt lat="42.317596000" lon="-2.503861000">
        <ele>857.20</ele>
        <time>2012-11-24T12:58:59Z</time>
      </trkpt>
      <trkpt lat="42.317580000" lon="-2.503841000">
        <ele>857.30</ele>
        <time>2012-11-24T12:59:02Z</time>
      </trkpt>
      <trkpt lat="42.317573000" lon="-2.503816000">
        <ele>857.10</ele>
        <time>2012-11-24T12:59:04Z</time>
      </trkpt>
      <trkpt lat="42.317571000" lon="-2.503803000">
        <ele>856.90</ele>
        <time>2012-11-24T12:59:04Z</time>
      </trkpt>
      <trkpt lat="42.317570000" lon="-2.503793000">
        <ele>856.70</ele>
        <time>2012-11-24T12:59:06Z</time>
      </trkpt>
      <trkpt lat="42.317566000" lon="-2.503783000">
        <ele>856.50</ele>
        <time>2012-11-24T12:59:07Z</time>
      </trkpt>
      <trkpt lat="42.317560000" lon="-2.503748000">
        <ele>855.90</ele>
        <time>2012-11-24T12:59:09Z</time>
      </trkpt>
      <trkpt lat="42.317558000" lon="-2.503738000">
        <ele>855.60</ele>
        <time>2012-11-24T12:59:11Z</time>
      </trkpt>
      <trkpt lat="42.317555000" lon="-2.503728000">
        <ele>855.40</ele>
        <time>2012-11-24T12:59:11Z</time>
      </trkpt>
      <trkpt lat="42.317550000" lon="-2.503691000">
        <ele>854.30</ele>
        <time>2012-11-24T12:59:14Z</time>
      </trkpt>
      <trkpt lat="42.317546000" lon="-2.503679000">
        <ele>854.00</ele>
        <time>2012-11-24T12:59:16Z</time>
      </trkpt>
      <trkpt lat="42.317541000" lon="-2.503606000">
        <ele>851.50</ele>
        <time>2012-11-24T12:59:21Z</time>
      </trkpt>
      <trkpt lat="42.317540000" lon="-2.503596000">
        <ele>851.10</ele>
        <time>2012-11-24T12:59:23Z</time>
      </trkpt>
      <trkpt lat="42.317538000" lon="-2.503583000">
        <ele>850.70</ele>
        <time>2012-11-24T12:59:23Z</time>
      </trkpt>
      <trkpt lat="42.317538000" lon="-2.503568000">
        <ele>850.20</ele>
        <time>2012-11-24T12:59:25Z</time>
      </trkpt>
      <trkpt lat="42.317531000" lon="-2.503541000">
        <ele>849.40</ele>
        <time>2012-11-24T12:59:26Z</time>
      </trkpt>
      <trkpt lat="42.317530000" lon="-2.503528000">
        <ele>849.00</ele>
        <time>2012-11-24T12:59:28Z</time>
      </trkpt>
      <trkpt lat="42.317528000" lon="-2.503493000">
        <ele>847.70</ele>
        <time>2012-11-24T12:59:30Z</time>
      </trkpt>
      <trkpt lat="42.317530000" lon="-2.503481000">
        <ele>847.20</ele>
        <time>2012-11-24T12:59:32Z</time>
      </trkpt>
      <trkpt lat="42.317530000" lon="-2.503469000">
        <ele>846.80</ele>
        <time>2012-11-24T12:59:33Z</time>
      </trkpt>
      <trkpt lat="42.317526000" lon="-2.503463000">
        <ele>846.50</ele>
        <time>2012-11-24T12:59:33Z</time>
      </trkpt>
      <trkpt lat="42.317508000" lon="-2.503444000">
        <ele>846.10</ele>
        <time>2012-11-24T12:59:37Z</time>
      </trkpt>
      <trkpt lat="42.317503000" lon="-2.503439000">
        <ele>846.10</ele>
        <time>2012-11-24T12:59:39Z</time>
      </trkpt>
      <trkpt lat="42.317498000" lon="-2.503431000">
        <ele>846.00</ele>
        <time>2012-11-24T12:59:40Z</time>
      </trkpt>
      <trkpt lat="42.317495000" lon="-2.503419000">
        <ele>845.90</ele>
        <time>2012-11-24T12:59:40Z</time>
      </trkpt>
      <trkpt lat="42.317491000" lon="-2.503389000">
        <ele>845.20</ele>
        <time>2012-11-24T12:59:42Z</time>
      </trkpt>
      <trkpt lat="42.317491000" lon="-2.503376000">
        <ele>844.70</ele>
        <time>2012-11-24T12:59:44Z</time>
      </trkpt>
      <trkpt lat="42.317495000" lon="-2.503349000">
        <ele>843.70</ele>
        <time>2012-11-24T12:59:46Z</time>
      </trkpt>
      <trkpt lat="42.317495000" lon="-2.503338000">
        <ele>843.20</ele>
        <time>2012-11-24T12:59:47Z</time>
      </trkpt>
      <trkpt lat="42.317493000" lon="-2.503326000">
        <ele>842.80</ele>
        <time>2012-11-24T12:59:47Z</time>
      </trkpt>
      <trkpt lat="42.317491000" lon="-2.503316000">
        <ele>842.40</ele>
        <time>2012-11-24T12:59:49Z</time>
      </trkpt>
      <trkpt lat="42.317488000" lon="-2.503304000">
        <ele>842.00</ele>
        <time>2012-11-24T12:59:49Z</time>
      </trkpt>
      <trkpt lat="42.317478000" lon="-2.503286000">
        <ele>841.60</ele>
        <time>2012-11-24T12:59:51Z</time>
      </trkpt>
      <trkpt lat="42.317473000" lon="-2.503274000">
        <ele>841.40</ele>
        <time>2012-11-24T12:59:53Z</time>
      </trkpt>
      <trkpt lat="42.317471000" lon="-2.503263000">
        <ele>841.00</ele>
        <time>2012-11-24T12:59:54Z</time>
      </trkpt>
      <trkpt lat="42.317473000" lon="-2.503251000">
        <ele>840.70</ele>
        <time>2012-11-24T12:59:54Z</time>
      </trkpt>
      <trkpt lat="42.317473000" lon="-2.503238000">
        <ele>840.20</ele>
        <time>2012-11-24T12:59:56Z</time>
      </trkpt>
      <trkpt lat="42.317471000" lon="-2.503228000">
        <ele>839.80</ele>
        <time>2012-11-24T12:59:56Z</time>
      </trkpt>
      <trkpt lat="42.317470000" lon="-2.503216000">
        <ele>839.50</ele>
        <time>2012-11-24T12:59:58Z</time>
      </trkpt>
      <trkpt lat="42.317466000" lon="-2.503203000">
        <ele>839.10</ele>
        <time>2012-11-24T12:59:58Z</time>
      </trkpt>
      <trkpt lat="42.317461000" lon="-2.503191000">
        <ele>838.80</ele>
        <time>2012-11-24T13:00:00Z</time>
      </trkpt>
      <trkpt lat="42.317456000" lon="-2.503169000">
        <ele>838.10</ele>
        <time>2012-11-24T13:00:01Z</time>
      </trkpt>
      <trkpt lat="42.317455000" lon="-2.503158000">
        <ele>837.80</ele>
        <time>2012-11-24T13:00:03Z</time>
      </trkpt>
      <trkpt lat="42.317451000" lon="-2.503148000">
        <ele>837.50</ele>
        <time>2012-11-24T13:00:03Z</time>
      </trkpt>
      <trkpt lat="42.317438000" lon="-2.503118000">
        <ele>836.80</ele>
        <time>2012-11-24T13:00:06Z</time>
      </trkpt>
      <trkpt lat="42.317435000" lon="-2.503106000">
        <ele>836.50</ele>
        <time>2012-11-24T13:00:08Z</time>
      </trkpt>
      <trkpt lat="42.317435000" lon="-2.503096000">
        <ele>836.20</ele>
        <time>2012-11-24T13:00:08Z</time>
      </trkpt>
      <trkpt lat="42.317435000" lon="-2.503088000">
        <ele>835.90</ele>
        <time>2012-11-24T13:00:10Z</time>
      </trkpt>
      <trkpt lat="42.317436000" lon="-2.503079000">
        <ele>835.60</ele>
        <time>2012-11-24T13:00:10Z</time>
      </trkpt>
      <trkpt lat="42.317440000" lon="-2.503071000">
        <ele>835.20</ele>
        <time>2012-11-24T13:00:12Z</time>
      </trkpt>
      <trkpt lat="42.317443000" lon="-2.503064000">
        <ele>834.80</ele>
        <time>2012-11-24T13:00:12Z</time>
      </trkpt>
      <trkpt lat="42.317448000" lon="-2.503041000">
        <ele>833.90</ele>
        <time>2012-11-24T13:00:15Z</time>
      </trkpt>
      <trkpt lat="42.317453000" lon="-2.503029000">
        <ele>833.30</ele>
        <time>2012-11-24T13:00:15Z</time>
      </trkpt>
      <trkpt lat="42.317456000" lon="-2.503016000">
        <ele>832.70</ele>
        <time>2012-11-24T13:00:17Z</time>
      </trkpt>
      <trkpt lat="42.317461000" lon="-2.503003000">
        <ele>832.10</ele>
        <time>2012-11-24T13:00:17Z</time>
      </trkpt>
      <trkpt lat="42.317465000" lon="-2.502989000">
        <ele>831.40</ele>
        <time>2012-11-24T13:00:19Z</time>
      </trkpt>
      <trkpt lat="42.317465000" lon="-2.502981000">
        <ele>830.90</ele>
        <time>2012-11-24T13:00:19Z</time>
      </trkpt>
      <trkpt lat="42.317475000" lon="-2.502924000">
        <ele>828.40</ele>
        <time>2012-11-24T13:00:24Z</time>
      </trkpt>
      <trkpt lat="42.317470000" lon="-2.502891000">
        <ele>827.20</ele>
        <time>2012-11-24T13:00:27Z</time>
      </trkpt>
      <trkpt lat="42.317470000" lon="-2.502879000">
        <ele>826.80</ele>
        <time>2012-11-24T13:00:29Z</time>
      </trkpt>
      <trkpt lat="42.317471000" lon="-2.502866000">
        <ele>826.40</ele>
        <time>2012-11-24T13:00:29Z</time>
      </trkpt>
      <trkpt lat="42.317475000" lon="-2.502854000">
        <ele>825.90</ele>
        <time>2012-11-24T13:00:31Z</time>
      </trkpt>
      <trkpt lat="42.317476000" lon="-2.502843000">
        <ele>825.40</ele>
        <time>2012-11-24T13:00:31Z</time>
      </trkpt>
      <trkpt lat="42.317483000" lon="-2.502823000">
        <ele>824.50</ele>
        <time>2012-11-24T13:00:34Z</time>
      </trkpt>
      <trkpt lat="42.317486000" lon="-2.502814000">
        <ele>824.00</ele>
        <time>2012-11-24T13:00:34Z</time>
      </trkpt>
      <trkpt lat="42.317491000" lon="-2.502804000">
        <ele>823.50</ele>
        <time>2012-11-24T13:00:36Z</time>
      </trkpt>
      <trkpt lat="42.317493000" lon="-2.502789000">
        <ele>823.00</ele>
        <time>2012-11-24T13:00:36Z</time>
      </trkpt>
      <trkpt lat="42.317491000" lon="-2.502778000">
        <ele>822.50</ele>
        <time>2012-11-24T13:00:38Z</time>
      </trkpt>
      <trkpt lat="42.317491000" lon="-2.502773000">
        <ele>822.20</ele>
        <time>2012-11-24T13:00:38Z</time>
      </trkpt>
      <trkpt lat="42.317490000" lon="-2.502771000">
        <ele>822.00</ele>
        <time>2012-11-24T13:00:40Z</time>
      </trkpt>
      <trkpt lat="42.317490000" lon="-2.502769000">
        <ele>821.90</ele>
        <time>2012-11-24T13:00:41Z</time>
      </trkpt>
      <trkpt lat="42.317490000" lon="-2.502769000">
        <ele>821.90</ele>
        <time>2012-11-24T13:00:41Z</time>
      </trkpt>
      <trkpt lat="42.317490000" lon="-2.502768000">
        <ele>821.80</ele>
        <time>2012-11-24T13:00:43Z</time>
      </trkpt>
      <trkpt lat="42.317490000" lon="-2.502764000">
        <ele>821.70</ele>
        <time>2012-11-24T13:00:45Z</time>
      </trkpt>
      <trkpt lat="42.317491000" lon="-2.502758000">
        <ele>821.50</ele>
        <time>2012-11-24T13:00:47Z</time>
      </trkpt>
      <trkpt lat="42.317496000" lon="-2.502748000">
        <ele>821.10</ele>
        <time>2012-11-24T13:00:48Z</time>
      </trkpt>
      <trkpt lat="42.317501000" lon="-2.502733000">
        <ele>820.70</ele>
        <time>2012-11-24T13:00:48Z</time>
      </trkpt>
      <trkpt lat="42.317503000" lon="-2.502719000">
        <ele>820.10</ele>
        <time>2012-11-24T13:00:50Z</time>
      </trkpt>
      <trkpt lat="42.317511000" lon="-2.502688000">
        <ele>818.60</ele>
        <time>2012-11-24T13:00:52Z</time>
      </trkpt>
      <trkpt lat="42.317513000" lon="-2.502678000">
        <ele>818.40</ele>
        <time>2012-11-24T13:00:54Z</time>
      </trkpt>
      <trkpt lat="42.317511000" lon="-2.502661000">
        <ele>817.50</ele>
        <time>2012-11-24T13:00:55Z</time>
      </trkpt>
      <trkpt lat="42.317496000" lon="-2.502621000">
        <ele>816.60</ele>
        <time>2012-11-24T13:00:59Z</time>
      </trkpt>
      <trkpt lat="42.317476000" lon="-2.502544000">
        <ele>814.90</ele>
        <time>2012-11-24T13:01:06Z</time>
      </trkpt>
      <trkpt lat="42.317466000" lon="-2.502523000">
        <ele>814.40</ele>
        <time>2012-11-24T13:01:07Z</time>
      </trkpt>
      <trkpt lat="42.317445000" lon="-2.502489000">
        <ele>814.00</ele>
        <time>2012-11-24T13:01:11Z</time>
      </trkpt>
      <trkpt lat="42.317440000" lon="-2.502478000">
        <ele>813.80</ele>
        <time>2012-11-24T13:01:11Z</time>
      </trkpt>
      <trkpt lat="42.317425000" lon="-2.502453000">
        <ele>813.50</ele>
        <time>2012-11-24T13:01:14Z</time>
      </trkpt>
      <trkpt lat="42.317390000" lon="-2.502414000">
        <ele>813.50</ele>
        <time>2012-11-24T13:01:18Z</time>
      </trkpt>
      <trkpt lat="42.317370000" lon="-2.502399000">
        <ele>813.70</ele>
        <time>2012-11-24T13:01:21Z</time>
      </trkpt>
      <trkpt lat="42.317345000" lon="-2.502391000">
        <ele>814.20</ele>
        <time>2012-11-24T13:01:23Z</time>
      </trkpt>
      <trkpt lat="42.317310000" lon="-2.502383000">
        <ele>815.20</ele>
        <time>2012-11-24T13:01:25Z</time>
      </trkpt>
      <trkpt lat="42.317290000" lon="-2.502373000">
        <ele>815.80</ele>
        <time>2012-11-24T13:01:28Z</time>
      </trkpt>
      <trkpt lat="42.317271000" lon="-2.502358000">
        <ele>816.20</ele>
        <time>2012-11-24T13:01:30Z</time>
      </trkpt>
      <trkpt lat="42.317251000" lon="-2.502334000">
        <ele>816.40</ele>
        <time>2012-11-24T13:01:32Z</time>
      </trkpt>
      <trkpt lat="42.317241000" lon="-2.502318000">
        <ele>816.30</ele>
        <time>2012-11-24T13:01:35Z</time>
      </trkpt>
      <trkpt lat="42.317238000" lon="-2.502311000">
        <ele>816.30</ele>
        <time>2012-11-24T13:01:35Z</time>
      </trkpt>
      <trkpt lat="42.317236000" lon="-2.502308000">
        <ele>816.20</ele>
        <time>2012-11-24T13:01:37Z</time>
      </trkpt>
      <trkpt lat="42.317236000" lon="-2.502306000">
        <ele>816.20</ele>
        <time>2012-11-24T13:01:37Z</time>
      </trkpt>
      <trkpt lat="42.317235000" lon="-2.502306000">
        <ele>816.20</ele>
        <time>2012-11-24T13:01:39Z</time>
      </trkpt>
      <trkpt lat="42.317231000" lon="-2.502299000">
        <ele>816.10</ele>
        <time>2012-11-24T13:01:44Z</time>
      </trkpt>
      <trkpt lat="42.317230000" lon="-2.502298000">
        <ele>816.10</ele>
        <time>2012-11-24T13:01:44Z</time>
      </trkpt>
      <trkpt lat="42.317230000" lon="-2.502294000">
        <ele>816.10</ele>
        <time>2012-11-24T13:01:46Z</time>
      </trkpt>
      <trkpt lat="42.317228000" lon="-2.502291000">
        <ele>816.00</ele>
        <time>2012-11-24T13:01:48Z</time>
      </trkpt>
      <trkpt lat="42.317226000" lon="-2.502288000">
        <ele>816.00</ele>
        <time>2012-11-24T13:01:49Z</time>
      </trkpt>
      <trkpt lat="42.317226000" lon="-2.502286000">
        <ele>815.90</ele>
        <time>2012-11-24T13:01:49Z</time>
      </trkpt>
      <trkpt lat="42.317226000" lon="-2.502284000">
        <ele>815.90</ele>
        <time>2012-11-24T13:01:51Z</time>
      </trkpt>
      <trkpt lat="42.317225000" lon="-2.502283000">
        <ele>815.80</ele>
        <time>2012-11-24T13:01:51Z</time>
      </trkpt>
      <trkpt lat="42.317223000" lon="-2.502279000">
        <ele>815.80</ele>
        <time>2012-11-24T13:01:53Z</time>
      </trkpt>
      <trkpt lat="42.317223000" lon="-2.502276000">
        <ele>815.70</ele>
        <time>2012-11-24T13:01:54Z</time>
      </trkpt>
      <trkpt lat="42.317223000" lon="-2.502274000">
        <ele>815.70</ele>
        <time>2012-11-24T13:01:56Z</time>
      </trkpt>
      <trkpt lat="42.317223000" lon="-2.502274000">
        <ele>815.70</ele>
        <time>2012-11-24T13:01:56Z</time>
      </trkpt>
      <trkpt lat="42.317221000" lon="-2.502274000">
        <ele>815.70</ele>
        <time>2012-11-24T13:01:58Z</time>
      </trkpt>
      <trkpt lat="42.317221000" lon="-2.502273000">
        <ele>815.60</ele>
        <time>2012-11-24T13:01:58Z</time>
      </trkpt>
      <trkpt lat="42.317220000" lon="-2.502271000">
        <ele>815.60</ele>
        <time>2012-11-24T13:02:03Z</time>
      </trkpt>
      <trkpt lat="42.317220000" lon="-2.502269000">
        <ele>815.60</ele>
        <time>2012-11-24T13:02:03Z</time>
      </trkpt>
      <trkpt lat="42.317220000" lon="-2.502268000">
        <ele>815.50</ele>
        <time>2012-11-24T13:02:07Z</time>
      </trkpt>
      <trkpt lat="42.317221000" lon="-2.502268000">
        <ele>815.50</ele>
        <time>2012-11-24T13:02:12Z</time>
      </trkpt>
      <trkpt lat="42.317221000" lon="-2.502269000">
        <ele>815.50</ele>
        <time>2012-11-24T13:02:14Z</time>
      </trkpt>
      <trkpt lat="42.317216000" lon="-2.502264000">
        <ele>815.50</ele>
        <time>2012-11-24T13:02:19Z</time>
      </trkpt>
      <trkpt lat="42.317216000" lon="-2.502261000">
        <ele>815.50</ele>
        <time>2012-11-24T13:02:19Z</time>
      </trkpt>
      <trkpt lat="42.317215000" lon="-2.502259000">
        <ele>815.40</ele>
        <time>2012-11-24T13:02:22Z</time>
      </trkpt>
      <trkpt lat="42.317213000" lon="-2.502254000">
        <ele>815.40</ele>
        <time>2012-11-24T13:02:24Z</time>
      </trkpt>
      <trkpt lat="42.317213000" lon="-2.502254000">
        <ele>815.40</ele>
        <time>2012-11-24T13:02:26Z</time>
      </trkpt>
      <trkpt lat="42.317213000" lon="-2.502253000">
        <ele>815.30</ele>
        <time>2012-11-24T13:02:29Z</time>
      </trkpt>
      <trkpt lat="42.317211000" lon="-2.502251000">
        <ele>815.30</ele>
        <time>2012-11-24T13:02:31Z</time>
      </trkpt>
      <trkpt lat="42.317208000" lon="-2.502243000">
        <ele>815.20</ele>
        <time>2012-11-24T13:02:38Z</time>
      </trkpt>
      <trkpt lat="42.317206000" lon="-2.502246000">
        <ele>815.30</ele>
        <time>2012-11-24T13:02:38Z</time>
      </trkpt>
      <trkpt lat="42.317205000" lon="-2.502246000">
        <ele>815.30</ele>
        <time>2012-11-24T13:02:40Z</time>
      </trkpt>
      <trkpt lat="42.317203000" lon="-2.502248000">
        <ele>815.40</ele>
        <time>2012-11-24T13:02:40Z</time>
      </trkpt>
      <trkpt lat="42.317205000" lon="-2.502244000">
        <ele>815.40</ele>
        <time>2012-11-24T13:02:43Z</time>
      </trkpt>
      <trkpt lat="42.317205000" lon="-2.502243000">
        <ele>815.30</ele>
        <time>2012-11-24T13:02:43Z</time>
      </trkpt>
      <trkpt lat="42.317206000" lon="-2.502241000">
        <ele>815.30</ele>
        <time>2012-11-24T13:02:45Z</time>
      </trkpt>
      <trkpt lat="42.317206000" lon="-2.502241000">
        <ele>815.30</ele>
        <time>2012-11-24T13:02:45Z</time>
      </trkpt>
      <trkpt lat="42.317208000" lon="-2.502241000">
        <ele>815.10</ele>
        <time>2012-11-24T13:02:47Z</time>
      </trkpt>
      <trkpt lat="42.317208000" lon="-2.502239000">
        <ele>815.10</ele>
        <time>2012-11-24T13:02:50Z</time>
      </trkpt>
      <trkpt lat="42.317210000" lon="-2.502239000">
        <ele>815.00</ele>
        <time>2012-11-24T13:02:50Z</time>
      </trkpt>
      <trkpt lat="42.317211000" lon="-2.502238000">
        <ele>814.90</ele>
        <time>2012-11-24T13:02:52Z</time>
      </trkpt>
      <trkpt lat="42.317215000" lon="-2.502234000">
        <ele>814.70</ele>
        <time>2012-11-24T13:02:55Z</time>
      </trkpt>
      <trkpt lat="42.317216000" lon="-2.502234000">
        <ele>814.60</ele>
        <time>2012-11-24T13:02:57Z</time>
      </trkpt>
      <trkpt lat="42.317220000" lon="-2.502233000">
        <ele>814.40</ele>
        <time>2012-11-24T13:02:59Z</time>
      </trkpt>
      <trkpt lat="42.317221000" lon="-2.502231000">
        <ele>814.30</ele>
        <time>2012-11-24T13:03:01Z</time>
      </trkpt>
      <trkpt lat="42.317221000" lon="-2.502231000">
        <ele>814.30</ele>
        <time>2012-11-24T13:03:02Z</time>
      </trkpt>
      <trkpt lat="42.317223000" lon="-2.502231000">
        <ele>814.20</ele>
        <time>2012-11-24T13:03:04Z</time>
      </trkpt>
      <trkpt lat="42.317223000" lon="-2.502231000">
        <ele>814.20</ele>
        <time>2012-11-24T13:03:04Z</time>
      </trkpt>
      <trkpt lat="42.317225000" lon="-2.502231000">
        <ele>814.10</ele>
        <time>2012-11-24T13:03:06Z</time>
      </trkpt>
      <trkpt lat="42.317225000" lon="-2.502229000">
        <ele>814.00</ele>
        <time>2012-11-24T13:03:08Z</time>
      </trkpt>
      <trkpt lat="42.317225000" lon="-2.502228000">
        <ele>814.00</ele>
        <time>2012-11-24T13:03:11Z</time>
      </trkpt>
      <trkpt lat="42.317225000" lon="-2.502223000">
        <ele>813.80</ele>
        <time>2012-11-24T13:03:13Z</time>
      </trkpt>
      <trkpt lat="42.317225000" lon="-2.502216000">
        <ele>813.70</ele>
        <time>2012-11-24T13:03:15Z</time>
      </trkpt>
      <trkpt lat="42.317215000" lon="-2.502184000">
        <ele>813.10</ele>
        <time>2012-11-24T13:03:18Z</time>
      </trkpt>
      <trkpt lat="42.317210000" lon="-2.502176000">
        <ele>813.00</ele>
        <time>2012-11-24T13:03:18Z</time>
      </trkpt>
      <trkpt lat="42.317200000" lon="-2.502151000">
        <ele>812.60</ele>
        <time>2012-11-24T13:03:20Z</time>
      </trkpt>
      <trkpt lat="42.317198000" lon="-2.502138000">
        <ele>812.40</ele>
        <time>2012-11-24T13:03:22Z</time>
      </trkpt>
      <trkpt lat="42.317191000" lon="-2.502131000">
        <ele>812.20</ele>
        <time>2012-11-24T13:03:23Z</time>
      </trkpt>
      <trkpt lat="42.317175000" lon="-2.502091000">
        <ele>811.60</ele>
        <time>2012-11-24T13:03:27Z</time>
      </trkpt>
      <trkpt lat="42.317171000" lon="-2.502084000">
        <ele>811.50</ele>
        <time>2012-11-24T13:03:27Z</time>
      </trkpt>
      <trkpt lat="42.317165000" lon="-2.502064000">
        <ele>811.20</ele>
        <time>2012-11-24T13:03:30Z</time>
      </trkpt>
      <trkpt lat="42.317155000" lon="-2.502044000">
        <ele>811.10</ele>
        <time>2012-11-24T13:03:32Z</time>
      </trkpt>
      <trkpt lat="42.317151000" lon="-2.502033000">
        <ele>811.00</ele>
        <time>2012-11-24T13:03:32Z</time>
      </trkpt>
      <trkpt lat="42.317146000" lon="-2.502009000">
        <ele>810.70</ele>
        <time>2012-11-24T13:03:36Z</time>
      </trkpt>
      <trkpt lat="42.317145000" lon="-2.502006000">
        <ele>810.60</ele>
        <time>2012-11-24T13:03:37Z</time>
      </trkpt>
      <trkpt lat="42.317141000" lon="-2.502001000">
        <ele>810.60</ele>
        <time>2012-11-24T13:03:37Z</time>
      </trkpt>
      <trkpt lat="42.317136000" lon="-2.501998000">
        <ele>810.70</ele>
        <time>2012-11-24T13:03:39Z</time>
      </trkpt>
      <trkpt lat="42.317131000" lon="-2.501994000">
        <ele>810.70</ele>
        <time>2012-11-24T13:03:39Z</time>
      </trkpt>
      <trkpt lat="42.317126000" lon="-2.501984000">
        <ele>810.80</ele>
        <time>2012-11-24T13:03:41Z</time>
      </trkpt>
      <trkpt lat="42.317095000" lon="-2.501869000">
        <ele>809.60</ele>
        <time>2012-11-24T13:03:48Z</time>
      </trkpt>
      <trkpt lat="42.317093000" lon="-2.501864000">
        <ele>809.50</ele>
        <time>2012-11-24T13:03:49Z</time>
      </trkpt>
      <trkpt lat="42.317091000" lon="-2.501861000">
        <ele>809.40</ele>
        <time>2012-11-24T13:03:51Z</time>
      </trkpt>
      <trkpt lat="42.317093000" lon="-2.501856000">
        <ele>809.20</ele>
        <time>2012-11-24T13:03:53Z</time>
      </trkpt>
      <trkpt lat="42.317096000" lon="-2.501849000">
        <ele>809.00</ele>
        <time>2012-11-24T13:03:55Z</time>
      </trkpt>
      <trkpt lat="42.317096000" lon="-2.501848000">
        <ele>808.90</ele>
        <time>2012-11-24T13:03:55Z</time>
      </trkpt>
      <trkpt lat="42.317095000" lon="-2.501846000">
        <ele>808.90</ele>
        <time>2012-11-24T13:03:56Z</time>
      </trkpt>
      <trkpt lat="42.317095000" lon="-2.501841000">
        <ele>808.70</ele>
        <time>2012-11-24T13:03:58Z</time>
      </trkpt>
      <trkpt lat="42.317091000" lon="-2.501831000">
        <ele>808.70</ele>
        <time>2012-11-24T13:04:00Z</time>
      </trkpt>
      <trkpt lat="42.317086000" lon="-2.501794000">
        <ele>808.20</ele>
        <time>2012-11-24T13:04:02Z</time>
      </trkpt>
      <trkpt lat="42.317088000" lon="-2.501754000">
        <ele>807.40</ele>
        <time>2012-11-24T13:04:03Z</time>
      </trkpt>
      <trkpt lat="42.317091000" lon="-2.501736000">
        <ele>806.90</ele>
        <time>2012-11-24T13:04:05Z</time>
      </trkpt>
      <trkpt lat="42.317091000" lon="-2.501716000">
        <ele>806.50</ele>
        <time>2012-11-24T13:04:05Z</time>
      </trkpt>
      <trkpt lat="42.317088000" lon="-2.501694000">
        <ele>806.00</ele>
        <time>2012-11-24T13:04:07Z</time>
      </trkpt>
      <trkpt lat="42.317088000" lon="-2.501668000">
        <ele>805.20</ele>
        <time>2012-11-24T13:04:09Z</time>
      </trkpt>
      <trkpt lat="42.317090000" lon="-2.501644000">
        <ele>804.60</ele>
        <time>2012-11-24T13:04:10Z</time>
      </trkpt>
      <trkpt lat="42.317086000" lon="-2.501623000">
        <ele>804.10</ele>
        <time>2012-11-24T13:04:12Z</time>
      </trkpt>
      <trkpt lat="42.317088000" lon="-2.501613000">
        <ele>803.80</ele>
        <time>2012-11-24T13:04:14Z</time>
      </trkpt>
      <trkpt lat="42.317098000" lon="-2.501583000">
        <ele>803.00</ele>
        <time>2012-11-24T13:04:16Z</time>
      </trkpt>
      <trkpt lat="42.317120000" lon="-2.501539000">
        <ele>801.60</ele>
        <time>2012-11-24T13:04:17Z</time>
      </trkpt>
      <trkpt lat="42.317131000" lon="-2.501459000">
        <ele>799.60</ele>
        <time>2012-11-24T13:04:19Z</time>
      </trkpt>
      <trkpt lat="42.317133000" lon="-2.501323000">
        <ele>796.20</ele>
        <time>2012-11-24T13:04:23Z</time>
      </trkpt>
      <trkpt lat="42.317118000" lon="-2.501246000">
        <ele>794.60</ele>
        <time>2012-11-24T13:04:24Z</time>
      </trkpt>
      <trkpt lat="42.317076000" lon="-2.501123000">
        <ele>793.30</ele>
        <time>2012-11-24T13:04:28Z</time>
      </trkpt>
      <trkpt lat="42.317073000" lon="-2.501094000">
        <ele>793.00</ele>
        <time>2012-11-24T13:04:30Z</time>
      </trkpt>
      <trkpt lat="42.317075000" lon="-2.501068000">
        <ele>792.60</ele>
        <time>2012-11-24T13:04:31Z</time>
      </trkpt>
      <trkpt lat="42.317081000" lon="-2.501058000">
        <ele>792.30</ele>
        <time>2012-11-24T13:04:31Z</time>
      </trkpt>
      <trkpt lat="42.317085000" lon="-2.501059000">
        <ele>792.00</ele>
        <time>2012-11-24T13:04:33Z</time>
      </trkpt>
      <trkpt lat="42.317086000" lon="-2.501056000">
        <ele>791.80</ele>
        <time>2012-11-24T13:04:33Z</time>
      </trkpt>
      <trkpt lat="42.317088000" lon="-2.501054000">
        <ele>791.70</ele>
        <time>2012-11-24T13:04:35Z</time>
      </trkpt>
      <trkpt lat="42.317088000" lon="-2.501056000">
        <ele>791.60</ele>
        <time>2012-11-24T13:04:35Z</time>
      </trkpt>
      <trkpt lat="42.317090000" lon="-2.501054000">
        <ele>791.60</ele>
        <time>2012-11-24T13:04:36Z</time>
      </trkpt>
      <trkpt lat="42.317090000" lon="-2.501053000">
        <ele>791.50</ele>
        <time>2012-11-24T13:04:38Z</time>
      </trkpt>
      <trkpt lat="42.317091000" lon="-2.501054000">
        <ele>791.50</ele>
        <time>2012-11-24T13:04:38Z</time>
      </trkpt>
      <trkpt lat="42.317091000" lon="-2.501054000">
        <ele>791.50</ele>
        <time>2012-11-24T13:04:40Z</time>
      </trkpt>
      <trkpt lat="42.317091000" lon="-2.501049000">
        <ele>791.40</ele>
        <time>2012-11-24T13:04:42Z</time>
      </trkpt>
      <trkpt lat="42.317091000" lon="-2.501049000">
        <ele>791.40</ele>
        <time>2012-11-24T13:04:42Z</time>
      </trkpt>
      <trkpt lat="42.317091000" lon="-2.501044000">
        <ele>791.30</ele>
        <time>2012-11-24T13:04:49Z</time>
      </trkpt>
      <trkpt lat="42.317096000" lon="-2.501044000">
        <ele>791.20</ele>
        <time>2012-11-24T13:04:49Z</time>
      </trkpt>
      <trkpt lat="42.317108000" lon="-2.501051000">
        <ele>791.00</ele>
        <time>2012-11-24T13:04:50Z</time>
      </trkpt>
      <trkpt lat="42.317121000" lon="-2.501063000">
        <ele>790.80</ele>
        <time>2012-11-24T13:04:52Z</time>
      </trkpt>
      <trkpt lat="42.317168000" lon="-2.501128000">
        <ele>790.20</ele>
        <time>2012-11-24T13:04:56Z</time>
      </trkpt>
      <trkpt lat="42.317180000" lon="-2.501136000">
        <ele>790.00</ele>
        <time>2012-11-24T13:04:57Z</time>
      </trkpt>
      <trkpt lat="42.317191000" lon="-2.501138000">
        <ele>789.90</ele>
        <time>2012-11-24T13:04:57Z</time>
      </trkpt>
      <trkpt lat="42.317230000" lon="-2.501163000">
        <ele>789.00</ele>
        <time>2012-11-24T13:04:59Z</time>
      </trkpt>
      <trkpt lat="42.317255000" lon="-2.501171000">
        <ele>788.40</ele>
        <time>2012-11-24T13:05:01Z</time>
      </trkpt>
      <trkpt lat="42.317340000" lon="-2.501181000">
        <ele>786.00</ele>
        <time>2012-11-24T13:05:04Z</time>
      </trkpt>
      <trkpt lat="42.317365000" lon="-2.501194000">
        <ele>785.20</ele>
        <time>2012-11-24T13:05:04Z</time>
      </trkpt>
      <trkpt lat="42.317430000" lon="-2.501248000">
        <ele>782.90</ele>
        <time>2012-11-24T13:05:08Z</time>
      </trkpt>
      <trkpt lat="42.317433000" lon="-2.501254000">
        <ele>782.70</ele>
        <time>2012-11-24T13:05:10Z</time>
      </trkpt>
      <trkpt lat="42.317436000" lon="-2.501261000">
        <ele>782.60</ele>
        <time>2012-11-24T13:05:11Z</time>
      </trkpt>
      <trkpt lat="42.317438000" lon="-2.501273000">
        <ele>782.60</ele>
        <time>2012-11-24T13:05:11Z</time>
      </trkpt>
      <trkpt lat="42.317450000" lon="-2.501331000">
        <ele>783.20</ele>
        <time>2012-11-24T13:05:15Z</time>
      </trkpt>
      <trkpt lat="42.317461000" lon="-2.501359000">
        <ele>783.50</ele>
        <time>2012-11-24T13:05:17Z</time>
      </trkpt>
      <trkpt lat="42.317461000" lon="-2.501364000">
        <ele>783.60</ele>
        <time>2012-11-24T13:05:18Z</time>
      </trkpt>
      <trkpt lat="42.317460000" lon="-2.501368000">
        <ele>783.80</ele>
        <time>2012-11-24T13:05:20Z</time>
      </trkpt>
      <trkpt lat="42.317465000" lon="-2.501383000">
        <ele>783.90</ele>
        <time>2012-11-24T13:05:22Z</time>
      </trkpt>
      <trkpt lat="42.317466000" lon="-2.501394000">
        <ele>784.10</ele>
        <time>2012-11-24T13:05:22Z</time>
      </trkpt>
      <trkpt lat="42.317465000" lon="-2.501406000">
        <ele>784.30</ele>
        <time>2012-11-24T13:05:24Z</time>
      </trkpt>
      <trkpt lat="42.317461000" lon="-2.501418000">
        <ele>784.60</ele>
        <time>2012-11-24T13:05:25Z</time>
      </trkpt>
      <trkpt lat="42.317455000" lon="-2.501428000">
        <ele>784.90</ele>
        <time>2012-11-24T13:05:25Z</time>
      </trkpt>
      <trkpt lat="42.317450000" lon="-2.501439000">
        <ele>785.30</ele>
        <time>2012-11-24T13:05:27Z</time>
      </trkpt>
      <trkpt lat="42.317446000" lon="-2.501464000">
        <ele>786.00</ele>
        <time>2012-11-24T13:05:29Z</time>
      </trkpt>
      <trkpt lat="42.317441000" lon="-2.501484000">
        <ele>786.70</ele>
        <time>2012-11-24T13:05:30Z</time>
      </trkpt>
      <trkpt lat="42.317436000" lon="-2.501493000">
        <ele>787.00</ele>
        <time>2012-11-24T13:05:32Z</time>
      </trkpt>
      <trkpt lat="42.317435000" lon="-2.501501000">
        <ele>787.30</ele>
        <time>2012-11-24T13:05:32Z</time>
      </trkpt>
      <trkpt lat="42.317431000" lon="-2.501506000">
        <ele>787.60</ele>
        <time>2012-11-24T13:05:34Z</time>
      </trkpt>
      <trkpt lat="42.317428000" lon="-2.501511000">
        <ele>787.80</ele>
        <time>2012-11-24T13:05:34Z</time>
      </trkpt>
      <trkpt lat="42.317423000" lon="-2.501518000">
        <ele>788.20</ele>
        <time>2012-11-24T13:05:36Z</time>
      </trkpt>
      <trkpt lat="42.317421000" lon="-2.501521000">
        <ele>788.40</ele>
        <time>2012-11-24T13:05:37Z</time>
      </trkpt>
      <trkpt lat="42.317421000" lon="-2.501524000">
        <ele>788.50</ele>
        <time>2012-11-24T13:05:39Z</time>
      </trkpt>
      <trkpt lat="42.317421000" lon="-2.501528000">
        <ele>788.60</ele>
        <time>2012-11-24T13:05:39Z</time>
      </trkpt>
      <trkpt lat="42.317421000" lon="-2.501531000">
        <ele>788.70</ele>
        <time>2012-11-24T13:05:41Z</time>
      </trkpt>
      <trkpt lat="42.317415000" lon="-2.501541000">
        <ele>789.10</ele>
        <time>2012-11-24T13:05:43Z</time>
      </trkpt>
      <trkpt lat="42.317410000" lon="-2.501556000">
        <ele>789.50</ele>
        <time>2012-11-24T13:05:44Z</time>
      </trkpt>
      <trkpt lat="42.317411000" lon="-2.501564000">
        <ele>789.70</ele>
        <time>2012-11-24T13:05:46Z</time>
      </trkpt>
      <trkpt lat="42.317415000" lon="-2.501574000">
        <ele>789.90</ele>
        <time>2012-11-24T13:05:46Z</time>
      </trkpt>
      <trkpt lat="42.317420000" lon="-2.501594000">
        <ele>790.10</ele>
        <time>2012-11-24T13:05:48Z</time>
      </trkpt>
      <trkpt lat="42.317420000" lon="-2.501603000">
        <ele>790.30</ele>
        <time>2012-11-24T13:05:50Z</time>
      </trkpt>
      <trkpt lat="42.317416000" lon="-2.501621000">
        <ele>790.90</ele>
        <time>2012-11-24T13:05:55Z</time>
      </trkpt>
      <trkpt lat="42.317416000" lon="-2.501623000">
        <ele>791.00</ele>
        <time>2012-11-24T13:05:57Z</time>
      </trkpt>
      <trkpt lat="42.317415000" lon="-2.501624000">
        <ele>791.00</ele>
        <time>2012-11-24T13:05:58Z</time>
      </trkpt>
      <trkpt lat="42.317413000" lon="-2.501628000">
        <ele>791.10</ele>
        <time>2012-11-24T13:05:58Z</time>
      </trkpt>
      <trkpt lat="42.317413000" lon="-2.501629000">
        <ele>791.20</ele>
        <time>2012-11-24T13:06:00Z</time>
      </trkpt>
      <trkpt lat="42.317411000" lon="-2.501629000">
        <ele>791.30</ele>
        <time>2012-11-24T13:06:00Z</time>
      </trkpt>
      <trkpt lat="42.317411000" lon="-2.501633000">
        <ele>791.30</ele>
        <time>2012-11-24T13:06:02Z</time>
      </trkpt>
      <trkpt lat="42.317413000" lon="-2.501634000">
        <ele>791.40</ele>
        <time>2012-11-24T13:06:02Z</time>
      </trkpt>
      <trkpt lat="42.317415000" lon="-2.501638000">
        <ele>791.40</ele>
        <time>2012-11-24T13:06:04Z</time>
      </trkpt>
      <trkpt lat="42.317416000" lon="-2.501638000">
        <ele>791.40</ele>
        <time>2012-11-24T13:06:05Z</time>
      </trkpt>
      <trkpt lat="42.317418000" lon="-2.501638000">
        <ele>791.30</ele>
        <time>2012-11-24T13:06:05Z</time>
      </trkpt>
      <trkpt lat="42.317420000" lon="-2.501639000">
        <ele>791.30</ele>
        <time>2012-11-24T13:06:07Z</time>
      </trkpt>
      <trkpt lat="42.317421000" lon="-2.501648000">
        <ele>791.30</ele>
        <time>2012-11-24T13:06:11Z</time>
      </trkpt>
      <trkpt lat="42.317423000" lon="-2.501649000">
        <ele>791.30</ele>
        <time>2012-11-24T13:06:12Z</time>
      </trkpt>
      <trkpt lat="42.317425000" lon="-2.501648000">
        <ele>791.30</ele>
        <time>2012-11-24T13:06:12Z</time>
      </trkpt>
      <trkpt lat="42.317426000" lon="-2.501651000">
        <ele>791.30</ele>
        <time>2012-11-24T13:06:16Z</time>
      </trkpt>
      <trkpt lat="42.317430000" lon="-2.501653000">
        <ele>791.20</ele>
        <time>2012-11-24T13:06:17Z</time>
      </trkpt>
      <trkpt lat="42.317431000" lon="-2.501653000">
        <ele>791.20</ele>
        <time>2012-11-24T13:06:19Z</time>
      </trkpt>
      <trkpt lat="42.317435000" lon="-2.501654000">
        <ele>791.10</ele>
        <time>2012-11-24T13:06:19Z</time>
      </trkpt>
      <trkpt lat="42.317436000" lon="-2.501656000">
        <ele>791.00</ele>
        <time>2012-11-24T13:06:21Z</time>
      </trkpt>
      <trkpt lat="42.317438000" lon="-2.501661000">
        <ele>791.00</ele>
        <time>2012-11-24T13:06:21Z</time>
      </trkpt>
      <trkpt lat="42.317445000" lon="-2.501664000">
        <ele>790.90</ele>
        <time>2012-11-24T13:06:23Z</time>
      </trkpt>
      <trkpt lat="42.317448000" lon="-2.501664000">
        <ele>790.80</ele>
        <time>2012-11-24T13:06:24Z</time>
      </trkpt>
      <trkpt lat="42.317451000" lon="-2.501661000">
        <ele>790.60</ele>
        <time>2012-11-24T13:06:26Z</time>
      </trkpt>
      <trkpt lat="42.317456000" lon="-2.501658000">
        <ele>790.40</ele>
        <time>2012-11-24T13:06:28Z</time>
      </trkpt>
      <trkpt lat="42.317458000" lon="-2.501654000">
        <ele>790.30</ele>
        <time>2012-11-24T13:06:28Z</time>
      </trkpt>
      <trkpt lat="42.317460000" lon="-2.501653000">
        <ele>790.20</ele>
        <time>2012-11-24T13:06:30Z</time>
      </trkpt>
      <trkpt lat="42.317470000" lon="-2.501649000">
        <ele>789.80</ele>
        <time>2012-11-24T13:06:31Z</time>
      </trkpt>
      <trkpt lat="42.317476000" lon="-2.501648000">
        <ele>789.40</ele>
        <time>2012-11-24T13:06:33Z</time>
      </trkpt>
      <trkpt lat="42.317478000" lon="-2.501646000">
        <ele>789.30</ele>
        <time>2012-11-24T13:06:35Z</time>
      </trkpt>
      <trkpt lat="42.317481000" lon="-2.501643000">
        <ele>789.10</ele>
        <time>2012-11-24T13:06:35Z</time>
      </trkpt>
      <trkpt lat="42.317490000" lon="-2.501643000">
        <ele>788.80</ele>
        <time>2012-11-24T13:06:37Z</time>
      </trkpt>
      <trkpt lat="42.317493000" lon="-2.501643000">
        <ele>788.60</ele>
        <time>2012-11-24T13:06:38Z</time>
      </trkpt>
      <trkpt lat="42.317498000" lon="-2.501643000">
        <ele>788.50</ele>
        <time>2012-11-24T13:06:40Z</time>
      </trkpt>
      <trkpt lat="42.317501000" lon="-2.501643000">
        <ele>788.30</ele>
        <time>2012-11-24T13:06:40Z</time>
      </trkpt>
      <trkpt lat="42.317511000" lon="-2.501639000">
        <ele>787.90</ele>
        <time>2012-11-24T13:06:42Z</time>
      </trkpt>
      <trkpt lat="42.317513000" lon="-2.501636000">
        <ele>787.80</ele>
        <time>2012-11-24T13:06:44Z</time>
      </trkpt>
      <trkpt lat="42.317516000" lon="-2.501631000">
        <ele>787.60</ele>
        <time>2012-11-24T13:06:45Z</time>
      </trkpt>
      <trkpt lat="42.317530000" lon="-2.501616000">
        <ele>786.80</ele>
        <time>2012-11-24T13:06:49Z</time>
      </trkpt>
      <trkpt lat="42.317533000" lon="-2.501609000">
        <ele>786.50</ele>
        <time>2012-11-24T13:06:49Z</time>
      </trkpt>
      <trkpt lat="42.317540000" lon="-2.501608000">
        <ele>786.20</ele>
        <time>2012-11-24T13:06:52Z</time>
      </trkpt>
      <trkpt lat="42.317545000" lon="-2.501606000">
        <ele>786.00</ele>
        <time>2012-11-24T13:06:52Z</time>
      </trkpt>
      <trkpt lat="42.317548000" lon="-2.501608000">
        <ele>785.80</ele>
        <time>2012-11-24T13:06:54Z</time>
      </trkpt>
      <trkpt lat="42.317551000" lon="-2.501606000">
        <ele>785.60</ele>
        <time>2012-11-24T13:06:54Z</time>
      </trkpt>
      <trkpt lat="42.317561000" lon="-2.501606000">
        <ele>785.40</ele>
        <time>2012-11-24T13:06:56Z</time>
      </trkpt>
      <trkpt lat="42.317568000" lon="-2.501604000">
        <ele>785.10</ele>
        <time>2012-11-24T13:06:56Z</time>
      </trkpt>
      <trkpt lat="42.317576000" lon="-2.501603000">
        <ele>784.80</ele>
        <time>2012-11-24T13:06:58Z</time>
      </trkpt>
      <trkpt lat="42.317591000" lon="-2.501599000">
        <ele>784.30</ele>
        <time>2012-11-24T13:06:59Z</time>
      </trkpt>
      <trkpt lat="42.317606000" lon="-2.501603000">
        <ele>783.60</ele>
        <time>2012-11-24T13:07:01Z</time>
      </trkpt>
      <trkpt lat="42.317628000" lon="-2.501603000">
        <ele>782.90</ele>
        <time>2012-11-24T13:07:03Z</time>
      </trkpt>
      <trkpt lat="42.317640000" lon="-2.501608000">
        <ele>782.50</ele>
        <time>2012-11-24T13:07:05Z</time>
      </trkpt>
      <trkpt lat="42.317650000" lon="-2.501618000">
        <ele>782.30</ele>
        <time>2012-11-24T13:07:06Z</time>
      </trkpt>
      <trkpt lat="42.317668000" lon="-2.501646000">
        <ele>781.90</ele>
        <time>2012-11-24T13:07:08Z</time>
      </trkpt>
      <trkpt lat="42.317695000" lon="-2.501653000">
        <ele>781.10</ele>
        <time>2012-11-24T13:07:13Z</time>
      </trkpt>
      <trkpt lat="42.317701000" lon="-2.501651000">
        <ele>780.90</ele>
        <time>2012-11-24T13:07:13Z</time>
      </trkpt>
      <trkpt lat="42.317706000" lon="-2.501648000">
        <ele>780.60</ele>
        <time>2012-11-24T13:07:15Z</time>
      </trkpt>
      <trkpt lat="42.317716000" lon="-2.501644000">
        <ele>780.20</ele>
        <time>2012-11-24T13:07:17Z</time>
      </trkpt>
      <trkpt lat="42.317723000" lon="-2.501644000">
        <ele>779.90</ele>
        <time>2012-11-24T13:07:17Z</time>
      </trkpt>
      <trkpt lat="42.317738000" lon="-2.501654000">
        <ele>779.50</ele>
        <time>2012-11-24T13:07:20Z</time>
      </trkpt>
      <trkpt lat="42.317768000" lon="-2.501679000">
        <ele>778.70</ele>
        <time>2012-11-24T13:07:24Z</time>
      </trkpt>
      <trkpt lat="42.317790000" lon="-2.501698000">
        <ele>778.20</ele>
        <time>2012-11-24T13:07:27Z</time>
      </trkpt>
      <trkpt lat="42.317803000" lon="-2.501716000">
        <ele>778.00</ele>
        <time>2012-11-24T13:07:29Z</time>
      </trkpt>
      <trkpt lat="42.317810000" lon="-2.501724000">
        <ele>777.90</ele>
        <time>2012-11-24T13:07:29Z</time>
      </trkpt>
      <trkpt lat="42.317818000" lon="-2.501733000">
        <ele>777.70</ele>
        <time>2012-11-24T13:07:31Z</time>
      </trkpt>
      <trkpt lat="42.317820000" lon="-2.501731000">
        <ele>777.60</ele>
        <time>2012-11-24T13:07:32Z</time>
      </trkpt>
      <trkpt lat="42.317823000" lon="-2.501731000">
        <ele>777.50</ele>
        <time>2012-11-24T13:07:34Z</time>
      </trkpt>
      <trkpt lat="42.317825000" lon="-2.501731000">
        <ele>777.40</ele>
        <time>2012-11-24T13:07:34Z</time>
      </trkpt>
      <trkpt lat="42.317823000" lon="-2.501733000">
        <ele>777.40</ele>
        <time>2012-11-24T13:07:36Z</time>
      </trkpt>
      <trkpt lat="42.317810000" lon="-2.501744000">
        <ele>777.80</ele>
        <time>2012-11-24T13:07:38Z</time>
      </trkpt>
      <trkpt lat="42.317821000" lon="-2.501756000">
        <ele>777.90</ele>
        <time>2012-11-24T13:07:43Z</time>
      </trkpt>
      <trkpt lat="42.317828000" lon="-2.501763000">
        <ele>777.80</ele>
        <time>2012-11-24T13:07:45Z</time>
      </trkpt>
      <trkpt lat="42.317835000" lon="-2.501769000">
        <ele>777.70</ele>
        <time>2012-11-24T13:07:46Z</time>
      </trkpt>
      <trkpt lat="42.317840000" lon="-2.501773000">
        <ele>777.60</ele>
        <time>2012-11-24T13:07:46Z</time>
      </trkpt>
      <trkpt lat="42.317848000" lon="-2.501783000">
        <ele>777.40</ele>
        <time>2012-11-24T13:07:48Z</time>
      </trkpt>
      <trkpt lat="42.317885000" lon="-2.501813000">
        <ele>776.80</ele>
        <time>2012-11-24T13:07:50Z</time>
      </trkpt>
      <trkpt lat="42.317923000" lon="-2.501834000">
        <ele>775.80</ele>
        <time>2012-11-24T13:07:52Z</time>
      </trkpt>
      <trkpt lat="42.317940000" lon="-2.501848000">
        <ele>775.10</ele>
        <time>2012-11-24T13:07:53Z</time>
      </trkpt>
      <trkpt lat="42.317988000" lon="-2.501903000">
        <ele>773.00</ele>
        <time>2012-11-24T13:07:55Z</time>
      </trkpt>
      <trkpt lat="42.318005000" lon="-2.501928000">
        <ele>772.40</ele>
        <time>2012-11-24T13:07:57Z</time>
      </trkpt>
      <trkpt lat="42.318015000" lon="-2.501949000">
        <ele>771.90</ele>
        <time>2012-11-24T13:07:57Z</time>
      </trkpt>
      <trkpt lat="42.318016000" lon="-2.501961000">
        <ele>771.70</ele>
        <time>2012-11-24T13:07:59Z</time>
      </trkpt>
      <trkpt lat="42.318020000" lon="-2.501973000">
        <ele>771.50</ele>
        <time>2012-11-24T13:08:00Z</time>
      </trkpt>
      <trkpt lat="42.318023000" lon="-2.501981000">
        <ele>771.40</ele>
        <time>2012-11-24T13:08:00Z</time>
      </trkpt>
      <trkpt lat="42.318028000" lon="-2.501986000">
        <ele>771.30</ele>
        <time>2012-11-24T13:08:02Z</time>
      </trkpt>
      <trkpt lat="42.318058000" lon="-2.502046000">
        <ele>770.40</ele>
        <time>2012-11-24T13:08:05Z</time>
      </trkpt>
      <trkpt lat="42.318075000" lon="-2.502094000">
        <ele>770.10</ele>
        <time>2012-11-24T13:08:09Z</time>
      </trkpt>
      <trkpt lat="42.318078000" lon="-2.502106000">
        <ele>770.20</ele>
        <time>2012-11-24T13:08:09Z</time>
      </trkpt>
      <trkpt lat="42.318081000" lon="-2.502113000">
        <ele>770.30</ele>
        <time>2012-11-24T13:08:11Z</time>
      </trkpt>
      <trkpt lat="42.318128000" lon="-2.502278000">
        <ele>772.40</ele>
        <time>2012-11-24T13:08:18Z</time>
      </trkpt>
      <trkpt lat="42.318156000" lon="-2.502403000">
        <ele>774.60</ele>
        <time>2012-11-24T13:08:21Z</time>
      </trkpt>
      <trkpt lat="42.318191000" lon="-2.502494000">
        <ele>775.70</ele>
        <time>2012-11-24T13:08:25Z</time>
      </trkpt>
      <trkpt lat="42.318200000" lon="-2.502536000">
        <ele>776.50</ele>
        <time>2012-11-24T13:08:26Z</time>
      </trkpt>
      <trkpt lat="42.318200000" lon="-2.502556000">
        <ele>777.00</ele>
        <time>2012-11-24T13:08:28Z</time>
      </trkpt>
      <trkpt lat="42.318205000" lon="-2.502581000">
        <ele>777.50</ele>
        <time>2012-11-24T13:08:28Z</time>
      </trkpt>
      <trkpt lat="42.318210000" lon="-2.502624000">
        <ele>778.60</ele>
        <time>2012-11-24T13:08:30Z</time>
      </trkpt>
      <trkpt lat="42.318216000" lon="-2.502636000">
        <ele>778.90</ele>
        <time>2012-11-24T13:08:32Z</time>
      </trkpt>
      <trkpt lat="42.318225000" lon="-2.502643000">
        <ele>778.90</ele>
        <time>2012-11-24T13:08:33Z</time>
      </trkpt>
      <trkpt lat="42.318236000" lon="-2.502651000">
        <ele>778.70</ele>
        <time>2012-11-24T13:08:33Z</time>
      </trkpt>
      <trkpt lat="42.318250000" lon="-2.502656000">
        <ele>778.20</ele>
        <time>2012-11-24T13:08:35Z</time>
      </trkpt>
      <trkpt lat="42.318270000" lon="-2.502668000">
        <ele>777.50</ele>
        <time>2012-11-24T13:08:35Z</time>
      </trkpt>
      <trkpt lat="42.318336000" lon="-2.502738000">
        <ele>775.30</ele>
        <time>2012-11-24T13:08:39Z</time>
      </trkpt>
      <trkpt lat="42.318368000" lon="-2.502779000">
        <ele>774.20</ele>
        <time>2012-11-24T13:08:40Z</time>
      </trkpt>
      <trkpt lat="42.318401000" lon="-2.502806000">
        <ele>772.90</ele>
        <time>2012-11-24T13:08:42Z</time>
      </trkpt>
      <trkpt lat="42.318523000" lon="-2.502928000">
        <ele>768.40</ele>
        <time>2012-11-24T13:08:49Z</time>
      </trkpt>
      <trkpt lat="42.318536000" lon="-2.502953000">
        <ele>768.20</ele>
        <time>2012-11-24T13:08:49Z</time>
      </trkpt>
      <trkpt lat="42.318541000" lon="-2.502979000">
        <ele>768.60</ele>
        <time>2012-11-24T13:08:51Z</time>
      </trkpt>
      <trkpt lat="42.318550000" lon="-2.502996000">
        <ele>768.90</ele>
        <time>2012-11-24T13:08:51Z</time>
      </trkpt>
      <trkpt lat="42.318561000" lon="-2.503011000">
        <ele>769.20</ele>
        <time>2012-11-24T13:08:54Z</time>
      </trkpt>
      <trkpt lat="42.318568000" lon="-2.503014000">
        <ele>769.10</ele>
        <time>2012-11-24T13:08:54Z</time>
      </trkpt>
      <trkpt lat="42.318573000" lon="-2.503021000">
        <ele>769.10</ele>
        <time>2012-11-24T13:08:56Z</time>
      </trkpt>
      <trkpt lat="42.318583000" lon="-2.503031000">
        <ele>769.00</ele>
        <time>2012-11-24T13:08:56Z</time>
      </trkpt>
      <trkpt lat="42.318593000" lon="-2.503043000">
        <ele>769.00</ele>
        <time>2012-11-24T13:08:58Z</time>
      </trkpt>
      <trkpt lat="42.318603000" lon="-2.503054000">
        <ele>768.90</ele>
        <time>2012-11-24T13:08:58Z</time>
      </trkpt>
      <trkpt lat="42.318613000" lon="-2.503063000">
        <ele>768.80</ele>
        <time>2012-11-24T13:08:59Z</time>
      </trkpt>
      <trkpt lat="42.318623000" lon="-2.503068000">
        <ele>768.50</ele>
        <time>2012-11-24T13:09:01Z</time>
      </trkpt>
      <trkpt lat="42.318668000" lon="-2.503084000">
        <ele>766.70</ele>
        <time>2012-11-24T13:09:05Z</time>
      </trkpt>
      <trkpt lat="42.318671000" lon="-2.503088000">
        <ele>766.50</ele>
        <time>2012-11-24T13:09:05Z</time>
      </trkpt>
      <trkpt lat="42.318685000" lon="-2.503089000">
        <ele>765.70</ele>
        <time>2012-11-24T13:09:08Z</time>
      </trkpt>
      <trkpt lat="42.318698000" lon="-2.503094000">
        <ele>765.30</ele>
        <time>2012-11-24T13:09:08Z</time>
      </trkpt>
      <trkpt lat="42.318766000" lon="-2.503136000">
        <ele>763.40</ele>
        <time>2012-11-24T13:09:12Z</time>
      </trkpt>
      <trkpt lat="42.318820000" lon="-2.503188000">
        <ele>762.40</ele>
        <time>2012-11-24T13:09:13Z</time>
      </trkpt>
      <trkpt lat="42.318953000" lon="-2.503356000">
        <ele>762.10</ele>
        <time>2012-11-24T13:09:20Z</time>
      </trkpt>
      <trkpt lat="42.318961000" lon="-2.503373000">
        <ele>762.20</ele>
        <time>2012-11-24T13:09:22Z</time>
      </trkpt>
      <trkpt lat="42.318970000" lon="-2.503383000">
        <ele>762.30</ele>
        <time>2012-11-24T13:09:22Z</time>
      </trkpt>
      <trkpt lat="42.318973000" lon="-2.503396000">
        <ele>762.50</ele>
        <time>2012-11-24T13:09:24Z</time>
      </trkpt>
      <trkpt lat="42.318971000" lon="-2.503409000">
        <ele>763.00</ele>
        <time>2012-11-24T13:09:24Z</time>
      </trkpt>
      <trkpt lat="42.318970000" lon="-2.503414000">
        <ele>763.50</ele>
        <time>2012-11-24T13:09:26Z</time>
      </trkpt>
      <trkpt lat="42.318973000" lon="-2.503418000">
        <ele>763.80</ele>
        <time>2012-11-24T13:09:26Z</time>
      </trkpt>
      <trkpt lat="42.318970000" lon="-2.503439000">
        <ele>764.70</ele>
        <time>2012-11-24T13:09:29Z</time>
      </trkpt>
      <trkpt lat="42.318975000" lon="-2.503451000">
        <ele>765.20</ele>
        <time>2012-11-24T13:09:29Z</time>
      </trkpt>
      <trkpt lat="42.318990000" lon="-2.503479000">
        <ele>765.80</ele>
        <time>2012-11-24T13:09:31Z</time>
      </trkpt>
      <trkpt lat="42.318995000" lon="-2.503488000">
        <ele>766.00</ele>
        <time>2012-11-24T13:09:33Z</time>
      </trkpt>
      <trkpt lat="42.318998000" lon="-2.503491000">
        <ele>766.10</ele>
        <time>2012-11-24T13:09:34Z</time>
      </trkpt>
      <trkpt lat="42.319001000" lon="-2.503494000">
        <ele>766.10</ele>
        <time>2012-11-24T13:09:34Z</time>
      </trkpt>
      <trkpt lat="42.319008000" lon="-2.503496000">
        <ele>766.00</ele>
        <time>2012-11-24T13:09:36Z</time>
      </trkpt>
      <trkpt lat="42.319018000" lon="-2.503501000">
        <ele>765.70</ele>
        <time>2012-11-24T13:09:36Z</time>
      </trkpt>
      <trkpt lat="42.319048000" lon="-2.503521000">
        <ele>764.90</ele>
        <time>2012-11-24T13:09:38Z</time>
      </trkpt>
      <trkpt lat="42.319058000" lon="-2.503533000">
        <ele>764.50</ele>
        <time>2012-11-24T13:09:40Z</time>
      </trkpt>
      <trkpt lat="42.319125000" lon="-2.503649000">
        <ele>765.00</ele>
        <time>2012-11-24T13:09:45Z</time>
      </trkpt>
      <trkpt lat="42.319190000" lon="-2.503741000">
        <ele>765.20</ele>
        <time>2012-11-24T13:09:48Z</time>
      </trkpt>
      <trkpt lat="42.319290000" lon="-2.503824000">
        <ele>760.60</ele>
        <time>2012-11-24T13:09:52Z</time>
      </trkpt>
      <trkpt lat="42.319296000" lon="-2.503829000">
        <ele>759.90</ele>
        <time>2012-11-24T13:09:54Z</time>
      </trkpt>
      <trkpt lat="42.319303000" lon="-2.503839000">
        <ele>759.40</ele>
        <time>2012-11-24T13:09:55Z</time>
      </trkpt>
      <trkpt lat="42.319313000" lon="-2.503853000">
        <ele>758.90</ele>
        <time>2012-11-24T13:09:55Z</time>
      </trkpt>
      <trkpt lat="42.319325000" lon="-2.503861000">
        <ele>758.30</ele>
        <time>2012-11-24T13:09:57Z</time>
      </trkpt>
      <trkpt lat="42.319338000" lon="-2.503868000">
        <ele>757.60</ele>
        <time>2012-11-24T13:09:57Z</time>
      </trkpt>
      <trkpt lat="42.319351000" lon="-2.503873000">
        <ele>756.70</ele>
        <time>2012-11-24T13:09:59Z</time>
      </trkpt>
      <trkpt lat="42.319468000" lon="-2.503961000">
        <ele>750.10</ele>
        <time>2012-11-24T13:10:04Z</time>
      </trkpt>
      <trkpt lat="42.319580000" lon="-2.504019000">
        <ele>743.30</ele>
        <time>2012-11-24T13:10:06Z</time>
      </trkpt>
      <trkpt lat="42.319611000" lon="-2.504046000">
        <ele>741.90</ele>
        <time>2012-11-24T13:10:07Z</time>
      </trkpt>
      <trkpt lat="42.319705000" lon="-2.504106000">
        <ele>734.00</ele>
        <time>2012-11-24T13:10:11Z</time>
      </trkpt>
      <trkpt lat="42.319765000" lon="-2.504151000">
        <ele>729.40</ele>
        <time>2012-11-24T13:10:13Z</time>
      </trkpt>
      <trkpt lat="42.319833000" lon="-2.504184000">
        <ele>724.30</ele>
        <time>2012-11-24T13:10:14Z</time>
      </trkpt>
      <trkpt lat="42.319910000" lon="-2.504236000">
        <ele>717.50</ele>
        <time>2012-11-24T13:10:18Z</time>
      </trkpt>
      <trkpt lat="42.319941000" lon="-2.504249000">
        <ele>715.20</ele>
        <time>2012-11-24T13:10:18Z</time>
      </trkpt>
      <trkpt lat="42.319973000" lon="-2.504269000">
        <ele>712.80</ele>
        <time>2012-11-24T13:10:20Z</time>
      </trkpt>
      <trkpt lat="42.320041000" lon="-2.504336000">
        <ele>706.60</ele>
        <time>2012-11-24T13:10:23Z</time>
      </trkpt>
      <trkpt lat="42.320096000" lon="-2.504409000">
        <ele>701.70</ele>
        <time>2012-11-24T13:10:25Z</time>
      </trkpt>
      <trkpt lat="42.320135000" lon="-2.504491000">
        <ele>698.70</ele>
        <time>2012-11-24T13:10:28Z</time>
      </trkpt>
      <trkpt lat="42.320161000" lon="-2.504531000">
        <ele>696.80</ele>
        <time>2012-11-24T13:10:28Z</time>
      </trkpt>
      <trkpt lat="42.320215000" lon="-2.504583000">
        <ele>692.40</ele>
        <time>2012-11-24T13:10:30Z</time>
      </trkpt>
      <trkpt lat="42.320246000" lon="-2.504603000">
        <ele>688.80</ele>
        <time>2012-11-24T13:10:32Z</time>
      </trkpt>
      <trkpt lat="42.320253000" lon="-2.504608000">
        <ele>687.70</ele>
        <time>2012-11-24T13:10:34Z</time>
      </trkpt>
      <trkpt lat="42.320261000" lon="-2.504613000">
        <ele>686.70</ele>
        <time>2012-11-24T13:10:35Z</time>
      </trkpt>
      <trkpt lat="42.320275000" lon="-2.504624000">
        <ele>685.70</ele>
        <time>2012-11-24T13:10:35Z</time>
      </trkpt>
      <trkpt lat="42.320286000" lon="-2.504643000">
        <ele>684.70</ele>
        <time>2012-11-24T13:10:37Z</time>
      </trkpt>
      <trkpt lat="42.320296000" lon="-2.504664000">
        <ele>683.70</ele>
        <time>2012-11-24T13:10:37Z</time>
      </trkpt>
      <trkpt lat="42.320358000" lon="-2.504754000">
        <ele>678.90</ele>
        <time>2012-11-24T13:10:42Z</time>
      </trkpt>
      <trkpt lat="42.320383000" lon="-2.504769000">
        <ele>677.00</ele>
        <time>2012-11-24T13:10:42Z</time>
      </trkpt>
      <trkpt lat="42.320406000" lon="-2.504766000">
        <ele>674.90</ele>
        <time>2012-11-24T13:10:44Z</time>
      </trkpt>
      <trkpt lat="42.320416000" lon="-2.504749000">
        <ele>673.20</ele>
        <time>2012-11-24T13:10:44Z</time>
      </trkpt>
      <trkpt lat="42.320421000" lon="-2.504731000">
        <ele>672.30</ele>
        <time>2012-11-24T13:10:46Z</time>
      </trkpt>
      <trkpt lat="42.320430000" lon="-2.504713000">
        <ele>671.60</ele>
        <time>2012-11-24T13:10:46Z</time>
      </trkpt>
      <trkpt lat="42.320491000" lon="-2.504563000">
        <ele>669.40</ele>
        <time>2012-11-24T13:10:51Z</time>
      </trkpt>
      <trkpt lat="42.320516000" lon="-2.504531000">
        <ele>668.80</ele>
        <time>2012-11-24T13:10:53Z</time>
      </trkpt>
      <trkpt lat="42.320546000" lon="-2.504514000">
        <ele>668.10</ele>
        <time>2012-11-24T13:10:53Z</time>
      </trkpt>
      <trkpt lat="42.320578000" lon="-2.504509000">
        <ele>667.30</ele>
        <time>2012-11-24T13:10:54Z</time>
      </trkpt>
      <trkpt lat="42.320615000" lon="-2.504518000">
        <ele>666.40</ele>
        <time>2012-11-24T13:10:56Z</time>
      </trkpt>
      <trkpt lat="42.320655000" lon="-2.504536000">
        <ele>665.40</ele>
        <time>2012-11-24T13:10:56Z</time>
      </trkpt>
      <trkpt lat="42.320801000" lon="-2.504664000">
        <ele>660.90</ele>
        <time>2012-11-24T13:11:00Z</time>
      </trkpt>
      <trkpt lat="42.320823000" lon="-2.504698000">
        <ele>659.80</ele>
        <time>2012-11-24T13:11:01Z</time>
      </trkpt>
      <trkpt lat="42.320835000" lon="-2.504734000">
        <ele>658.90</ele>
        <time>2012-11-24T13:11:03Z</time>
      </trkpt>
      <trkpt lat="42.320855000" lon="-2.504769000">
        <ele>658.00</ele>
        <time>2012-11-24T13:11:03Z</time>
      </trkpt>
      <trkpt lat="42.320885000" lon="-2.504791000">
        <ele>657.00</ele>
        <time>2012-11-24T13:11:05Z</time>
      </trkpt>
      <trkpt lat="42.320915000" lon="-2.504804000">
        <ele>656.00</ele>
        <time>2012-11-24T13:11:05Z</time>
      </trkpt>
      <trkpt lat="42.320995000" lon="-2.504821000">
        <ele>653.00</ele>
        <time>2012-11-24T13:11:08Z</time>
      </trkpt>
      <trkpt lat="42.321020000" lon="-2.504831000">
        <ele>652.50</ele>
        <time>2012-11-24T13:11:10Z</time>
      </trkpt>
      <trkpt lat="42.321093000" lon="-2.504869000">
        <ele>648.50</ele>
        <time>2012-11-24T13:11:14Z</time>
      </trkpt>
      <trkpt lat="42.321096000" lon="-2.504873000">
        <ele>648.00</ele>
        <time>2012-11-24T13:11:17Z</time>
      </trkpt>
      <trkpt lat="42.321098000" lon="-2.504873000">
        <ele>647.90</ele>
        <time>2012-11-24T13:11:17Z</time>
      </trkpt>
      <trkpt lat="42.321101000" lon="-2.504873000">
        <ele>647.70</ele>
        <time>2012-11-24T13:11:19Z</time>
      </trkpt>
      <trkpt lat="42.321105000" lon="-2.504881000">
        <ele>647.60</ele>
        <time>2012-11-24T13:11:19Z</time>
      </trkpt>
      <trkpt lat="42.321111000" lon="-2.504898000">
        <ele>647.20</ele>
        <time>2012-11-24T13:11:22Z</time>
      </trkpt>
      <trkpt lat="42.321125000" lon="-2.504909000">
        <ele>646.60</ele>
        <time>2012-11-24T13:11:24Z</time>
      </trkpt>
      <trkpt lat="42.321210000" lon="-2.504948000">
        <ele>643.40</ele>
        <time>2012-11-24T13:11:29Z</time>
      </trkpt>
      <trkpt lat="42.321218000" lon="-2.504949000">
        <ele>643.00</ele>
        <time>2012-11-24T13:11:31Z</time>
      </trkpt>
      <trkpt lat="42.321223000" lon="-2.504949000">
        <ele>642.60</ele>
        <time>2012-11-24T13:11:31Z</time>
      </trkpt>
      <trkpt lat="42.321225000" lon="-2.504951000">
        <ele>642.40</ele>
        <time>2012-11-24T13:11:33Z</time>
      </trkpt>
      <trkpt lat="42.321228000" lon="-2.504948000">
        <ele>642.20</ele>
        <time>2012-11-24T13:11:33Z</time>
      </trkpt>
      <trkpt lat="42.321230000" lon="-2.504946000">
        <ele>642.10</ele>
        <time>2012-11-24T13:11:35Z</time>
      </trkpt>
      <trkpt lat="42.321231000" lon="-2.504946000">
        <ele>642.00</ele>
        <time>2012-11-24T13:11:36Z</time>
      </trkpt>
      <trkpt lat="42.321233000" lon="-2.504944000">
        <ele>642.00</ele>
        <time>2012-11-24T13:11:38Z</time>
      </trkpt>
      <trkpt lat="42.321233000" lon="-2.504944000">
        <ele>642.00</ele>
        <time>2012-11-24T13:11:38Z</time>
      </trkpt>
      <trkpt lat="42.321235000" lon="-2.504944000">
        <ele>641.90</ele>
        <time>2012-11-24T13:11:40Z</time>
      </trkpt>
      <trkpt lat="42.321235000" lon="-2.504946000">
        <ele>641.90</ele>
        <time>2012-11-24T13:11:42Z</time>
      </trkpt>
      <trkpt lat="42.321235000" lon="-2.504946000">
        <ele>641.90</ele>
        <time>2012-11-24T13:11:43Z</time>
      </trkpt>
      <trkpt lat="42.321236000" lon="-2.504946000">
        <ele>641.80</ele>
        <time>2012-11-24T13:11:45Z</time>
      </trkpt>
      <trkpt lat="42.321238000" lon="-2.504946000">
        <ele>641.70</ele>
        <time>2012-11-24T13:11:50Z</time>
      </trkpt>
      <trkpt lat="42.321238000" lon="-2.504944000">
        <ele>641.70</ele>
        <time>2012-11-24T13:12:02Z</time>
      </trkpt>
      <trkpt lat="42.321236000" lon="-2.504944000">
        <ele>641.80</ele>
        <time>2012-11-24T13:12:27Z</time>
      </trkpt>
      <trkpt lat="42.321235000" lon="-2.504944000">
        <ele>641.80</ele>
        <time>2012-11-24T13:12:34Z</time>
      </trkpt>
      <trkpt lat="42.321235000" lon="-2.504943000">
        <ele>641.90</ele>
        <time>2012-11-24T13:12:39Z</time>
      </trkpt>
      <trkpt lat="42.321233000" lon="-2.504943000">
        <ele>641.90</ele>
        <time>2012-11-24T13:12:42Z</time>
      </trkpt>
      <trkpt lat="42.321231000" lon="-2.504943000">
        <ele>642.00</ele>
        <time>2012-11-24T13:12:51Z</time>
      </trkpt>
      <trkpt lat="42.321231000" lon="-2.504941000">
        <ele>642.00</ele>
        <time>2012-11-24T13:12:56Z</time>
      </trkpt>
      <trkpt lat="42.321226000" lon="-2.504946000">
        <ele>642.10</ele>
        <time>2012-11-24T13:13:02Z</time>
      </trkpt>
      <trkpt lat="42.321226000" lon="-2.504944000">
        <ele>642.10</ele>
        <time>2012-11-24T13:13:12Z</time>
      </trkpt>
      <trkpt lat="42.321226000" lon="-2.504944000">
        <ele>642.10</ele>
        <time>2012-11-24T13:13:14Z</time>
      </trkpt>
      <trkpt lat="42.321223000" lon="-2.504944000">
        <ele>642.20</ele>
        <time>2012-11-24T13:13:30Z</time>
      </trkpt>
      <trkpt lat="42.321223000" lon="-2.504944000">
        <ele>642.20</ele>
        <time>2012-11-24T13:13:31Z</time>
      </trkpt>
      <trkpt lat="42.321221000" lon="-2.504946000">
        <ele>642.30</ele>
        <time>2012-11-24T13:13:38Z</time>
      </trkpt>
      <trkpt lat="42.321221000" lon="-2.504944000">
        <ele>642.30</ele>
        <time>2012-11-24T13:13:43Z</time>
      </trkpt>
      <trkpt lat="42.321220000" lon="-2.504944000">
        <ele>642.40</ele>
        <time>2012-11-24T13:13:47Z</time>
      </trkpt>
      <trkpt lat="42.321218000" lon="-2.504944000">
        <ele>642.40</ele>
        <time>2012-11-24T13:13:54Z</time>
      </trkpt>
      <trkpt lat="42.321218000" lon="-2.504946000">
        <ele>642.40</ele>
        <time>2012-11-24T13:13:57Z</time>
      </trkpt>
      <trkpt lat="42.321216000" lon="-2.504944000">
        <ele>642.50</ele>
        <time>2012-11-24T13:14:11Z</time>
      </trkpt>
      <trkpt lat="42.321215000" lon="-2.504944000">
        <ele>642.50</ele>
        <time>2012-11-24T13:14:25Z</time>
      </trkpt>
      <trkpt lat="42.321215000" lon="-2.504944000">
        <ele>642.50</ele>
        <time>2012-11-24T13:14:25Z</time>
      </trkpt>
      <trkpt lat="42.321215000" lon="-2.504946000">
        <ele>642.60</ele>
        <time>2012-11-24T13:14:30Z</time>
      </trkpt>
      <trkpt lat="42.321215000" lon="-2.504946000">
        <ele>642.60</ele>
        <time>2012-11-24T13:14:32Z</time>
      </trkpt>
      <trkpt lat="42.321215000" lon="-2.504948000">
        <ele>642.50</ele>
        <time>2012-11-24T13:14:51Z</time>
      </trkpt>
      <trkpt lat="42.321213000" lon="-2.504948000">
        <ele>642.50</ele>
        <time>2012-11-24T13:15:07Z</time>
      </trkpt>
      <trkpt lat="42.321213000" lon="-2.504948000">
        <ele>642.50</ele>
        <time>2012-11-24T13:15:07Z</time>
      </trkpt>
      <trkpt lat="42.321213000" lon="-2.504946000">
        <ele>642.60</ele>
        <time>2012-11-24T13:15:09Z</time>
      </trkpt>
      <trkpt lat="42.321213000" lon="-2.504948000">
        <ele>642.60</ele>
        <time>2012-11-24T13:15:28Z</time>
      </trkpt>
      <trkpt lat="42.321215000" lon="-2.504948000">
        <ele>642.50</ele>
        <time>2012-11-24T13:15:38Z</time>
      </trkpt>
      <trkpt lat="42.321213000" lon="-2.504948000">
        <ele>642.60</ele>
        <time>2012-11-24T13:15:40Z</time>
      </trkpt>
      <trkpt lat="42.321203000" lon="-2.504949000">
        <ele>642.80</ele>
        <time>2012-11-24T13:16:05Z</time>
      </trkpt>
      <trkpt lat="42.321170000" lon="-2.504921000">
        <ele>644.40</ele>
        <time>2012-11-24T13:16:13Z</time>
      </trkpt>
      <trkpt lat="42.321160000" lon="-2.504909000">
        <ele>644.80</ele>
        <time>2012-11-24T13:16:17Z</time>
      </trkpt>
      <trkpt lat="42.321156000" lon="-2.504906000">
        <ele>644.90</ele>
        <time>2012-11-24T13:16:17Z</time>
      </trkpt>
      <trkpt lat="42.321155000" lon="-2.504903000">
        <ele>645.20</ele>
        <time>2012-11-24T13:16:20Z</time>
      </trkpt>
      <trkpt lat="42.321155000" lon="-2.504903000">
        <ele>645.20</ele>
        <time>2012-11-24T13:16:22Z</time>
      </trkpt>
      <trkpt lat="42.321155000" lon="-2.504901000">
        <ele>645.30</ele>
        <time>2012-11-24T13:16:24Z</time>
      </trkpt>
      <trkpt lat="42.321153000" lon="-2.504901000">
        <ele>645.30</ele>
        <time>2012-11-24T13:16:25Z</time>
      </trkpt>
      <trkpt lat="42.321153000" lon="-2.504901000">
        <ele>645.30</ele>
        <time>2012-11-24T13:16:27Z</time>
      </trkpt>
      <trkpt lat="42.321145000" lon="-2.504894000">
        <ele>645.70</ele>
        <time>2012-11-24T13:16:36Z</time>
      </trkpt>
      <trkpt lat="42.321143000" lon="-2.504894000">
        <ele>645.80</ele>
        <time>2012-11-24T13:16:38Z</time>
      </trkpt>
      <trkpt lat="42.321141000" lon="-2.504894000">
        <ele>645.80</ele>
        <time>2012-11-24T13:16:38Z</time>
      </trkpt>
      <trkpt lat="42.321140000" lon="-2.504891000">
        <ele>645.90</ele>
        <time>2012-11-24T13:16:39Z</time>
      </trkpt>
      <trkpt lat="42.321120000" lon="-2.504879000">
        <ele>646.70</ele>
        <time>2012-11-24T13:16:46Z</time>
      </trkpt>
      <trkpt lat="42.321120000" lon="-2.504879000">
        <ele>646.70</ele>
        <time>2012-11-24T13:16:48Z</time>
      </trkpt>
      <trkpt lat="42.321120000" lon="-2.504878000">
        <ele>646.80</ele>
        <time>2012-11-24T13:16:53Z</time>
      </trkpt>
      <trkpt lat="42.321118000" lon="-2.504878000">
        <ele>646.90</ele>
        <time>2012-11-24T13:16:55Z</time>
      </trkpt>
      <trkpt lat="42.321116000" lon="-2.504878000">
        <ele>646.90</ele>
        <time>2012-11-24T13:17:02Z</time>
      </trkpt>
      <trkpt lat="42.321115000" lon="-2.504876000">
        <ele>647.00</ele>
        <time>2012-11-24T13:17:02Z</time>
      </trkpt>
      <trkpt lat="42.321113000" lon="-2.504876000">
        <ele>647.00</ele>
        <time>2012-11-24T13:17:04Z</time>
      </trkpt>
      <trkpt lat="42.321111000" lon="-2.504876000">
        <ele>647.10</ele>
        <time>2012-11-24T13:17:04Z</time>
      </trkpt>
      <trkpt lat="42.321111000" lon="-2.504876000">
        <ele>647.10</ele>
        <time>2012-11-24T13:17:07Z</time>
      </trkpt>
      <trkpt lat="42.321105000" lon="-2.504871000">
        <ele>647.30</ele>
        <time>2012-11-24T13:17:09Z</time>
      </trkpt>
      <trkpt lat="42.321103000" lon="-2.504869000">
        <ele>647.40</ele>
        <time>2012-11-24T13:17:09Z</time>
      </trkpt>
      <trkpt lat="42.321103000" lon="-2.504868000">
        <ele>647.50</ele>
        <time>2012-11-24T13:17:11Z</time>
      </trkpt>
      <trkpt lat="42.321101000" lon="-2.504869000">
        <ele>647.50</ele>
        <time>2012-11-24T13:17:11Z</time>
      </trkpt>
      <trkpt lat="42.321100000" lon="-2.504869000">
        <ele>647.60</ele>
        <time>2012-11-24T13:17:12Z</time>
      </trkpt>
      <trkpt lat="42.321098000" lon="-2.504869000">
        <ele>647.70</ele>
        <time>2012-11-24T13:17:14Z</time>
      </trkpt>
      <trkpt lat="42.321095000" lon="-2.504868000">
        <ele>647.80</ele>
        <time>2012-11-24T13:17:16Z</time>
      </trkpt>
      <trkpt lat="42.321091000" lon="-2.504866000">
        <ele>647.90</ele>
        <time>2012-11-24T13:17:16Z</time>
      </trkpt>
      <trkpt lat="42.321086000" lon="-2.504863000">
        <ele>648.00</ele>
        <time>2012-11-24T13:17:18Z</time>
      </trkpt>
      <trkpt lat="42.320986000" lon="-2.504819000">
        <ele>651.50</ele>
        <time>2012-11-24T13:17:26Z</time>
      </trkpt>
      <trkpt lat="42.320973000" lon="-2.504818000">
        <ele>651.80</ele>
        <time>2012-11-24T13:17:28Z</time>
      </trkpt>
      <trkpt lat="42.320930000" lon="-2.504823000">
        <ele>653.40</ele>
        <time>2012-11-24T13:17:30Z</time>
      </trkpt>
      <trkpt lat="42.320918000" lon="-2.504829000">
        <ele>653.80</ele>
        <time>2012-11-24T13:17:32Z</time>
      </trkpt>
      <trkpt lat="42.320896000" lon="-2.504831000">
        <ele>654.50</ele>
        <time>2012-11-24T13:17:33Z</time>
      </trkpt>
      <trkpt lat="42.320876000" lon="-2.504823000">
        <ele>655.30</ele>
        <time>2012-11-24T13:17:35Z</time>
      </trkpt>
      <trkpt lat="42.320855000" lon="-2.504828000">
        <ele>656.00</ele>
        <time>2012-11-24T13:17:37Z</time>
      </trkpt>
      <trkpt lat="42.320833000" lon="-2.504839000">
        <ele>656.70</ele>
        <time>2012-11-24T13:17:40Z</time>
      </trkpt>
      <trkpt lat="42.320781000" lon="-2.504848000">
        <ele>658.30</ele>
        <time>2012-11-24T13:17:44Z</time>
      </trkpt>
      <trkpt lat="42.320633000" lon="-2.504906000">
        <ele>662.80</ele>
        <time>2012-11-24T13:17:53Z</time>
      </trkpt>
      <trkpt lat="42.320521000" lon="-2.504978000">
        <ele>666.50</ele>
        <time>2012-11-24T13:17:58Z</time>
      </trkpt>
      <trkpt lat="42.320501000" lon="-2.504996000">
        <ele>667.30</ele>
        <time>2012-11-24T13:17:58Z</time>
      </trkpt>
      <trkpt lat="42.320405000" lon="-2.505106000">
        <ele>671.40</ele>
        <time>2012-11-24T13:18:03Z</time>
      </trkpt>
      <trkpt lat="42.320390000" lon="-2.505133000">
        <ele>672.80</ele>
        <time>2012-11-24T13:18:05Z</time>
      </trkpt>
      <trkpt lat="42.320381000" lon="-2.505156000">
        <ele>674.10</ele>
        <time>2012-11-24T13:18:05Z</time>
      </trkpt>
      <trkpt lat="42.320373000" lon="-2.505201000">
        <ele>675.80</ele>
        <time>2012-11-24T13:18:08Z</time>
      </trkpt>
      <trkpt lat="42.320371000" lon="-2.505224000">
        <ele>676.30</ele>
        <time>2012-11-24T13:18:08Z</time>
      </trkpt>
      <trkpt lat="42.320365000" lon="-2.505246000">
        <ele>677.40</ele>
        <time>2012-11-24T13:18:10Z</time>
      </trkpt>
      <trkpt lat="42.320360000" lon="-2.505256000">
        <ele>678.30</ele>
        <time>2012-11-24T13:18:13Z</time>
      </trkpt>
      <trkpt lat="42.320356000" lon="-2.505268000">
        <ele>678.70</ele>
        <time>2012-11-24T13:18:15Z</time>
      </trkpt>
      <trkpt lat="42.320355000" lon="-2.505274000">
        <ele>678.90</ele>
        <time>2012-11-24T13:18:17Z</time>
      </trkpt>
      <trkpt lat="42.320351000" lon="-2.505281000">
        <ele>679.20</ele>
        <time>2012-11-24T13:18:17Z</time>
      </trkpt>
      <trkpt lat="42.320346000" lon="-2.505288000">
        <ele>679.70</ele>
        <time>2012-11-24T13:18:19Z</time>
      </trkpt>
      <trkpt lat="42.320346000" lon="-2.505293000">
        <ele>679.90</ele>
        <time>2012-11-24T13:18:19Z</time>
      </trkpt>
      <trkpt lat="42.320350000" lon="-2.505308000">
        <ele>679.90</ele>
        <time>2012-11-24T13:18:20Z</time>
      </trkpt>
      <trkpt lat="42.320351000" lon="-2.505343000">
        <ele>679.90</ele>
        <time>2012-11-24T13:18:24Z</time>
      </trkpt>
      <trkpt lat="42.320366000" lon="-2.505401000">
        <ele>678.90</ele>
        <time>2012-11-24T13:18:27Z</time>
      </trkpt>
      <trkpt lat="42.320385000" lon="-2.505448000">
        <ele>677.40</ele>
        <time>2012-11-24T13:18:29Z</time>
      </trkpt>
      <trkpt lat="42.320400000" lon="-2.505476000">
        <ele>676.70</ele>
        <time>2012-11-24T13:18:31Z</time>
      </trkpt>
      <trkpt lat="42.320421000" lon="-2.505504000">
        <ele>674.70</ele>
        <time>2012-11-24T13:18:31Z</time>
      </trkpt>
      <trkpt lat="42.320451000" lon="-2.505526000">
        <ele>673.40</ele>
        <time>2012-11-24T13:18:33Z</time>
      </trkpt>
      <trkpt lat="42.320488000" lon="-2.505543000">
        <ele>671.90</ele>
        <time>2012-11-24T13:18:34Z</time>
      </trkpt>
      <trkpt lat="42.320526000" lon="-2.505546000">
        <ele>670.40</ele>
        <time>2012-11-24T13:18:34Z</time>
      </trkpt>
      <trkpt lat="42.320560000" lon="-2.505534000">
        <ele>668.70</ele>
        <time>2012-11-24T13:18:36Z</time>
      </trkpt>
      <trkpt lat="42.320616000" lon="-2.505493000">
        <ele>665.60</ele>
        <time>2012-11-24T13:18:38Z</time>
      </trkpt>
      <trkpt lat="42.320756000" lon="-2.505306000">
        <ele>658.30</ele>
        <time>2012-11-24T13:18:43Z</time>
      </trkpt>
      <trkpt lat="42.320788000" lon="-2.505288000">
        <ele>657.20</ele>
        <time>2012-11-24T13:18:45Z</time>
      </trkpt>
      <trkpt lat="42.320825000" lon="-2.505281000">
        <ele>655.90</ele>
        <time>2012-11-24T13:18:45Z</time>
      </trkpt>
      <trkpt lat="42.320858000" lon="-2.505296000">
        <ele>654.50</ele>
        <time>2012-11-24T13:18:47Z</time>
      </trkpt>
      <trkpt lat="42.320881000" lon="-2.505326000">
        <ele>653.20</ele>
        <time>2012-11-24T13:18:48Z</time>
      </trkpt>
      <trkpt lat="42.320936000" lon="-2.505428000">
        <ele>649.70</ele>
        <time>2012-11-24T13:18:50Z</time>
      </trkpt>
      <trkpt lat="42.320948000" lon="-2.505466000">
        <ele>648.90</ele>
        <time>2012-11-24T13:18:52Z</time>
      </trkpt>
      <trkpt lat="42.320968000" lon="-2.505551000">
        <ele>648.00</ele>
        <time>2012-11-24T13:18:53Z</time>
      </trkpt>
      <trkpt lat="42.321110000" lon="-2.505943000">
        <ele>643.00</ele>
        <time>2012-11-24T13:19:02Z</time>
      </trkpt>
      <trkpt lat="42.321211000" lon="-2.506126000">
        <ele>638.50</ele>
        <time>2012-11-24T13:19:06Z</time>
      </trkpt>
      <trkpt lat="42.321378000" lon="-2.506401000">
        <ele>631.10</ele>
        <time>2012-11-24T13:19:11Z</time>
      </trkpt>
      <trkpt lat="42.321493000" lon="-2.506753000">
        <ele>624.80</ele>
        <time>2012-11-24T13:19:18Z</time>
      </trkpt>
      <trkpt lat="42.321625000" lon="-2.507344000">
        <ele>614.80</ele>
        <time>2012-11-24T13:19:30Z</time>
      </trkpt>
      <trkpt lat="42.321655000" lon="-2.507608000">
        <ele>609.50</ele>
        <time>2012-11-24T13:19:35Z</time>
      </trkpt>
      <trkpt lat="42.321663000" lon="-2.507644000">
        <ele>609.00</ele>
        <time>2012-11-24T13:19:37Z</time>
      </trkpt>
      <trkpt lat="42.321678000" lon="-2.507724000">
        <ele>606.80</ele>
        <time>2012-11-24T13:19:39Z</time>
      </trkpt>
      <trkpt lat="42.321660000" lon="-2.508466000">
        <ele>596.50</ele>
        <time>2012-11-24T13:19:51Z</time>
      </trkpt>
      <trkpt lat="42.321550000" lon="-2.509233000">
        <ele>589.10</ele>
        <time>2012-11-24T13:20:01Z</time>
      </trkpt>
      <trkpt lat="42.321551000" lon="-2.509366000">
        <ele>587.50</ele>
        <time>2012-11-24T13:20:03Z</time>
      </trkpt>
      <trkpt lat="42.321586000" lon="-2.509611000">
        <ele>584.20</ele>
        <time>2012-11-24T13:20:07Z</time>
      </trkpt>
      <trkpt lat="42.321601000" lon="-2.509974000">
        <ele>580.90</ele>
        <time>2012-11-24T13:20:10Z</time>
      </trkpt>
      <trkpt lat="42.321616000" lon="-2.510053000">
        <ele>580.10</ele>
        <time>2012-11-24T13:20:12Z</time>
      </trkpt>
      <trkpt lat="42.321848000" lon="-2.510603000">
        <ele>573.10</ele>
        <time>2012-11-24T13:20:22Z</time>
      </trkpt>
      <trkpt lat="42.321878000" lon="-2.510653000">
        <ele>572.40</ele>
        <time>2012-11-24T13:20:24Z</time>
      </trkpt>
      <trkpt lat="42.321885000" lon="-2.510668000">
        <ele>572.10</ele>
        <time>2012-11-24T13:20:28Z</time>
      </trkpt>
      <trkpt lat="42.321886000" lon="-2.510669000">
        <ele>572.00</ele>
        <time>2012-11-24T13:20:29Z</time>
      </trkpt>
      <trkpt lat="42.321886000" lon="-2.510674000">
        <ele>572.00</ele>
        <time>2012-11-24T13:20:33Z</time>
      </trkpt>
      <trkpt lat="42.321888000" lon="-2.510676000">
        <ele>572.00</ele>
        <time>2012-11-24T13:20:35Z</time>
      </trkpt>
      <trkpt lat="42.321888000" lon="-2.510676000">
        <ele>572.00</ele>
        <time>2012-11-24T13:20:36Z</time>
      </trkpt>
      <trkpt lat="42.321888000" lon="-2.510678000">
        <ele>571.90</ele>
        <time>2012-11-24T13:20:36Z</time>
      </trkpt>
      <trkpt lat="42.321891000" lon="-2.510679000">
        <ele>571.90</ele>
        <time>2012-11-24T13:20:40Z</time>
      </trkpt>
      <trkpt lat="42.321891000" lon="-2.510681000">
        <ele>571.90</ele>
        <time>2012-11-24T13:20:43Z</time>
      </trkpt>
      <trkpt lat="42.321895000" lon="-2.510681000">
        <ele>571.90</ele>
        <time>2012-11-24T13:20:45Z</time>
      </trkpt>
      <trkpt lat="42.321895000" lon="-2.510681000">
        <ele>571.90</ele>
        <time>2012-11-24T13:20:47Z</time>
      </trkpt>
      <trkpt lat="42.321896000" lon="-2.510683000">
        <ele>571.80</ele>
        <time>2012-11-24T13:20:50Z</time>
      </trkpt>
      <trkpt lat="42.321896000" lon="-2.510681000">
        <ele>571.80</ele>
        <time>2012-11-24T13:20:50Z</time>
      </trkpt>
      <trkpt lat="42.321900000" lon="-2.510681000">
        <ele>571.80</ele>
        <time>2012-11-24T13:20:55Z</time>
      </trkpt>
      <trkpt lat="42.321901000" lon="-2.510683000">
        <ele>571.80</ele>
        <time>2012-11-24T13:21:01Z</time>
      </trkpt>
      <trkpt lat="42.321901000" lon="-2.510681000">
        <ele>571.80</ele>
        <time>2012-11-24T13:21:02Z</time>
      </trkpt>
      <trkpt lat="42.321903000" lon="-2.510681000">
        <ele>571.80</ele>
        <time>2012-11-24T13:21:04Z</time>
      </trkpt>
      <trkpt lat="42.321903000" lon="-2.510681000">
        <ele>571.80</ele>
        <time>2012-11-24T13:21:04Z</time>
      </trkpt>
      <trkpt lat="42.321905000" lon="-2.510679000">
        <ele>571.70</ele>
        <time>2012-11-24T13:21:08Z</time>
      </trkpt>
      <trkpt lat="42.321906000" lon="-2.510676000">
        <ele>571.70</ele>
        <time>2012-11-24T13:21:13Z</time>
      </trkpt>
      <trkpt lat="42.321908000" lon="-2.510676000">
        <ele>571.70</ele>
        <time>2012-11-24T13:21:20Z</time>
      </trkpt>
      <trkpt lat="42.321911000" lon="-2.510679000">
        <ele>571.70</ele>
        <time>2012-11-24T13:21:20Z</time>
      </trkpt>
      <trkpt lat="42.321925000" lon="-2.510691000">
        <ele>571.60</ele>
        <time>2012-11-24T13:21:22Z</time>
      </trkpt>
      <trkpt lat="42.321940000" lon="-2.510693000">
        <ele>571.50</ele>
        <time>2012-11-24T13:21:23Z</time>
      </trkpt>
      <trkpt lat="42.321976000" lon="-2.510659000">
        <ele>571.10</ele>
        <time>2012-11-24T13:21:25Z</time>
      </trkpt>
      <trkpt lat="42.322003000" lon="-2.510598000">
        <ele>570.90</ele>
        <time>2012-11-24T13:21:27Z</time>
      </trkpt>
      <trkpt lat="42.322881000" lon="-2.509054000">
        <ele>568.90</ele>
        <time>2012-11-24T13:21:56Z</time>
      </trkpt>
      <trkpt lat="42.322918000" lon="-2.509008000">
        <ele>568.80</ele>
        <time>2012-11-24T13:21:58Z</time>
      </trkpt>
      <trkpt lat="42.323806000" lon="-2.508188000">
        <ele>567.80</ele>
        <time>2012-11-24T13:22:17Z</time>
      </trkpt>
      <trkpt lat="42.325158000" lon="-2.506396000">
        <ele>567.70</ele>
        <time>2012-11-24T13:22:54Z</time>
      </trkpt>
      <trkpt lat="42.326176000" lon="-2.504178000">
        <ele>567.50</ele>
        <time>2012-11-24T13:23:29Z</time>
      </trkpt>
      <trkpt lat="42.326215000" lon="-2.504118000">
        <ele>567.50</ele>
        <time>2012-11-24T13:23:29Z</time>
      </trkpt>
      <trkpt lat="42.328226000" lon="-2.501199000">
        <ele>573.20</ele>
        <time>2012-11-24T13:24:28Z</time>
      </trkpt>
      <trkpt lat="42.329005000" lon="-2.500351000">
        <ele>573.50</ele>
        <time>2012-11-24T13:24:47Z</time>
      </trkpt>
      <trkpt lat="42.329066000" lon="-2.500304000">
        <ele>573.30</ele>
        <time>2012-11-24T13:24:47Z</time>
      </trkpt>
      <trkpt lat="42.330296000" lon="-2.499859000">
        <ele>562.80</ele>
        <time>2012-11-24T13:25:03Z</time>
      </trkpt>
      <trkpt lat="42.332040000" lon="-2.498601000">
        <ele>560.60</ele>
        <time>2012-11-24T13:25:31Z</time>
      </trkpt>
      <trkpt lat="42.334115000" lon="-2.496204000">
        <ele>557.40</ele>
        <time>2012-11-24T13:26:11Z</time>
      </trkpt>
      <trkpt lat="42.334158000" lon="-2.496136000">
        <ele>557.50</ele>
        <time>2012-11-24T13:26:11Z</time>
      </trkpt>
      <trkpt lat="42.336206000" lon="-2.493186000">
        <ele>549.80</ele>
        <time>2012-11-24T13:26:58Z</time>
      </trkpt>
      <trkpt lat="42.336470000" lon="-2.492731000">
        <ele>551.00</ele>
        <time>2012-11-24T13:27:06Z</time>
      </trkpt>
      <trkpt lat="42.337278000" lon="-2.491781000">
        <ele>550.00</ele>
        <time>2012-11-24T13:27:27Z</time>
      </trkpt>
      <trkpt lat="42.337311000" lon="-2.491723000">
        <ele>550.00</ele>
        <time>2012-11-24T13:27:29Z</time>
      </trkpt>
      <trkpt lat="42.339690000" lon="-2.486758000">
        <ele>547.10</ele>
        <time>2012-11-24T13:28:42Z</time>
      </trkpt>
      <trkpt lat="42.339728000" lon="-2.486724000">
        <ele>547.00</ele>
        <time>2012-11-24T13:28:44Z</time>
      </trkpt>
      <trkpt lat="42.339986000" lon="-2.486569000">
        <ele>545.50</ele>
        <time>2012-11-24T13:28:49Z</time>
      </trkpt>
      <trkpt lat="42.340035000" lon="-2.486571000">
        <ele>545.10</ele>
        <time>2012-11-24T13:28:51Z</time>
      </trkpt>
      <trkpt lat="42.340211000" lon="-2.486678000">
        <ele>543.60</ele>
        <time>2012-11-24T13:28:54Z</time>
      </trkpt>
      <trkpt lat="42.340551000" lon="-2.486944000">
        <ele>540.30</ele>
        <time>2012-11-24T13:29:01Z</time>
      </trkpt>
      <trkpt lat="42.340765000" lon="-2.487048000">
        <ele>538.90</ele>
        <time>2012-11-24T13:29:05Z</time>
      </trkpt>
      <trkpt lat="42.341036000" lon="-2.487283000">
        <ele>536.70</ele>
        <time>2012-11-24T13:29:10Z</time>
      </trkpt>
      <trkpt lat="42.341600000" lon="-2.487798000">
        <ele>532.10</ele>
        <time>2012-11-24T13:29:22Z</time>
      </trkpt>
      <trkpt lat="42.342443000" lon="-2.488448000">
        <ele>530.10</ele>
        <time>2012-11-24T13:29:40Z</time>
      </trkpt>
      <trkpt lat="42.342513000" lon="-2.488484000">
        <ele>530.00</ele>
        <time>2012-11-24T13:29:41Z</time>
      </trkpt>
      <trkpt lat="42.343786000" lon="-2.488726000">
        <ele>528.00</ele>
        <time>2012-11-24T13:29:59Z</time>
      </trkpt>
      <trkpt lat="42.343841000" lon="-2.488748000">
        <ele>528.00</ele>
        <time>2012-11-24T13:30:01Z</time>
      </trkpt>
      <trkpt lat="42.344588000" lon="-2.488971000">
        <ele>528.60</ele>
        <time>2012-11-24T13:30:13Z</time>
      </trkpt>
      <trkpt lat="42.344723000" lon="-2.489124000">
        <ele>529.20</ele>
        <time>2012-11-24T13:30:16Z</time>
      </trkpt>
      <trkpt lat="42.345125000" lon="-2.489709000">
        <ele>531.10</ele>
        <time>2012-11-24T13:30:27Z</time>
      </trkpt>
      <trkpt lat="42.345138000" lon="-2.489721000">
        <ele>531.10</ele>
        <time>2012-11-24T13:30:29Z</time>
      </trkpt>
      <trkpt lat="42.345153000" lon="-2.489729000">
        <ele>531.10</ele>
        <time>2012-11-24T13:30:30Z</time>
      </trkpt>
      <trkpt lat="42.345200000" lon="-2.489718000">
        <ele>531.20</ele>
        <time>2012-11-24T13:30:32Z</time>
      </trkpt>
      <trkpt lat="42.345283000" lon="-2.489661000">
        <ele>531.10</ele>
        <time>2012-11-24T13:30:34Z</time>
      </trkpt>
      <trkpt lat="42.345548000" lon="-2.489326000">
        <ele>530.70</ele>
        <time>2012-11-24T13:30:44Z</time>
      </trkpt>
      <trkpt lat="42.346620000" lon="-2.488496000">
        <ele>528.80</ele>
        <time>2012-11-24T13:31:07Z</time>
      </trkpt>
      <trkpt lat="42.346663000" lon="-2.488451000">
        <ele>528.70</ele>
        <time>2012-11-24T13:31:09Z</time>
      </trkpt>
      <trkpt lat="42.348185000" lon="-2.486543000">
        <ele>523.50</ele>
        <time>2012-11-24T13:31:45Z</time>
      </trkpt>
      <trkpt lat="42.348283000" lon="-2.486461000">
        <ele>523.60</ele>
        <time>2012-11-24T13:31:47Z</time>
      </trkpt>
      <trkpt lat="42.349081000" lon="-2.486074000">
        <ele>524.70</ele>
        <time>2012-11-24T13:32:01Z</time>
      </trkpt>
      <trkpt lat="42.349531000" lon="-2.485656000">
        <ele>523.80</ele>
        <time>2012-11-24T13:32:11Z</time>
      </trkpt>
      <trkpt lat="42.349586000" lon="-2.485619000">
        <ele>523.80</ele>
        <time>2012-11-24T13:32:11Z</time>
      </trkpt>
      <trkpt lat="42.350583000" lon="-2.485298000">
        <ele>522.40</ele>
        <time>2012-11-24T13:32:29Z</time>
      </trkpt>
      <trkpt lat="42.351403000" lon="-2.484798000">
        <ele>520.80</ele>
        <time>2012-11-24T13:32:46Z</time>
      </trkpt>
      <trkpt lat="42.351803000" lon="-2.484459000">
        <ele>519.80</ele>
        <time>2012-11-24T13:32:55Z</time>
      </trkpt>
      <trkpt lat="42.351958000" lon="-2.484388000">
        <ele>519.40</ele>
        <time>2012-11-24T13:32:58Z</time>
      </trkpt>
      <trkpt lat="42.352373000" lon="-2.484259000">
        <ele>519.10</ele>
        <time>2012-11-24T13:33:05Z</time>
      </trkpt>
      <trkpt lat="42.353316000" lon="-2.483468000">
        <ele>517.50</ele>
        <time>2012-11-24T13:33:24Z</time>
      </trkpt>
      <trkpt lat="42.353368000" lon="-2.483439000">
        <ele>517.50</ele>
        <time>2012-11-24T13:33:26Z</time>
      </trkpt>
      <trkpt lat="42.354488000" lon="-2.482793000">
        <ele>518.00</ele>
        <time>2012-11-24T13:33:45Z</time>
      </trkpt>
      <trkpt lat="42.354903000" lon="-2.482563000">
        <ele>517.60</ele>
        <time>2012-11-24T13:33:52Z</time>
      </trkpt>
      <trkpt lat="42.355620000" lon="-2.482056000">
        <ele>516.00</ele>
        <time>2012-11-24T13:34:06Z</time>
      </trkpt>
      <trkpt lat="42.357395000" lon="-2.481688000">
        <ele>513.70</ele>
        <time>2012-11-24T13:34:34Z</time>
      </trkpt>
      <trkpt lat="42.357458000" lon="-2.481689000">
        <ele>513.70</ele>
        <time>2012-11-24T13:34:34Z</time>
      </trkpt>
      <trkpt lat="42.357630000" lon="-2.481683000">
        <ele>513.80</ele>
        <time>2012-11-24T13:34:38Z</time>
      </trkpt>
      <trkpt lat="42.357865000" lon="-2.481708000">
        <ele>514.00</ele>
        <time>2012-11-24T13:34:41Z</time>
      </trkpt>
      <trkpt lat="42.357926000" lon="-2.481706000">
        <ele>514.00</ele>
        <time>2012-11-24T13:34:43Z</time>
      </trkpt>
      <trkpt lat="42.357986000" lon="-2.481688000">
        <ele>514.00</ele>
        <time>2012-11-24T13:34:43Z</time>
      </trkpt>
      <trkpt lat="42.358788000" lon="-2.481153000">
        <ele>512.60</ele>
        <time>2012-11-24T13:34:59Z</time>
      </trkpt>
      <trkpt lat="42.359113000" lon="-2.480979000">
        <ele>511.50</ele>
        <time>2012-11-24T13:35:04Z</time>
      </trkpt>
      <trkpt lat="42.359561000" lon="-2.480616000">
        <ele>509.30</ele>
        <time>2012-11-24T13:35:14Z</time>
      </trkpt>
      <trkpt lat="42.359838000" lon="-2.480474000">
        <ele>508.80</ele>
        <time>2012-11-24T13:35:18Z</time>
      </trkpt>
      <trkpt lat="42.360151000" lon="-2.480354000">
        <ele>509.10</ele>
        <time>2012-11-24T13:35:25Z</time>
      </trkpt>
      <trkpt lat="42.361601000" lon="-2.479164000">
        <ele>507.50</ele>
        <time>2012-11-24T13:35:53Z</time>
      </trkpt>
      <trkpt lat="42.361646000" lon="-2.479114000">
        <ele>507.40</ele>
        <time>2012-11-24T13:35:54Z</time>
      </trkpt>
      <trkpt lat="42.361900000" lon="-2.478908000">
        <ele>506.20</ele>
        <time>2012-11-24T13:36:01Z</time>
      </trkpt>
      <trkpt lat="42.361940000" lon="-2.478888000">
        <ele>506.10</ele>
        <time>2012-11-24T13:36:03Z</time>
      </trkpt>
      <trkpt lat="42.363151000" lon="-2.478579000">
        <ele>506.70</ele>
        <time>2012-11-24T13:36:29Z</time>
      </trkpt>
      <trkpt lat="42.363236000" lon="-2.478526000">
        <ele>506.40</ele>
        <time>2012-11-24T13:36:31Z</time>
      </trkpt>
      <trkpt lat="42.364096000" lon="-2.477808000">
        <ele>503.80</ele>
        <time>2012-11-24T13:36:50Z</time>
      </trkpt>
      <trkpt lat="42.364371000" lon="-2.477713000">
        <ele>504.20</ele>
        <time>2012-11-24T13:36:55Z</time>
      </trkpt>
      <trkpt lat="42.364435000" lon="-2.477703000">
        <ele>504.30</ele>
        <time>2012-11-24T13:36:55Z</time>
      </trkpt>
      <trkpt lat="42.366051000" lon="-2.477054000">
        <ele>500.90</ele>
        <time>2012-11-24T13:37:25Z</time>
      </trkpt>
      <trkpt lat="42.366138000" lon="-2.476959000">
        <ele>500.60</ele>
        <time>2012-11-24T13:37:27Z</time>
      </trkpt>
      <trkpt lat="42.366170000" lon="-2.476903000">
        <ele>500.40</ele>
        <time>2012-11-24T13:37:28Z</time>
      </trkpt>
      <trkpt lat="42.366195000" lon="-2.476841000">
        <ele>500.10</ele>
        <time>2012-11-24T13:37:28Z</time>
      </trkpt>
      <trkpt lat="42.366311000" lon="-2.476443000">
        <ele>498.40</ele>
        <time>2012-11-24T13:37:35Z</time>
      </trkpt>
      <trkpt lat="42.366410000" lon="-2.476264000">
        <ele>497.90</ele>
        <time>2012-11-24T13:37:37Z</time>
      </trkpt>
      <trkpt lat="42.367170000" lon="-2.475253000">
        <ele>498.30</ele>
        <time>2012-11-24T13:37:56Z</time>
      </trkpt>
      <trkpt lat="42.367785000" lon="-2.474811000">
        <ele>497.10</ele>
        <time>2012-11-24T13:38:07Z</time>
      </trkpt>
      <trkpt lat="42.367838000" lon="-2.474786000">
        <ele>497.20</ele>
        <time>2012-11-24T13:38:08Z</time>
      </trkpt>
      <trkpt lat="42.368428000" lon="-2.474669000">
        <ele>497.10</ele>
        <time>2012-11-24T13:38:19Z</time>
      </trkpt>
      <trkpt lat="42.368726000" lon="-2.474683000">
        <ele>497.10</ele>
        <time>2012-11-24T13:38:24Z</time>
      </trkpt>
      <trkpt lat="42.369015000" lon="-2.474646000">
        <ele>496.80</ele>
        <time>2012-11-24T13:38:29Z</time>
      </trkpt>
      <trkpt lat="42.369786000" lon="-2.474221000">
        <ele>494.80</ele>
        <time>2012-11-24T13:38:43Z</time>
      </trkpt>
      <trkpt lat="42.371555000" lon="-2.473558000">
        <ele>497.30</ele>
        <time>2012-11-24T13:39:13Z</time>
      </trkpt>
      <trkpt lat="42.371610000" lon="-2.473526000">
        <ele>497.40</ele>
        <time>2012-11-24T13:39:13Z</time>
      </trkpt>
      <trkpt lat="42.373091000" lon="-2.472846000">
        <ele>493.50</ele>
        <time>2012-11-24T13:39:39Z</time>
      </trkpt>
      <trkpt lat="42.373445000" lon="-2.472534000">
        <ele>491.60</ele>
        <time>2012-11-24T13:39:46Z</time>
      </trkpt>
      <trkpt lat="42.374066000" lon="-2.472204000">
        <ele>489.90</ele>
        <time>2012-11-24T13:39:56Z</time>
      </trkpt>
      <trkpt lat="42.376356000" lon="-2.470048000">
        <ele>485.50</ele>
        <time>2012-11-24T13:40:42Z</time>
      </trkpt>
      <trkpt lat="42.376415000" lon="-2.470009000">
        <ele>485.50</ele>
        <time>2012-11-24T13:40:43Z</time>
      </trkpt>
      <trkpt lat="42.377365000" lon="-2.469693000">
        <ele>484.70</ele>
        <time>2012-11-24T13:40:59Z</time>
      </trkpt>
      <trkpt lat="42.377875000" lon="-2.469641000">
        <ele>483.50</ele>
        <time>2012-11-24T13:41:06Z</time>
      </trkpt>
      <trkpt lat="42.378873000" lon="-2.469088000">
        <ele>481.70</ele>
        <time>2012-11-24T13:41:23Z</time>
      </trkpt>
      <trkpt lat="42.379168000" lon="-2.468808000">
        <ele>480.80</ele>
        <time>2012-11-24T13:41:29Z</time>
      </trkpt>
      <trkpt lat="42.379611000" lon="-2.468233000">
        <ele>479.30</ele>
        <time>2012-11-24T13:41:41Z</time>
      </trkpt>
      <trkpt lat="42.380721000" lon="-2.467544000">
        <ele>480.50</ele>
        <time>2012-11-24T13:42:02Z</time>
      </trkpt>
      <trkpt lat="42.380778000" lon="-2.467521000">
        <ele>480.50</ele>
        <time>2012-11-24T13:42:02Z</time>
      </trkpt>
      <trkpt lat="42.381710000" lon="-2.466908000">
        <ele>479.90</ele>
        <time>2012-11-24T13:42:19Z</time>
      </trkpt>
      <trkpt lat="42.382073000" lon="-2.466441000">
        <ele>479.90</ele>
        <time>2012-11-24T13:42:28Z</time>
      </trkpt>
      <trkpt lat="42.382475000" lon="-2.466051000">
        <ele>479.30</ele>
        <time>2012-11-24T13:42:35Z</time>
      </trkpt>
      <trkpt lat="42.383066000" lon="-2.465793000">
        <ele>478.80</ele>
        <time>2012-11-24T13:42:45Z</time>
      </trkpt>
      <trkpt lat="42.383353000" lon="-2.465486000">
        <ele>478.50</ele>
        <time>2012-11-24T13:42:52Z</time>
      </trkpt>
      <trkpt lat="42.383381000" lon="-2.465431000">
        <ele>478.40</ele>
        <time>2012-11-24T13:42:52Z</time>
      </trkpt>
      <trkpt lat="42.383416000" lon="-2.465179000">
        <ele>478.10</ele>
        <time>2012-11-24T13:42:56Z</time>
      </trkpt>
      <trkpt lat="42.383440000" lon="-2.465113000">
        <ele>478.00</ele>
        <time>2012-11-24T13:42:58Z</time>
      </trkpt>
      <trkpt lat="42.383473000" lon="-2.465056000">
        <ele>478.00</ele>
        <time>2012-11-24T13:42:59Z</time>
      </trkpt>
      <trkpt lat="42.383556000" lon="-2.464961000">
        <ele>477.90</ele>
        <time>2012-11-24T13:43:01Z</time>
      </trkpt>
      <trkpt lat="42.384005000" lon="-2.464558000">
        <ele>477.70</ele>
        <time>2012-11-24T13:43:10Z</time>
      </trkpt>
      <trkpt lat="42.384061000" lon="-2.464526000">
        <ele>477.60</ele>
        <time>2012-11-24T13:43:10Z</time>
      </trkpt>
      <trkpt lat="42.384666000" lon="-2.464393000">
        <ele>476.30</ele>
        <time>2012-11-24T13:43:20Z</time>
      </trkpt>
      <trkpt lat="42.385828000" lon="-2.464743000">
        <ele>475.10</ele>
        <time>2012-11-24T13:43:50Z</time>
      </trkpt>
      <trkpt lat="42.385876000" lon="-2.464746000">
        <ele>475.10</ele>
        <time>2012-11-24T13:43:50Z</time>
      </trkpt>
      <trkpt lat="42.386030000" lon="-2.464744000">
        <ele>475.10</ele>
        <time>2012-11-24T13:43:53Z</time>
      </trkpt>
      <trkpt lat="42.386561000" lon="-2.464769000">
        <ele>474.80</ele>
        <time>2012-11-24T13:44:04Z</time>
      </trkpt>
      <trkpt lat="42.386671000" lon="-2.464766000">
        <ele>474.70</ele>
        <time>2012-11-24T13:44:06Z</time>
      </trkpt>
      <trkpt lat="42.386895000" lon="-2.464779000">
        <ele>474.30</ele>
        <time>2012-11-24T13:44:09Z</time>
      </trkpt>
      <trkpt lat="42.387630000" lon="-2.464731000">
        <ele>473.40</ele>
        <time>2012-11-24T13:44:23Z</time>
      </trkpt>
      <trkpt lat="42.387676000" lon="-2.464703000">
        <ele>473.30</ele>
        <time>2012-11-24T13:44:23Z</time>
      </trkpt>
      <trkpt lat="42.387911000" lon="-2.464396000">
        <ele>472.90</ele>
        <time>2012-11-24T13:44:30Z</time>
      </trkpt>
      <trkpt lat="42.388048000" lon="-2.464264000">
        <ele>472.40</ele>
        <time>2012-11-24T13:44:33Z</time>
      </trkpt>
      <trkpt lat="42.388338000" lon="-2.464069000">
        <ele>471.30</ele>
        <time>2012-11-24T13:44:39Z</time>
      </trkpt>
      <trkpt lat="42.388378000" lon="-2.464028000">
        <ele>471.20</ele>
        <time>2012-11-24T13:44:40Z</time>
      </trkpt>
      <trkpt lat="42.388440000" lon="-2.463924000">
        <ele>470.90</ele>
        <time>2012-11-24T13:44:42Z</time>
      </trkpt>
      <trkpt lat="42.388538000" lon="-2.463701000">
        <ele>470.60</ele>
        <time>2012-11-24T13:44:46Z</time>
      </trkpt>
      <trkpt lat="42.388575000" lon="-2.463654000">
        <ele>470.50</ele>
        <time>2012-11-24T13:44:47Z</time>
      </trkpt>
      <trkpt lat="42.388621000" lon="-2.463624000">
        <ele>470.40</ele>
        <time>2012-11-24T13:44:47Z</time>
      </trkpt>
      <trkpt lat="42.389123000" lon="-2.463349000">
        <ele>470.10</ele>
        <time>2012-11-24T13:44:58Z</time>
      </trkpt>
      <trkpt lat="42.389165000" lon="-2.463339000">
        <ele>470.20</ele>
        <time>2012-11-24T13:45:00Z</time>
      </trkpt>
      <trkpt lat="42.389208000" lon="-2.463348000">
        <ele>470.20</ele>
        <time>2012-11-24T13:45:01Z</time>
      </trkpt>
      <trkpt lat="42.389400000" lon="-2.463456000">
        <ele>470.20</ele>
        <time>2012-11-24T13:45:05Z</time>
      </trkpt>
      <trkpt lat="42.389666000" lon="-2.463651000">
        <ele>470.00</ele>
        <time>2012-11-24T13:45:13Z</time>
      </trkpt>
      <trkpt lat="42.389691000" lon="-2.463681000">
        <ele>470.00</ele>
        <time>2012-11-24T13:45:15Z</time>
      </trkpt>
      <trkpt lat="42.389710000" lon="-2.463721000">
        <ele>469.90</ele>
        <time>2012-11-24T13:45:15Z</time>
      </trkpt>
      <trkpt lat="42.389733000" lon="-2.463823000">
        <ele>469.80</ele>
        <time>2012-11-24T13:45:17Z</time>
      </trkpt>
      <trkpt lat="42.389771000" lon="-2.464274000">
        <ele>469.20</ele>
        <time>2012-11-24T13:45:26Z</time>
      </trkpt>
      <trkpt lat="42.389783000" lon="-2.464328000">
        <ele>469.10</ele>
        <time>2012-11-24T13:45:26Z</time>
      </trkpt>
      <trkpt lat="42.389815000" lon="-2.464423000">
        <ele>469.00</ele>
        <time>2012-11-24T13:45:29Z</time>
      </trkpt>
      <trkpt lat="42.389846000" lon="-2.464454000">
        <ele>468.90</ele>
        <time>2012-11-24T13:45:29Z</time>
      </trkpt>
      <trkpt lat="42.389963000" lon="-2.464488000">
        <ele>468.70</ele>
        <time>2012-11-24T13:45:33Z</time>
      </trkpt>
      <trkpt lat="42.390006000" lon="-2.464484000">
        <ele>468.60</ele>
        <time>2012-11-24T13:45:34Z</time>
      </trkpt>
      <trkpt lat="42.390476000" lon="-2.464346000">
        <ele>468.20</ele>
        <time>2012-11-24T13:45:43Z</time>
      </trkpt>
      <trkpt lat="42.391316000" lon="-2.463583000">
        <ele>467.80</ele>
        <time>2012-11-24T13:46:02Z</time>
      </trkpt>
      <trkpt lat="42.391623000" lon="-2.463423000">
        <ele>467.50</ele>
        <time>2012-11-24T13:46:09Z</time>
      </trkpt>
      <trkpt lat="42.391666000" lon="-2.463379000">
        <ele>467.50</ele>
        <time>2012-11-24T13:46:09Z</time>
      </trkpt>
      <trkpt lat="42.391703000" lon="-2.463329000">
        <ele>467.50</ele>
        <time>2012-11-24T13:46:11Z</time>
      </trkpt>
      <trkpt lat="42.391728000" lon="-2.463284000">
        <ele>467.50</ele>
        <time>2012-11-24T13:46:11Z</time>
      </trkpt>
      <trkpt lat="42.391745000" lon="-2.463243000">
        <ele>467.50</ele>
        <time>2012-11-24T13:46:13Z</time>
      </trkpt>
      <trkpt lat="42.391745000" lon="-2.463201000">
        <ele>467.50</ele>
        <time>2012-11-24T13:46:13Z</time>
      </trkpt>
      <trkpt lat="42.391731000" lon="-2.463163000">
        <ele>467.50</ele>
        <time>2012-11-24T13:46:14Z</time>
      </trkpt>
      <trkpt lat="42.391523000" lon="-2.462896000">
        <ele>467.30</ele>
        <time>2012-11-24T13:46:21Z</time>
      </trkpt>
      <trkpt lat="42.391496000" lon="-2.462843000">
        <ele>467.20</ele>
        <time>2012-11-24T13:46:23Z</time>
      </trkpt>
      <trkpt lat="42.391278000" lon="-2.462296000">
        <ele>466.40</ele>
        <time>2012-11-24T13:46:32Z</time>
      </trkpt>
      <trkpt lat="42.391251000" lon="-2.462249000">
        <ele>466.30</ele>
        <time>2012-11-24T13:46:34Z</time>
      </trkpt>
      <trkpt lat="42.390586000" lon="-2.461558000">
        <ele>467.40</ele>
        <time>2012-11-24T13:46:53Z</time>
      </trkpt>
      <trkpt lat="42.390081000" lon="-2.460786000">
        <ele>468.30</ele>
        <time>2012-11-24T13:47:10Z</time>
      </trkpt>
      <trkpt lat="42.389880000" lon="-2.460331000">
        <ele>468.50</ele>
        <time>2012-11-24T13:47:19Z</time>
      </trkpt>
      <trkpt lat="42.389855000" lon="-2.460221000">
        <ele>468.30</ele>
        <time>2012-11-24T13:47:21Z</time>
      </trkpt>
      <trkpt lat="42.389853000" lon="-2.460163000">
        <ele>468.20</ele>
        <time>2012-11-24T13:47:22Z</time>
      </trkpt>
      <trkpt lat="42.389865000" lon="-2.460109000">
        <ele>468.00</ele>
        <time>2012-11-24T13:47:22Z</time>
      </trkpt>
      <trkpt lat="42.389888000" lon="-2.460059000">
        <ele>467.90</ele>
        <time>2012-11-24T13:47:24Z</time>
      </trkpt>
      <trkpt lat="42.389921000" lon="-2.460016000">
        <ele>467.80</ele>
        <time>2012-11-24T13:47:24Z</time>
      </trkpt>
      <trkpt lat="42.390355000" lon="-2.459729000">
        <ele>467.80</ele>
        <time>2012-11-24T13:47:35Z</time>
      </trkpt>
      <trkpt lat="42.390401000" lon="-2.459713000">
        <ele>467.80</ele>
        <time>2012-11-24T13:47:36Z</time>
      </trkpt>
      <trkpt lat="42.390686000" lon="-2.459629000">
        <ele>467.40</ele>
        <time>2012-11-24T13:47:42Z</time>
      </trkpt>
      <trkpt lat="42.391156000" lon="-2.459703000">
        <ele>466.30</ele>
        <time>2012-11-24T13:47:50Z</time>
      </trkpt>
      <trkpt lat="42.391698000" lon="-2.459559000">
        <ele>465.50</ele>
        <time>2012-11-24T13:48:01Z</time>
      </trkpt>
      <trkpt lat="42.392515000" lon="-2.459228000">
        <ele>464.90</ele>
        <time>2012-11-24T13:48:18Z</time>
      </trkpt>
      <trkpt lat="42.392795000" lon="-2.459174000">
        <ele>464.70</ele>
        <time>2012-11-24T13:48:23Z</time>
      </trkpt>
      <trkpt lat="42.393251000" lon="-2.458948000">
        <ele>464.30</ele>
        <time>2012-11-24T13:48:30Z</time>
      </trkpt>
      <trkpt lat="42.393990000" lon="-2.458673000">
        <ele>463.30</ele>
        <time>2012-11-24T13:48:42Z</time>
      </trkpt>
      <trkpt lat="42.394050000" lon="-2.458638000">
        <ele>463.20</ele>
        <time>2012-11-24T13:48:44Z</time>
      </trkpt>
      <trkpt lat="42.394476000" lon="-2.458264000">
        <ele>461.50</ele>
        <time>2012-11-24T13:48:51Z</time>
      </trkpt>
      <trkpt lat="42.394680000" lon="-2.457988000">
        <ele>461.10</ele>
        <time>2012-11-24T13:48:56Z</time>
      </trkpt>
      <trkpt lat="42.394926000" lon="-2.457729000">
        <ele>461.40</ele>
        <time>2012-11-24T13:49:02Z</time>
      </trkpt>
      <trkpt lat="42.395385000" lon="-2.457429000">
        <ele>461.30</ele>
        <time>2012-11-24T13:49:10Z</time>
      </trkpt>
      <trkpt lat="42.395705000" lon="-2.457319000">
        <ele>460.40</ele>
        <time>2012-11-24T13:49:14Z</time>
      </trkpt>
      <trkpt lat="42.395763000" lon="-2.457283000">
        <ele>460.20</ele>
        <time>2012-11-24T13:49:16Z</time>
      </trkpt>
      <trkpt lat="42.395870000" lon="-2.457189000">
        <ele>459.80</ele>
        <time>2012-11-24T13:49:17Z</time>
      </trkpt>
      <trkpt lat="42.396228000" lon="-2.456971000">
        <ele>458.80</ele>
        <time>2012-11-24T13:49:24Z</time>
      </trkpt>
      <trkpt lat="42.396291000" lon="-2.456964000">
        <ele>458.70</ele>
        <time>2012-11-24T13:49:24Z</time>
      </trkpt>
      <trkpt lat="42.396488000" lon="-2.456984000">
        <ele>458.30</ele>
        <time>2012-11-24T13:49:28Z</time>
      </trkpt>
      <trkpt lat="42.396553000" lon="-2.456978000">
        <ele>458.10</ele>
        <time>2012-11-24T13:49:28Z</time>
      </trkpt>
      <trkpt lat="42.396616000" lon="-2.456959000">
        <ele>458.00</ele>
        <time>2012-11-24T13:49:30Z</time>
      </trkpt>
      <trkpt lat="42.396788000" lon="-2.456864000">
        <ele>457.60</ele>
        <time>2012-11-24T13:49:33Z</time>
      </trkpt>
      <trkpt lat="42.397086000" lon="-2.456546000">
        <ele>457.00</ele>
        <time>2012-11-24T13:49:38Z</time>
      </trkpt>
      <trkpt lat="42.397198000" lon="-2.456471000">
        <ele>456.90</ele>
        <time>2012-11-24T13:49:40Z</time>
      </trkpt>
      <trkpt lat="42.397630000" lon="-2.456344000">
        <ele>456.50</ele>
        <time>2012-11-24T13:49:47Z</time>
      </trkpt>
      <trkpt lat="42.397686000" lon="-2.456306000">
        <ele>456.40</ele>
        <time>2012-11-24T13:49:49Z</time>
      </trkpt>
      <trkpt lat="42.397871000" lon="-2.456114000">
        <ele>456.10</ele>
        <time>2012-11-24T13:49:52Z</time>
      </trkpt>
      <trkpt lat="42.399150000" lon="-2.455581000">
        <ele>456.00</ele>
        <time>2012-11-24T13:50:11Z</time>
      </trkpt>
      <trkpt lat="42.399723000" lon="-2.455131000">
        <ele>455.60</ele>
        <time>2012-11-24T13:50:20Z</time>
      </trkpt>
      <trkpt lat="42.400020000" lon="-2.454853000">
        <ele>454.80</ele>
        <time>2012-11-24T13:50:25Z</time>
      </trkpt>
      <trkpt lat="42.400970000" lon="-2.454274000">
        <ele>452.40</ele>
        <time>2012-11-24T13:50:39Z</time>
      </trkpt>
      <trkpt lat="42.401648000" lon="-2.453546000">
        <ele>451.30</ele>
        <time>2012-11-24T13:50:50Z</time>
      </trkpt>
      <trkpt lat="42.401720000" lon="-2.453493000">
        <ele>451.20</ele>
        <time>2012-11-24T13:50:51Z</time>
      </trkpt>
      <trkpt lat="42.402803000" lon="-2.452398000">
        <ele>448.40</ele>
        <time>2012-11-24T13:51:11Z</time>
      </trkpt>
      <trkpt lat="42.403676000" lon="-2.451709000">
        <ele>448.00</ele>
        <time>2012-11-24T13:51:24Z</time>
      </trkpt>
      <trkpt lat="42.404471000" lon="-2.450759000">
        <ele>447.80</ele>
        <time>2012-11-24T13:51:40Z</time>
      </trkpt>
      <trkpt lat="42.404793000" lon="-2.450224000">
        <ele>447.40</ele>
        <time>2012-11-24T13:51:49Z</time>
      </trkpt>
      <trkpt lat="42.404841000" lon="-2.450169000">
        <ele>447.20</ele>
        <time>2012-11-24T13:51:49Z</time>
      </trkpt>
      <trkpt lat="42.406248000" lon="-2.449214000">
        <ele>445.20</ele>
        <time>2012-11-24T13:52:13Z</time>
      </trkpt>
      <trkpt lat="42.406298000" lon="-2.449166000">
        <ele>445.10</ele>
        <time>2012-11-24T13:52:15Z</time>
      </trkpt>
      <trkpt lat="42.407140000" lon="-2.448329000">
        <ele>442.60</ele>
        <time>2012-11-24T13:52:31Z</time>
      </trkpt>
      <trkpt lat="42.407165000" lon="-2.448258000">
        <ele>442.50</ele>
        <time>2012-11-24T13:52:32Z</time>
      </trkpt>
      <trkpt lat="42.407175000" lon="-2.448178000">
        <ele>442.50</ele>
        <time>2012-11-24T13:52:34Z</time>
      </trkpt>
      <trkpt lat="42.407171000" lon="-2.448093000">
        <ele>442.40</ele>
        <time>2012-11-24T13:52:34Z</time>
      </trkpt>
      <trkpt lat="42.406873000" lon="-2.446564000">
        <ele>441.20</ele>
        <time>2012-11-24T13:52:52Z</time>
      </trkpt>
      <trkpt lat="42.406871000" lon="-2.446476000">
        <ele>441.00</ele>
        <time>2012-11-24T13:52:53Z</time>
      </trkpt>
      <trkpt lat="42.406890000" lon="-2.446391000">
        <ele>440.80</ele>
        <time>2012-11-24T13:52:53Z</time>
      </trkpt>
      <trkpt lat="42.407098000" lon="-2.446029000">
        <ele>440.00</ele>
        <time>2012-11-24T13:52:59Z</time>
      </trkpt>
      <trkpt lat="42.407151000" lon="-2.445889000">
        <ele>440.00</ele>
        <time>2012-11-24T13:53:00Z</time>
      </trkpt>
      <trkpt lat="42.407298000" lon="-2.445311000">
        <ele>439.90</ele>
        <time>2012-11-24T13:53:09Z</time>
      </trkpt>
      <trkpt lat="42.407390000" lon="-2.445064000">
        <ele>439.80</ele>
        <time>2012-11-24T13:53:12Z</time>
      </trkpt>
      <trkpt lat="42.407431000" lon="-2.444871000">
        <ele>439.70</ele>
        <time>2012-11-24T13:53:16Z</time>
      </trkpt>
      <trkpt lat="42.407448000" lon="-2.444821000">
        <ele>439.70</ele>
        <time>2012-11-24T13:53:18Z</time>
      </trkpt>
      <trkpt lat="42.407903000" lon="-2.443999000">
        <ele>438.50</ele>
        <time>2012-11-24T13:53:30Z</time>
      </trkpt>
      <trkpt lat="42.408013000" lon="-2.443888000">
        <ele>438.20</ele>
        <time>2012-11-24T13:53:32Z</time>
      </trkpt>
      <trkpt lat="42.408538000" lon="-2.443623000">
        <ele>437.10</ele>
        <time>2012-11-24T13:53:42Z</time>
      </trkpt>
      <trkpt lat="42.408548000" lon="-2.443621000">
        <ele>437.00</ele>
        <time>2012-11-24T13:53:42Z</time>
      </trkpt>
      <trkpt lat="42.408551000" lon="-2.443621000">
        <ele>437.00</ele>
        <time>2012-11-24T13:53:44Z</time>
      </trkpt>
      <trkpt lat="42.408555000" lon="-2.443616000">
        <ele>437.00</ele>
        <time>2012-11-24T13:53:46Z</time>
      </trkpt>
      <trkpt lat="42.408558000" lon="-2.443613000">
        <ele>436.90</ele>
        <time>2012-11-24T13:53:47Z</time>
      </trkpt>
      <trkpt lat="42.408570000" lon="-2.443609000">
        <ele>436.90</ele>
        <time>2012-11-24T13:53:54Z</time>
      </trkpt>
      <trkpt lat="42.409530000" lon="-2.443091000">
        <ele>437.60</ele>
        <time>2012-11-24T13:54:17Z</time>
      </trkpt>
      <trkpt lat="42.410403000" lon="-2.442878000">
        <ele>437.10</ele>
        <time>2012-11-24T13:54:29Z</time>
      </trkpt>
      <trkpt lat="42.410473000" lon="-2.442876000">
        <ele>437.10</ele>
        <time>2012-11-24T13:54:31Z</time>
      </trkpt>
      <trkpt lat="42.410743000" lon="-2.442936000">
        <ele>436.70</ele>
        <time>2012-11-24T13:54:34Z</time>
      </trkpt>
      <trkpt lat="42.410918000" lon="-2.443043000">
        <ele>436.60</ele>
        <time>2012-11-24T13:54:38Z</time>
      </trkpt>
      <trkpt lat="42.411121000" lon="-2.443233000">
        <ele>436.70</ele>
        <time>2012-11-24T13:54:41Z</time>
      </trkpt>
      <trkpt lat="42.411178000" lon="-2.443259000">
        <ele>436.80</ele>
        <time>2012-11-24T13:54:43Z</time>
      </trkpt>
      <trkpt lat="42.411470000" lon="-2.443281000">
        <ele>436.70</ele>
        <time>2012-11-24T13:54:48Z</time>
      </trkpt>
      <trkpt lat="42.411586000" lon="-2.443269000">
        <ele>436.50</ele>
        <time>2012-11-24T13:54:50Z</time>
      </trkpt>
      <trkpt lat="42.411756000" lon="-2.443206000">
        <ele>436.30</ele>
        <time>2012-11-24T13:54:52Z</time>
      </trkpt>
      <trkpt lat="42.412076000" lon="-2.443001000">
        <ele>436.00</ele>
        <time>2012-11-24T13:54:59Z</time>
      </trkpt>
      <trkpt lat="42.412130000" lon="-2.442986000">
        <ele>435.90</ele>
        <time>2012-11-24T13:54:59Z</time>
      </trkpt>
      <trkpt lat="42.412185000" lon="-2.442984000">
        <ele>435.90</ele>
        <time>2012-11-24T13:55:00Z</time>
      </trkpt>
      <trkpt lat="42.412238000" lon="-2.442998000">
        <ele>435.80</ele>
        <time>2012-11-24T13:55:02Z</time>
      </trkpt>
      <trkpt lat="42.412455000" lon="-2.443096000">
        <ele>435.60</ele>
        <time>2012-11-24T13:55:06Z</time>
      </trkpt>
      <trkpt lat="42.412515000" lon="-2.443101000">
        <ele>435.50</ele>
        <time>2012-11-24T13:55:06Z</time>
      </trkpt>
      <trkpt lat="42.413740000" lon="-2.442718000">
        <ele>433.80</ele>
        <time>2012-11-24T13:55:27Z</time>
      </trkpt>
      <trkpt lat="42.414463000" lon="-2.442274000">
        <ele>432.70</ele>
        <time>2012-11-24T13:55:39Z</time>
      </trkpt>
      <trkpt lat="42.414520000" lon="-2.442259000">
        <ele>432.70</ele>
        <time>2012-11-24T13:55:41Z</time>
      </trkpt>
      <trkpt lat="42.414636000" lon="-2.442249000">
        <ele>433.00</ele>
        <time>2012-11-24T13:55:42Z</time>
      </trkpt>
      <trkpt lat="42.414755000" lon="-2.442253000">
        <ele>433.00</ele>
        <time>2012-11-24T13:55:44Z</time>
      </trkpt>
      <trkpt lat="42.415581000" lon="-2.442209000">
        <ele>432.10</ele>
        <time>2012-11-24T13:55:58Z</time>
      </trkpt>
      <trkpt lat="42.415756000" lon="-2.442144000">
        <ele>432.30</ele>
        <time>2012-11-24T13:56:01Z</time>
      </trkpt>
      <trkpt lat="42.415811000" lon="-2.442108000">
        <ele>432.30</ele>
        <time>2012-11-24T13:56:03Z</time>
      </trkpt>
      <trkpt lat="42.416050000" lon="-2.441846000">
        <ele>432.40</ele>
        <time>2012-11-24T13:56:07Z</time>
      </trkpt>
      <trkpt lat="42.416160000" lon="-2.441769000">
        <ele>432.40</ele>
        <time>2012-11-24T13:56:10Z</time>
      </trkpt>
      <trkpt lat="42.417646000" lon="-2.441279000">
        <ele>431.40</ele>
        <time>2012-11-24T13:56:33Z</time>
      </trkpt>
      <trkpt lat="42.417881000" lon="-2.441118000">
        <ele>430.70</ele>
        <time>2012-11-24T13:56:38Z</time>
      </trkpt>
      <trkpt lat="42.418636000" lon="-2.440359000">
        <ele>427.00</ele>
        <time>2012-11-24T13:56:52Z</time>
      </trkpt>
      <trkpt lat="42.418685000" lon="-2.440293000">
        <ele>427.00</ele>
        <time>2012-11-24T13:56:52Z</time>
      </trkpt>
      <trkpt lat="42.418918000" lon="-2.439974000">
        <ele>426.70</ele>
        <time>2012-11-24T13:56:57Z</time>
      </trkpt>
      <trkpt lat="42.418978000" lon="-2.439931000">
        <ele>426.80</ele>
        <time>2012-11-24T13:56:59Z</time>
      </trkpt>
      <trkpt lat="42.419286000" lon="-2.439838000">
        <ele>427.20</ele>
        <time>2012-11-24T13:57:04Z</time>
      </trkpt>
      <trkpt lat="42.419633000" lon="-2.439653000">
        <ele>427.80</ele>
        <time>2012-11-24T13:57:09Z</time>
      </trkpt>
      <trkpt lat="42.422953000" lon="-2.438761000">
        <ele>425.10</ele>
        <time>2012-11-24T13:58:03Z</time>
      </trkpt>
      <trkpt lat="42.423016000" lon="-2.438756000">
        <ele>425.00</ele>
        <time>2012-11-24T13:58:05Z</time>
      </trkpt>
      <trkpt lat="42.424111000" lon="-2.438983000">
        <ele>423.30</ele>
        <time>2012-11-24T13:58:21Z</time>
      </trkpt>
      <trkpt lat="42.424348000" lon="-2.439128000">
        <ele>422.70</ele>
        <time>2012-11-24T13:58:26Z</time>
      </trkpt>
      <trkpt lat="42.424840000" lon="-2.439566000">
        <ele>422.20</ele>
        <time>2012-11-24T13:58:35Z</time>
      </trkpt>
      <trkpt lat="42.424900000" lon="-2.439598000">
        <ele>422.30</ele>
        <time>2012-11-24T13:58:35Z</time>
      </trkpt>
      <trkpt lat="42.425215000" lon="-2.439666000">
        <ele>422.70</ele>
        <time>2012-11-24T13:58:40Z</time>
      </trkpt>
      <trkpt lat="42.425840000" lon="-2.440028000">
        <ele>423.20</ele>
        <time>2012-11-24T13:58:52Z</time>
      </trkpt>
      <trkpt lat="42.426068000" lon="-2.440064000">
        <ele>423.30</ele>
        <time>2012-11-24T13:58:56Z</time>
      </trkpt>
      <trkpt lat="42.426178000" lon="-2.440049000">
        <ele>423.40</ele>
        <time>2012-11-24T13:58:57Z</time>
      </trkpt>
      <trkpt lat="42.426393000" lon="-2.440083000">
        <ele>423.40</ele>
        <time>2012-11-24T13:59:01Z</time>
      </trkpt>
      <trkpt lat="42.426556000" lon="-2.440066000">
        <ele>423.10</ele>
        <time>2012-11-24T13:59:04Z</time>
      </trkpt>
      <trkpt lat="42.426665000" lon="-2.440031000">
        <ele>422.90</ele>
        <time>2012-11-24T13:59:06Z</time>
      </trkpt>
      <trkpt lat="42.426720000" lon="-2.440028000">
        <ele>422.80</ele>
        <time>2012-11-24T13:59:08Z</time>
      </trkpt>
      <trkpt lat="42.426773000" lon="-2.440041000">
        <ele>422.70</ele>
        <time>2012-11-24T13:59:08Z</time>
      </trkpt>
      <trkpt lat="42.427535000" lon="-2.440464000">
        <ele>421.80</ele>
        <time>2012-11-24T13:59:24Z</time>
      </trkpt>
      <trkpt lat="42.427708000" lon="-2.440504000">
        <ele>421.60</ele>
        <time>2012-11-24T13:59:27Z</time>
      </trkpt>
      <trkpt lat="42.427828000" lon="-2.440503000">
        <ele>421.60</ele>
        <time>2012-11-24T13:59:29Z</time>
      </trkpt>
      <trkpt lat="42.428011000" lon="-2.440523000">
        <ele>421.30</ele>
        <time>2012-11-24T13:59:32Z</time>
      </trkpt>
      <trkpt lat="42.428958000" lon="-2.441059000">
        <ele>416.80</ele>
        <time>2012-11-24T13:59:46Z</time>
      </trkpt>
      <trkpt lat="42.429420000" lon="-2.441123000">
        <ele>416.20</ele>
        <time>2012-11-24T13:59:53Z</time>
      </trkpt>
      <trkpt lat="42.430315000" lon="-2.441563000">
        <ele>415.20</ele>
        <time>2012-11-24T14:00:07Z</time>
      </trkpt>
      <trkpt lat="42.430375000" lon="-2.441606000">
        <ele>415.20</ele>
        <time>2012-11-24T14:00:09Z</time>
      </trkpt>
      <trkpt lat="42.431415000" lon="-2.442396000">
        <ele>415.00</ele>
        <time>2012-11-24T14:00:28Z</time>
      </trkpt>
      <trkpt lat="42.432626000" lon="-2.443078000">
        <ele>414.60</ele>
        <time>2012-11-24T14:00:49Z</time>
      </trkpt>
      <trkpt lat="42.432800000" lon="-2.443126000">
        <ele>414.60</ele>
        <time>2012-11-24T14:00:52Z</time>
      </trkpt>
      <trkpt lat="42.432860000" lon="-2.443128000">
        <ele>414.60</ele>
        <time>2012-11-24T14:00:52Z</time>
      </trkpt>
      <trkpt lat="42.432918000" lon="-2.443121000">
        <ele>414.50</ele>
        <time>2012-11-24T14:00:54Z</time>
      </trkpt>
      <trkpt lat="42.433031000" lon="-2.443074000">
        <ele>414.30</ele>
        <time>2012-11-24T14:00:56Z</time>
      </trkpt>
      <trkpt lat="42.433130000" lon="-2.442991000">
        <ele>414.00</ele>
        <time>2012-11-24T14:00:58Z</time>
      </trkpt>
      <trkpt lat="42.433251000" lon="-2.442849000">
        <ele>413.60</ele>
        <time>2012-11-24T14:01:01Z</time>
      </trkpt>
      <trkpt lat="42.433293000" lon="-2.442814000">
        <ele>413.50</ele>
        <time>2012-11-24T14:01:01Z</time>
      </trkpt>
      <trkpt lat="42.433380000" lon="-2.442774000">
        <ele>413.40</ele>
        <time>2012-11-24T14:01:03Z</time>
      </trkpt>
      <trkpt lat="42.433470000" lon="-2.442759000">
        <ele>413.30</ele>
        <time>2012-11-24T14:01:06Z</time>
      </trkpt>
      <trkpt lat="42.434185000" lon="-2.442906000">
        <ele>412.50</ele>
        <time>2012-11-24T14:01:20Z</time>
      </trkpt>
      <trkpt lat="42.434235000" lon="-2.442933000">
        <ele>412.50</ele>
        <time>2012-11-24T14:01:22Z</time>
      </trkpt>
      <trkpt lat="42.434333000" lon="-2.443019000">
        <ele>412.40</ele>
        <time>2012-11-24T14:01:24Z</time>
      </trkpt>
      <trkpt lat="42.434376000" lon="-2.443079000">
        <ele>412.40</ele>
        <time>2012-11-24T14:01:24Z</time>
      </trkpt>
      <trkpt lat="42.434413000" lon="-2.443154000">
        <ele>412.40</ele>
        <time>2012-11-24T14:01:25Z</time>
      </trkpt>
      <trkpt lat="42.434438000" lon="-2.443241000">
        <ele>412.40</ele>
        <time>2012-11-24T14:01:27Z</time>
      </trkpt>
      <trkpt lat="42.434475000" lon="-2.443531000">
        <ele>412.60</ele>
        <time>2012-11-24T14:01:29Z</time>
      </trkpt>
      <trkpt lat="42.434505000" lon="-2.443623000">
        <ele>412.70</ele>
        <time>2012-11-24T14:01:31Z</time>
      </trkpt>
      <trkpt lat="42.434593000" lon="-2.443771000">
        <ele>412.80</ele>
        <time>2012-11-24T14:01:32Z</time>
      </trkpt>
      <trkpt lat="42.434816000" lon="-2.444011000">
        <ele>412.40</ele>
        <time>2012-11-24T14:01:36Z</time>
      </trkpt>
      <trkpt lat="42.435135000" lon="-2.444226000">
        <ele>411.90</ele>
        <time>2012-11-24T14:01:41Z</time>
      </trkpt>
      <trkpt lat="42.435641000" lon="-2.444396000">
        <ele>411.20</ele>
        <time>2012-11-24T14:01:50Z</time>
      </trkpt>
      <trkpt lat="42.436595000" lon="-2.445376000">
        <ele>411.10</ele>
        <time>2012-11-24T14:02:09Z</time>
      </trkpt>
      <trkpt lat="42.436700000" lon="-2.445519000">
        <ele>411.50</ele>
        <time>2012-11-24T14:02:12Z</time>
      </trkpt>
      <trkpt lat="42.436741000" lon="-2.445544000">
        <ele>411.60</ele>
        <time>2012-11-24T14:02:14Z</time>
      </trkpt>
      <trkpt lat="42.436783000" lon="-2.445544000">
        <ele>411.60</ele>
        <time>2012-11-24T14:02:14Z</time>
      </trkpt>
      <trkpt lat="42.439468000" lon="-2.444603000">
        <ele>406.60</ele>
        <time>2012-11-24T14:03:03Z</time>
      </trkpt>
      <trkpt lat="42.439530000" lon="-2.444593000">
        <ele>406.50</ele>
        <time>2012-11-24T14:03:03Z</time>
      </trkpt>
      <trkpt lat="42.441055000" lon="-2.444523000">
        <ele>404.90</ele>
        <time>2012-11-24T14:03:29Z</time>
      </trkpt>
      <trkpt lat="42.441236000" lon="-2.444509000">
        <ele>404.90</ele>
        <time>2012-11-24T14:03:31Z</time>
      </trkpt>
      <trkpt lat="42.442736000" lon="-2.443879000">
        <ele>403.00</ele>
        <time>2012-11-24T14:03:59Z</time>
      </trkpt>
      <trkpt lat="42.442856000" lon="-2.443871000">
        <ele>403.40</ele>
        <time>2012-11-24T14:04:00Z</time>
      </trkpt>
      <trkpt lat="42.443268000" lon="-2.443966000">
        <ele>403.20</ele>
        <time>2012-11-24T14:04:07Z</time>
      </trkpt>
      <trkpt lat="42.443330000" lon="-2.443966000">
        <ele>403.10</ele>
        <time>2012-11-24T14:04:09Z</time>
      </trkpt>
      <trkpt lat="42.444155000" lon="-2.443969000">
        <ele>401.60</ele>
        <time>2012-11-24T14:04:23Z</time>
      </trkpt>
      <trkpt lat="42.446016000" lon="-2.443728000">
        <ele>401.40</ele>
        <time>2012-11-24T14:04:56Z</time>
      </trkpt>
      <trkpt lat="42.446130000" lon="-2.443736000">
        <ele>400.80</ele>
        <time>2012-11-24T14:04:58Z</time>
      </trkpt>
      <trkpt lat="42.446295000" lon="-2.443799000">
        <ele>400.10</ele>
        <time>2012-11-24T14:05:00Z</time>
      </trkpt>
      <trkpt lat="42.447356000" lon="-2.444384000">
        <ele>398.20</ele>
        <time>2012-11-24T14:05:22Z</time>
      </trkpt>
      <trkpt lat="42.447398000" lon="-2.444418000">
        <ele>398.10</ele>
        <time>2012-11-24T14:05:22Z</time>
      </trkpt>
      <trkpt lat="42.447665000" lon="-2.444709000">
        <ele>397.20</ele>
        <time>2012-11-24T14:05:31Z</time>
      </trkpt>
      <trkpt lat="42.448126000" lon="-2.445076000">
        <ele>397.10</ele>
        <time>2012-11-24T14:05:42Z</time>
      </trkpt>
      <trkpt lat="42.448816000" lon="-2.445366000">
        <ele>397.10</ele>
        <time>2012-11-24T14:05:55Z</time>
      </trkpt>
      <trkpt lat="42.449035000" lon="-2.445398000">
        <ele>397.00</ele>
        <time>2012-11-24T14:05:59Z</time>
      </trkpt>
      <trkpt lat="42.449306000" lon="-2.445386000">
        <ele>397.00</ele>
        <time>2012-11-24T14:06:04Z</time>
      </trkpt>
      <trkpt lat="42.449463000" lon="-2.445423000">
        <ele>397.00</ele>
        <time>2012-11-24T14:06:08Z</time>
      </trkpt>
      <trkpt lat="42.449763000" lon="-2.445583000">
        <ele>396.70</ele>
        <time>2012-11-24T14:06:13Z</time>
      </trkpt>
      <trkpt lat="42.449815000" lon="-2.445598000">
        <ele>396.60</ele>
        <time>2012-11-24T14:06:15Z</time>
      </trkpt>
      <trkpt lat="42.450303000" lon="-2.445659000">
        <ele>396.10</ele>
        <time>2012-11-24T14:06:25Z</time>
      </trkpt>
      <trkpt lat="42.450356000" lon="-2.445659000">
        <ele>396.10</ele>
        <time>2012-11-24T14:06:25Z</time>
      </trkpt>
      <trkpt lat="42.450633000" lon="-2.445659000">
        <ele>395.80</ele>
        <time>2012-11-24T14:06:32Z</time>
      </trkpt>
      <trkpt lat="42.452980000" lon="-2.446266000">
        <ele>393.00</ele>
        <time>2012-11-24T14:07:14Z</time>
      </trkpt>
      <trkpt lat="42.453005000" lon="-2.446278000">
        <ele>393.00</ele>
        <time>2012-11-24T14:07:16Z</time>
      </trkpt>
      <trkpt lat="42.453048000" lon="-2.446284000">
        <ele>393.10</ele>
        <time>2012-11-24T14:07:17Z</time>
      </trkpt>
      <trkpt lat="42.453073000" lon="-2.446284000">
        <ele>393.10</ele>
        <time>2012-11-24T14:07:19Z</time>
      </trkpt>
      <trkpt lat="42.453100000" lon="-2.446288000">
        <ele>393.10</ele>
        <time>2012-11-24T14:07:19Z</time>
      </trkpt>
      <trkpt lat="42.453121000" lon="-2.446298000">
        <ele>393.20</ele>
        <time>2012-11-24T14:07:21Z</time>
      </trkpt>
      <trkpt lat="42.453128000" lon="-2.446306000">
        <ele>393.20</ele>
        <time>2012-11-24T14:07:21Z</time>
      </trkpt>
      <trkpt lat="42.453130000" lon="-2.446306000">
        <ele>393.20</ele>
        <time>2012-11-24T14:07:23Z</time>
      </trkpt>
      <trkpt lat="42.453136000" lon="-2.446314000">
        <ele>393.20</ele>
        <time>2012-11-24T14:07:30Z</time>
      </trkpt>
      <trkpt lat="42.453138000" lon="-2.446314000">
        <ele>393.20</ele>
        <time>2012-11-24T14:07:33Z</time>
      </trkpt>
      <trkpt lat="42.453140000" lon="-2.446321000">
        <ele>393.20</ele>
        <time>2012-11-24T14:07:45Z</time>
      </trkpt>
      <trkpt lat="42.453141000" lon="-2.446319000">
        <ele>393.20</ele>
        <time>2012-11-24T14:07:47Z</time>
      </trkpt>
      <trkpt lat="42.453146000" lon="-2.446321000">
        <ele>393.20</ele>
        <time>2012-11-24T14:07:49Z</time>
      </trkpt>
      <trkpt lat="42.453153000" lon="-2.446328000">
        <ele>393.20</ele>
        <time>2012-11-24T14:07:49Z</time>
      </trkpt>
      <trkpt lat="42.453155000" lon="-2.446334000">
        <ele>393.20</ele>
        <time>2012-11-24T14:07:50Z</time>
      </trkpt>
      <trkpt lat="42.453156000" lon="-2.446373000">
        <ele>393.20</ele>
        <time>2012-11-24T14:07:56Z</time>
      </trkpt>
      <trkpt lat="42.453163000" lon="-2.446394000">
        <ele>393.20</ele>
        <time>2012-11-24T14:07:57Z</time>
      </trkpt>
      <trkpt lat="42.453171000" lon="-2.446408000">
        <ele>393.20</ele>
        <time>2012-11-24T14:07:59Z</time>
      </trkpt>
      <trkpt lat="42.453173000" lon="-2.446419000">
        <ele>393.30</ele>
        <time>2012-11-24T14:07:59Z</time>
      </trkpt>
      <trkpt lat="42.453171000" lon="-2.446429000">
        <ele>393.30</ele>
        <time>2012-11-24T14:08:01Z</time>
      </trkpt>
      <trkpt lat="42.453381000" lon="-2.447916000">
        <ele>394.40</ele>
        <time>2012-11-24T14:08:36Z</time>
      </trkpt>
      <trkpt lat="42.453381000" lon="-2.447934000">
        <ele>394.40</ele>
        <time>2012-11-24T14:08:39Z</time>
      </trkpt>
      <trkpt lat="42.453398000" lon="-2.447949000">
        <ele>394.40</ele>
        <time>2012-11-24T14:08:41Z</time>
      </trkpt>
      <trkpt lat="42.453415000" lon="-2.447959000">
        <ele>394.40</ele>
        <time>2012-11-24T14:08:43Z</time>
      </trkpt>
      <trkpt lat="42.453435000" lon="-2.447978000">
        <ele>394.40</ele>
        <time>2012-11-24T14:08:43Z</time>
      </trkpt>
      <trkpt lat="42.453461000" lon="-2.447986000">
        <ele>394.30</ele>
        <time>2012-11-24T14:08:44Z</time>
      </trkpt>
      <trkpt lat="42.453561000" lon="-2.447961000">
        <ele>394.20</ele>
        <time>2012-11-24T14:08:48Z</time>
      </trkpt>
      <trkpt lat="42.453600000" lon="-2.447963000">
        <ele>394.20</ele>
        <time>2012-11-24T14:08:48Z</time>
      </trkpt>
      <trkpt lat="42.453683000" lon="-2.447998000">
        <ele>394.10</ele>
        <time>2012-11-24T14:08:50Z</time>
      </trkpt>
      <trkpt lat="42.453776000" lon="-2.448069000">
        <ele>394.10</ele>
        <time>2012-11-24T14:08:53Z</time>
      </trkpt>
      <trkpt lat="42.453823000" lon="-2.448126000">
        <ele>394.20</ele>
        <time>2012-11-24T14:08:53Z</time>
      </trkpt>
      <trkpt lat="42.453863000" lon="-2.448194000">
        <ele>394.40</ele>
        <time>2012-11-24T14:08:55Z</time>
      </trkpt>
      <trkpt lat="42.453888000" lon="-2.448274000">
        <ele>394.60</ele>
        <time>2012-11-24T14:08:55Z</time>
      </trkpt>
      <trkpt lat="42.453898000" lon="-2.448358000">
        <ele>394.70</ele>
        <time>2012-11-24T14:08:57Z</time>
      </trkpt>
      <trkpt lat="42.453870000" lon="-2.448733000">
        <ele>395.00</ele>
        <time>2012-11-24T14:09:02Z</time>
      </trkpt>
      <trkpt lat="42.453893000" lon="-2.448933000">
        <ele>394.80</ele>
        <time>2012-11-24T14:09:05Z</time>
      </trkpt>
      <trkpt lat="42.453945000" lon="-2.449043000">
        <ele>394.80</ele>
        <time>2012-11-24T14:09:07Z</time>
      </trkpt>
      <trkpt lat="42.453961000" lon="-2.449099000">
        <ele>394.80</ele>
        <time>2012-11-24T14:09:07Z</time>
      </trkpt>
      <trkpt lat="42.454281000" lon="-2.451173000">
        <ele>390.90</ele>
        <time>2012-11-24T14:09:45Z</time>
      </trkpt>
      <trkpt lat="42.454298000" lon="-2.451226000">
        <ele>390.90</ele>
        <time>2012-11-24T14:09:45Z</time>
      </trkpt>
      <trkpt lat="42.454341000" lon="-2.451323000">
        <ele>390.60</ele>
        <time>2012-11-24T14:09:47Z</time>
      </trkpt>
      <trkpt lat="42.454400000" lon="-2.451396000">
        <ele>390.50</ele>
        <time>2012-11-24T14:09:49Z</time>
      </trkpt>
      <trkpt lat="42.454433000" lon="-2.451428000">
        <ele>390.40</ele>
        <time>2012-11-24T14:09:51Z</time>
      </trkpt>
      <trkpt lat="42.454470000" lon="-2.451453000">
        <ele>390.30</ele>
        <time>2012-11-24T14:09:52Z</time>
      </trkpt>
      <trkpt lat="42.454586000" lon="-2.451493000">
        <ele>390.10</ele>
        <time>2012-11-24T14:09:54Z</time>
      </trkpt>
      <trkpt lat="42.454611000" lon="-2.451519000">
        <ele>390.10</ele>
        <time>2012-11-24T14:09:56Z</time>
      </trkpt>
      <trkpt lat="42.454625000" lon="-2.451561000">
        <ele>390.10</ele>
        <time>2012-11-24T14:09:56Z</time>
      </trkpt>
      <trkpt lat="42.454623000" lon="-2.451611000">
        <ele>390.10</ele>
        <time>2012-11-24T14:09:58Z</time>
      </trkpt>
      <trkpt lat="42.454615000" lon="-2.451658000">
        <ele>390.10</ele>
        <time>2012-11-24T14:09:59Z</time>
      </trkpt>
      <trkpt lat="42.454601000" lon="-2.451699000">
        <ele>390.00</ele>
        <time>2012-11-24T14:09:59Z</time>
      </trkpt>
      <trkpt lat="42.454513000" lon="-2.451819000">
        <ele>390.10</ele>
        <time>2012-11-24T14:10:03Z</time>
      </trkpt>
      <trkpt lat="42.454431000" lon="-2.452036000">
        <ele>390.30</ele>
        <time>2012-11-24T14:10:08Z</time>
      </trkpt>
      <trkpt lat="42.454420000" lon="-2.452088000">
        <ele>390.30</ele>
        <time>2012-11-24T14:10:10Z</time>
      </trkpt>
      <trkpt lat="42.454420000" lon="-2.452201000">
        <ele>390.30</ele>
        <time>2012-11-24T14:10:12Z</time>
      </trkpt>
      <trkpt lat="42.454726000" lon="-2.453609000">
        <ele>390.40</ele>
        <time>2012-11-24T14:10:31Z</time>
      </trkpt>
      <trkpt lat="42.454755000" lon="-2.453668000">
        <ele>390.50</ele>
        <time>2012-11-24T14:10:31Z</time>
      </trkpt>
      <trkpt lat="42.454831000" lon="-2.453754000">
        <ele>390.70</ele>
        <time>2012-11-24T14:10:34Z</time>
      </trkpt>
      <trkpt lat="42.455061000" lon="-2.453909000">
        <ele>391.60</ele>
        <time>2012-11-24T14:10:38Z</time>
      </trkpt>
      <trkpt lat="42.455405000" lon="-2.453993000">
        <ele>392.70</ele>
        <time>2012-11-24T14:10:46Z</time>
      </trkpt>
      <trkpt lat="42.455448000" lon="-2.454023000">
        <ele>392.80</ele>
        <time>2012-11-24T14:10:46Z</time>
      </trkpt>
      <trkpt lat="42.455486000" lon="-2.454063000">
        <ele>392.80</ele>
        <time>2012-11-24T14:10:48Z</time>
      </trkpt>
      <trkpt lat="42.455548000" lon="-2.454161000">
        <ele>392.80</ele>
        <time>2012-11-24T14:10:50Z</time>
      </trkpt>
      <trkpt lat="42.455773000" lon="-2.455321000">
        <ele>394.70</ele>
        <time>2012-11-24T14:11:09Z</time>
      </trkpt>
      <trkpt lat="42.455790000" lon="-2.455371000">
        <ele>394.90</ele>
        <time>2012-11-24T14:11:09Z</time>
      </trkpt>
      <trkpt lat="42.455816000" lon="-2.455399000">
        <ele>395.10</ele>
        <time>2012-11-24T14:11:11Z</time>
      </trkpt>
      <trkpt lat="42.455846000" lon="-2.455404000">
        <ele>395.30</ele>
        <time>2012-11-24T14:11:11Z</time>
      </trkpt>
      <trkpt lat="42.456088000" lon="-2.455281000">
        <ele>395.80</ele>
        <time>2012-11-24T14:11:19Z</time>
      </trkpt>
      <trkpt lat="42.456551000" lon="-2.455098000">
        <ele>396.40</ele>
        <time>2012-11-24T14:11:30Z</time>
      </trkpt>
      <trkpt lat="42.456623000" lon="-2.455054000">
        <ele>396.40</ele>
        <time>2012-11-24T14:11:32Z</time>
      </trkpt>
      <trkpt lat="42.456946000" lon="-2.454916000">
        <ele>397.20</ele>
        <time>2012-11-24T14:11:42Z</time>
      </trkpt>
      <trkpt lat="42.456956000" lon="-2.454914000">
        <ele>397.20</ele>
        <time>2012-11-24T14:11:42Z</time>
      </trkpt>
      <trkpt lat="42.456970000" lon="-2.454913000">
        <ele>397.30</ele>
        <time>2012-11-24T14:11:44Z</time>
      </trkpt>
      <trkpt lat="42.456986000" lon="-2.454918000">
        <ele>397.30</ele>
        <time>2012-11-24T14:11:44Z</time>
      </trkpt>
      <trkpt lat="42.457003000" lon="-2.454934000">
        <ele>397.40</ele>
        <time>2012-11-24T14:11:46Z</time>
      </trkpt>
      <trkpt lat="42.457018000" lon="-2.454963000">
        <ele>397.50</ele>
        <time>2012-11-24T14:11:47Z</time>
      </trkpt>
      <trkpt lat="42.457031000" lon="-2.454998000">
        <ele>397.60</ele>
        <time>2012-11-24T14:11:47Z</time>
      </trkpt>
      <trkpt lat="42.457175000" lon="-2.456018000">
        <ele>399.30</ele>
        <time>2012-11-24T14:12:08Z</time>
      </trkpt>
      <trkpt lat="42.457185000" lon="-2.456256000">
        <ele>399.50</ele>
        <time>2012-11-24T14:12:15Z</time>
      </trkpt>
      <trkpt lat="42.457190000" lon="-2.456291000">
        <ele>399.50</ele>
        <time>2012-11-24T14:12:15Z</time>
      </trkpt>
      <trkpt lat="42.457210000" lon="-2.456378000">
        <ele>399.20</ele>
        <time>2012-11-24T14:12:19Z</time>
      </trkpt>
      <trkpt lat="42.457210000" lon="-2.456403000">
        <ele>399.10</ele>
        <time>2012-11-24T14:12:22Z</time>
      </trkpt>
      <trkpt lat="42.457208000" lon="-2.456406000">
        <ele>399.10</ele>
        <time>2012-11-24T14:12:22Z</time>
      </trkpt>
      <trkpt lat="42.457208000" lon="-2.456411000">
        <ele>399.10</ele>
        <time>2012-11-24T14:12:24Z</time>
      </trkpt>
      <trkpt lat="42.457230000" lon="-2.456596000">
        <ele>398.60</ele>
        <time>2012-11-24T14:12:29Z</time>
      </trkpt>
      <trkpt lat="42.457253000" lon="-2.456681000">
        <ele>398.40</ele>
        <time>2012-11-24T14:12:31Z</time>
      </trkpt>
      <trkpt lat="42.457276000" lon="-2.456721000">
        <ele>398.20</ele>
        <time>2012-11-24T14:12:33Z</time>
      </trkpt>
      <trkpt lat="42.457415000" lon="-2.456871000">
        <ele>397.80</ele>
        <time>2012-11-24T14:12:36Z</time>
      </trkpt>
      <trkpt lat="42.457443000" lon="-2.456924000">
        <ele>397.70</ele>
        <time>2012-11-24T14:12:38Z</time>
      </trkpt>
      <trkpt lat="42.457465000" lon="-2.456984000">
        <ele>397.70</ele>
        <time>2012-11-24T14:12:38Z</time>
      </trkpt>
      <trkpt lat="42.457483000" lon="-2.457109000">
        <ele>397.50</ele>
        <time>2012-11-24T14:12:41Z</time>
      </trkpt>
      <trkpt lat="42.457486000" lon="-2.457221000">
        <ele>397.60</ele>
        <time>2012-11-24T14:12:43Z</time>
      </trkpt>
      <trkpt lat="42.457463000" lon="-2.457329000">
        <ele>397.80</ele>
        <time>2012-11-24T14:12:45Z</time>
      </trkpt>
      <trkpt lat="42.457460000" lon="-2.457438000">
        <ele>397.90</ele>
        <time>2012-11-24T14:12:47Z</time>
      </trkpt>
      <trkpt lat="42.457621000" lon="-2.458523000">
        <ele>399.50</ele>
        <time>2012-11-24T14:13:06Z</time>
      </trkpt>
      <trkpt lat="42.457638000" lon="-2.458574000">
        <ele>399.60</ele>
        <time>2012-11-24T14:13:06Z</time>
      </trkpt>
      <trkpt lat="42.457986000" lon="-2.460648000">
        <ele>398.20</ele>
        <time>2012-11-24T14:13:46Z</time>
      </trkpt>
      <trkpt lat="42.457985000" lon="-2.460668000">
        <ele>398.20</ele>
        <time>2012-11-24T14:13:47Z</time>
      </trkpt>
      <trkpt lat="42.457985000" lon="-2.460673000">
        <ele>398.30</ele>
        <time>2012-11-24T14:13:49Z</time>
      </trkpt>
      <trkpt lat="42.457986000" lon="-2.460714000">
        <ele>398.30</ele>
        <time>2012-11-24T14:13:58Z</time>
      </trkpt>
      <trkpt lat="42.457990000" lon="-2.460723000">
        <ele>398.30</ele>
        <time>2012-11-24T14:14:00Z</time>
      </trkpt>
      <trkpt lat="42.457991000" lon="-2.460726000">
        <ele>398.40</ele>
        <time>2012-11-24T14:14:03Z</time>
      </trkpt>
      <trkpt lat="42.458005000" lon="-2.460759000">
        <ele>398.40</ele>
        <time>2012-11-24T14:14:05Z</time>
      </trkpt>
      <trkpt lat="42.458090000" lon="-2.461091000">
        <ele>398.80</ele>
        <time>2012-11-24T14:14:14Z</time>
      </trkpt>
      <trkpt lat="42.458096000" lon="-2.461141000">
        <ele>398.90</ele>
        <time>2012-11-24T14:14:15Z</time>
      </trkpt>
      <trkpt lat="42.458288000" lon="-2.462454000">
        <ele>403.30</ele>
        <time>2012-11-24T14:14:43Z</time>
      </trkpt>
      <trkpt lat="42.458315000" lon="-2.462546000">
        <ele>403.30</ele>
        <time>2012-11-24T14:14:47Z</time>
      </trkpt>
      <trkpt lat="42.458326000" lon="-2.462564000">
        <ele>403.40</ele>
        <time>2012-11-24T14:14:47Z</time>
      </trkpt>
      <trkpt lat="42.458343000" lon="-2.462581000">
        <ele>403.40</ele>
        <time>2012-11-24T14:14:48Z</time>
      </trkpt>
      <trkpt lat="42.458365000" lon="-2.462589000">
        <ele>403.50</ele>
        <time>2012-11-24T14:14:50Z</time>
      </trkpt>
      <trkpt lat="42.458391000" lon="-2.462584000">
        <ele>403.60</ele>
        <time>2012-11-24T14:14:50Z</time>
      </trkpt>
      <trkpt lat="42.458418000" lon="-2.462573000">
        <ele>403.60</ele>
        <time>2012-11-24T14:14:52Z</time>
      </trkpt>
      <trkpt lat="42.458500000" lon="-2.462509000">
        <ele>404.00</ele>
        <time>2012-11-24T14:14:55Z</time>
      </trkpt>
      <trkpt lat="42.458521000" lon="-2.462499000">
        <ele>404.00</ele>
        <time>2012-11-24T14:14:57Z</time>
      </trkpt>
      <trkpt lat="42.458666000" lon="-2.462489000">
        <ele>404.50</ele>
        <time>2012-11-24T14:15:02Z</time>
      </trkpt>
      <trkpt lat="42.458690000" lon="-2.462491000">
        <ele>404.60</ele>
        <time>2012-11-24T14:15:04Z</time>
      </trkpt>
      <trkpt lat="42.458786000" lon="-2.462529000">
        <ele>404.90</ele>
        <time>2012-11-24T14:15:08Z</time>
      </trkpt>
      <trkpt lat="42.458841000" lon="-2.462536000">
        <ele>405.00</ele>
        <time>2012-11-24T14:15:09Z</time>
      </trkpt>
      <trkpt lat="42.458861000" lon="-2.462526000">
        <ele>405.00</ele>
        <time>2012-11-24T14:15:11Z</time>
      </trkpt>
      <trkpt lat="42.458883000" lon="-2.462508000">
        <ele>405.00</ele>
        <time>2012-11-24T14:15:11Z</time>
      </trkpt>
      <trkpt lat="42.459026000" lon="-2.462479000">
        <ele>405.10</ele>
        <time>2012-11-24T14:15:18Z</time>
      </trkpt>
      <trkpt lat="42.459090000" lon="-2.462444000">
        <ele>405.10</ele>
        <time>2012-11-24T14:15:20Z</time>
      </trkpt>
      <trkpt lat="42.459106000" lon="-2.462444000">
        <ele>405.10</ele>
        <time>2012-11-24T14:15:22Z</time>
      </trkpt>
      <trkpt lat="42.459125000" lon="-2.462439000">
        <ele>405.10</ele>
        <time>2012-11-24T14:15:23Z</time>
      </trkpt>
      <trkpt lat="42.459421000" lon="-2.462244000">
        <ele>405.10</ele>
        <time>2012-11-24T14:15:35Z</time>
      </trkpt>
      <trkpt lat="42.459441000" lon="-2.462226000">
        <ele>405.10</ele>
        <time>2012-11-24T14:15:37Z</time>
      </trkpt>
      <trkpt lat="42.459500000" lon="-2.462136000">
        <ele>405.00</ele>
        <time>2012-11-24T14:15:39Z</time>
      </trkpt>
      <trkpt lat="42.459528000" lon="-2.462119000">
        <ele>405.00</ele>
        <time>2012-11-24T14:15:41Z</time>
      </trkpt>
      <trkpt lat="42.459630000" lon="-2.462111000">
        <ele>404.80</ele>
        <time>2012-11-24T14:15:44Z</time>
      </trkpt>
      <trkpt lat="42.459946000" lon="-2.462169000">
        <ele>401.90</ele>
        <time>2012-11-24T14:15:51Z</time>
      </trkpt>
      <trkpt lat="42.460078000" lon="-2.462268000">
        <ele>400.80</ele>
        <time>2012-11-24T14:15:53Z</time>
      </trkpt>
      <trkpt lat="42.460153000" lon="-2.462353000">
        <ele>400.30</ele>
        <time>2012-11-24T14:15:55Z</time>
      </trkpt>
      <trkpt lat="42.460310000" lon="-2.462648000">
        <ele>400.10</ele>
        <time>2012-11-24T14:16:02Z</time>
      </trkpt>
      <trkpt lat="42.460358000" lon="-2.462764000">
        <ele>400.30</ele>
        <time>2012-11-24T14:16:05Z</time>
      </trkpt>
      <trkpt lat="42.460508000" lon="-2.463039000">
        <ele>400.40</ele>
        <time>2012-11-24T14:16:14Z</time>
      </trkpt>
      <trkpt lat="42.460681000" lon="-2.463448000">
        <ele>400.10</ele>
        <time>2012-11-24T14:16:21Z</time>
      </trkpt>
      <trkpt lat="42.460703000" lon="-2.463481000">
        <ele>400.10</ele>
        <time>2012-11-24T14:16:23Z</time>
      </trkpt>
      <trkpt lat="42.460746000" lon="-2.463518000">
        <ele>400.20</ele>
        <time>2012-11-24T14:16:24Z</time>
      </trkpt>
      <trkpt lat="42.460870000" lon="-2.463553000">
        <ele>400.10</ele>
        <time>2012-11-24T14:16:29Z</time>
      </trkpt>
      <trkpt lat="42.460930000" lon="-2.463561000">
        <ele>400.00</ele>
        <time>2012-11-24T14:16:31Z</time>
      </trkpt>
      <trkpt lat="42.460950000" lon="-2.463574000">
        <ele>400.00</ele>
        <time>2012-11-24T14:16:33Z</time>
      </trkpt>
      <trkpt lat="42.460960000" lon="-2.463596000">
        <ele>400.10</ele>
        <time>2012-11-24T14:16:33Z</time>
      </trkpt>
      <trkpt lat="42.460965000" lon="-2.463638000">
        <ele>400.20</ele>
        <time>2012-11-24T14:16:35Z</time>
      </trkpt>
      <trkpt lat="42.460970000" lon="-2.463659000">
        <ele>400.30</ele>
        <time>2012-11-24T14:16:36Z</time>
      </trkpt>
      <trkpt lat="42.460975000" lon="-2.463734000">
        <ele>400.70</ele>
        <time>2012-11-24T14:16:40Z</time>
      </trkpt>
      <trkpt lat="42.460971000" lon="-2.463756000">
        <ele>400.80</ele>
        <time>2012-11-24T14:16:40Z</time>
      </trkpt>
      <trkpt lat="42.460985000" lon="-2.463801000">
        <ele>400.90</ele>
        <time>2012-11-24T14:16:42Z</time>
      </trkpt>
      <trkpt lat="42.460990000" lon="-2.463861000">
        <ele>401.00</ele>
        <time>2012-11-24T14:16:45Z</time>
      </trkpt>
      <trkpt lat="42.460993000" lon="-2.463878000">
        <ele>401.00</ele>
        <time>2012-11-24T14:16:47Z</time>
      </trkpt>
      <trkpt lat="42.461001000" lon="-2.463888000">
        <ele>401.00</ele>
        <time>2012-11-24T14:16:47Z</time>
      </trkpt>
      <trkpt lat="42.461015000" lon="-2.463896000">
        <ele>401.00</ele>
        <time>2012-11-24T14:16:49Z</time>
      </trkpt>
      <trkpt lat="42.461043000" lon="-2.463926000">
        <ele>401.00</ele>
        <time>2012-11-24T14:16:52Z</time>
      </trkpt>
      <trkpt lat="42.461071000" lon="-2.463949000">
        <ele>401.00</ele>
        <time>2012-11-24T14:16:54Z</time>
      </trkpt>
      <trkpt lat="42.461080000" lon="-2.463959000">
        <ele>401.00</ele>
        <time>2012-11-24T14:16:56Z</time>
      </trkpt>
      <trkpt lat="42.461110000" lon="-2.463999000">
        <ele>401.00</ele>
        <time>2012-11-24T14:17:01Z</time>
      </trkpt>
      <trkpt lat="42.461111000" lon="-2.464004000">
        <ele>401.00</ele>
        <time>2012-11-24T14:17:01Z</time>
      </trkpt>
      <trkpt lat="42.461110000" lon="-2.464011000">
        <ele>401.00</ele>
        <time>2012-11-24T14:17:03Z</time>
      </trkpt>
    </trkseg>
  </trk>
</gpx>
